<?xml version='1.0' encoding='UTF-8'?><gpx version="1.1" creator="JPX - https://github.com/jenetics/jpx" xmlns="http://www.topografix.com/GPX/1/1"><trk><trkseg><trkpt lat="44.72833820666077" lon="8.934393562201432"><ele>285.0</ele><time>2026-03-29T09:02:25.001Z</time></trkpt><trkpt lat="44.728248791113074" lon="8.934370552466476"><ele>285.0</ele><time>2026-03-29T09:02:26Z</time></trkpt><trkpt lat="44.728162072856264" lon="8.934308077781067"><ele>285.0</ele><time>2026-03-29T09:02:27Z</time></trkpt><trkpt lat="44.72808209775396" lon="8.934189980740546"><ele>285.0</ele><time>2026-03-29T09:02:28Z</time></trkpt><trkpt lat="44.728015658888374" lon="8.934052097669323"><ele>285.0</ele><time>2026-03-29T09:02:29Z</time></trkpt><trkpt lat="44.727941221395874" lon="8.933877302715127"><ele>284.75</ele><time>2026-03-29T09:02:30Z</time></trkpt><trkpt lat="44.7278584642583" lon="8.933733476594995"><ele>284.5</ele><time>2026-03-29T09:02:31Z</time></trkpt><trkpt lat="44.72776831018331" lon="8.933554069043174"><ele>284.25</ele><time>2026-03-29T09:02:32Z</time></trkpt><trkpt lat="44.72768055827351" lon="8.933376736348688"><ele>284.0</ele><time>2026-03-29T09:02:33Z</time></trkpt><trkpt lat="44.72758395178019" lon="8.933178751116781"><ele>282.6666666666667</ele><time>2026-03-29T09:02:34Z</time></trkpt><trkpt lat="44.72749054502772" lon="8.932943952496583"><ele>281.3333333333333</ele><time>2026-03-29T09:02:35Z</time></trkpt><trkpt lat="44.72740430411891" lon="8.932686147777567"><ele>280.0</ele><time>2026-03-29T09:02:36Z</time></trkpt><trkpt lat="44.72732924446601" lon="8.932431687380877"><ele>279.66666666666663</ele><time>2026-03-29T09:02:37Z</time></trkpt><trkpt lat="44.727280729970644" lon="8.93220614370201"><ele>279.3333333333333</ele><time>2026-03-29T09:02:38Z</time></trkpt><trkpt lat="44.72723756497049" lon="8.931992545968674"><ele>279.0</ele><time>2026-03-29T09:02:39Z</time></trkpt><trkpt lat="44.727196458558346" lon="8.931747199901155"><ele>279.0</ele><time>2026-03-29T09:02:40Z</time></trkpt><trkpt lat="44.72716081442371" lon="8.93150045929508"><ele>279.0</ele><time>2026-03-29T09:02:41Z</time></trkpt><trkpt lat="44.72712174808712" lon="8.931273164930609"><ele>279.0</ele><time>2026-03-29T09:02:42Z</time></trkpt><trkpt lat="44.727069414375975" lon="8.931069955676998"><ele>278.6666666666667</ele><time>2026-03-29T09:02:43Z</time></trkpt><trkpt lat="44.72700763563034" lon="8.93086631180822"><ele>278.33333333333337</ele><time>2026-03-29T09:02:44Z</time></trkpt><trkpt lat="44.72692255772323" lon="8.930621399105375"><ele>278.0</ele><time>2026-03-29T09:02:45Z</time></trkpt><trkpt lat="44.72684889834283" lon="8.930448444393397"><ele>276.5</ele><time>2026-03-29T09:02:46Z</time></trkpt><trkpt lat="44.72675732626216" lon="8.930268497007194"><ele>275.0</ele><time>2026-03-29T09:02:47Z</time></trkpt><trkpt lat="44.726679957375" lon="8.930096479384622"><ele>273.5</ele><time>2026-03-29T09:02:48Z</time></trkpt><trkpt lat="44.72661829866085" lon="8.929936301658161"><ele>272.0</ele><time>2026-03-29T09:02:49Z</time></trkpt><trkpt lat="44.72654773235266" lon="8.929801443979411"><ele>272.0</ele><time>2026-03-29T09:02:50Z</time></trkpt><trkpt lat="44.726484279599916" lon="8.929663214509494"><ele>272.0</ele><time>2026-03-29T09:02:51Z</time></trkpt><trkpt lat="44.726424994803146" lon="8.929553001477405"><ele>272.0</ele><time>2026-03-29T09:02:52Z</time></trkpt><trkpt lat="44.726393303613506" lon="8.929399902229454"><ele>272.0</ele><time>2026-03-29T09:02:53Z</time></trkpt><trkpt lat="44.72636682310855" lon="8.929239287857609"><ele>272.0</ele><time>2026-03-29T09:02:54Z</time></trkpt><trkpt lat="44.72628707116096" lon="8.929092213616803"><ele>271.25</ele><time>2026-03-29T09:02:55Z</time></trkpt><trkpt lat="44.7261832112529" lon="8.928965107276206"><ele>270.5</ele><time>2026-03-29T09:02:56Z</time></trkpt><trkpt lat="44.726116003361504" lon="8.928822643382794"><ele>269.75</ele><time>2026-03-29T09:02:57Z</time></trkpt><trkpt lat="44.72607343138397" lon="8.928652949237083"><ele>269.0</ele><time>2026-03-29T09:02:58Z</time></trkpt><trkpt lat="44.726078978767944" lon="8.928487591935264"><ele>267.75</ele><time>2026-03-29T09:02:59Z</time></trkpt><trkpt lat="44.726128512372235" lon="8.928339652219746"><ele>266.5</ele><time>2026-03-29T09:03:00Z</time></trkpt><trkpt lat="44.72616114342588" lon="8.928154952205922"><ele>265.25</ele><time>2026-03-29T09:03:01Z</time></trkpt><trkpt lat="44.72621543271399" lon="8.927955458300048"><ele>264.0</ele><time>2026-03-29T09:03:02Z</time></trkpt><trkpt lat="44.72629282175749" lon="8.927750312282157"><ele>262.3333333333333</ele><time>2026-03-29T09:03:03Z</time></trkpt><trkpt lat="44.726370422367836" lon="8.927559700228135"><ele>260.66666666666663</ele><time>2026-03-29T09:03:04Z</time></trkpt><trkpt lat="44.726526279881305" lon="8.927469316314209"><ele>259.0</ele><time>2026-03-29T09:03:05Z</time></trkpt><trkpt lat="44.72664403226086" lon="8.927316794220648"><ele>259.0</ele><time>2026-03-29T09:03:06Z</time></trkpt><trkpt lat="44.726769785065514" lon="8.927164275916006"><ele>259.0</ele><time>2026-03-29T09:03:07Z</time></trkpt><trkpt lat="44.72691118368571" lon="8.926987141204838"><ele>259.0</ele><time>2026-03-29T09:03:08Z</time></trkpt><trkpt lat="44.727043006687836" lon="8.92681002042978"><ele>256.0</ele><time>2026-03-29T09:03:09Z</time></trkpt><trkpt lat="44.72719321635775" lon="8.92660978829933"><ele>253.0</ele><time>2026-03-29T09:03:10Z</time></trkpt><trkpt lat="44.72738749038388" lon="8.926357918210721"><ele>253.0</ele><time>2026-03-29T09:03:11Z</time></trkpt><trkpt lat="44.72754340874317" lon="8.926149716975337"><ele>253.0</ele><time>2026-03-29T09:03:12Z</time></trkpt><trkpt lat="44.72767599773052" lon="8.92595798093818"><ele>253.0</ele><time>2026-03-29T09:03:13Z</time></trkpt><trkpt lat="44.72783745480222" lon="8.92573462827677"><ele>253.25</ele><time>2026-03-29T09:03:14Z</time></trkpt><trkpt lat="44.72794500191187" lon="8.925610646610942"><ele>253.5</ele><time>2026-03-29T09:03:15Z</time></trkpt><trkpt lat="44.72800617633755" lon="8.925457997004626"><ele>253.75</ele><time>2026-03-29T09:03:16Z</time></trkpt><trkpt lat="44.72809673247928" lon="8.92534622256707"><ele>254.0</ele><time>2026-03-29T09:03:17Z</time></trkpt><trkpt lat="44.72818713517874" lon="8.925201806919423"><ele>254.33333333333334</ele><time>2026-03-29T09:03:18Z</time></trkpt><trkpt lat="44.72828399699351" lon="8.92501015356125"><ele>254.66666666666669</ele><time>2026-03-29T09:03:19Z</time></trkpt><trkpt lat="44.728334783931686" lon="8.924780253675964"><ele>255.0</ele><time>2026-03-29T09:03:20Z</time></trkpt><trkpt lat="44.72842237547247" lon="8.924514711531613"><ele>255.0</ele><time>2026-03-29T09:03:21Z</time></trkpt><trkpt lat="44.728494863171555" lon="8.924241491839638"><ele>255.0</ele><time>2026-03-29T09:03:22Z</time></trkpt><trkpt lat="44.72856091893921" lon="8.924001279382493"><ele>255.0</ele><time>2026-03-29T09:03:23Z</time></trkpt><trkpt lat="44.72862093856194" lon="8.923788687256495"><ele>255.75</ele><time>2026-03-29T09:03:24Z</time></trkpt><trkpt lat="44.72867488781257" lon="8.923597596581597"><ele>256.5</ele><time>2026-03-29T09:03:25Z</time></trkpt><trkpt lat="44.72873053992893" lon="8.92340343905083"><ele>257.25</ele><time>2026-03-29T09:03:26Z</time></trkpt><trkpt lat="44.72876742260214" lon="8.923209694462654"><ele>258.0</ele><time>2026-03-29T09:03:27Z</time></trkpt><trkpt lat="44.72883013821101" lon="8.92305387740822"><ele>258.0</ele><time>2026-03-29T09:03:28Z</time></trkpt><trkpt lat="44.72885938265934" lon="8.922940140678445"><ele>258.0</ele><time>2026-03-29T09:03:29Z</time></trkpt><trkpt lat="44.72891878582925" lon="8.922880096140583"><ele>258.0</ele><time>2026-03-29T09:03:30Z</time></trkpt><trkpt lat="44.72904069928156" lon="8.92281074913605"><ele>258.0</ele><time>2026-03-29T09:03:31Z</time></trkpt><trkpt lat="44.729135063619495" lon="8.922696954941154"><ele>258.0</ele><time>2026-03-29T09:03:32Z</time></trkpt><trkpt lat="44.72922707639747" lon="8.922530130246612"><ele>257.6666666666667</ele><time>2026-03-29T09:03:33Z</time></trkpt><trkpt lat="44.72936715862275" lon="8.922286709977604"><ele>257.33333333333337</ele><time>2026-03-29T09:03:34Z</time></trkpt><trkpt lat="44.72949500543183" lon="8.922063493051835"><ele>257.0</ele><time>2026-03-29T09:03:35Z</time></trkpt><trkpt lat="44.729613509512575" lon="8.921893544331741"><ele>260.2</ele><time>2026-03-29T09:03:36Z</time></trkpt><trkpt lat="44.72972117262411" lon="8.921792466629308"><ele>263.4</ele><time>2026-03-29T09:03:37.001Z</time></trkpt><trkpt lat="44.72982821968941" lon="8.921714995966767"><ele>266.6</ele><time>2026-03-29T09:03:38.001Z</time></trkpt><trkpt lat="44.72989064309365" lon="8.921678255074115"><ele>269.8</ele><time>2026-03-29T09:03:40.001Z</time></trkpt><trkpt lat="44.73001114878306" lon="8.92161483491702"><ele>273.0</ele><time>2026-03-29T09:03:42.001Z</time></trkpt><trkpt lat="44.73007835608281" lon="8.921591503859906"><ele>273.0</ele><time>2026-03-29T09:03:43.001Z</time></trkpt><trkpt lat="44.73014876056613" lon="8.921625858587205"><ele>273.0</ele><time>2026-03-29T09:03:45.001Z</time></trkpt><trkpt lat="44.73007836893339" lon="8.921590329574466"><ele>273.0</ele><time>2026-03-29T09:03:47.001Z</time></trkpt><trkpt lat="44.729978130845524" lon="8.921797011905323"><ele>273.0</ele><time>2026-03-29T09:03:48.001Z</time></trkpt><trkpt lat="44.729927802712595" lon="8.921932810142053"><ele>273.0</ele><time>2026-03-29T09:03:50.001Z</time></trkpt><trkpt lat="44.730022186905394" lon="8.921988635136978"><ele>273.0</ele><time>2026-03-29T09:03:52.001Z</time></trkpt><trkpt lat="44.7300892792645" lon="8.921989967443054"><ele>273.0</ele><time>2026-03-29T09:03:53.001Z</time></trkpt><trkpt lat="44.73016891074376" lon="8.922007654315907"><ele>273.0</ele><time>2026-03-29T09:03:54.001Z</time></trkpt><trkpt lat="44.730273491731175" lon="8.922068441515707"><ele>273.0</ele><time>2026-03-29T09:03:55.001Z</time></trkpt><trkpt lat="44.730373041306095" lon="8.92211652205793"><ele>273.0</ele><time>2026-03-29T09:03:56.001Z</time></trkpt><trkpt lat="44.73047458203273" lon="8.922159586501413"><ele>280.2</ele><time>2026-03-29T09:03:57.001Z</time></trkpt><trkpt lat="44.73056990876178" lon="8.92220615489636"><ele>287.4</ele><time>2026-03-29T09:03:58.001Z</time></trkpt><trkpt lat="44.73066490274005" lon="8.922257871376491"><ele>294.59999999999997</ele><time>2026-03-29T09:03:59.001Z</time></trkpt><trkpt lat="44.730740606599724" lon="8.922297738477761"><ele>301.8</ele><time>2026-03-29T09:04:00.001Z</time></trkpt><trkpt lat="44.730804919048516" lon="8.922365586667718"><ele>309.0</ele><time>2026-03-29T09:04:02.001Z</time></trkpt><trkpt lat="44.73089873639768" lon="8.922521104361314"><ele>309.0</ele><time>2026-03-29T09:04:04.001Z</time></trkpt><trkpt lat="44.73095334191309" lon="8.922593275300919"><ele>309.0</ele><time>2026-03-29T09:04:05.001Z</time></trkpt><trkpt lat="44.73102837790884" lon="8.92266023552184"><ele>309.0</ele><time>2026-03-29T09:04:06.001Z</time></trkpt><trkpt lat="44.731091039959686" lon="8.922688611521776"><ele>309.0</ele><time>2026-03-29T09:04:08.001Z</time></trkpt><trkpt lat="44.73112842379437" lon="8.922606827998123"><ele>309.0</ele><time>2026-03-29T09:04:10.001Z</time></trkpt><trkpt lat="44.73107892071961" lon="8.922483492724378"><ele>309.0</ele><time>2026-03-29T09:04:12.001Z</time></trkpt><trkpt lat="44.730983975243646" lon="8.922333196829383"><ele>309.0</ele><time>2026-03-29T09:04:14.001Z</time></trkpt><trkpt lat="44.730912477177675" lon="8.922192655968034"><ele>309.0</ele><time>2026-03-29T09:04:15.001Z</time></trkpt><trkpt lat="44.73084958414832" lon="8.922038812251833"><ele>309.0</ele><time>2026-03-29T09:04:16.001Z</time></trkpt><trkpt lat="44.7308400143268" lon="8.921927289712292"><ele>309.0</ele><time>2026-03-29T09:04:17.001Z</time></trkpt><trkpt lat="44.73092323399495" lon="8.921924931221994"><ele>309.0</ele><time>2026-03-29T09:04:20.001Z</time></trkpt><trkpt lat="44.73098934764795" lon="8.921994692701235"><ele>315.0</ele><time>2026-03-29T09:04:21.001Z</time></trkpt><trkpt lat="44.731059677148224" lon="8.922058797073095"><ele>321.0</ele><time>2026-03-29T09:04:22.001Z</time></trkpt><trkpt lat="44.731153065102404" lon="8.922144916828612"><ele>327.0</ele><time>2026-03-29T09:04:23.001Z</time></trkpt><trkpt lat="44.73124865777185" lon="8.922202137938507"><ele>333.0</ele><time>2026-03-29T09:04:24.001Z</time></trkpt><trkpt lat="44.73133301765815" lon="8.922265643838523"><ele>339.0</ele><time>2026-03-29T09:04:25.001Z</time></trkpt><trkpt lat="44.73141373478902" lon="8.922327223012116"><ele>339.0</ele><time>2026-03-29T09:04:26.001Z</time></trkpt><trkpt lat="44.73149945446645" lon="8.922370955406617"><ele>339.0</ele><time>2026-03-29T09:04:27.001Z</time></trkpt><trkpt lat="44.731595299500434" lon="8.922354072496105"><ele>339.0</ele><time>2026-03-29T09:04:28.001Z</time></trkpt><trkpt lat="44.73168772841526" lon="8.922337479657298"><ele>339.0</ele><time>2026-03-29T09:04:29.001Z</time></trkpt><trkpt lat="44.73178594447453" lon="8.922302263897214"><ele>339.0</ele><time>2026-03-29T09:04:30.001Z</time></trkpt><trkpt lat="44.731901898314234" lon="8.922248721299058"><ele>341.6</ele><time>2026-03-29T09:04:31.001Z</time></trkpt><trkpt lat="44.73199996945547" lon="8.92220204850975"><ele>344.2</ele><time>2026-03-29T09:04:32Z</time></trkpt><trkpt lat="44.73208314689072" lon="8.92219535258781"><ele>346.8</ele><time>2026-03-29T09:04:33Z</time></trkpt><trkpt lat="44.732206373440306" lon="8.922235161735514"><ele>349.40000000000003</ele><time>2026-03-29T09:04:35Z</time></trkpt><trkpt lat="44.732322412791866" lon="8.922234922894413"><ele>352.0</ele><time>2026-03-29T09:04:36Z</time></trkpt><trkpt lat="44.73241684622048" lon="8.922254854332431"><ele>352.0</ele><time>2026-03-29T09:04:37Z</time></trkpt><trkpt lat="44.73247944908541" lon="8.92226844037506"><ele>352.0</ele><time>2026-03-29T09:04:38Z</time></trkpt><trkpt lat="44.73259905751302" lon="8.922290973619656"><ele>352.0</ele><time>2026-03-29T09:04:40Z</time></trkpt><trkpt lat="44.73269518832249" lon="8.92231134354758"><ele>352.0</ele><time>2026-03-29T09:04:41Z</time></trkpt><trkpt lat="44.732775886561875" lon="8.922344666338939"><ele>352.0</ele><time>2026-03-29T09:04:42Z</time></trkpt><trkpt lat="44.73285894567349" lon="8.922369411468601"><ele>356.40000000000003</ele><time>2026-03-29T09:04:43Z</time></trkpt><trkpt lat="44.73293706606857" lon="8.922353556716148"><ele>360.8</ele><time>2026-03-29T09:04:44Z</time></trkpt><trkpt lat="44.73303744335708" lon="8.922327745288975"><ele>365.2</ele><time>2026-03-29T09:04:45Z</time></trkpt><trkpt lat="44.73310498324227" lon="8.92231037781101"><ele>369.6</ele><time>2026-03-29T09:04:46Z</time></trkpt><trkpt lat="44.7330615190021" lon="8.922157094320394"><ele>374.0</ele><time>2026-03-29T09:04:47Z</time></trkpt><trkpt lat="44.73326547411938" lon="8.922344998200206"><ele>374.0</ele><time>2026-03-29T09:04:48Z</time></trkpt><trkpt lat="44.733398067992596" lon="8.922388222133467"><ele>374.0</ele><time>2026-03-29T09:04:49Z</time></trkpt><trkpt lat="44.73355222874988" lon="8.922428712440118"><ele>374.0</ele><time>2026-03-29T09:04:50Z</time></trkpt><trkpt lat="44.73366067296671" lon="8.92241211659457"><ele>374.0</ele><time>2026-03-29T09:04:51Z</time></trkpt><trkpt lat="44.73376289840426" lon="8.922416786730656"><ele>376.79999999999995</ele><time>2026-03-29T09:04:52Z</time></trkpt><trkpt lat="44.73387079345304" lon="8.922411108478046"><ele>379.59999999999997</ele><time>2026-03-29T09:04:53Z</time></trkpt><trkpt lat="44.73396539598663" lon="8.922408146851646"><ele>382.4</ele><time>2026-03-29T09:04:54Z</time></trkpt><trkpt lat="44.7340551648192" lon="8.92241208757706"><ele>385.2</ele><time>2026-03-29T09:04:55Z</time></trkpt><trkpt lat="44.73418341177676" lon="8.92236619154209"><ele>388.0</ele><time>2026-03-29T09:04:57Z</time></trkpt><trkpt lat="44.73426166881804" lon="8.922339650786286"><ele>388.0</ele><time>2026-03-29T09:04:58Z</time></trkpt><trkpt lat="44.73436526412025" lon="8.922354098608501"><ele>388.0</ele><time>2026-03-29T09:04:59Z</time></trkpt><trkpt lat="44.73444695441105" lon="8.922313257471172"><ele>388.0</ele><time>2026-03-29T09:05:00Z</time></trkpt><trkpt lat="44.734516016334446" lon="8.922266110038862"><ele>388.0</ele><time>2026-03-29T09:05:01Z</time></trkpt><trkpt lat="44.73461263954417" lon="8.922223376979984"><ele>388.0</ele><time>2026-03-29T09:05:02Z</time></trkpt><trkpt lat="44.734703597464566" lon="8.922222058876846"><ele>389.25</ele><time>2026-03-29T09:05:03Z</time></trkpt><trkpt lat="44.7348266289934" lon="8.922226272572235"><ele>390.5</ele><time>2026-03-29T09:05:04Z</time></trkpt><trkpt lat="44.73494377550046" lon="8.922192504586338"><ele>391.75</ele><time>2026-03-29T09:05:05Z</time></trkpt><trkpt lat="44.73508120663748" lon="8.92220143212246"><ele>393.0</ele><time>2026-03-29T09:05:06Z</time></trkpt><trkpt lat="44.73522218890103" lon="8.922185674227363"><ele>396.0</ele><time>2026-03-29T09:05:07Z</time></trkpt><trkpt lat="44.73534018624959" lon="8.922160840636579"><ele>399.0</ele><time>2026-03-29T09:05:09Z</time></trkpt><trkpt lat="44.735432622593216" lon="8.922154799755894"><ele>402.0</ele><time>2026-03-29T09:05:10Z</time></trkpt><trkpt lat="44.73551041145422" lon="8.922066098463493"><ele>405.0</ele><time>2026-03-29T09:05:11Z</time></trkpt><trkpt lat="44.73563699450433" lon="8.92205658242402"><ele>408.0</ele><time>2026-03-29T09:05:12Z</time></trkpt><trkpt lat="44.73575383570951" lon="8.92201900143332"><ele>408.0</ele><time>2026-03-29T09:05:13Z</time></trkpt><trkpt lat="44.7359106169714" lon="8.921934399997019"><ele>408.0</ele><time>2026-03-29T09:05:15Z</time></trkpt><trkpt lat="44.73600887810731" lon="8.921926921826175"><ele>408.0</ele><time>2026-03-29T09:05:16Z</time></trkpt><trkpt lat="44.736140451996235" lon="8.921866030345765"><ele>408.0</ele><time>2026-03-29T09:05:17Z</time></trkpt><trkpt lat="44.73629083071669" lon="8.921817628858873"><ele>410.0</ele><time>2026-03-29T09:05:18Z</time></trkpt><trkpt lat="44.736398712579486" lon="8.921764935654927"><ele>412.0</ele><time>2026-03-29T09:05:19Z</time></trkpt><trkpt lat="44.7364733718914" lon="8.921861882435387"><ele>414.0</ele><time>2026-03-29T09:05:21Z</time></trkpt><trkpt lat="44.73655063922476" lon="8.921921506231422"><ele>416.0</ele><time>2026-03-29T09:05:22Z</time></trkpt><trkpt lat="44.736646289879026" lon="8.921982925646702"><ele>418.0</ele><time>2026-03-29T09:05:23Z</time></trkpt><trkpt lat="44.736739569456994" lon="8.922026759014763"><ele>418.00000000000006</ele><time>2026-03-29T09:05:24Z</time></trkpt><trkpt lat="44.73682518235928" lon="8.922075560898664"><ele>418.0</ele><time>2026-03-29T09:05:25Z</time></trkpt><trkpt lat="44.73690877966792" lon="8.922123834963912"><ele>418.0</ele><time>2026-03-29T09:05:26Z</time></trkpt><trkpt lat="44.736972808747716" lon="8.92212297800259"><ele>418.0</ele><time>2026-03-29T09:05:27Z</time></trkpt><trkpt lat="44.73702728962825" lon="8.922180591207315"><ele>418.00000000000006</ele><time>2026-03-29T09:05:28Z</time></trkpt><trkpt lat="44.73709793864916" lon="8.922207716768987"><ele>418.0</ele><time>2026-03-29T09:05:29Z</time></trkpt><trkpt lat="44.737161316127356" lon="8.92224807030994"><ele>420.1666666666667</ele><time>2026-03-29T09:05:30Z</time></trkpt><trkpt lat="44.73724039927376" lon="8.9222168602279"><ele>422.33333333333337</ele><time>2026-03-29T09:05:31Z</time></trkpt><trkpt lat="44.73730538606945" lon="8.922203029641109"><ele>424.5</ele><time>2026-03-29T09:05:32Z</time></trkpt><trkpt lat="44.73737892298259" lon="8.922179189439301"><ele>426.66666666666663</ele><time>2026-03-29T09:05:34Z</time></trkpt><trkpt lat="44.73744148343297" lon="8.922142216149195"><ele>428.8333333333333</ele><time>2026-03-29T09:05:36Z</time></trkpt><trkpt lat="44.73754123029882" lon="8.922125991818552"><ele>431.0</ele><time>2026-03-29T09:05:39.001Z</time></trkpt><trkpt lat="44.73761050390859" lon="8.92219319921828"><ele>430.99999999999994</ele><time>2026-03-29T09:05:41.001Z</time></trkpt><trkpt lat="44.737707411535204" lon="8.922179686991768"><ele>431.0</ele><time>2026-03-29T09:05:45.001Z</time></trkpt><trkpt lat="44.737782366877916" lon="8.922114200596795"><ele>431.0</ele><time>2026-03-29T09:05:48.001Z</time></trkpt><trkpt lat="44.73785693331855" lon="8.922152444577783"><ele>431.0</ele><time>2026-03-29T09:05:49.001Z</time></trkpt><trkpt lat="44.737853404370064" lon="8.922248877714521"><ele>430.99999999999994</ele><time>2026-03-29T09:05:50.001Z</time></trkpt><trkpt lat="44.737818373639385" lon="8.922348025147231"><ele>431.0</ele><time>2026-03-29T09:05:51.001Z</time></trkpt><trkpt lat="44.73775993462049" lon="8.922481426733784"><ele>437.4</ele><time>2026-03-29T09:05:53.001Z</time></trkpt><trkpt lat="44.73777551894557" lon="8.922655639424987"><ele>443.8</ele><time>2026-03-29T09:05:55.001Z</time></trkpt><trkpt lat="44.737795249605156" lon="8.9227745408762"><ele>450.19999999999993</ele><time>2026-03-29T09:05:56.001Z</time></trkpt><trkpt lat="44.737799173853396" lon="8.922900995814139"><ele>456.59999999999997</ele><time>2026-03-29T09:05:57.001Z</time></trkpt><trkpt lat="44.737843242795655" lon="8.923020888350711"><ele>463.0</ele><time>2026-03-29T09:05:58.001Z</time></trkpt><trkpt lat="44.73787223015033" lon="8.923160562806562"><ele>463.00000000000006</ele><time>2026-03-29T09:05:59.001Z</time></trkpt><trkpt lat="44.737915254728655" lon="8.923260100532712"><ele>463.0</ele><time>2026-03-29T09:06:00.001Z</time></trkpt><trkpt lat="44.73795986125014" lon="8.923327563251451"><ele>463.0</ele><time>2026-03-29T09:06:01.001Z</time></trkpt><trkpt lat="44.73800710578063" lon="8.923444100872821"><ele>463.0</ele><time>2026-03-29T09:06:02.001Z</time></trkpt><trkpt lat="44.73804023630993" lon="8.923567495491646"><ele>463.00000000000006</ele><time>2026-03-29T09:06:03.001Z</time></trkpt><trkpt lat="44.73810399566334" lon="8.923668500742158"><ele>463.0</ele><time>2026-03-29T09:06:04.001Z</time></trkpt><trkpt lat="44.73812324969363" lon="8.92378179912504"><ele>465.59999999999997</ele><time>2026-03-29T09:06:06.001Z</time></trkpt><trkpt lat="44.73806335734174" lon="8.923818855091094"><ele>468.19999999999993</ele><time>2026-03-29T09:06:07.001Z</time></trkpt><trkpt lat="44.73795807661929" lon="8.92383587533735"><ele>470.8</ele><time>2026-03-29T09:06:08.001Z</time></trkpt><trkpt lat="44.737847480934235" lon="8.923835511801894"><ele>473.4</ele><time>2026-03-29T09:06:09.001Z</time></trkpt><trkpt lat="44.73773079798064" lon="8.923760836931423"><ele>476.0</ele><time>2026-03-29T09:06:10.001Z</time></trkpt><trkpt lat="44.73764331485182" lon="8.923724805929554"><ele>475.99999999999994</ele><time>2026-03-29T09:06:11.001Z</time></trkpt><trkpt lat="44.737577934109375" lon="8.92372946219991"><ele>476.0</ele><time>2026-03-29T09:06:13.001Z</time></trkpt><trkpt lat="44.73760836912761" lon="8.923811565673583"><ele>476.0</ele><time>2026-03-29T09:06:14.001Z</time></trkpt><trkpt lat="44.7376782385436" lon="8.923899891186235"><ele>476.0</ele><time>2026-03-29T09:06:16.001Z</time></trkpt><trkpt lat="44.737755997937576" lon="8.923973800145419"><ele>475.99999999999994</ele><time>2026-03-29T09:06:17.001Z</time></trkpt><trkpt lat="44.73780162073064" lon="8.92410865623934"><ele>476.0</ele><time>2026-03-29T09:06:18.001Z</time></trkpt><trkpt lat="44.73788741002875" lon="8.924190826634371"><ele>476.0</ele><time>2026-03-29T09:06:19.001Z</time></trkpt><trkpt lat="44.73797842947818" lon="8.924216823603123"><ele>476.0</ele><time>2026-03-29T09:06:20.001Z</time></trkpt><trkpt lat="44.738091561291945" lon="8.924263885135128"><ele>476.0</ele><time>2026-03-29T09:06:21.001Z</time></trkpt><trkpt lat="44.738205482310036" lon="8.924290821923025"><ele>476.0</ele><time>2026-03-29T09:06:22.001Z</time></trkpt><trkpt lat="44.738311673965384" lon="8.924299393459462"><ele>476.0</ele><time>2026-03-29T09:06:23.001Z</time></trkpt><trkpt lat="44.73840073000145" lon="8.924226901926975"><ele>476.0</ele><time>2026-03-29T09:06:24.001Z</time></trkpt><trkpt lat="44.73844076682531" lon="8.924065847887436"><ele>476.0</ele><time>2026-03-29T09:06:25.001Z</time></trkpt><trkpt lat="44.73851020266589" lon="8.92394241573467"><ele>476.0</ele><time>2026-03-29T09:06:26.001Z</time></trkpt><trkpt lat="44.738594736657426" lon="8.923852960565174"><ele>476.0</ele><time>2026-03-29T09:06:27.001Z</time></trkpt><trkpt lat="44.73863710789496" lon="8.923718693822986"><ele>476.0</ele><time>2026-03-29T09:06:28.001Z</time></trkpt><trkpt lat="44.73868943477551" lon="8.923538109191774"><ele>475.6</ele><time>2026-03-29T09:06:29.001Z</time></trkpt><trkpt lat="44.73873033230314" lon="8.923435120601644"><ele>475.20000000000005</ele><time>2026-03-29T09:06:30.001Z</time></trkpt><trkpt lat="44.738759605313845" lon="8.923355431720074"><ele>474.79999999999995</ele><time>2026-03-29T09:06:31.001Z</time></trkpt><trkpt lat="44.73879755398966" lon="8.923265513633954"><ele>474.4</ele><time>2026-03-29T09:06:32.001Z</time></trkpt><trkpt lat="44.73888839342763" lon="8.923170363455355"><ele>474.0</ele><time>2026-03-29T09:06:34.001Z</time></trkpt><trkpt lat="44.73899764856956" lon="8.92307643771823"><ele>474.0</ele><time>2026-03-29T09:06:36.001Z</time></trkpt><trkpt lat="44.73905270297385" lon="8.92302637194061"><ele>474.0</ele><time>2026-03-29T09:06:37.001Z</time></trkpt><trkpt lat="44.739107762153395" lon="8.922918073480215"><ele>474.0</ele><time>2026-03-29T09:06:40Z</time></trkpt><trkpt lat="44.739119425652" lon="8.92277085507239"><ele>474.0</ele><time>2026-03-29T09:06:42Z</time></trkpt><trkpt lat="44.739151344111136" lon="8.92266065446805"><ele>474.0</ele><time>2026-03-29T09:06:43Z</time></trkpt><trkpt lat="44.73917925111381" lon="8.92255104538093"><ele>474.0</ele><time>2026-03-29T09:06:44Z</time></trkpt><trkpt lat="44.739223194290474" lon="8.922367366872232"><ele>471.8333333333333</ele><time>2026-03-29T09:06:46Z</time></trkpt><trkpt lat="44.73923309838096" lon="8.922252168345219"><ele>469.66666666666663</ele><time>2026-03-29T09:06:47Z</time></trkpt><trkpt lat="44.73924301233733" lon="8.922160738762816"><ele>467.5</ele><time>2026-03-29T09:06:48Z</time></trkpt><trkpt lat="44.73926092179196" lon="8.922026203605592"><ele>465.3333333333333</ele><time>2026-03-29T09:06:50Z</time></trkpt><trkpt lat="44.73929388226094" lon="8.922104270188711"><ele>463.16666666666663</ele><time>2026-03-29T09:06:54Z</time></trkpt><trkpt lat="44.73933428018829" lon="8.92223836007462"><ele>461.0</ele><time>2026-03-29T09:06:57Z</time></trkpt><trkpt lat="44.73939034435644" lon="8.922283596890782"><ele>458.66666666666663</ele><time>2026-03-29T09:06:59Z</time></trkpt><trkpt lat="44.7394299174959" lon="8.92237427257761"><ele>456.3333333333333</ele><time>2026-03-29T09:07:01Z</time></trkpt><trkpt lat="44.739459238871255" lon="8.922474096967585"><ele>454.0</ele><time>2026-03-29T09:07:02Z</time></trkpt><trkpt lat="44.73949588049801" lon="8.922549043600243"><ele>451.66666666666663</ele><time>2026-03-29T09:07:06Z</time></trkpt><trkpt lat="44.739549852504986" lon="8.92265545172267"><ele>449.3333333333333</ele><time>2026-03-29T09:07:08Z</time></trkpt><trkpt lat="44.73956453095721" lon="8.922746088034893"><ele>447.0</ele><time>2026-03-29T09:07:12Z</time></trkpt><trkpt lat="44.73961178045058" lon="8.922899399423057"><ele>432.0</ele><time>2026-03-29T09:07:14Z</time></trkpt><trkpt lat="44.74022803080397" lon="8.923912924806903"><ele>432.0</ele><time>2026-03-29T09:07:18Z</time></trkpt><trkpt lat="44.74029187938364" lon="8.923849504925194"><ele>432.0</ele><time>2026-03-29T09:07:19Z</time></trkpt><trkpt lat="44.74037446934851" lon="8.923853920435247"><ele>432.0</ele><time>2026-03-29T09:07:20Z</time></trkpt><trkpt lat="44.74044653694453" lon="8.92382339800515"><ele>432.0</ele><time>2026-03-29T09:07:21Z</time></trkpt><trkpt lat="44.740436484243595" lon="8.923696046409745"><ele>432.0</ele><time>2026-03-29T09:07:24Z</time></trkpt><trkpt lat="44.74045412534751" lon="8.92355234846103"><ele>432.0</ele><time>2026-03-29T09:07:25Z</time></trkpt><trkpt lat="44.74051368435032" lon="8.923414011180057"><ele>432.0</ele><time>2026-03-29T09:07:26Z</time></trkpt><trkpt lat="44.74051431612555" lon="8.923287996301154"><ele>432.00000000000006</ele><time>2026-03-29T09:07:28Z</time></trkpt><trkpt lat="44.74061123320283" lon="8.923269163705186"><ele>432.00000000000006</ele><time>2026-03-29T09:07:30Z</time></trkpt><trkpt lat="44.74070555175499" lon="8.923374017607422"><ele>432.0</ele><time>2026-03-29T09:07:32Z</time></trkpt><trkpt lat="44.74075511106492" lon="8.923470283640093"><ele>432.0</ele><time>2026-03-29T09:07:33Z</time></trkpt><trkpt lat="44.74079057144294" lon="8.923578491097627"><ele>432.0</ele><time>2026-03-29T09:07:34Z</time></trkpt><trkpt lat="44.74088000786149" lon="8.923771464349736"><ele>432.0</ele><time>2026-03-29T09:07:35Z</time></trkpt><trkpt lat="44.74095610281733" lon="8.92400894231676"><ele>432.0</ele><time>2026-03-29T09:07:36Z</time></trkpt><trkpt lat="44.74095671292609" lon="8.92412273951106"><ele>432.0</ele><time>2026-03-29T09:07:37Z</time></trkpt><trkpt lat="44.741013842921824" lon="8.924210481423197"><ele>436.0</ele><time>2026-03-29T09:07:38Z</time></trkpt><trkpt lat="44.74114159683312" lon="8.924023972473787"><ele>440.0</ele><time>2026-03-29T09:07:41Z</time></trkpt><trkpt lat="44.74127716060932" lon="8.923680885423112"><ele>440.0</ele><time>2026-03-29T09:07:43Z</time></trkpt><trkpt lat="44.74135698638223" lon="8.923596238788047"><ele>440.0</ele><time>2026-03-29T09:07:44Z</time></trkpt><trkpt lat="44.74142103116417" lon="8.92351078857904"><ele>440.0</ele><time>2026-03-29T09:07:45Z</time></trkpt><trkpt lat="44.741472687800425" lon="8.923379037129"><ele>440.0</ele><time>2026-03-29T09:07:46Z</time></trkpt><trkpt lat="44.74153022155457" lon="8.923240320986624"><ele>440.0</ele><time>2026-03-29T09:07:47Z</time></trkpt><trkpt lat="44.74159519576139" lon="8.92307433144023"><ele>435.25</ele><time>2026-03-29T09:07:48Z</time></trkpt><trkpt lat="44.741677934334454" lon="8.922971505834756"><ele>430.5</ele><time>2026-03-29T09:07:49Z</time></trkpt><trkpt lat="44.74179211868149" lon="8.922885919854878"><ele>425.75</ele><time>2026-03-29T09:07:50Z</time></trkpt><trkpt lat="44.74192876411907" lon="8.922803726688525"><ele>421.0</ele><time>2026-03-29T09:07:51Z</time></trkpt><trkpt lat="44.742058696223594" lon="8.922781520721058"><ele>420.5</ele><time>2026-03-29T09:07:52Z</time></trkpt><trkpt lat="44.74214394242489" lon="8.922761659433364"><ele>420.0</ele><time>2026-03-29T09:07:53Z</time></trkpt><trkpt lat="44.742269218908355" lon="8.92284967042137"><ele>419.5</ele><time>2026-03-29T09:07:54Z</time></trkpt><trkpt lat="44.74242034756339" lon="8.922894237883005"><ele>419.0</ele><time>2026-03-29T09:07:55.001Z</time></trkpt><trkpt lat="44.74258533555999" lon="8.922963216153539"><ele>419.0</ele><time>2026-03-29T09:07:56.001Z</time></trkpt><trkpt lat="44.74271407156156" lon="8.923036610993048"><ele>419.0</ele><time>2026-03-29T09:07:57.001Z</time></trkpt><trkpt lat="44.7428157368544" lon="8.923092961209232"><ele>419.0</ele><time>2026-03-29T09:07:58.001Z</time></trkpt><trkpt lat="44.74289163628664" lon="8.92312495639763"><ele>419.0</ele><time>2026-03-29T09:07:59.001Z</time></trkpt><trkpt lat="44.74297809011685" lon="8.92318683203246"><ele>419.0</ele><time>2026-03-29T09:08:00.001Z</time></trkpt><trkpt lat="44.743101572296304" lon="8.92311409469722"><ele>416.4</ele><time>2026-03-29T09:08:01.001Z</time></trkpt><trkpt lat="44.743186545959645" lon="8.923061265791523"><ele>413.79999999999995</ele><time>2026-03-29T09:08:02.001Z</time></trkpt><trkpt lat="44.74324115633767" lon="8.922998666252882"><ele>411.20000000000005</ele><time>2026-03-29T09:08:03.001Z</time></trkpt><trkpt lat="44.74330308284931" lon="8.922963375271005"><ele>408.6</ele><time>2026-03-29T09:08:04.001Z</time></trkpt><trkpt lat="44.743429696626464" lon="8.922927255928839"><ele>406.0</ele><time>2026-03-29T09:08:05.001Z</time></trkpt><trkpt lat="44.74356124691505" lon="8.922838912565147"><ele>406.0</ele><time>2026-03-29T09:08:06.001Z</time></trkpt><trkpt lat="44.74366932524793" lon="8.922732586183953"><ele>406.0</ele><time>2026-03-29T09:08:07.001Z</time></trkpt><trkpt lat="44.743781286955326" lon="8.922663035951755"><ele>406.0</ele><time>2026-03-29T09:08:08.001Z</time></trkpt><trkpt lat="44.74390621373312" lon="8.922633584239636"><ele>406.0</ele><time>2026-03-29T09:08:09.001Z</time></trkpt><trkpt lat="44.74403472094597" lon="8.922624447753956"><ele>406.0</ele><time>2026-03-29T09:08:10.001Z</time></trkpt><trkpt lat="44.74414598131538" lon="8.922635169824813"><ele>406.0</ele><time>2026-03-29T09:08:11.001Z</time></trkpt><trkpt lat="44.74423472018349" lon="8.922642612374837"><ele>406.0</ele><time>2026-03-29T09:08:12.001Z</time></trkpt><trkpt lat="44.74432677190448" lon="8.922631669029379"><ele>406.0</ele><time>2026-03-29T09:08:13.001Z</time></trkpt><trkpt lat="44.74441195078596" lon="8.922569214253214"><ele>406.0</ele><time>2026-03-29T09:08:14.001Z</time></trkpt><trkpt lat="44.74447667083159" lon="8.9225264857893"><ele>405.5</ele><time>2026-03-29T09:08:15.001Z</time></trkpt><trkpt lat="44.74449469799666" lon="8.922394733991732"><ele>405.0</ele><time>2026-03-29T09:08:16.001Z</time></trkpt><trkpt lat="44.74447752600177" lon="8.922162459706556"><ele>404.5</ele><time>2026-03-29T09:08:17.001Z</time></trkpt><trkpt lat="44.74450584993011" lon="8.9220079459003"><ele>404.0</ele><time>2026-03-29T09:08:18.001Z</time></trkpt><trkpt lat="44.74452786962259" lon="8.92182702583949"><ele>399.5</ele><time>2026-03-29T09:08:19.001Z</time></trkpt><trkpt lat="44.74457551089317" lon="8.921648986075756"><ele>395.0</ele><time>2026-03-29T09:08:20.001Z</time></trkpt><trkpt lat="44.74465342289288" lon="8.921521791238366"><ele>390.5</ele><time>2026-03-29T09:08:21.001Z</time></trkpt><trkpt lat="44.74470887857215" lon="8.9214304441678"><ele>386.0</ele><time>2026-03-29T09:08:22.001Z</time></trkpt><trkpt lat="44.74479071696204" lon="8.921323391712718"><ele>386.0</ele><time>2026-03-29T09:08:23.001Z</time></trkpt><trkpt lat="44.74486892126404" lon="8.921190539699634"><ele>386.0</ele><time>2026-03-29T09:08:24.001Z</time></trkpt><trkpt lat="44.7449980266188" lon="8.921046512390053"><ele>386.0</ele><time>2026-03-29T09:08:25.001Z</time></trkpt><trkpt lat="44.7450947418641" lon="8.920957836353256"><ele>386.0</ele><time>2026-03-29T09:08:26.001Z</time></trkpt><trkpt lat="44.7451912346544" lon="8.920884561853567"><ele>383.5</ele><time>2026-03-29T09:08:27.001Z</time></trkpt><trkpt lat="44.74529587033714" lon="8.920716435656653"><ele>381.0</ele><time>2026-03-29T09:08:28.001Z</time></trkpt><trkpt lat="44.745363936750515" lon="8.920524595347027"><ele>378.5</ele><time>2026-03-29T09:08:29.001Z</time></trkpt><trkpt lat="44.74547591862183" lon="8.920412478508679"><ele>376.0</ele><time>2026-03-29T09:08:30.001Z</time></trkpt><trkpt lat="44.7455800046184" lon="8.92029080693429"><ele>376.0</ele><time>2026-03-29T09:08:31.001Z</time></trkpt><trkpt lat="44.745683389548695" lon="8.920193920359138"><ele>376.0</ele><time>2026-03-29T09:08:32.001Z</time></trkpt><trkpt lat="44.74575550773358" lon="8.920100927398062"><ele>376.0</ele><time>2026-03-29T09:08:33.001Z</time></trkpt><trkpt lat="44.74585361115768" lon="8.92012834148949"><ele>376.0</ele><time>2026-03-29T09:08:34.001Z</time></trkpt><trkpt lat="44.74594260398782" lon="8.920119183663019"><ele>376.0</ele><time>2026-03-29T09:08:35.001Z</time></trkpt><trkpt lat="44.74603963339866" lon="8.92017219380964"><ele>374.0</ele><time>2026-03-29T09:08:36.001Z</time></trkpt><trkpt lat="44.74615614946751" lon="8.920265608241479"><ele>372.0</ele><time>2026-03-29T09:08:37.001Z</time></trkpt><trkpt lat="44.74631600161442" lon="8.92036881817495"><ele>370.0</ele><time>2026-03-29T09:08:38.001Z</time></trkpt><trkpt lat="44.746444912637095" lon="8.92045979000718"><ele>370.0</ele><time>2026-03-29T09:08:39.001Z</time></trkpt><trkpt lat="44.7465549831206" lon="8.920517961510912"><ele>370.0</ele><time>2026-03-29T09:08:40.001Z</time></trkpt><trkpt lat="44.746637460299674" lon="8.920590607194317"><ele>370.0</ele><time>2026-03-29T09:08:41.001Z</time></trkpt><trkpt lat="44.74669419042655" lon="8.920694243653129"><ele>370.0</ele><time>2026-03-29T09:08:42.001Z</time></trkpt><trkpt lat="44.74678312347402" lon="8.92084655072005"><ele>370.0</ele><time>2026-03-29T09:08:43Z</time></trkpt><trkpt lat="44.74686665175109" lon="8.921003318215295"><ele>367.0</ele><time>2026-03-29T09:08:44Z</time></trkpt><trkpt lat="44.746964713241454" lon="8.92115700741809"><ele>364.0</ele><time>2026-03-29T09:08:45Z</time></trkpt><trkpt lat="44.747076192708604" lon="8.92130787360346"><ele>361.0</ele><time>2026-03-29T09:08:46Z</time></trkpt><trkpt lat="44.74719162048082" lon="8.92148526318633"><ele>361.0</ele><time>2026-03-29T09:08:47Z</time></trkpt><trkpt lat="44.74729702473113" lon="8.921581475964093"><ele>361.0</ele><time>2026-03-29T09:08:48Z</time></trkpt><trkpt lat="44.74740503865377" lon="8.921682188652648"><ele>361.0</ele><time>2026-03-29T09:08:49Z</time></trkpt><trkpt lat="44.7474658862136" lon="8.921741168633838"><ele>361.0</ele><time>2026-03-29T09:08:50Z</time></trkpt><trkpt lat="44.74752991409653" lon="8.921824662461677"><ele>361.0</ele><time>2026-03-29T09:08:51Z</time></trkpt><trkpt lat="44.74754743734498" lon="8.921958406101474"><ele>362.4</ele><time>2026-03-29T09:08:53Z</time></trkpt><trkpt lat="44.74754783984732" lon="8.92214522798592"><ele>363.8</ele><time>2026-03-29T09:08:54Z</time></trkpt><trkpt lat="44.7475447145212" lon="8.922263951694793"><ele>365.2</ele><time>2026-03-29T09:08:55Z</time></trkpt><trkpt lat="44.747557058277806" lon="8.92238809969995"><ele>366.59999999999997</ele><time>2026-03-29T09:08:56Z</time></trkpt><trkpt lat="44.747581766766935" lon="8.922497758401565"><ele>368.0</ele><time>2026-03-29T09:08:57Z</time></trkpt><trkpt lat="44.747614519559285" lon="8.922672453150284"><ele>370.0</ele><time>2026-03-29T09:08:58Z</time></trkpt><trkpt lat="44.74769745953179" lon="8.92290617566617"><ele>372.0</ele><time>2026-03-29T09:08:59Z</time></trkpt><trkpt lat="44.74775808781726" lon="8.92303242037552"><ele>374.0</ele><time>2026-03-29T09:09:00Z</time></trkpt><trkpt lat="44.747794798165366" lon="8.923155452681733"><ele>376.0</ele><time>2026-03-29T09:09:01Z</time></trkpt><trkpt lat="44.74785634316352" lon="8.923316349733689"><ele>369.25</ele><time>2026-03-29T09:09:02Z</time></trkpt><trkpt lat="44.74792982065256" lon="8.923531995735443"><ele>362.5</ele><time>2026-03-29T09:09:03Z</time></trkpt><trkpt lat="44.74800297715556" lon="8.923697598118869"><ele>355.75</ele><time>2026-03-29T09:09:04Z</time></trkpt><trkpt lat="44.74807776552591" lon="8.923838740547218"><ele>349.0</ele><time>2026-03-29T09:09:05Z</time></trkpt><trkpt lat="44.748119947370675" lon="8.92398385074947"><ele>349.0</ele><time>2026-03-29T09:09:06Z</time></trkpt><trkpt lat="44.748185329678556" lon="8.924093314254531"><ele>349.0</ele><time>2026-03-29T09:09:07Z</time></trkpt><trkpt lat="44.74823909801012" lon="8.924195977124514"><ele>349.0</ele><time>2026-03-29T09:09:08Z</time></trkpt><trkpt lat="44.74828701761891" lon="8.924267867192997"><ele>349.0</ele><time>2026-03-29T09:09:09Z</time></trkpt><trkpt lat="44.748337529516604" lon="8.924351163425479"><ele>349.0</ele><time>2026-03-29T09:09:10Z</time></trkpt><trkpt lat="44.74843262798317" lon="8.924552423276683"><ele>348.75</ele><time>2026-03-29T09:09:11Z</time></trkpt><trkpt lat="44.74851148584494" lon="8.924766004816323"><ele>348.5</ele><time>2026-03-29T09:09:12Z</time></trkpt><trkpt lat="44.74859860526646" lon="8.924879176255914"><ele>348.25</ele><time>2026-03-29T09:09:13Z</time></trkpt><trkpt lat="44.748673270629894" lon="8.924964105163353"><ele>348.0</ele><time>2026-03-29T09:09:14Z</time></trkpt><trkpt lat="44.74877233005551" lon="8.925020982550386"><ele>347.4</ele><time>2026-03-29T09:09:15Z</time></trkpt><trkpt lat="44.74886063260131" lon="8.925068188507234"><ele>346.79999999999995</ele><time>2026-03-29T09:09:16Z</time></trkpt><trkpt lat="44.74893029000918" lon="8.925032823617082"><ele>346.2</ele><time>2026-03-29T09:09:17Z</time></trkpt><trkpt lat="44.74901803348589" lon="8.92497246465157"><ele>345.6</ele><time>2026-03-29T09:09:18Z</time></trkpt><trkpt lat="44.74911114782909" lon="8.92486550575921"><ele>345.0</ele><time>2026-03-29T09:09:19Z</time></trkpt><trkpt lat="44.7491214279603" lon="8.924686482256392"><ele>345.0</ele><time>2026-03-29T09:09:20Z</time></trkpt><trkpt lat="44.74912574971956" lon="8.924530464576762"><ele>345.0</ele><time>2026-03-29T09:09:21Z</time></trkpt><trkpt lat="44.74913260440643" lon="8.924372541071461"><ele>345.0</ele><time>2026-03-29T09:09:22Z</time></trkpt><trkpt lat="44.74914650666938" lon="8.924208015032631"><ele>345.0</ele><time>2026-03-29T09:09:23Z</time></trkpt><trkpt lat="44.749180574871055" lon="8.924027649080386"><ele>345.0</ele><time>2026-03-29T09:09:24Z</time></trkpt><trkpt lat="44.749278626025585" lon="8.923852183003028"><ele>345.0</ele><time>2026-03-29T09:09:25Z</time></trkpt><trkpt lat="44.74932725007564" lon="8.92366164857046"><ele>345.0</ele><time>2026-03-29T09:09:26Z</time></trkpt><trkpt lat="44.74938110608192" lon="8.923516695101242"><ele>345.0</ele><time>2026-03-29T09:09:27Z</time></trkpt><trkpt lat="44.74943461079239" lon="8.923355275885044"><ele>352.0</ele><time>2026-03-29T09:09:28Z</time></trkpt><trkpt lat="44.749432896001586" lon="8.92319024124426"><ele>359.0</ele><time>2026-03-29T09:09:29Z</time></trkpt><trkpt lat="44.7494284383433" lon="8.923091232738573"><ele>366.0</ele><time>2026-03-29T09:09:30Z</time></trkpt><trkpt lat="44.749455320746634" lon="8.922958466884506"><ele>373.0</ele><time>2026-03-29T09:09:31Z</time></trkpt><trkpt lat="44.74947383752041" lon="8.922769217416255"><ele>380.0</ele><time>2026-03-29T09:09:32Z</time></trkpt><trkpt lat="44.74949153846363" lon="8.922572580323012"><ele>379.5</ele><time>2026-03-29T09:09:33Z</time></trkpt><trkpt lat="44.74952074655648" lon="8.922396830081233"><ele>379.0</ele><time>2026-03-29T09:09:34Z</time></trkpt><trkpt lat="44.74955360096532" lon="8.922206179310384"><ele>378.5</ele><time>2026-03-29T09:09:35Z</time></trkpt><trkpt lat="44.74957331774009" lon="8.92200113815437"><ele>378.0</ele><time>2026-03-29T09:09:36Z</time></trkpt><trkpt lat="44.74960591978605" lon="8.921862512969415"><ele>377.25</ele><time>2026-03-29T09:09:37Z</time></trkpt><trkpt lat="44.74965914037349" lon="8.92170229291172"><ele>376.5</ele><time>2026-03-29T09:09:38Z</time></trkpt><trkpt lat="44.74974025345793" lon="8.921533254247258"><ele>375.75</ele><time>2026-03-29T09:09:39Z</time></trkpt><trkpt lat="44.74982483224769" lon="8.921404883910185"><ele>375.0</ele><time>2026-03-29T09:09:40Z</time></trkpt><trkpt lat="44.749857194087156" lon="8.921257518539337"><ele>375.0</ele><time>2026-03-29T09:09:41Z</time></trkpt><trkpt lat="44.749872291761996" lon="8.921142192331088"><ele>375.0</ele><time>2026-03-29T09:09:42Z</time></trkpt><trkpt lat="44.749882193164964" lon="8.921018598982407"><ele>375.0</ele><time>2026-03-29T09:09:43Z</time></trkpt><trkpt lat="44.74988586586494" lon="8.920874712266592"><ele>375.0</ele><time>2026-03-29T09:09:44Z</time></trkpt><trkpt lat="44.749851392055795" lon="8.920763150423069"><ele>375.0</ele><time>2026-03-29T09:09:45Z</time></trkpt><trkpt lat="44.749836609156944" lon="8.920657229854688"><ele>375.0</ele><time>2026-03-29T09:09:46Z</time></trkpt><trkpt lat="44.74982097093491" lon="8.920507064393462"><ele>375.0</ele><time>2026-03-29T09:09:47Z</time></trkpt><trkpt lat="44.749798787905206" lon="8.920322223371118"><ele>375.0</ele><time>2026-03-29T09:09:48Z</time></trkpt><trkpt lat="44.74975706828516" lon="8.920115226173968"><ele>375.0</ele><time>2026-03-29T09:09:49Z</time></trkpt><trkpt lat="44.74970103115467" lon="8.919886811576907"><ele>375.0</ele><time>2026-03-29T09:09:50Z</time></trkpt><trkpt lat="44.74965095793112" lon="8.919697751250345"><ele>375.0</ele><time>2026-03-29T09:09:51Z</time></trkpt><trkpt lat="44.749599449254205" lon="8.919512490207442"><ele>375.0</ele><time>2026-03-29T09:09:52Z</time></trkpt><trkpt lat="44.749547051256" lon="8.919307213293239"><ele>375.0</ele><time>2026-03-29T09:09:53Z</time></trkpt><trkpt lat="44.74948206775865" lon="8.919098848018317"><ele>373.75</ele><time>2026-03-29T09:09:54Z</time></trkpt><trkpt lat="44.7494266104305" lon="8.918930283973538"><ele>372.5</ele><time>2026-03-29T09:09:55Z</time></trkpt><trkpt lat="44.74937942548803" lon="8.918763897770011"><ele>371.25</ele><time>2026-03-29T09:09:56Z</time></trkpt><trkpt lat="44.74934325934591" lon="8.918595570209208"><ele>370.0</ele><time>2026-03-29T09:09:57Z</time></trkpt><trkpt lat="44.749353802494866" lon="8.918435074063641"><ele>370.6</ele><time>2026-03-29T09:09:58Z</time></trkpt><trkpt lat="44.74934185782214" lon="8.91831716746103"><ele>371.2</ele><time>2026-03-29T09:09:59Z</time></trkpt><trkpt lat="44.74928536922863" lon="8.918191920209436"><ele>371.79999999999995</ele><time>2026-03-29T09:10:00Z</time></trkpt><trkpt lat="44.7491968547999" lon="8.918069064615368"><ele>372.4</ele><time>2026-03-29T09:10:01Z</time></trkpt><trkpt lat="44.7490886737684" lon="8.917971079831291"><ele>373.0</ele><time>2026-03-29T09:10:02Z</time></trkpt><trkpt lat="44.74900197341795" lon="8.917871063412388"><ele>373.0</ele><time>2026-03-29T09:10:03.001Z</time></trkpt><trkpt lat="44.74895000392833" lon="8.917765575739306"><ele>373.0</ele><time>2026-03-29T09:10:04.001Z</time></trkpt><trkpt lat="44.748923931878586" lon="8.917644624502078"><ele>373.0</ele><time>2026-03-29T09:10:05.001Z</time></trkpt><trkpt lat="44.748913969106326" lon="8.917508610753075"><ele>373.0</ele><time>2026-03-29T09:10:06.001Z</time></trkpt><trkpt lat="44.74891758412059" lon="8.917379810633705"><ele>373.0</ele><time>2026-03-29T09:10:07.001Z</time></trkpt><trkpt lat="44.748890862071924" lon="8.917232301402503"><ele>373.0</ele><time>2026-03-29T09:10:08.001Z</time></trkpt><trkpt lat="44.748862968200285" lon="8.917130448496357"><ele>373.0</ele><time>2026-03-29T09:10:09.001Z</time></trkpt><trkpt lat="44.74883748662076" lon="8.91704632189012"><ele>373.0</ele><time>2026-03-29T09:10:10.001Z</time></trkpt><trkpt lat="44.7489417692242" lon="8.917038608535035"><ele>373.0</ele><time>2026-03-29T09:10:12.001Z</time></trkpt><trkpt lat="44.7489860266192" lon="8.917110643884756"><ele>373.0</ele><time>2026-03-29T09:10:13.001Z</time></trkpt><trkpt lat="44.749181683348525" lon="8.917018354664624"><ele>373.0</ele><time>2026-03-29T09:10:15.001Z</time></trkpt><trkpt lat="44.74919331770966" lon="8.91693000257766"><ele>373.0</ele><time>2026-03-29T09:10:17.001Z</time></trkpt><trkpt lat="44.74915263186376" lon="8.91685500943054"><ele>373.0</ele><time>2026-03-29T09:10:18.001Z</time></trkpt><trkpt lat="44.749094254460786" lon="8.916805015543972"><ele>373.0</ele><time>2026-03-29T09:10:19.001Z</time></trkpt><trkpt lat="44.74906274680417" lon="8.916693890775658"><ele>373.0</ele><time>2026-03-29T09:10:21.001Z</time></trkpt><trkpt lat="44.74909898493332" lon="8.916482889005579"><ele>373.0</ele><time>2026-03-29T09:10:23.001Z</time></trkpt><trkpt lat="44.74910896466022" lon="8.916377834293264"><ele>371.4</ele><time>2026-03-29T09:10:24.001Z</time></trkpt><trkpt lat="44.7491293431257" lon="8.916275915780025"><ele>369.79999999999995</ele><time>2026-03-29T09:10:25.001Z</time></trkpt><trkpt lat="44.749186096311284" lon="8.916160293991673"><ele>368.2</ele><time>2026-03-29T09:10:27.001Z</time></trkpt><trkpt lat="44.74929884662305" lon="8.91625656937634"><ele>366.6</ele><time>2026-03-29T09:10:29.001Z</time></trkpt><trkpt lat="44.74936078444536" lon="8.91634045943819"><ele>365.0</ele><time>2026-03-29T09:10:30.001Z</time></trkpt><trkpt lat="44.74943723242321" lon="8.91647768438602"><ele>361.1666666666667</ele><time>2026-03-29T09:10:31.001Z</time></trkpt><trkpt lat="44.74949409938579" lon="8.916641015741243"><ele>357.33333333333337</ele><time>2026-03-29T09:10:32.001Z</time></trkpt><trkpt lat="44.749554788713276" lon="8.91670205305584"><ele>353.5</ele><time>2026-03-29T09:10:33.001Z</time></trkpt><trkpt lat="44.749613564753666" lon="8.916779240019244"><ele>349.6666666666667</ele><time>2026-03-29T09:10:34.001Z</time></trkpt><trkpt lat="44.74966379563817" lon="8.916866464404471"><ele>345.8333333333333</ele><time>2026-03-29T09:10:36.001Z</time></trkpt><trkpt lat="44.749731152253965" lon="8.916932603067439"><ele>342.0</ele><time>2026-03-29T09:10:37.001Z</time></trkpt><trkpt lat="44.74977368615862" lon="8.917018192652378"><ele>342.0</ele><time>2026-03-29T09:10:38.001Z</time></trkpt><trkpt lat="44.7498577900154" lon="8.917122170888025"><ele>342.0</ele><time>2026-03-29T09:10:39.001Z</time></trkpt><trkpt lat="44.749915306417854" lon="8.917192672877237"><ele>342.0</ele><time>2026-03-29T09:10:40.001Z</time></trkpt><trkpt lat="44.749974964689216" lon="8.917256532916523"><ele>342.0</ele><time>2026-03-29T09:10:41.001Z</time></trkpt><trkpt lat="44.75007515788628" lon="8.91735057058289"><ele>342.0</ele><time>2026-03-29T09:10:42.001Z</time></trkpt><trkpt lat="44.75017522953761" lon="8.917467845682804"><ele>339.40000000000003</ele><time>2026-03-29T09:10:43.001Z</time></trkpt><trkpt lat="44.750283448534795" lon="8.91752761162079"><ele>336.8</ele><time>2026-03-29T09:10:44.001Z</time></trkpt><trkpt lat="44.75035657726005" lon="8.917533895137941"><ele>334.2</ele><time>2026-03-29T09:10:45.001Z</time></trkpt><trkpt lat="44.75041711543332" lon="8.917567422245643"><ele>331.6</ele><time>2026-03-29T09:10:46.001Z</time></trkpt><trkpt lat="44.75049381300116" lon="8.917578964832304"><ele>329.0</ele><time>2026-03-29T09:10:47.001Z</time></trkpt><trkpt lat="44.75060922139969" lon="8.91753094577853"><ele>327.1666666666667</ele><time>2026-03-29T09:10:49Z</time></trkpt><trkpt lat="44.75070159392747" lon="8.91749791031437"><ele>325.33333333333337</ele><time>2026-03-29T09:10:51Z</time></trkpt><trkpt lat="44.75078322167533" lon="8.917479378763176"><ele>323.5</ele><time>2026-03-29T09:10:52Z</time></trkpt><trkpt lat="44.750861239712904" lon="8.917434685330518"><ele>321.6666666666667</ele><time>2026-03-29T09:10:54Z</time></trkpt><trkpt lat="44.75095246593755" lon="8.917403107619549"><ele>319.8333333333333</ele><time>2026-03-29T09:10:56Z</time></trkpt><trkpt lat="44.75101768865861" lon="8.917392666419909"><ele>318.0</ele><time>2026-03-29T09:11:01Z</time></trkpt><trkpt lat="44.751095806168394" lon="8.917364170457619"><ele>316.7142857142857</ele><time>2026-03-29T09:11:05Z</time></trkpt><trkpt lat="44.75116338317719" lon="8.917336177362136"><ele>315.42857142857144</ele><time>2026-03-29T09:11:10Z</time></trkpt><trkpt lat="44.75124398137811" lon="8.917318974447449"><ele>314.14285714285717</ele><time>2026-03-29T09:11:13Z</time></trkpt><trkpt lat="44.751314874009594" lon="8.917281558160443"><ele>312.8571428571429</ele><time>2026-03-29T09:11:16Z</time></trkpt><trkpt lat="44.751319146994796" lon="8.917178726762003"><ele>311.57142857142856</ele><time>2026-03-29T09:11:19Z</time></trkpt><trkpt lat="44.75133575341547" lon="8.917089975746165"><ele>310.28571428571433</ele><time>2026-03-29T09:11:21Z</time></trkpt><trkpt lat="44.75136883942654" lon="8.917013444787374"><ele>309.0</ele><time>2026-03-29T09:11:23Z</time></trkpt><trkpt lat="44.75141095165072" lon="8.916899383990325"><ele>307.3333333333333</ele><time>2026-03-29T09:11:26Z</time></trkpt><trkpt lat="44.75141862203635" lon="8.916733934788224"><ele>305.6666666666667</ele><time>2026-03-29T09:11:29Z</time></trkpt><trkpt lat="44.75143413264298" lon="8.916644026247848"><ele>304.0</ele><time>2026-03-29T09:11:32Z</time></trkpt><trkpt lat="44.75143389288581" lon="8.916536199689707"><ele>302.33333333333337</ele><time>2026-03-29T09:11:35Z</time></trkpt><trkpt lat="44.75142837969998" lon="8.916433427554942"><ele>300.6666666666667</ele><time>2026-03-29T09:11:37Z</time></trkpt><trkpt lat="44.751414637351225" lon="8.916328259692673"><ele>299.0</ele><time>2026-03-29T09:11:39Z</time></trkpt><trkpt lat="44.75144071669067" lon="8.91622774585592"><ele>299.0</ele><time>2026-03-29T09:11:41Z</time></trkpt><trkpt lat="44.7514201934061" lon="8.916103100315683"><ele>299.0</ele><time>2026-03-29T09:11:43Z</time></trkpt><trkpt lat="44.751430568631136" lon="8.915995374924245"><ele>299.0</ele><time>2026-03-29T09:11:45Z</time></trkpt><trkpt lat="44.75146182586705" lon="8.915828955751707"><ele>299.0</ele><time>2026-03-29T09:11:47Z</time></trkpt><trkpt lat="44.75147443329961" lon="8.915739761262474"><ele>299.0</ele><time>2026-03-29T09:11:48Z</time></trkpt><trkpt lat="44.75147631642992" lon="8.91564385566093"><ele>299.0</ele><time>2026-03-29T09:11:51Z</time></trkpt><trkpt lat="44.751500551954365" lon="8.915558727812693"><ele>296.5</ele><time>2026-03-29T09:11:54Z</time></trkpt><trkpt lat="44.75149908366141" lon="8.915450583005173"><ele>294.0</ele><time>2026-03-29T09:11:56Z</time></trkpt><trkpt lat="44.75152411847517" lon="8.91524457621161"><ele>291.5</ele><time>2026-03-29T09:12:00Z</time></trkpt><trkpt lat="44.751543108509324" lon="8.91509710663154"><ele>289.0</ele><time>2026-03-29T09:12:01Z</time></trkpt><trkpt lat="44.75160760031421" lon="8.914922326975642"><ele>286.5</ele><time>2026-03-29T09:12:02Z</time></trkpt><trkpt lat="44.75167009445118" lon="8.914749896234431"><ele>284.0</ele><time>2026-03-29T09:12:03Z</time></trkpt><trkpt lat="44.75170690035217" lon="8.914622787059667"><ele>281.5</ele><time>2026-03-29T09:12:04Z</time></trkpt><trkpt lat="44.75175547198414" lon="8.914540763535872"><ele>279.0</ele><time>2026-03-29T09:12:05Z</time></trkpt><trkpt lat="44.751848001176235" lon="8.914375639047424"><ele>277.5</ele><time>2026-03-29T09:12:06Z</time></trkpt><trkpt lat="44.75194547283485" lon="8.91422083418565"><ele>276.0</ele><time>2026-03-29T09:12:07Z</time></trkpt><trkpt lat="44.75201812823238" lon="8.914081688069293"><ele>274.5</ele><time>2026-03-29T09:12:08Z</time></trkpt><trkpt lat="44.75209749684436" lon="8.913928493741825"><ele>273.0</ele><time>2026-03-29T09:12:09Z</time></trkpt><trkpt lat="44.75221639206589" lon="8.913784731617863"><ele>273.0</ele><time>2026-03-29T09:12:10Z</time></trkpt><trkpt lat="44.752309550522256" lon="8.913648388699063"><ele>273.0</ele><time>2026-03-29T09:12:11Z</time></trkpt><trkpt lat="44.75238555637544" lon="8.913579618425794"><ele>273.0</ele><time>2026-03-29T09:12:13Z</time></trkpt><trkpt lat="44.752450958903" lon="8.913638377871662"><ele>273.0</ele><time>2026-03-29T09:12:14Z</time></trkpt><trkpt lat="44.75253745579485" lon="8.913727714904388"><ele>273.0</ele><time>2026-03-29T09:12:15Z</time></trkpt><trkpt lat="44.75263930144663" lon="8.913836283560563"><ele>268.75</ele><time>2026-03-29T09:12:16.001Z</time></trkpt><trkpt lat="44.75274217438222" lon="8.913932297422233"><ele>264.5</ele><time>2026-03-29T09:12:17.001Z</time></trkpt><trkpt lat="44.752840364077464" lon="8.913999084627763"><ele>260.25</ele><time>2026-03-29T09:12:18.001Z</time></trkpt><trkpt lat="44.752948840093026" lon="8.91402812697519"><ele>256.0</ele><time>2026-03-29T09:12:19.001Z</time></trkpt><trkpt lat="44.753119681272054" lon="8.914073115914473"><ele>256.0</ele><time>2026-03-29T09:12:21.001Z</time></trkpt><trkpt lat="44.75318057775606" lon="8.914181101738755"><ele>256.0</ele><time>2026-03-29T09:12:22.001Z</time></trkpt><trkpt lat="44.753240212076854" lon="8.914300811238993"><ele>256.0</ele><time>2026-03-29T09:12:23.001Z</time></trkpt><trkpt lat="44.75329524572422" lon="8.914444724053446"><ele>256.0</ele><time>2026-03-29T09:12:24.001Z</time></trkpt><trkpt lat="44.753345166133734" lon="8.914535252369895"><ele>256.0</ele><time>2026-03-29T09:12:25.001Z</time></trkpt><trkpt lat="44.75339116018232" lon="8.9145983008111"><ele>257.25</ele><time>2026-03-29T09:12:26.001Z</time></trkpt><trkpt lat="44.75351436562114" lon="8.9146254744383"><ele>258.5</ele><time>2026-03-29T09:12:28.001Z</time></trkpt><trkpt lat="44.75361208754571" lon="8.914602585819997"><ele>259.75</ele><time>2026-03-29T09:12:29.001Z</time></trkpt><trkpt lat="44.7537746765231" lon="8.914566231983304"><ele>261.0</ele><time>2026-03-29T09:12:30.001Z</time></trkpt><trkpt lat="44.75395555099213" lon="8.914505675902692"><ele>257.3333333333333</ele><time>2026-03-29T09:12:31.001Z</time></trkpt><trkpt lat="44.75415859792921" lon="8.91445579500239"><ele>253.66666666666666</ele><time>2026-03-29T09:12:32.001Z</time></trkpt><trkpt lat="44.75436778965074" lon="8.914406063970999"><ele>250.0</ele><time>2026-03-29T09:12:33.001Z</time></trkpt><trkpt lat="44.7545258177546" lon="8.914362191149895"><ele>250.0</ele><time>2026-03-29T09:12:34.001Z</time></trkpt><trkpt lat="44.75465756350473" lon="8.914332197736337"><ele>250.0</ele><time>2026-03-29T09:12:35.001Z</time></trkpt><trkpt lat="44.754750131152825" lon="8.914312804969088"><ele>250.0</ele><time>2026-03-29T09:12:36.001Z</time></trkpt><trkpt lat="44.75481340000746" lon="8.91429366050457"><ele>250.0</ele><time>2026-03-29T09:12:37.001Z</time></trkpt><trkpt lat="44.75487469180631" lon="8.91422105898456"><ele>250.0</ele><time>2026-03-29T09:12:39.001Z</time></trkpt><trkpt lat="44.75486504346351" lon="8.91448409206391"><ele>250.0</ele><time>2026-03-29T09:12:47.001Z</time></trkpt><trkpt lat="44.75482613673017" lon="8.9146232492694"><ele>250.0</ele><time>2026-03-29T09:12:48.001Z</time></trkpt><trkpt lat="44.754794082834536" lon="8.914773748174287"><ele>250.0</ele><time>2026-03-29T09:12:49.001Z</time></trkpt><trkpt lat="44.75476685581571" lon="8.914933640218985"><ele>250.0</ele><time>2026-03-29T09:12:50.001Z</time></trkpt><trkpt lat="44.754771785195686" lon="8.915118635685248"><ele>251.0</ele><time>2026-03-29T09:12:51.001Z</time></trkpt><trkpt lat="44.754786362471776" lon="8.915355493951383"><ele>252.0</ele><time>2026-03-29T09:12:52.001Z</time></trkpt><trkpt lat="44.754823214915426" lon="8.915599201566481"><ele>253.0</ele><time>2026-03-29T09:12:53.001Z</time></trkpt><trkpt lat="44.75485111914054" lon="8.915794586028467"><ele>253.60000000000002</ele><time>2026-03-29T09:12:54.001Z</time></trkpt><trkpt lat="44.754896314437175" lon="8.915955816602137"><ele>254.20000000000002</ele><time>2026-03-29T09:12:55Z</time></trkpt><trkpt lat="44.75493624256471" lon="8.916130297047099"><ele>254.8</ele><time>2026-03-29T09:12:56Z</time></trkpt><trkpt lat="44.75498034464385" lon="8.916256316371484"><ele>255.4</ele><time>2026-03-29T09:12:57Z</time></trkpt><trkpt lat="44.7550126832797" lon="8.916333941234697"><ele>256.0</ele><time>2026-03-29T09:12:58Z</time></trkpt><trkpt lat="44.755086657433665" lon="8.916468038105872"><ele>256.0</ele><time>2026-03-29T09:13:00Z</time></trkpt><trkpt lat="44.755116761577845" lon="8.916602847360128"><ele>256.0</ele><time>2026-03-29T09:13:02Z</time></trkpt><trkpt lat="44.75510320536677" lon="8.916690478317188"><ele>256.0</ele><time>2026-03-29T09:13:03Z</time></trkpt><trkpt lat="44.75508957909446" lon="8.91680903972561"><ele>256.0</ele><time>2026-03-29T09:13:04Z</time></trkpt><trkpt lat="44.75505336389652" lon="8.916978061208981"><ele>256.0</ele><time>2026-03-29T09:13:05Z</time></trkpt><trkpt lat="44.75503129387674" lon="8.917170110440239"><ele>256.8</ele><time>2026-03-29T09:13:06Z</time></trkpt><trkpt lat="44.75501569491355" lon="8.91732670573545"><ele>257.6</ele><time>2026-03-29T09:13:07Z</time></trkpt><trkpt lat="44.75502435979652" lon="8.91749309702591"><ele>258.4</ele><time>2026-03-29T09:13:08Z</time></trkpt><trkpt lat="44.75504771979834" lon="8.917618617532364"><ele>259.2</ele><time>2026-03-29T09:13:09Z</time></trkpt><trkpt lat="44.755098610150114" lon="8.917703202563558"><ele>260.0</ele><time>2026-03-29T09:13:10Z</time></trkpt><trkpt lat="44.75513689308022" lon="8.917782200823135"><ele>261.0</ele><time>2026-03-29T09:13:11Z</time></trkpt><trkpt lat="44.75516516954793" lon="8.917868621595439"><ele>262.0</ele><time>2026-03-29T09:13:12Z</time></trkpt><trkpt lat="44.75516199932513" lon="8.917957512044534"><ele>263.0</ele><time>2026-03-29T09:13:13Z</time></trkpt><trkpt lat="44.75512641353593" lon="8.918051447010974"><ele>264.0</ele><time>2026-03-29T09:13:14Z</time></trkpt><trkpt lat="44.75501738695005" lon="8.918135981381997"><ele>265.0</ele><time>2026-03-29T09:13:15Z</time></trkpt><trkpt lat="44.75491530631287" lon="8.918299358963269"><ele>266.8</ele><time>2026-03-29T09:13:16Z</time></trkpt><trkpt lat="44.754828928875476" lon="8.91846187086469"><ele>268.6</ele><time>2026-03-29T09:13:17Z</time></trkpt><trkpt lat="44.75476509579601" lon="8.918573268480056"><ele>270.4</ele><time>2026-03-29T09:13:18Z</time></trkpt><trkpt lat="44.754716520138196" lon="8.918671321812148"><ele>272.2</ele><time>2026-03-29T09:13:19Z</time></trkpt><trkpt lat="44.75470433372362" lon="8.918759752458321"><ele>274.0</ele><time>2026-03-29T09:13:20Z</time></trkpt><trkpt lat="44.754703369506444" lon="8.918905178126446"><ele>274.0</ele><time>2026-03-29T09:13:21Z</time></trkpt><trkpt lat="44.754695847213604" lon="8.919044155624523"><ele>274.0</ele><time>2026-03-29T09:13:22Z</time></trkpt><trkpt lat="44.75470127215968" lon="8.91917272818303"><ele>274.0</ele><time>2026-03-29T09:13:23Z</time></trkpt><trkpt lat="44.75469288652188" lon="8.919360020220816"><ele>274.0</ele><time>2026-03-29T09:13:24Z</time></trkpt><trkpt lat="44.75467896014114" lon="8.91952908886068"><ele>274.0</ele><time>2026-03-29T09:13:25Z</time></trkpt><trkpt lat="44.754681401112855" lon="8.919670066164008"><ele>275.3333333333333</ele><time>2026-03-29T09:13:26Z</time></trkpt><trkpt lat="44.75472758676261" lon="8.919746313047352"><ele>276.66666666666663</ele><time>2026-03-29T09:13:27Z</time></trkpt><trkpt lat="44.75474262073397" lon="8.919839587226752"><ele>278.0</ele><time>2026-03-29T09:13:28Z</time></trkpt><trkpt lat="44.7547432922938" lon="8.919956159355504"><ele>279.3333333333333</ele><time>2026-03-29T09:13:29Z</time></trkpt><trkpt lat="44.754745016994875" lon="8.920054374284048"><ele>280.6666666666667</ele><time>2026-03-29T09:13:30Z</time></trkpt><trkpt lat="44.75477654469664" lon="8.92017740786438"><ele>282.0</ele><time>2026-03-29T09:13:31Z</time></trkpt><trkpt lat="44.75486982569383" lon="8.92030131996769"><ele>283.5</ele><time>2026-03-29T09:13:32Z</time></trkpt><trkpt lat="44.75492144129787" lon="8.920427319383467"><ele>285.0</ele><time>2026-03-29T09:13:33Z</time></trkpt><trkpt lat="44.75497820480715" lon="8.92057205926076"><ele>286.5</ele><time>2026-03-29T09:13:34Z</time></trkpt><trkpt lat="44.75501725480256" lon="8.920741533915765"><ele>288.0</ele><time>2026-03-29T09:13:35Z</time></trkpt><trkpt lat="44.75502267341063" lon="8.920891399397753"><ele>287.6666666666667</ele><time>2026-03-29T09:13:36Z</time></trkpt><trkpt lat="44.75503804036234" lon="8.921007186241775"><ele>287.3333333333333</ele><time>2026-03-29T09:13:37Z</time></trkpt><trkpt lat="44.75510179161648" lon="8.921130851087364"><ele>287.0</ele><time>2026-03-29T09:13:38Z</time></trkpt><trkpt lat="44.75515847369959" lon="8.92118643048259"><ele>286.66666666666663</ele><time>2026-03-29T09:13:39Z</time></trkpt><trkpt lat="44.75524570063332" lon="8.921165741277232"><ele>286.3333333333333</ele><time>2026-03-29T09:13:40Z</time></trkpt><trkpt lat="44.755337766345335" lon="8.92119554153355"><ele>286.0</ele><time>2026-03-29T09:13:41Z</time></trkpt><trkpt lat="44.75543812005864" lon="8.921204192147748"><ele>292.5</ele><time>2026-03-29T09:13:42Z</time></trkpt><trkpt lat="44.75561072045052" lon="8.92119341751902"><ele>299.0</ele><time>2026-03-29T09:13:44Z</time></trkpt><trkpt lat="44.75567897407669" lon="8.92125260411267"><ele>305.5</ele><time>2026-03-29T09:13:45Z</time></trkpt><trkpt lat="44.755779431686896" lon="8.921343880552572"><ele>312.0</ele><time>2026-03-29T09:13:46Z</time></trkpt><trkpt lat="44.75588687752349" lon="8.9214539889531"><ele>312.0</ele><time>2026-03-29T09:13:47Z</time></trkpt><trkpt lat="44.755988564095" lon="8.92157223685881"><ele>312.0</ele><time>2026-03-29T09:13:48Z</time></trkpt><trkpt lat="44.756103094690545" lon="8.921686366870881"><ele>312.0</ele><time>2026-03-29T09:13:49Z</time></trkpt><trkpt lat="44.756200999770634" lon="8.921801605783893"><ele>312.0</ele><time>2026-03-29T09:13:50Z</time></trkpt><trkpt lat="44.75625710871043" lon="8.921909374955955"><ele>314.5</ele><time>2026-03-29T09:13:51Z</time></trkpt><trkpt lat="44.756322504486924" lon="8.922009551398986"><ele>317.0</ele><time>2026-03-29T09:13:52Z</time></trkpt><trkpt lat="44.75637629953778" lon="8.922086788352498"><ele>319.5</ele><time>2026-03-29T09:13:53Z</time></trkpt><trkpt lat="44.756396088095336" lon="8.922230011123101"><ele>322.0</ele><time>2026-03-29T09:13:54Z</time></trkpt><trkpt lat="44.75641882729046" lon="8.922334413097046"><ele>324.5</ele><time>2026-03-29T09:13:55Z</time></trkpt><trkpt lat="44.75647807425353" lon="8.922367384142397"><ele>327.0</ele><time>2026-03-29T09:13:56Z</time></trkpt><trkpt lat="44.75655264490547" lon="8.922379023703657"><ele>327.0</ele><time>2026-03-29T09:13:57Z</time></trkpt><trkpt lat="44.75663420891174" lon="8.92237971101087"><ele>327.0</ele><time>2026-03-29T09:13:58Z</time></trkpt><trkpt lat="44.75675028636457" lon="8.922369141179692"><ele>327.0</ele><time>2026-03-29T09:13:59Z</time></trkpt><trkpt lat="44.756873048820125" lon="8.922397514704484"><ele>327.0</ele><time>2026-03-29T09:14:00Z</time></trkpt><trkpt lat="44.756970922583" lon="8.922402941368315"><ele>327.0</ele><time>2026-03-29T09:14:01Z</time></trkpt><trkpt lat="44.75706257729495" lon="8.922390557492411"><ele>326.8333333333333</ele><time>2026-03-29T09:14:02Z</time></trkpt><trkpt lat="44.757123643972534" lon="8.922440218092712"><ele>326.6666666666667</ele><time>2026-03-29T09:14:04Z</time></trkpt><trkpt lat="44.7571656060836" lon="8.922525947469406"><ele>326.5</ele><time>2026-03-29T09:15:23Z</time></trkpt><trkpt lat="44.75722040323934" lon="8.92257824960123"><ele>326.33333333333337</ele><time>2026-03-29T09:15:30Z</time></trkpt><trkpt lat="44.75725891244379" lon="8.922656420841644"><ele>326.1666666666667</ele><time>2026-03-29T09:15:35Z</time></trkpt><trkpt lat="44.757321734863694" lon="8.92270873329264"><ele>326.0</ele><time>2026-03-29T09:15:38Z</time></trkpt><trkpt lat="44.757389782942454" lon="8.92281878027742"><ele>325.5</ele><time>2026-03-29T09:15:40Z</time></trkpt><trkpt lat="44.7574714428637" lon="8.922910210080568"><ele>325.0</ele><time>2026-03-29T09:15:41Z</time></trkpt><trkpt lat="44.75757268961063" lon="8.9230111578587"><ele>324.5</ele><time>2026-03-29T09:15:42Z</time></trkpt><trkpt lat="44.757675628900664" lon="8.923162497265615"><ele>324.0</ele><time>2026-03-29T09:15:43Z</time></trkpt><trkpt lat="44.75777185632178" lon="8.923306239397427"><ele>327.5</ele><time>2026-03-29T09:15:44Z</time></trkpt><trkpt lat="44.75789104531553" lon="8.92346911498277"><ele>331.0</ele><time>2026-03-29T09:15:45Z</time></trkpt><trkpt lat="44.75802239570259" lon="8.923634157192843"><ele>334.5</ele><time>2026-03-29T09:15:46Z</time></trkpt><trkpt lat="44.75807814796808" lon="8.923756368298289"><ele>338.0</ele><time>2026-03-29T09:15:47Z</time></trkpt><trkpt lat="44.75814622511881" lon="8.923912700113178"><ele>338.0</ele><time>2026-03-29T09:15:48Z</time></trkpt><trkpt lat="44.75822629328051" lon="8.924111894243051"><ele>338.0</ele><time>2026-03-29T09:15:49Z</time></trkpt><trkpt lat="44.758264308076825" lon="8.924218827183509"><ele>338.0</ele><time>2026-03-29T09:15:50Z</time></trkpt><trkpt lat="44.75829704824206" lon="8.924371699223315"><ele>338.0</ele><time>2026-03-29T09:15:51Z</time></trkpt><trkpt lat="44.75831751599129" lon="8.924533760252773"><ele>339.0</ele><time>2026-03-29T09:15:52Z</time></trkpt><trkpt lat="44.75833734062527" lon="8.924748533058443"><ele>340.0</ele><time>2026-03-29T09:15:53Z</time></trkpt><trkpt lat="44.758344173699506" lon="8.924954623019113"><ele>341.0</ele><time>2026-03-29T09:15:54Z</time></trkpt><trkpt lat="44.75837962397807" lon="8.92513488329744"><ele>342.0</ele><time>2026-03-29T09:15:55Z</time></trkpt><trkpt lat="44.758450028089925" lon="8.925331965957156"><ele>342.0</ele><time>2026-03-29T09:15:56Z</time></trkpt><trkpt lat="44.758509302142784" lon="8.925559252813404"><ele>342.0</ele><time>2026-03-29T09:15:57Z</time></trkpt><trkpt lat="44.75855743261639" lon="8.925764492244218"><ele>342.0</ele><time>2026-03-29T09:15:58Z</time></trkpt><trkpt lat="44.75861113004429" lon="8.925878448831872"><ele>342.0</ele><time>2026-03-29T09:15:59Z</time></trkpt><trkpt lat="44.75864927484294" lon="8.925963695933389"><ele>342.5</ele><time>2026-03-29T09:16:00Z</time></trkpt><trkpt lat="44.75869286656212" lon="8.926096421598098"><ele>343.0</ele><time>2026-03-29T09:16:01Z</time></trkpt><trkpt lat="44.75876592375511" lon="8.926245186404653"><ele>343.5</ele><time>2026-03-29T09:16:02Z</time></trkpt><trkpt lat="44.758811044043085" lon="8.926416775846068"><ele>344.0</ele><time>2026-03-29T09:16:03Z</time></trkpt><trkpt lat="44.758846161673006" lon="8.92661742534325"><ele>343.2</ele><time>2026-03-29T09:16:04Z</time></trkpt><trkpt lat="44.75888993863977" lon="8.92674766279545"><ele>342.4</ele><time>2026-03-29T09:16:05Z</time></trkpt><trkpt lat="44.7589474093745" lon="8.926902773210681"><ele>341.6</ele><time>2026-03-29T09:16:06Z</time></trkpt><trkpt lat="44.759023863922046" lon="8.926965361409124"><ele>340.8</ele><time>2026-03-29T09:16:07Z</time></trkpt><trkpt lat="44.75910304504806" lon="8.927060852995725"><ele>340.0</ele><time>2026-03-29T09:16:08Z</time></trkpt><trkpt lat="44.759177729917994" lon="8.927174383964639"><ele>340.0</ele><time>2026-03-29T09:16:09Z</time></trkpt><trkpt lat="44.75925127174695" lon="8.92731872028157"><ele>340.0</ele><time>2026-03-29T09:16:10Z</time></trkpt><trkpt lat="44.759359201642255" lon="8.927515785931622"><ele>340.0</ele><time>2026-03-29T09:16:11Z</time></trkpt><trkpt lat="44.75946188925471" lon="8.927694869777783"><ele>341.25</ele><time>2026-03-29T09:16:12Z</time></trkpt><trkpt lat="44.75954826403565" lon="8.927852132411733"><ele>342.5</ele><time>2026-03-29T09:16:13Z</time></trkpt><trkpt lat="44.75963032079543" lon="8.927990173728098"><ele>343.75</ele><time>2026-03-29T09:16:14Z</time></trkpt><trkpt lat="44.75971178822725" lon="8.928042635492133"><ele>345.0</ele><time>2026-03-29T09:16:15Z</time></trkpt><trkpt lat="44.75980998960516" lon="8.928094979782651"><ele>345.0</ele><time>2026-03-29T09:16:16Z</time></trkpt><trkpt lat="44.75991638013394" lon="8.928212761469355"><ele>345.0</ele><time>2026-03-29T09:16:17Z</time></trkpt><trkpt lat="44.75997152067167" lon="8.928313114047844"><ele>345.0</ele><time>2026-03-29T09:16:18Z</time></trkpt><trkpt lat="44.76019979715885" lon="8.92854641951524"><ele>346.42857142857144</ele><time>2026-03-29T09:16:23Z</time></trkpt><trkpt lat="44.76022450084228" lon="8.928654177763303"><ele>347.85714285714283</ele><time>2026-03-29T09:16:25Z</time></trkpt><trkpt lat="44.760262332683574" lon="8.928739537855854"><ele>349.2857142857143</ele><time>2026-03-29T09:16:28Z</time></trkpt><trkpt lat="44.76030293346461" lon="8.92881389673087"><ele>350.7142857142857</ele><time>2026-03-29T09:16:30Z</time></trkpt><trkpt lat="44.76032673419228" lon="8.928924952202962"><ele>352.14285714285717</ele><time>2026-03-29T09:16:32Z</time></trkpt><trkpt lat="44.76038213373298" lon="8.928974564770812"><ele>353.57142857142856</ele><time>2026-03-29T09:16:34Z</time></trkpt><trkpt lat="44.76043063838617" lon="8.9290393775424"><ele>355.0</ele><time>2026-03-29T09:16:36Z</time></trkpt><trkpt lat="44.760548663490376" lon="8.929070766842422"><ele>355.0</ele><time>2026-03-29T09:16:38Z</time></trkpt><trkpt lat="44.76058841977524" lon="8.929180443931429"><ele>355.0</ele><time>2026-03-29T09:16:40Z</time></trkpt><trkpt lat="44.7606382033721" lon="8.929292736831304"><ele>355.0</ele><time>2026-03-29T09:16:43Z</time></trkpt><trkpt lat="44.76067447749716" lon="8.92938788052937"><ele>355.0</ele><time>2026-03-29T09:16:46Z</time></trkpt><trkpt lat="44.7607098719481" lon="8.929483722609863"><ele>355.0</ele><time>2026-03-29T09:16:48.001Z</time></trkpt><trkpt lat="44.76074898527278" lon="8.929588010176756"><ele>355.0</ele><time>2026-03-29T09:16:50.001Z</time></trkpt><trkpt lat="44.760793643013265" lon="8.929661821442167"><ele>355.2</ele><time>2026-03-29T09:16:52.001Z</time></trkpt><trkpt lat="44.76082967107121" lon="8.929760221020876"><ele>355.4</ele><time>2026-03-29T09:16:54.001Z</time></trkpt><trkpt lat="44.76086376460416" lon="8.929844715991658"><ele>355.6</ele><time>2026-03-29T09:16:58.001Z</time></trkpt><trkpt lat="44.760897952014766" lon="8.929935818430307"><ele>355.8</ele><time>2026-03-29T09:17:05.001Z</time></trkpt><trkpt lat="44.7609410394782" lon="8.930216092067466"><ele>356.0</ele><time>2026-03-29T09:18:18Z</time></trkpt><trkpt lat="44.760997057074505" lon="8.930412156671027"><ele>358.8</ele><time>2026-03-29T09:18:20Z</time></trkpt><trkpt lat="44.761068679409924" lon="8.930572784048495"><ele>361.6</ele><time>2026-03-29T09:18:22Z</time></trkpt><trkpt lat="44.76110998477434" lon="8.930670317583127"><ele>364.4</ele><time>2026-03-29T09:18:23Z</time></trkpt><trkpt lat="44.761158468799394" lon="8.93076940499165"><ele>367.2</ele><time>2026-03-29T09:18:24Z</time></trkpt><trkpt lat="44.76116442133893" lon="8.93086361528525"><ele>370.0</ele><time>2026-03-29T09:18:25Z</time></trkpt><trkpt lat="44.76121690196286" lon="8.931003224380083"><ele>370.0</ele><time>2026-03-29T09:18:27Z</time></trkpt><trkpt lat="44.76127556834968" lon="8.931080032230891"><ele>370.0</ele><time>2026-03-29T09:18:28Z</time></trkpt><trkpt lat="44.761322619931974" lon="8.931145025438266"><ele>370.0</ele><time>2026-03-29T09:18:29Z</time></trkpt><trkpt lat="44.7613356927878" lon="8.931250635035077"><ele>370.0</ele><time>2026-03-29T09:18:30Z</time></trkpt><trkpt lat="44.76139094215515" lon="8.931408066619777"><ele>370.0</ele><time>2026-03-29T09:18:32Z</time></trkpt><trkpt lat="44.76144817723978" lon="8.931463787910062"><ele>370.0</ele><time>2026-03-29T09:18:33Z</time></trkpt><trkpt lat="44.76150539307602" lon="8.93153363620832"><ele>370.0</ele><time>2026-03-29T09:18:34Z</time></trkpt><trkpt lat="44.76152413974341" lon="8.931655927636106"><ele>370.0</ele><time>2026-03-29T09:18:36Z</time></trkpt><trkpt lat="44.76155289813999" lon="8.931742746978694"><ele>370.0</ele><time>2026-03-29T09:18:37Z</time></trkpt><trkpt lat="44.76158932093529" lon="8.931820802000914"><ele>370.0</ele><time>2026-03-29T09:18:38Z</time></trkpt><trkpt lat="44.7616695932781" lon="8.931887050713062"><ele>370.0</ele><time>2026-03-29T09:18:39Z</time></trkpt><trkpt lat="44.76178298791033" lon="8.93193035541407"><ele>370.0</ele><time>2026-03-29T09:18:40Z</time></trkpt><trkpt lat="44.76183334844448" lon="8.932014342735448"><ele>373.6</ele><time>2026-03-29T09:18:41Z</time></trkpt><trkpt lat="44.761887000094156" lon="8.93207676088717"><ele>377.2</ele><time>2026-03-29T09:18:42Z</time></trkpt><trkpt lat="44.76194628126159" lon="8.932162446025606"><ele>380.79999999999995</ele><time>2026-03-29T09:18:43Z</time></trkpt><trkpt lat="44.76198494615826" lon="8.932249886382795"><ele>384.4</ele><time>2026-03-29T09:18:44Z</time></trkpt><trkpt lat="44.762101353715096" lon="8.932324043067037"><ele>388.0</ele><time>2026-03-29T09:18:46Z</time></trkpt><trkpt lat="44.76218482188827" lon="8.932415589424446"><ele>389.83333333333337</ele><time>2026-03-29T09:18:48.001Z</time></trkpt><trkpt lat="44.76217110391851" lon="8.93255745354235"><ele>391.6666666666667</ele><time>2026-03-29T09:18:50.001Z</time></trkpt><trkpt lat="44.762104519279916" lon="8.932584272722751"><ele>393.5</ele><time>2026-03-29T09:18:53.001Z</time></trkpt><trkpt lat="44.76204800935582" lon="8.932689483862701"><ele>395.33333333333337</ele><time>2026-03-29T09:18:55.001Z</time></trkpt><trkpt lat="44.761981680772955" lon="8.93273354120281"><ele>397.1666666666667</ele><time>2026-03-29T09:18:58.001Z</time></trkpt><trkpt lat="44.76191849660651" lon="8.932779090842468"><ele>399.0</ele><time>2026-03-29T09:19:00.001Z</time></trkpt><trkpt lat="44.7618665032476" lon="8.932884490104508"><ele>399.0</ele><time>2026-03-29T09:19:03.001Z</time></trkpt><trkpt lat="44.76182494533285" lon="8.932957191626844"><ele>399.0</ele><time>2026-03-29T09:19:05.001Z</time></trkpt><trkpt lat="44.76182930718672" lon="8.933049331577934"><ele>399.0</ele><time>2026-03-29T09:19:08.001Z</time></trkpt><trkpt lat="44.761834140770524" lon="8.933139677397088"><ele>399.0</ele><time>2026-03-29T09:19:11.001Z</time></trkpt><trkpt lat="44.761892172135795" lon="8.933265149716513"><ele>399.0</ele><time>2026-03-29T09:19:13Z</time></trkpt><trkpt lat="44.76201800974124" lon="8.933375077679427"><ele>398.6</ele><time>2026-03-29T09:19:16Z</time></trkpt><trkpt lat="44.76209824004557" lon="8.933486026609097"><ele>398.2</ele><time>2026-03-29T09:19:17Z</time></trkpt><trkpt lat="44.762151992791196" lon="8.933581778090279"><ele>397.8</ele><time>2026-03-29T09:19:18Z</time></trkpt><trkpt lat="44.762168140192635" lon="8.933680139642311"><ele>397.40000000000003</ele><time>2026-03-29T09:19:25Z</time></trkpt><trkpt lat="44.76221678585099" lon="8.933740391986973"><ele>397.0</ele><time>2026-03-29T09:19:36Z</time></trkpt><trkpt lat="44.76229221864664" lon="8.933974508053376"><ele>397.0</ele><time>2026-03-29T09:20:17Z</time></trkpt><trkpt lat="44.76233904202749" lon="8.93403979631577"><ele>397.0</ele><time>2026-03-29T09:20:18Z</time></trkpt><trkpt lat="44.76244953810311" lon="8.934189221408651"><ele>397.0</ele><time>2026-03-29T09:20:20Z</time></trkpt><trkpt lat="44.76253633263245" lon="8.934279883296925"><ele>397.0</ele><time>2026-03-29T09:20:22Z</time></trkpt><trkpt lat="44.76264646587468" lon="8.934320214649869"><ele>397.0</ele><time>2026-03-29T09:20:24Z</time></trkpt><trkpt lat="44.76268293866877" lon="8.934393186451368"><ele>397.83333333333337</ele><time>2026-03-29T09:20:25Z</time></trkpt><trkpt lat="44.76275043019766" lon="8.93446226813977"><ele>398.6666666666667</ele><time>2026-03-29T09:20:26Z</time></trkpt><trkpt lat="44.76284371782011" lon="8.93450291457164"><ele>399.5</ele><time>2026-03-29T09:20:28Z</time></trkpt><trkpt lat="44.76290670990583" lon="8.934524940584703"><ele>400.33333333333337</ele><time>2026-03-29T09:20:29Z</time></trkpt><trkpt lat="44.76296470333783" lon="8.934581553058521"><ele>401.1666666666667</ele><time>2026-03-29T09:20:30Z</time></trkpt><trkpt lat="44.763044199304446" lon="8.934671582241807"><ele>402.0</ele><time>2026-03-29T09:20:32Z</time></trkpt><trkpt lat="44.763102516105846" lon="8.93471911541138"><ele>402.0</ele><time>2026-03-29T09:20:33Z</time></trkpt><trkpt lat="44.76314490951403" lon="8.934800901195393"><ele>402.0</ele><time>2026-03-29T09:20:34Z</time></trkpt><trkpt lat="44.76321706686166" lon="8.934838601528174"><ele>402.0</ele><time>2026-03-29T09:20:37Z</time></trkpt><trkpt lat="44.76323736845348" lon="8.934960188957195"><ele>402.0</ele><time>2026-03-29T09:20:40Z</time></trkpt><trkpt lat="44.76319484949965" lon="8.935060152836433"><ele>402.0</ele><time>2026-03-29T09:20:44Z</time></trkpt><trkpt lat="44.763183237245066" lon="8.935151726267225"><ele>402.0</ele><time>2026-03-29T09:20:45Z</time></trkpt><trkpt lat="44.76313270286616" lon="8.935286278906652"><ele>400.0</ele><time>2026-03-29T09:20:46Z</time></trkpt><trkpt lat="44.763100116208854" lon="8.935410022520475"><ele>398.0</ele><time>2026-03-29T09:20:47Z</time></trkpt><trkpt lat="44.76309270049158" lon="8.935552360994533"><ele>396.0</ele><time>2026-03-29T09:20:49Z</time></trkpt><trkpt lat="44.76316794266059" lon="8.935573838211496"><ele>394.0</ele><time>2026-03-29T09:20:50Z</time></trkpt><trkpt lat="44.76325375955978" lon="8.935607379712346"><ele>392.0</ele><time>2026-03-29T09:20:51Z</time></trkpt><trkpt lat="44.763338174638065" lon="8.935634997034805"><ele>390.0</ele><time>2026-03-29T09:20:52Z</time></trkpt><trkpt lat="44.76340539173261" lon="8.935664783313321"><ele>390.0</ele><time>2026-03-29T09:20:53Z</time></trkpt><trkpt lat="44.76348755496642" lon="8.935670890454386"><ele>390.0</ele><time>2026-03-29T09:20:54Z</time></trkpt><trkpt lat="44.76355259377974" lon="8.935706195005203"><ele>390.0</ele><time>2026-03-29T09:20:55Z</time></trkpt><trkpt lat="44.76362365144412" lon="8.935714412255933"><ele>390.0</ele><time>2026-03-29T09:20:56Z</time></trkpt><trkpt lat="44.76369945162313" lon="8.935714208371985"><ele>390.0</ele><time>2026-03-29T09:20:57Z</time></trkpt><trkpt lat="44.763778901081906" lon="8.935738527712832"><ele>390.0</ele><time>2026-03-29T09:20:59Z</time></trkpt><trkpt lat="44.76385437346816" lon="8.93584926229006"><ele>392.8</ele><time>2026-03-29T09:21:01Z</time></trkpt><trkpt lat="44.76384296242784" lon="8.936060514741026"><ele>395.6</ele><time>2026-03-29T09:21:03Z</time></trkpt><trkpt lat="44.76378157268913" lon="8.93614443166677"><ele>398.4</ele><time>2026-03-29T09:21:04.001Z</time></trkpt><trkpt lat="44.76376647117408" lon="8.936248580708195"><ele>401.2</ele><time>2026-03-29T09:21:05.001Z</time></trkpt><trkpt lat="44.763745392182045" lon="8.936371237253788"><ele>404.0</ele><time>2026-03-29T09:21:06.001Z</time></trkpt><trkpt lat="44.763717520282796" lon="8.936479019800599"><ele>403.99999999999994</ele><time>2026-03-29T09:21:07.001Z</time></trkpt><trkpt lat="44.763648739616364" lon="8.93661751143196"><ele>404.0</ele><time>2026-03-29T09:21:08.001Z</time></trkpt><trkpt lat="44.76366296035664" lon="8.936749920154844"><ele>404.0</ele><time>2026-03-29T09:21:10.001Z</time></trkpt><trkpt lat="44.76371915482055" lon="8.936793959912736"><ele>404.0</ele><time>2026-03-29T09:21:11.001Z</time></trkpt><trkpt lat="44.763758645569375" lon="8.936865434893763"><ele>403.99999999999994</ele><time>2026-03-29T09:21:12.001Z</time></trkpt><trkpt lat="44.763821501201335" lon="8.936944178558445"><ele>404.0</ele><time>2026-03-29T09:21:13.001Z</time></trkpt><trkpt lat="44.76388056021912" lon="8.936998660797443"><ele>400.66666666666663</ele><time>2026-03-29T09:21:14.001Z</time></trkpt><trkpt lat="44.763966232588" lon="8.937046078751136"><ele>397.3333333333333</ele><time>2026-03-29T09:21:15.001Z</time></trkpt><trkpt lat="44.764027769199735" lon="8.937175065844212"><ele>394.0</ele><time>2026-03-29T09:21:17.001Z</time></trkpt><trkpt lat="44.76408290858487" lon="8.937219297675538"><ele>390.66666666666663</ele><time>2026-03-29T09:21:19Z</time></trkpt><trkpt lat="44.764155677537225" lon="8.937275157752206"><ele>387.3333333333333</ele><time>2026-03-29T09:21:21Z</time></trkpt><trkpt lat="44.764236502254896" lon="8.937314418450566"><ele>384.0</ele><time>2026-03-29T09:21:22Z</time></trkpt><trkpt lat="44.76432916332801" lon="8.937346480576833"><ele>385.5</ele><time>2026-03-29T09:21:24Z</time></trkpt><trkpt lat="44.76441870785154" lon="8.937329715406626"><ele>387.0</ele><time>2026-03-29T09:21:25Z</time></trkpt><trkpt lat="44.76452160314113" lon="8.93730678909388"><ele>388.5</ele><time>2026-03-29T09:21:26Z</time></trkpt><trkpt lat="44.764592202849805" lon="8.937245110544982"><ele>390.0</ele><time>2026-03-29T09:21:27Z</time></trkpt><trkpt lat="44.76464699536696" lon="8.937185624955124"><ele>391.5</ele><time>2026-03-29T09:21:28Z</time></trkpt><trkpt lat="44.764723484266966" lon="8.937143566074988"><ele>393.0</ele><time>2026-03-29T09:21:29Z</time></trkpt><trkpt lat="44.76478020315291" lon="8.937086662609453"><ele>393.0</ele><time>2026-03-29T09:21:30Z</time></trkpt><trkpt lat="44.76488332689431" lon="8.937067860380017"><ele>393.0</ele><time>2026-03-29T09:21:31Z</time></trkpt><trkpt lat="44.76493337622462" lon="8.937003615556876"><ele>393.0</ele><time>2026-03-29T09:21:32Z</time></trkpt><trkpt lat="44.765009864180996" lon="8.936852004883194"><ele>393.0</ele><time>2026-03-29T09:21:34Z</time></trkpt><trkpt lat="44.76510916249892" lon="8.936775327975834"><ele>393.0</ele><time>2026-03-29T09:21:36Z</time></trkpt><trkpt lat="44.76518509597049" lon="8.936760569700875"><ele>393.59999999999997</ele><time>2026-03-29T09:21:37Z</time></trkpt><trkpt lat="44.765274136217066" lon="8.936730375382702"><ele>394.2</ele><time>2026-03-29T09:21:39Z</time></trkpt><trkpt lat="44.765338701854525" lon="8.936706053455021"><ele>394.8</ele><time>2026-03-29T09:21:40Z</time></trkpt><trkpt lat="44.765435327712574" lon="8.936650006918414"><ele>395.4</ele><time>2026-03-29T09:21:43Z</time></trkpt><trkpt lat="44.765542573902444" lon="8.93655803221816"><ele>396.0</ele><time>2026-03-29T09:21:45Z</time></trkpt><trkpt lat="44.765599403864655" lon="8.936631872673871"><ele>399.8333333333333</ele><time>2026-03-29T09:21:47Z</time></trkpt><trkpt lat="44.76567424796507" lon="8.936698839339842"><ele>403.66666666666663</ele><time>2026-03-29T09:21:49Z</time></trkpt><trkpt lat="44.76573499794664" lon="8.936595243649034"><ele>407.5</ele><time>2026-03-29T09:21:54Z</time></trkpt><trkpt lat="44.7658139763856" lon="8.93657231577125"><ele>411.3333333333333</ele><time>2026-03-29T09:21:55Z</time></trkpt><trkpt lat="44.76589915762471" lon="8.93653579532527"><ele>415.16666666666663</ele><time>2026-03-29T09:21:58Z</time></trkpt><trkpt lat="44.76596900943177" lon="8.93647207167513"><ele>419.0</ele><time>2026-03-29T09:22:00Z</time></trkpt><trkpt lat="44.7660380298547" lon="8.936466961727115"><ele>419.6</ele><time>2026-03-29T09:22:02Z</time></trkpt><trkpt lat="44.76611477458582" lon="8.936494510105922"><ele>420.2</ele><time>2026-03-29T09:22:04Z</time></trkpt><trkpt lat="44.766247219855856" lon="8.936549822891019"><ele>420.8</ele><time>2026-03-29T09:22:07Z</time></trkpt><trkpt lat="44.766337487055125" lon="8.936581167397387"><ele>421.40000000000003</ele><time>2026-03-29T09:22:09Z</time></trkpt><trkpt lat="44.766416392171664" lon="8.93660612831084"><ele>422.0</ele><time>2026-03-29T09:22:11Z</time></trkpt><trkpt lat="44.76654684692091" lon="8.936608750450914"><ele>422.0</ele><time>2026-03-29T09:22:14Z</time></trkpt><trkpt lat="44.76665136991833" lon="8.936631826187126"><ele>422.0</ele><time>2026-03-29T09:22:17Z</time></trkpt><trkpt lat="44.76671367619858" lon="8.93669001091513"><ele>422.0</ele><time>2026-03-29T09:22:19Z</time></trkpt><trkpt lat="44.76677838089596" lon="8.936648875677408"><ele>422.0</ele><time>2026-03-29T09:22:21Z</time></trkpt><trkpt lat="44.76684632332825" lon="8.93656551130871"><ele>422.0</ele><time>2026-03-29T09:22:24Z</time></trkpt><trkpt lat="44.76688069891356" lon="8.93638944383471"><ele>422.5</ele><time>2026-03-29T09:22:28Z</time></trkpt><trkpt lat="44.766942014246496" lon="8.93623686718528"><ele>423.0</ele><time>2026-03-29T09:22:29Z</time></trkpt><trkpt lat="44.767032443699314" lon="8.936090211047476"><ele>423.5</ele><time>2026-03-29T09:22:30Z</time></trkpt><trkpt lat="44.76714346820252" lon="8.936034959722498"><ele>424.0</ele><time>2026-03-29T09:22:31Z</time></trkpt><trkpt lat="44.767219064069536" lon="8.935991004064178"><ele>424.0</ele><time>2026-03-29T09:22:32Z</time></trkpt><trkpt lat="44.7673512945033" lon="8.935958950885231"><ele>424.0</ele><time>2026-03-29T09:22:33Z</time></trkpt><trkpt lat="44.76746314146069" lon="8.935916467320675"><ele>424.0</ele><time>2026-03-29T09:22:34Z</time></trkpt><trkpt lat="44.767603522912836" lon="8.935861534028236"><ele>424.0</ele><time>2026-03-29T09:22:35Z</time></trkpt><trkpt lat="44.76773399819655" lon="8.935815856635518"><ele>420.0</ele><time>2026-03-29T09:22:36Z</time></trkpt><trkpt lat="44.76790193699267" lon="8.93577686049259"><ele>416.0</ele><time>2026-03-29T09:22:37Z</time></trkpt><trkpt lat="44.767978802712825" lon="8.93574072496191"><ele>412.0</ele><time>2026-03-29T09:22:38Z</time></trkpt><trkpt lat="44.76805156276887" lon="8.93563150445548"><ele>408.0</ele><time>2026-03-29T09:22:40Z</time></trkpt><trkpt lat="44.76809620620372" lon="8.935530276730631"><ele>404.0</ele><time>2026-03-29T09:22:42Z</time></trkpt><trkpt lat="44.76812915727985" lon="8.935407505738134"><ele>403.99999999999994</ele><time>2026-03-29T09:22:43Z</time></trkpt><trkpt lat="44.768152603528115" lon="8.935296400281489"><ele>404.0</ele><time>2026-03-29T09:22:44Z</time></trkpt><trkpt lat="44.76817728268528" lon="8.935176386912733"><ele>404.0</ele><time>2026-03-29T09:22:45Z</time></trkpt><trkpt lat="44.76820739150794" lon="8.935077147500449"><ele>404.0</ele><time>2026-03-29T09:22:46Z</time></trkpt><trkpt lat="44.76818368684629" lon="8.934968756754936"><ele>403.99999999999994</ele><time>2026-03-29T09:22:47Z</time></trkpt><trkpt lat="44.76815458279982" lon="8.934857849245732"><ele>404.0</ele><time>2026-03-29T09:22:48Z</time></trkpt><trkpt lat="44.76815248141526" lon="8.934750064172281"><ele>404.0</ele><time>2026-03-29T09:22:49Z</time></trkpt><trkpt lat="44.768231390577874" lon="8.934741561904346"><ele>404.0</ele><time>2026-03-29T09:22:52Z</time></trkpt><trkpt lat="44.76832044626201" lon="8.934848270745938"><ele>404.0</ele><time>2026-03-29T09:22:54Z</time></trkpt><trkpt lat="44.768358133179284" lon="8.935038686378583"><ele>404.0</ele><time>2026-03-29T09:22:55Z</time></trkpt><trkpt lat="44.768389304404764" lon="8.935263379731198"><ele>404.0</ele><time>2026-03-29T09:22:56Z</time></trkpt><trkpt lat="44.76841089633163" lon="8.935504559459709"><ele>404.0</ele><time>2026-03-29T09:22:57Z</time></trkpt><trkpt lat="44.76842277528248" lon="8.93572496441514"><ele>404.0</ele><time>2026-03-29T09:22:58Z</time></trkpt><trkpt lat="44.76844195098306" lon="8.935910037921541"><ele>405.79999999999995</ele><time>2026-03-29T09:22:59Z</time></trkpt><trkpt lat="44.7684766986084" lon="8.936041965332434"><ele>407.59999999999997</ele><time>2026-03-29T09:23:00Z</time></trkpt><trkpt lat="44.76851168984761" lon="8.936149808911733"><ele>409.4</ele><time>2026-03-29T09:23:01Z</time></trkpt><trkpt lat="44.768524245834165" lon="8.936269204890424"><ele>411.2</ele><time>2026-03-29T09:23:02Z</time></trkpt><trkpt lat="44.76855124589244" lon="8.936385413029843"><ele>413.0</ele><time>2026-03-29T09:23:03Z</time></trkpt><trkpt lat="44.76852382363021" lon="8.936604944897683"><ele>413.0</ele><time>2026-03-29T09:23:05Z</time></trkpt><trkpt lat="44.76848140946411" lon="8.93668690925778"><ele>413.0</ele><time>2026-03-29T09:23:06Z</time></trkpt><trkpt lat="44.76840361469409" lon="8.936792612171072"><ele>413.0</ele><time>2026-03-29T09:23:07Z</time></trkpt><trkpt lat="44.768338484040925" lon="8.936876060359854"><ele>413.0</ele><time>2026-03-29T09:23:08Z</time></trkpt><trkpt lat="44.76825725570824" lon="8.936958052208036"><ele>413.0</ele><time>2026-03-29T09:23:09.001Z</time></trkpt><trkpt lat="44.76820323661397" lon="8.937076467088094"><ele>413.59999999999997</ele><time>2026-03-29T09:23:10.001Z</time></trkpt><trkpt lat="44.76814363431472" lon="8.937206650291845"><ele>414.2</ele><time>2026-03-29T09:23:11.001Z</time></trkpt><trkpt lat="44.76810131287118" lon="8.93732780571782"><ele>414.8</ele><time>2026-03-29T09:23:12.001Z</time></trkpt><trkpt lat="44.76810702946864" lon="8.93745410965777"><ele>415.4</ele><time>2026-03-29T09:23:13.001Z</time></trkpt><trkpt lat="44.768090250003986" lon="8.937579902393884"><ele>416.0</ele><time>2026-03-29T09:23:14.001Z</time></trkpt><trkpt lat="44.76807543106739" lon="8.937673734626118"><ele>416.0</ele><time>2026-03-29T09:23:15.001Z</time></trkpt><trkpt lat="44.768014476643444" lon="8.93778117708071"><ele>416.0</ele><time>2026-03-29T09:23:17.001Z</time></trkpt><trkpt lat="44.76800302451175" lon="8.937911045090031"><ele>416.0</ele><time>2026-03-29T09:23:19.001Z</time></trkpt><trkpt lat="44.767992421927715" lon="8.938051800585406"><ele>416.0</ele><time>2026-03-29T09:23:20.001Z</time></trkpt><trkpt lat="44.76797174522324" lon="8.938183133284662"><ele>416.0</ele><time>2026-03-29T09:23:21.001Z</time></trkpt><trkpt lat="44.767947306754" lon="8.938336575167487"><ele>419.6</ele><time>2026-03-29T09:23:23.001Z</time></trkpt><trkpt lat="44.76794714432226" lon="8.938432981449228"><ele>423.20000000000005</ele><time>2026-03-29T09:23:24Z</time></trkpt><trkpt lat="44.76793213748165" lon="8.938577882741669"><ele>426.79999999999995</ele><time>2026-03-29T09:23:25Z</time></trkpt><trkpt lat="44.76788371619218" lon="8.938714897485617"><ele>430.4</ele><time>2026-03-29T09:23:26Z</time></trkpt><trkpt lat="44.76783076901978" lon="8.938841453555034"><ele>434.0</ele><time>2026-03-29T09:23:27Z</time></trkpt><trkpt lat="44.767757000192724" lon="8.93893281394719"><ele>433.6</ele><time>2026-03-29T09:23:28Z</time></trkpt><trkpt lat="44.76766641270503" lon="8.939004817106019"><ele>433.2</ele><time>2026-03-29T09:23:29Z</time></trkpt><trkpt lat="44.767618886911166" lon="8.939064385239146"><ele>432.80000000000007</ele><time>2026-03-29T09:23:30Z</time></trkpt><trkpt lat="44.767581220656275" lon="8.939182759297946"><ele>432.40000000000003</ele><time>2026-03-29T09:23:31Z</time></trkpt><trkpt lat="44.76750359254765" lon="8.939305369714559"><ele>432.0</ele><time>2026-03-29T09:23:32Z</time></trkpt><trkpt lat="44.76743038754097" lon="8.939388878419761"><ele>432.0</ele><time>2026-03-29T09:23:33Z</time></trkpt><trkpt lat="44.767368855750455" lon="8.93945624336976"><ele>432.00000000000006</ele><time>2026-03-29T09:23:34Z</time></trkpt><trkpt lat="44.76728707429561" lon="8.939541467124105"><ele>432.00000000000006</ele><time>2026-03-29T09:23:35Z</time></trkpt><trkpt lat="44.76722632061802" lon="8.939601723088987"><ele>432.0</ele><time>2026-03-29T09:23:36Z</time></trkpt><trkpt lat="44.76713005550372" lon="8.93966458925259"><ele>432.0</ele><time>2026-03-29T09:23:37Z</time></trkpt><trkpt lat="44.7670283111796" lon="8.939729259318794"><ele>432.0</ele><time>2026-03-29T09:23:38Z</time></trkpt><trkpt lat="44.7669686939261" lon="8.939761809362487"><ele>432.0</ele><time>2026-03-29T09:23:39Z</time></trkpt><trkpt lat="44.766990251569034" lon="8.939916761029268"><ele>432.0</ele><time>2026-03-29T09:23:41Z</time></trkpt><trkpt lat="44.76702257915804" lon="8.94000503903031"><ele>432.0</ele><time>2026-03-29T09:23:42Z</time></trkpt><trkpt lat="44.767081589061675" lon="8.940039304903365"><ele>432.0</ele><time>2026-03-29T09:23:43Z</time></trkpt><trkpt lat="44.767151893313496" lon="8.940070398574873"><ele>432.0</ele><time>2026-03-29T09:23:44Z</time></trkpt><trkpt lat="44.76727758532617" lon="8.94009339929223"><ele>430.8333333333333</ele><time>2026-03-29T09:23:46Z</time></trkpt><trkpt lat="44.76733857672744" lon="8.940170742794793"><ele>429.66666666666663</ele><time>2026-03-29T09:23:47Z</time></trkpt><trkpt lat="44.76737676842327" lon="8.940266941503909"><ele>428.5</ele><time>2026-03-29T09:23:48Z</time></trkpt><trkpt lat="44.767452942871856" lon="8.940263798863672"><ele>427.3333333333333</ele><time>2026-03-29T09:23:49Z</time></trkpt><trkpt lat="44.76755445329798" lon="8.940271127840926"><ele>426.16666666666663</ele><time>2026-03-29T09:23:50Z</time></trkpt><trkpt lat="44.7676563793209" lon="8.940324875499785"><ele>425.0</ele><time>2026-03-29T09:23:51Z</time></trkpt><trkpt lat="44.76775756187864" lon="8.940398984869653"><ele>424.99999999999994</ele><time>2026-03-29T09:23:52Z</time></trkpt><trkpt lat="44.767818497776545" lon="8.94046379710755"><ele>425.0</ele><time>2026-03-29T09:23:53Z</time></trkpt><trkpt lat="44.76790792901649" lon="8.94045396617796"><ele>425.0</ele><time>2026-03-29T09:23:55Z</time></trkpt><trkpt lat="44.767977632071535" lon="8.940564685024595"><ele>425.0</ele><time>2026-03-29T09:23:57Z</time></trkpt><trkpt lat="44.76803091272719" lon="8.940687432039603"><ele>424.99999999999994</ele><time>2026-03-29T09:23:59Z</time></trkpt><trkpt lat="44.76810600845993" lon="8.940698861558976"><ele>425.0</ele><time>2026-03-29T09:24:00Z</time></trkpt><trkpt lat="44.768630833596355" lon="8.941294030716545"><ele>422.75</ele><time>2026-03-29T09:24:07Z</time></trkpt><trkpt lat="44.76856972271536" lon="8.941428335990592"><ele>420.5</ele><time>2026-03-29T09:24:08Z</time></trkpt><trkpt lat="44.76847286645377" lon="8.941542115914208"><ele>418.25</ele><time>2026-03-29T09:24:09Z</time></trkpt><trkpt lat="44.768407994090666" lon="8.941693752493157"><ele>416.0</ele><time>2026-03-29T09:24:10Z</time></trkpt><trkpt lat="44.76836177556358" lon="8.94183439664832"><ele>420.0</ele><time>2026-03-29T09:24:11Z</time></trkpt><trkpt lat="44.76834379870071" lon="8.941970595676928"><ele>424.0</ele><time>2026-03-29T09:24:12Z</time></trkpt><trkpt lat="44.7683156826494" lon="8.942134879327599"><ele>428.0</ele><time>2026-03-29T09:24:13Z</time></trkpt><trkpt lat="44.768283041754316" lon="8.942215874387562"><ele>432.0</ele><time>2026-03-29T09:24:14Z</time></trkpt><trkpt lat="44.76815186279754" lon="8.942130022750115"><ele>436.0</ele><time>2026-03-29T09:24:16Z</time></trkpt><trkpt lat="44.76805543412994" lon="8.942033973779278"><ele>436.0</ele><time>2026-03-29T09:24:17Z</time></trkpt><trkpt lat="44.76791801001834" lon="8.941997415506469"><ele>436.0</ele><time>2026-03-29T09:24:18Z</time></trkpt><trkpt lat="44.767783890839986" lon="8.942015584679806"><ele>436.0</ele><time>2026-03-29T09:24:19Z</time></trkpt><trkpt lat="44.76767323456515" lon="8.941975225995295"><ele>436.0</ele><time>2026-03-29T09:24:20Z</time></trkpt><trkpt lat="44.76756805243913" lon="8.941990007873674"><ele>434.25</ele><time>2026-03-29T09:24:21Z</time></trkpt><trkpt lat="44.7674549349882" lon="8.942024029866909"><ele>432.5</ele><time>2026-03-29T09:24:22Z</time></trkpt><trkpt lat="44.76738678831514" lon="8.94205077056157"><ele>430.75</ele><time>2026-03-29T09:24:31Z</time></trkpt><trkpt lat="44.76716192347019" lon="8.942154150030174"><ele>429.0</ele><time>2026-03-29T09:25:49Z</time></trkpt><trkpt lat="44.767043647918044" lon="8.94220271291569"><ele>429.0</ele><time>2026-03-29T09:25:50Z</time></trkpt><trkpt lat="44.7669669592681" lon="8.942244277945436"><ele>429.0</ele><time>2026-03-29T09:25:51Z</time></trkpt><trkpt lat="44.76686533590718" lon="8.942284395895111"><ele>429.0</ele><time>2026-03-29T09:25:52Z</time></trkpt><trkpt lat="44.76678816647761" lon="8.942275869978772"><ele>429.0</ele><time>2026-03-29T09:25:53Z</time></trkpt><trkpt lat="44.766711774903875" lon="8.942237044593952"><ele>429.0</ele><time>2026-03-29T09:25:54Z</time></trkpt><trkpt lat="44.766635057398965" lon="8.942268189795499"><ele>429.0</ele><time>2026-03-29T09:25:55Z</time></trkpt><trkpt lat="44.76650076330507" lon="8.942372167151078"><ele>427.79999999999995</ele><time>2026-03-29T09:25:57Z</time></trkpt><trkpt lat="44.76643209565872" lon="8.942464650401135"><ele>426.59999999999997</ele><time>2026-03-29T09:25:58Z</time></trkpt><trkpt lat="44.766345093055385" lon="8.942517238250044"><ele>425.4</ele><time>2026-03-29T09:25:59Z</time></trkpt><trkpt lat="44.766286406888035" lon="8.942575268076734"><ele>424.2</ele><time>2026-03-29T09:26:00Z</time></trkpt><trkpt lat="44.76624232149343" lon="8.942654638180715"><ele>423.0</ele><time>2026-03-29T09:26:01Z</time></trkpt><trkpt lat="44.766203750462196" lon="8.942863426643026"><ele>423.0</ele><time>2026-03-29T09:26:03Z</time></trkpt><trkpt lat="44.76623318166525" lon="8.942996476663394"><ele>423.0</ele><time>2026-03-29T09:26:04Z</time></trkpt><trkpt lat="44.76625339564251" lon="8.943101157902838"><ele>423.0</ele><time>2026-03-29T09:26:05Z</time></trkpt><trkpt lat="44.76631757806044" lon="8.943220714439816"><ele>423.0</ele><time>2026-03-29T09:26:06Z</time></trkpt><trkpt lat="44.76639958534499" lon="8.943299645056147"><ele>423.0</ele><time>2026-03-29T09:26:07Z</time></trkpt><trkpt lat="44.76640286650371" lon="8.943404754695818"><ele>422.3333333333333</ele><time>2026-03-29T09:26:08Z</time></trkpt><trkpt lat="44.76635338078606" lon="8.943467925289031"><ele>421.66666666666663</ele><time>2026-03-29T09:26:09Z</time></trkpt><trkpt lat="44.76636773236304" lon="8.943571842773625"><ele>421.0</ele><time>2026-03-29T09:26:10Z</time></trkpt><trkpt lat="44.76639271635131" lon="8.94366895102797"><ele>420.3333333333333</ele><time>2026-03-29T09:26:11Z</time></trkpt><trkpt lat="44.766428628368054" lon="8.943770404257265"><ele>419.66666666666663</ele><time>2026-03-29T09:26:12Z</time></trkpt><trkpt lat="44.766483598920864" lon="8.943901308728883"><ele>419.0</ele><time>2026-03-29T09:26:13Z</time></trkpt><trkpt lat="44.76653788305238" lon="8.944015838554204"><ele>418.99999999999994</ele><time>2026-03-29T09:26:14Z</time></trkpt><trkpt lat="44.76657407751588" lon="8.944115383232942"><ele>419.0</ele><time>2026-03-29T09:26:15Z</time></trkpt><trkpt lat="44.766629846725024" lon="8.944198861563818"><ele>419.0</ele><time>2026-03-29T09:26:16Z</time></trkpt><trkpt lat="44.76666613960857" lon="8.944281710949577"><ele>419.0</ele><time>2026-03-29T09:26:17Z</time></trkpt><trkpt lat="44.76667560290637" lon="8.944374841220387"><ele>418.99999999999994</ele><time>2026-03-29T09:26:18Z</time></trkpt><trkpt lat="44.766659988581324" lon="8.944566634428107"><ele>419.0</ele><time>2026-03-29T09:26:20Z</time></trkpt><trkpt lat="44.766710167463216" lon="8.944666482424719"><ele>417.6</ele><time>2026-03-29T09:26:21Z</time></trkpt><trkpt lat="44.7667590595479" lon="8.944738122034519"><ele>416.2</ele><time>2026-03-29T09:26:22Z</time></trkpt><trkpt lat="44.76682520208812" lon="8.944866713902995"><ele>414.8</ele><time>2026-03-29T09:26:23Z</time></trkpt><trkpt lat="44.76691755704778" lon="8.944950567720785"><ele>413.40000000000003</ele><time>2026-03-29T09:26:24Z</time></trkpt><trkpt lat="44.76701227382105" lon="8.944927871294224"><ele>412.0</ele><time>2026-03-29T09:26:26Z</time></trkpt><trkpt lat="44.76715192139377" lon="8.944866880507751"><ele>416.0</ele><time>2026-03-29T09:26:28Z</time></trkpt><trkpt lat="44.76727781317947" lon="8.944890041148659"><ele>420.0</ele><time>2026-03-29T09:26:30Z</time></trkpt><trkpt lat="44.767316806883606" lon="8.945033923834405"><ele>424.00000000000006</ele><time>2026-03-29T09:26:32Z</time></trkpt><trkpt lat="44.767307527161705" lon="8.94513869643343"><ele>428.0</ele><time>2026-03-29T09:26:33Z</time></trkpt><trkpt lat="44.76728934816946" lon="8.945252752037119"><ele>432.0</ele><time>2026-03-29T09:26:34Z</time></trkpt><trkpt lat="44.767262219980815" lon="8.945396598988237"><ele>432.0</ele><time>2026-03-29T09:26:35Z</time></trkpt><trkpt lat="44.767226507470085" lon="8.945594268477405"><ele>432.0</ele><time>2026-03-29T09:26:36Z</time></trkpt><trkpt lat="44.7671925328463" lon="8.945766962049067"><ele>432.0</ele><time>2026-03-29T09:26:37Z</time></trkpt><trkpt lat="44.76718978417497" lon="8.94593268196251"><ele>432.0</ele><time>2026-03-29T09:26:38Z</time></trkpt><trkpt lat="44.76724216887841" lon="8.945996084709197"><ele>428.6</ele><time>2026-03-29T09:26:39Z</time></trkpt><trkpt lat="44.767300989383116" lon="8.946028041775305"><ele>425.20000000000005</ele><time>2026-03-29T09:26:40Z</time></trkpt><trkpt lat="44.76737048280419" lon="8.94608036989388"><ele>421.8</ele><time>2026-03-29T09:26:41Z</time></trkpt><trkpt lat="44.767466109122616" lon="8.946121774998655"><ele>418.4</ele><time>2026-03-29T09:26:42Z</time></trkpt><trkpt lat="44.7675613864641" lon="8.946129040556176"><ele>415.0</ele><time>2026-03-29T09:26:43Z</time></trkpt><trkpt lat="44.767677268464396" lon="8.946153993143195"><ele>417.0</ele><time>2026-03-29T09:26:44Z</time></trkpt><trkpt lat="44.767822091426964" lon="8.946189804899188"><ele>419.0</ele><time>2026-03-29T09:26:45Z</time></trkpt><trkpt lat="44.76791842181797" lon="8.946230853784527"><ele>421.0</ele><time>2026-03-29T09:26:46Z</time></trkpt><trkpt lat="44.76801499760699" lon="8.946293811218874"><ele>423.0</ele><time>2026-03-29T09:26:53Z</time></trkpt><trkpt lat="44.76809881148983" lon="8.94630377704371"><ele>425.0</ele><time>2026-03-29T09:26:55Z</time></trkpt><trkpt lat="44.76816970340357" lon="8.946302833864841"><ele>425.0</ele><time>2026-03-29T09:26:56Z</time></trkpt><trkpt lat="44.768278969326246" lon="8.946292621452427"><ele>425.0</ele><time>2026-03-29T09:26:57Z</time></trkpt><trkpt lat="44.76841309720055" lon="8.946237446769988"><ele>425.0</ele><time>2026-03-29T09:26:58Z</time></trkpt><trkpt lat="44.76848946700672" lon="8.946170186398817"><ele>425.0</ele><time>2026-03-29T09:26:59Z</time></trkpt><trkpt lat="44.76857259720618" lon="8.946145726806092"><ele>425.0</ele><time>2026-03-29T09:27:00Z</time></trkpt><trkpt lat="44.76865056885578" lon="8.946095377228055"><ele>429.6</ele><time>2026-03-29T09:27:01Z</time></trkpt><trkpt lat="44.768749455359846" lon="8.946066487729679"><ele>434.2</ele><time>2026-03-29T09:27:02Z</time></trkpt><trkpt lat="44.76881801583706" lon="8.946124805506168"><ele>438.79999999999995</ele><time>2026-03-29T09:27:03Z</time></trkpt><trkpt lat="44.76890817397839" lon="8.946181895399912"><ele>443.4</ele><time>2026-03-29T09:27:04Z</time></trkpt><trkpt lat="44.76899937395372" lon="8.946211940245162"><ele>448.0</ele><time>2026-03-29T09:27:05Z</time></trkpt><trkpt lat="44.76908126245694" lon="8.946283220720526"><ele>448.0</ele><time>2026-03-29T09:27:06Z</time></trkpt><trkpt lat="44.769137411803264" lon="8.946347603941756"><ele>447.99999999999994</ele><time>2026-03-29T09:27:07Z</time></trkpt><trkpt lat="44.7691640369928" lon="8.946483075718954"><ele>447.99999999999994</ele><time>2026-03-29T09:27:08Z</time></trkpt><trkpt lat="44.76911686636482" lon="8.94661118475012"><ele>448.0</ele><time>2026-03-29T09:27:09Z</time></trkpt><trkpt lat="44.76909250213598" lon="8.946731712115245"><ele>448.0</ele><time>2026-03-29T09:27:10Z</time></trkpt><trkpt lat="44.769030787412476" lon="8.946871312518846"><ele>451.75</ele><time>2026-03-29T09:27:11.001Z</time></trkpt><trkpt lat="44.76893590248997" lon="8.946987691135922"><ele>455.5</ele><time>2026-03-29T09:27:12.001Z</time></trkpt><trkpt lat="44.76879617537354" lon="8.947113442197175"><ele>459.25</ele><time>2026-03-29T09:27:13.001Z</time></trkpt><trkpt lat="44.7686950580664" lon="8.947190601165868"><ele>463.0</ele><time>2026-03-29T09:27:14.001Z</time></trkpt><trkpt lat="44.76861291651628" lon="8.947313487694734"><ele>463.00000000000006</ele><time>2026-03-29T09:27:15.001Z</time></trkpt><trkpt lat="44.768538619563635" lon="8.94740130851409"><ele>463.0</ele><time>2026-03-29T09:27:16.001Z</time></trkpt><trkpt lat="44.7685023328669" lon="8.94748643510561"><ele>463.0</ele><time>2026-03-29T09:27:17.001Z</time></trkpt><trkpt lat="44.76854130274236" lon="8.947556364153312"><ele>463.0</ele><time>2026-03-29T09:27:18.001Z</time></trkpt><trkpt lat="44.76857660227895" lon="8.947695619050164"><ele>463.00000000000006</ele><time>2026-03-29T09:27:20.001Z</time></trkpt><trkpt lat="44.768554344405906" lon="8.947800521589318"><ele>463.0</ele><time>2026-03-29T09:27:21.001Z</time></trkpt><trkpt lat="44.7685259248883" lon="8.947896860653843"><ele>461.2</ele><time>2026-03-29T09:27:22.001Z</time></trkpt><trkpt lat="44.76850934901635" lon="8.948013471956573"><ele>459.4</ele><time>2026-03-29T09:27:23.001Z</time></trkpt><trkpt lat="44.76846992694943" lon="8.948148037847"><ele>457.59999999999997</ele><time>2026-03-29T09:27:24.001Z</time></trkpt><trkpt lat="44.76844057138269" lon="8.948234333950106"><ele>455.79999999999995</ele><time>2026-03-29T09:27:25.001Z</time></trkpt><trkpt lat="44.7684691814118" lon="8.94842705260457"><ele>454.0</ele><time>2026-03-29T09:27:27.001Z</time></trkpt><trkpt lat="44.76849650753316" lon="8.948560946787847"><ele>455.0</ele><time>2026-03-29T09:27:29.001Z</time></trkpt><trkpt lat="44.768692173890344" lon="8.94862563580042"><ele>456.0</ele><time>2026-03-29T09:27:36Z</time></trkpt><trkpt lat="44.768769411839706" lon="8.948672511155019"><ele>457.0</ele><time>2026-03-29T09:27:37Z</time></trkpt><trkpt lat="44.768854858158825" lon="8.948679323879787"><ele>458.0</ele><time>2026-03-29T09:27:38Z</time></trkpt><trkpt lat="44.769143934924024" lon="8.948666482239128"><ele>457.99999999999994</ele><time>2026-03-29T09:27:42Z</time></trkpt><trkpt lat="44.76920393652465" lon="8.94869606065461"><ele>458.0</ele><time>2026-03-29T09:27:43Z</time></trkpt><trkpt lat="44.769303368241765" lon="8.94874096006085"><ele>458.0</ele><time>2026-03-29T09:27:45Z</time></trkpt><trkpt lat="44.76942005578938" lon="8.948804745121622"><ele>458.0</ele><time>2026-03-29T09:27:48Z</time></trkpt><trkpt lat="44.76947648169954" lon="8.948854315281716"><ele>457.99999999999994</ele><time>2026-03-29T09:27:50Z</time></trkpt><trkpt lat="44.769544959372325" lon="8.948917536906665"><ele>458.0</ele><time>2026-03-29T09:27:54Z</time></trkpt><trkpt lat="44.7699621267821" lon="8.949554276113956"><ele>461.4</ele><time>2026-03-29T09:27:55Z</time></trkpt><trkpt lat="44.77007346184371" lon="8.949660370403214"><ele>464.79999999999995</ele><time>2026-03-29T09:27:57Z</time></trkpt><trkpt lat="44.77014725021412" lon="8.94969013827509"><ele>468.2</ele><time>2026-03-29T09:27:58Z</time></trkpt><trkpt lat="44.77017765905964" lon="8.949818452538823"><ele>471.6</ele><time>2026-03-29T09:27:59Z</time></trkpt><trkpt lat="44.7701800257107" lon="8.94996831159784"><ele>475.0</ele><time>2026-03-29T09:28:00Z</time></trkpt><trkpt lat="44.770243059180075" lon="8.950011505364587"><ele>478.83333333333337</ele><time>2026-03-29T09:28:01Z</time></trkpt><trkpt lat="44.770340405352485" lon="8.950041292948779"><ele>482.6666666666667</ele><time>2026-03-29T09:28:03Z</time></trkpt><trkpt lat="44.770356538934685" lon="8.950173722919736"><ele>486.5</ele><time>2026-03-29T09:28:05Z</time></trkpt><trkpt lat="44.77034546037422" lon="8.950271916023379"><ele>490.33333333333337</ele><time>2026-03-29T09:28:07Z</time></trkpt><trkpt lat="44.77034381365309" lon="8.950385773406705"><ele>494.1666666666667</ele><time>2026-03-29T09:28:09Z</time></trkpt><trkpt lat="44.770370698445824" lon="8.950478092919571"><ele>498.0</ele><time>2026-03-29T09:28:11Z</time></trkpt><trkpt lat="44.77037133110714" lon="8.950584651721018"><ele>498.0</ele><time>2026-03-29T09:28:12Z</time></trkpt><trkpt lat="44.77028028249646" lon="8.95073532636219"><ele>497.99999999999994</ele><time>2026-03-29T09:28:13Z</time></trkpt><trkpt lat="44.77025736886134" lon="8.95084714318237"><ele>497.99999999999994</ele><time>2026-03-29T09:28:14Z</time></trkpt><trkpt lat="44.770228060756565" lon="8.950955397452876"><ele>498.0</ele><time>2026-03-29T09:28:15Z</time></trkpt><trkpt lat="44.77016882435464" lon="8.951049736703839"><ele>498.0</ele><time>2026-03-29T09:28:16Z</time></trkpt><trkpt lat="44.77011553587832" lon="8.951102503620701"><ele>501.8333333333333</ele><time>2026-03-29T09:28:17Z</time></trkpt><trkpt lat="44.77004454949452" lon="8.951099247704889"><ele>505.66666666666663</ele><time>2026-03-29T09:28:18Z</time></trkpt><trkpt lat="44.76996216773812" lon="8.951151735879867"><ele>509.5</ele><time>2026-03-29T09:28:19Z</time></trkpt><trkpt lat="44.76991272593715" lon="8.951242381281027"><ele>513.3333333333333</ele><time>2026-03-29T09:28:20Z</time></trkpt><trkpt lat="44.76985836413256" lon="8.951334167259525"><ele>517.1666666666666</ele><time>2026-03-29T09:28:21Z</time></trkpt><trkpt lat="44.76976870968718" lon="8.951375022633474"><ele>521.0</ele><time>2026-03-29T09:28:22Z</time></trkpt><trkpt lat="44.76968412957816" lon="8.951377788964797"><ele>521.0</ele><time>2026-03-29T09:28:23Z</time></trkpt><trkpt lat="44.769618378412275" lon="8.951441178329468"><ele>521.0</ele><time>2026-03-29T09:28:25Z</time></trkpt><trkpt lat="44.76958942527488" lon="8.951521445193068"><ele>521.0</ele><time>2026-03-29T09:28:27Z</time></trkpt><trkpt lat="44.7695438336194" lon="8.951618002365723"><ele>521.0</ele><time>2026-03-29T09:28:29Z</time></trkpt><trkpt lat="44.76951894409892" lon="8.951708983604659"><ele>521.0</ele><time>2026-03-29T09:28:30Z</time></trkpt><trkpt lat="44.769558464768124" lon="8.951840167483471"><ele>521.0</ele><time>2026-03-29T09:28:32Z</time></trkpt><trkpt lat="44.76955267939566" lon="8.951990514069427"><ele>520.8</ele><time>2026-03-29T09:28:33Z</time></trkpt><trkpt lat="44.76952939163801" lon="8.952126558945162"><ele>520.6</ele><time>2026-03-29T09:28:34Z</time></trkpt><trkpt lat="44.76953893657971" lon="8.952235235821956"><ele>520.4</ele><time>2026-03-29T09:28:36Z</time></trkpt><trkpt lat="44.76959712510378" lon="8.952431817673476"><ele>520.2</ele><time>2026-03-29T09:28:38Z</time></trkpt><trkpt lat="44.769625912035494" lon="8.952569937930647"><ele>520.0</ele><time>2026-03-29T09:28:39Z</time></trkpt><trkpt lat="44.769641680065455" lon="8.952675644732563"><ele>520.0</ele><time>2026-03-29T09:28:40Z</time></trkpt><trkpt lat="44.769663458456954" lon="8.952795085248423"><ele>520.0</ele><time>2026-03-29T09:28:42Z</time></trkpt><trkpt lat="44.76966195973899" lon="8.95289450593976"><ele>520.0</ele><time>2026-03-29T09:28:46Z</time></trkpt><trkpt lat="44.7696702159198" lon="8.952999854557115"><ele>520.0</ele><time>2026-03-29T09:28:48Z</time></trkpt><trkpt lat="44.769686634807364" lon="8.953110386136984"><ele>520.0</ele><time>2026-03-29T09:28:50Z</time></trkpt><trkpt lat="44.769720339095564" lon="8.95327602233323"><ele>520.0</ele><time>2026-03-29T09:28:52Z</time></trkpt><trkpt lat="44.76970051905612" lon="8.953431321294158"><ele>518.75</ele><time>2026-03-29T09:28:53Z</time></trkpt><trkpt lat="44.76970113727103" lon="8.953695248720988"><ele>517.5</ele><time>2026-03-29T09:28:54Z</time></trkpt><trkpt lat="44.769657486032536" lon="8.953862538524852"><ele>516.25</ele><time>2026-03-29T09:28:55Z</time></trkpt><trkpt lat="44.76964076383097" lon="8.954004237725973"><ele>515.0</ele><time>2026-03-29T09:28:56Z</time></trkpt><trkpt lat="44.76962378835216" lon="8.954135624931626"><ele>515.4</ele><time>2026-03-29T09:28:57Z</time></trkpt><trkpt lat="44.76957541433298" lon="8.954266268925238"><ele>515.8</ele><time>2026-03-29T09:28:58Z</time></trkpt><trkpt lat="44.769531655408734" lon="8.954363866117136"><ele>516.2</ele><time>2026-03-29T09:28:59Z</time></trkpt><trkpt lat="44.76949835028552" lon="8.954509315945904"><ele>516.6</ele><time>2026-03-29T09:29:00Z</time></trkpt><trkpt lat="44.76948408148504" lon="8.954679322791891"><ele>517.0</ele><time>2026-03-29T09:29:01Z</time></trkpt><trkpt lat="44.7694780750005" lon="8.95486499874177"><ele>517.0</ele><time>2026-03-29T09:29:02Z</time></trkpt><trkpt lat="44.76945421206744" lon="8.955010011259397"><ele>517.0</ele><time>2026-03-29T09:29:03Z</time></trkpt><trkpt lat="44.76941549652253" lon="8.955131223871"><ele>517.0</ele><time>2026-03-29T09:29:04Z</time></trkpt><trkpt lat="44.76933735061538" lon="8.955275922489363"><ele>517.0</ele><time>2026-03-29T09:29:05Z</time></trkpt><trkpt lat="44.76921772066088" lon="8.955415849516237"><ele>519.0</ele><time>2026-03-29T09:29:06Z</time></trkpt><trkpt lat="44.7691376635244" lon="8.955591851867668"><ele>521.0</ele><time>2026-03-29T09:29:07Z</time></trkpt><trkpt lat="44.769094381989404" lon="8.955737665485403"><ele>523.0</ele><time>2026-03-29T09:29:08Z</time></trkpt><trkpt lat="44.76908397280959" lon="8.955846558466842"><ele>525.0</ele><time>2026-03-29T09:29:09Z</time></trkpt><trkpt lat="44.76911501175306" lon="8.955932966001486"><ele>527.0</ele><time>2026-03-29T09:29:10Z</time></trkpt><trkpt lat="44.76915284441879" lon="8.956044406398226"><ele>527.0</ele><time>2026-03-29T09:29:11Z</time></trkpt><trkpt lat="44.769213636433804" lon="8.956143938095314"><ele>527.0</ele><time>2026-03-29T09:29:12Z</time></trkpt><trkpt lat="44.76926707892231" lon="8.956262624660196"><ele>527.0</ele><time>2026-03-29T09:29:13Z</time></trkpt><trkpt lat="44.769322293716144" lon="8.956416835845303"><ele>527.0</ele><time>2026-03-29T09:29:14Z</time></trkpt><trkpt lat="44.76933597120819" lon="8.956559921503457"><ele>527.0</ele><time>2026-03-29T09:29:15Z</time></trkpt><trkpt lat="44.76930157386501" lon="8.956743765985003"><ele>527.5</ele><time>2026-03-29T09:29:16Z</time></trkpt><trkpt lat="44.769270911518596" lon="8.956974653947961"><ele>528.0</ele><time>2026-03-29T09:29:17Z</time></trkpt><trkpt lat="44.76923731706138" lon="8.957177368440759"><ele>528.5</ele><time>2026-03-29T09:29:18Z</time></trkpt><trkpt lat="44.76917218737287" lon="8.95734346225187"><ele>529.0</ele><time>2026-03-29T09:29:19Z</time></trkpt><trkpt lat="44.76905671452172" lon="8.957548032719858"><ele>530.25</ele><time>2026-03-29T09:29:20Z</time></trkpt><trkpt lat="44.76898259650302" lon="8.957680564361556"><ele>531.5</ele><time>2026-03-29T09:29:21Z</time></trkpt><trkpt lat="44.76892487447862" lon="8.95781005816827"><ele>532.75</ele><time>2026-03-29T09:29:22Z</time></trkpt><trkpt lat="44.76886986278244" lon="8.957961767163761"><ele>534.0</ele><time>2026-03-29T09:29:23Z</time></trkpt><trkpt lat="44.768818806232844" lon="8.958139383168273"><ele>534.0</ele><time>2026-03-29T09:29:24Z</time></trkpt><trkpt lat="44.76878610229923" lon="8.95831771861779"><ele>534.0</ele><time>2026-03-29T09:29:25Z</time></trkpt><trkpt lat="44.76879536344299" lon="8.958454517281188"><ele>534.0</ele><time>2026-03-29T09:29:26Z</time></trkpt><trkpt lat="44.76880984898013" lon="8.95858499478009"><ele>534.0</ele><time>2026-03-29T09:29:27.001Z</time></trkpt><trkpt lat="44.76882953639551" lon="8.958729082709809"><ele>534.0</ele><time>2026-03-29T09:29:28.001Z</time></trkpt><trkpt lat="44.76884033939466" lon="8.958892386957496"><ele>534.25</ele><time>2026-03-29T09:29:29.001Z</time></trkpt><trkpt lat="44.76880204614776" lon="8.9590964863816"><ele>534.5</ele><time>2026-03-29T09:29:30.001Z</time></trkpt><trkpt lat="44.76880113996413" lon="8.959280442613553"><ele>534.75</ele><time>2026-03-29T09:29:31.001Z</time></trkpt><trkpt lat="44.768775947799476" lon="8.959439622496923"><ele>535.0</ele><time>2026-03-29T09:29:32.001Z</time></trkpt><trkpt lat="44.768729491528205" lon="8.95963006515352"><ele>535.0</ele><time>2026-03-29T09:29:33.001Z</time></trkpt><trkpt lat="44.768707627808155" lon="8.959796242159218"><ele>535.0</ele><time>2026-03-29T09:29:34.001Z</time></trkpt><trkpt lat="44.76868437491212" lon="8.9599462120302"><ele>535.0</ele><time>2026-03-29T09:29:35.001Z</time></trkpt><trkpt lat="44.768658992236816" lon="8.960100293244452"><ele>535.0</ele><time>2026-03-29T09:29:36.001Z</time></trkpt><trkpt lat="44.76866266049715" lon="8.960217659169409"><ele>535.0</ele><time>2026-03-29T09:29:37.001Z</time></trkpt><trkpt lat="44.76867037814471" lon="8.960332079394256"><ele>538.5</ele><time>2026-03-29T09:29:38.001Z</time></trkpt><trkpt lat="44.76865449972644" lon="8.960421271957163"><ele>542.0</ele><time>2026-03-29T09:29:39.001Z</time></trkpt><trkpt lat="44.76864024289622" lon="8.960613835903187"><ele>545.5</ele><time>2026-03-29T09:29:40.001Z</time></trkpt><trkpt lat="44.76861545956822" lon="8.960822658256532"><ele>549.0</ele><time>2026-03-29T09:29:41.001Z</time></trkpt><trkpt lat="44.768572261880266" lon="8.960970976010907"><ele>551.6</ele><time>2026-03-29T09:29:42Z</time></trkpt><trkpt lat="44.76851199036722" lon="8.961068478298914"><ele>554.2</ele><time>2026-03-29T09:29:43Z</time></trkpt><trkpt lat="44.7684204831822" lon="8.961160584509495"><ele>556.8000000000001</ele><time>2026-03-29T09:29:44Z</time></trkpt><trkpt lat="44.7683302833163" lon="8.961272322535091"><ele>559.4</ele><time>2026-03-29T09:29:45Z</time></trkpt><trkpt lat="44.76826255365714" lon="8.96140845349943"><ele>562.0</ele><time>2026-03-29T09:29:46Z</time></trkpt><trkpt lat="44.768222712588496" lon="8.961525997435752"><ele>562.0</ele><time>2026-03-29T09:29:47Z</time></trkpt><trkpt lat="44.768200109196286" lon="8.961669835081063"><ele>562.0</ele><time>2026-03-29T09:29:48Z</time></trkpt><trkpt lat="44.76818051542767" lon="8.96180731203245"><ele>562.0</ele><time>2026-03-29T09:29:49Z</time></trkpt><trkpt lat="44.768192629247196" lon="8.961897739037802"><ele>562.0</ele><time>2026-03-29T09:29:50Z</time></trkpt><trkpt lat="44.76822031250378" lon="8.96204494852592"><ele>562.0</ele><time>2026-03-29T09:29:51Z</time></trkpt><trkpt lat="44.768290426188514" lon="8.962204440591586"><ele>563.0</ele><time>2026-03-29T09:29:52Z</time></trkpt><trkpt lat="44.768305272758575" lon="8.962334922122675"><ele>564.0</ele><time>2026-03-29T09:29:53Z</time></trkpt><trkpt lat="44.76830468493169" lon="8.962452662511284"><ele>565.0</ele><time>2026-03-29T09:29:54Z</time></trkpt><trkpt lat="44.76824055113146" lon="8.962627802029303"><ele>566.0</ele><time>2026-03-29T09:29:56Z</time></trkpt><trkpt lat="44.76815532469228" lon="8.962755544432392"><ele>567.0</ele><time>2026-03-29T09:29:57Z</time></trkpt><trkpt lat="44.76806444775572" lon="8.962888450259893"><ele>570.75</ele><time>2026-03-29T09:29:58Z</time></trkpt><trkpt lat="44.767977952515174" lon="8.963032125931"><ele>574.5</ele><time>2026-03-29T09:29:59Z</time></trkpt><trkpt lat="44.76789991061069" lon="8.963193763935505"><ele>578.25</ele><time>2026-03-29T09:30:00Z</time></trkpt><trkpt lat="44.767818593304625" lon="8.96332970501245"><ele>582.0</ele><time>2026-03-29T09:30:01Z</time></trkpt><trkpt lat="44.76772168193987" lon="8.963417394750072"><ele>585.0</ele><time>2026-03-29T09:30:02Z</time></trkpt><trkpt lat="44.767631894555315" lon="8.96346699036189"><ele>588.0</ele><time>2026-03-29T09:30:03Z</time></trkpt><trkpt lat="44.76750414928441" lon="8.963589298828929"><ele>591.0</ele><time>2026-03-29T09:30:04Z</time></trkpt><trkpt lat="44.7674076846156" lon="8.963704734093506"><ele>594.0</ele><time>2026-03-29T09:30:05Z</time></trkpt><trkpt lat="44.76733133834383" lon="8.963790742179759"><ele>594.0</ele><time>2026-03-29T09:30:06Z</time></trkpt><trkpt lat="44.767266626538834" lon="8.963920630326992"><ele>594.0</ele><time>2026-03-29T09:30:07Z</time></trkpt><trkpt lat="44.767189090208326" lon="8.964114858185672"><ele>594.0</ele><time>2026-03-29T09:30:08Z</time></trkpt><trkpt lat="44.76713537463856" lon="8.96430936403246"><ele>594.0</ele><time>2026-03-29T09:30:09Z</time></trkpt><trkpt lat="44.767109069329486" lon="8.964483811570547"><ele>593.25</ele><time>2026-03-29T09:30:10Z</time></trkpt><trkpt lat="44.767073787317976" lon="8.964693547884643"><ele>592.5</ele><time>2026-03-29T09:30:11Z</time></trkpt><trkpt lat="44.767034665732645" lon="8.964888037810836"><ele>591.75</ele><time>2026-03-29T09:30:12Z</time></trkpt><trkpt lat="44.76700671929862" lon="8.965044175720756"><ele>591.0</ele><time>2026-03-29T09:30:13Z</time></trkpt><trkpt lat="44.76698070523943" lon="8.965147175606393"><ele>591.0</ele><time>2026-03-29T09:30:14Z</time></trkpt><trkpt lat="44.76693551713856" lon="8.96525974164288"><ele>591.0</ele><time>2026-03-29T09:30:15Z</time></trkpt><trkpt lat="44.76689324770196" lon="8.965380616169517"><ele>591.0</ele><time>2026-03-29T09:30:16Z</time></trkpt><trkpt lat="44.76687053188288" lon="8.965511384486303"><ele>591.0</ele><time>2026-03-29T09:30:17Z</time></trkpt><trkpt lat="44.76683105956213" lon="8.965596576801987"><ele>591.0</ele><time>2026-03-29T09:30:18Z</time></trkpt><trkpt lat="44.76676956450539" lon="8.965664932713146"><ele>591.0</ele><time>2026-03-29T09:30:19Z</time></trkpt><trkpt lat="44.76670447095488" lon="8.96571043664061"><ele>590.4</ele><time>2026-03-29T09:30:20Z</time></trkpt><trkpt lat="44.76663675381881" lon="8.965771701108533"><ele>589.8</ele><time>2026-03-29T09:30:21Z</time></trkpt><trkpt lat="44.766563711625665" lon="8.96583988898245"><ele>589.1999999999999</ele><time>2026-03-29T09:30:22Z</time></trkpt><trkpt lat="44.76649525866135" lon="8.96594261546528"><ele>588.6</ele><time>2026-03-29T09:30:23Z</time></trkpt><trkpt lat="44.76642189676567" lon="8.966061337836354"><ele>588.0</ele><time>2026-03-29T09:30:24Z</time></trkpt><trkpt lat="44.76637065042743" lon="8.96617293219688"><ele>590.6</ele><time>2026-03-29T09:30:25Z</time></trkpt><trkpt lat="44.766301416863634" lon="8.966297589878842"><ele>593.1999999999999</ele><time>2026-03-29T09:30:26Z</time></trkpt><trkpt lat="44.76625482046973" lon="8.9664312073639"><ele>595.8</ele><time>2026-03-29T09:30:27Z</time></trkpt><trkpt lat="44.766234787935396" lon="8.966553968778802"><ele>598.4</ele><time>2026-03-29T09:30:28Z</time></trkpt><trkpt lat="44.76621499911887" lon="8.966718550576092"><ele>601.0</ele><time>2026-03-29T09:30:30Z</time></trkpt><trkpt lat="44.76612948647249" lon="8.966827290916893"><ele>604.0</ele><time>2026-03-29T09:30:32Z</time></trkpt><trkpt lat="44.76598790057952" lon="8.966852626127542"><ele>607.0</ele><time>2026-03-29T09:30:34Z</time></trkpt><trkpt lat="44.76591162736464" lon="8.966842804892536"><ele>610.0</ele><time>2026-03-29T09:30:35Z</time></trkpt><trkpt lat="44.76581022820856" lon="8.9668337015171"><ele>613.0</ele><time>2026-03-29T09:30:36Z</time></trkpt><trkpt lat="44.765712642680086" lon="8.966863577096303"><ele>616.0</ele><time>2026-03-29T09:30:37Z</time></trkpt><trkpt lat="44.76558323598701" lon="8.966903074201387"><ele>616.0</ele><time>2026-03-29T09:30:38Z</time></trkpt><trkpt lat="44.765485784458086" lon="8.966980696707033"><ele>616.0</ele><time>2026-03-29T09:30:39Z</time></trkpt><trkpt lat="44.7654129005765" lon="8.9670261821535"><ele>616.0</ele><time>2026-03-29T09:30:40Z</time></trkpt><trkpt lat="44.76533078947554" lon="8.967054452314816"><ele>616.0</ele><time>2026-03-29T09:30:41Z</time></trkpt><trkpt lat="44.765262044727564" lon="8.96705088927162"><ele>616.0</ele><time>2026-03-29T09:30:42Z</time></trkpt><trkpt lat="44.76518083411414" lon="8.96703535181103"><ele>616.0</ele><time>2026-03-29T09:30:43Z</time></trkpt><trkpt lat="44.76508365447466" lon="8.9669870898502"><ele>616.8333333333334</ele><time>2026-03-29T09:30:44Z</time></trkpt><trkpt lat="44.76500583783635" lon="8.966961581638445"><ele>617.6666666666667</ele><time>2026-03-29T09:30:45Z</time></trkpt><trkpt lat="44.764900736252386" lon="8.966898490123663"><ele>618.5</ele><time>2026-03-29T09:30:46Z</time></trkpt><trkpt lat="44.76482073217185" lon="8.966920455229195"><ele>619.3333333333334</ele><time>2026-03-29T09:30:47Z</time></trkpt><trkpt lat="44.76473463787793" lon="8.966955442765189"><ele>620.1666666666666</ele><time>2026-03-29T09:30:49Z</time></trkpt><trkpt lat="44.76478820095094" lon="8.967034561949518"><ele>621.0</ele><time>2026-03-29T09:30:52Z</time></trkpt><trkpt lat="44.76484371215073" lon="8.967079627560027"><ele>621.0</ele><time>2026-03-29T09:30:55Z</time></trkpt><trkpt lat="44.76489708969703" lon="8.967131010740191"><ele>621.0</ele><time>2026-03-29T09:30:57Z</time></trkpt><trkpt lat="44.76495452220972" lon="8.96717067531793"><ele>621.0</ele><time>2026-03-29T09:30:59Z</time></trkpt><trkpt lat="44.7650860694932" lon="8.967320288105748"><ele>621.0</ele><time>2026-03-29T09:31:01Z</time></trkpt><trkpt lat="44.76517918407386" lon="8.967354137656129"><ele>621.0</ele><time>2026-03-29T09:31:06Z</time></trkpt><trkpt lat="44.76524029413261" lon="8.967462171620564"><ele>623.25</ele><time>2026-03-29T09:31:08Z</time></trkpt><trkpt lat="44.76543212381315" lon="8.967651289865719"><ele>625.5</ele><time>2026-03-29T09:31:10Z</time></trkpt><trkpt lat="44.76544972399918" lon="8.967739881125569"><ele>627.75</ele><time>2026-03-29T09:31:11Z</time></trkpt><trkpt lat="44.7654825089239" lon="8.967853780749364"><ele>630.0</ele><time>2026-03-29T09:31:12Z</time></trkpt><trkpt lat="44.76550919394224" lon="8.96794884627397"><ele>630.0</ele><time>2026-03-29T09:31:13Z</time></trkpt><trkpt lat="44.76551395825196" lon="8.968070790677796"><ele>630.0</ele><time>2026-03-29T09:31:14Z</time></trkpt><trkpt lat="44.76551462510432" lon="8.968224970824494"><ele>630.0</ele><time>2026-03-29T09:31:15Z</time></trkpt><trkpt lat="44.7655300285109" lon="8.968346936142057"><ele>630.0</ele><time>2026-03-29T09:31:16Z</time></trkpt><trkpt lat="44.765546801526476" lon="8.9684358493908"><ele>630.0</ele><time>2026-03-29T09:31:17Z</time></trkpt><trkpt lat="44.76557449171653" lon="8.968585384353874"><ele>631.5</ele><time>2026-03-29T09:31:18Z</time></trkpt><trkpt lat="44.76562230770117" lon="8.96873834431574"><ele>633.0</ele><time>2026-03-29T09:31:19Z</time></trkpt><trkpt lat="44.76566397774764" lon="8.968887695505288"><ele>634.5</ele><time>2026-03-29T09:31:20Z</time></trkpt><trkpt lat="44.76565094087676" lon="8.969083781824644"><ele>636.0</ele><time>2026-03-29T09:31:21Z</time></trkpt><trkpt lat="44.765642071683246" lon="8.969309953489075"><ele>638.0</ele><time>2026-03-29T09:31:22Z</time></trkpt><trkpt lat="44.765691214988635" lon="8.969472148785675"><ele>640.0</ele><time>2026-03-29T09:31:23Z</time></trkpt><trkpt lat="44.7657367066887" lon="8.969595541663072"><ele>642.0</ele><time>2026-03-29T09:31:24Z</time></trkpt><trkpt lat="44.76579073306179" lon="8.96966643247105"><ele>644.0</ele><time>2026-03-29T09:31:26Z</time></trkpt><trkpt lat="44.765855116147115" lon="8.969758088498914"><ele>646.0</ele><time>2026-03-29T09:31:30.001Z</time></trkpt><trkpt lat="44.76591346464454" lon="8.969800485648433"><ele>646.0</ele><time>2026-03-29T09:31:35.001Z</time></trkpt><trkpt lat="44.765978175420635" lon="8.969816632894172"><ele>646.0</ele><time>2026-03-29T09:31:56Z</time></trkpt><trkpt lat="44.76603554908262" lon="8.969945006733006"><ele>646.0</ele><time>2026-03-29T09:32:01Z</time></trkpt><trkpt lat="44.76608413605931" lon="8.97003849693927"><ele>646.0</ele><time>2026-03-29T09:32:02Z</time></trkpt><trkpt lat="44.76613864566556" lon="8.970150378250949"><ele>646.0</ele><time>2026-03-29T09:32:03Z</time></trkpt><trkpt lat="44.7662131348616" lon="8.970290445106679"><ele>641.0</ele><time>2026-03-29T09:32:04Z</time></trkpt><trkpt lat="44.76627141987517" lon="8.970383698925847"><ele>636.0</ele><time>2026-03-29T09:32:05Z</time></trkpt><trkpt lat="44.766320517259565" lon="8.970467877554658"><ele>631.0</ele><time>2026-03-29T09:32:06Z</time></trkpt><trkpt lat="44.76637887702007" lon="8.97060424545094"><ele>626.0</ele><time>2026-03-29T09:32:08Z</time></trkpt><trkpt lat="44.76638394952696" lon="8.970702571128292"><ele>621.0</ele><time>2026-03-29T09:32:09Z</time></trkpt><trkpt lat="44.76639127528329" lon="8.970820642293276"><ele>616.0</ele><time>2026-03-29T09:32:10Z</time></trkpt><trkpt lat="44.76636767612762" lon="8.970983081798064"><ele>615.0</ele><time>2026-03-29T09:32:11Z</time></trkpt><trkpt lat="44.76635424215977" lon="8.971082135651852"><ele>614.0</ele><time>2026-03-29T09:32:12Z</time></trkpt><trkpt lat="44.76631708450534" lon="8.971242109811152"><ele>613.0</ele><time>2026-03-29T09:32:13Z</time></trkpt><trkpt lat="44.76627961174868" lon="8.971328345664146"><ele>612.0</ele><time>2026-03-29T09:32:14Z</time></trkpt><trkpt lat="44.76623066542759" lon="8.971424587859056"><ele>611.0</ele><time>2026-03-29T09:32:15Z</time></trkpt><trkpt lat="44.766215992856694" lon="8.971518890065546"><ele>610.0</ele><time>2026-03-29T09:32:16Z</time></trkpt><trkpt lat="44.76621286245349" lon="8.971686616794356"><ele>608.0</ele><time>2026-03-29T09:32:17Z</time></trkpt><trkpt lat="44.76622885409319" lon="8.971869448969093"><ele>606.0</ele><time>2026-03-29T09:32:18Z</time></trkpt><trkpt lat="44.76620760010031" lon="8.972038408128558"><ele>604.0</ele><time>2026-03-29T09:32:19Z</time></trkpt><trkpt lat="44.76620781172378" lon="8.972225533480527"><ele>602.0</ele><time>2026-03-29T09:32:20Z</time></trkpt><trkpt lat="44.7661497298689" lon="8.972421115639566"><ele>601.5</ele><time>2026-03-29T09:32:22Z</time></trkpt><trkpt lat="44.76611643748027" lon="8.972560628305173"><ele>601.0</ele><time>2026-03-29T09:32:23Z</time></trkpt><trkpt lat="44.76607224172992" lon="8.972721139214777"><ele>600.5</ele><time>2026-03-29T09:32:24Z</time></trkpt><trkpt lat="44.76604742250068" lon="8.972934235525733"><ele>600.0</ele><time>2026-03-29T09:32:25Z</time></trkpt><trkpt lat="44.76601137113313" lon="8.973141021872484"><ele>606.5</ele><time>2026-03-29T09:32:26Z</time></trkpt><trkpt lat="44.76595938525409" lon="8.97336337565447"><ele>613.0</ele><time>2026-03-29T09:32:27Z</time></trkpt><trkpt lat="44.76593031163864" lon="8.973549505347659"><ele>619.5</ele><time>2026-03-29T09:32:28Z</time></trkpt><trkpt lat="44.765922855711075" lon="8.973678800888228"><ele>626.0</ele><time>2026-03-29T09:32:29Z</time></trkpt><trkpt lat="44.76592786979717" lon="8.973771950681922"><ele>626.0</ele><time>2026-03-29T09:32:30Z</time></trkpt><trkpt lat="44.76583699926244" lon="8.973911818689452"><ele>626.0</ele><time>2026-03-29T09:32:32Z</time></trkpt><trkpt lat="44.76574966385448" lon="8.974022094828412"><ele>626.0</ele><time>2026-03-29T09:32:33Z</time></trkpt><trkpt lat="44.76567936250709" lon="8.97414134175132"><ele>626.0</ele><time>2026-03-29T09:32:34Z</time></trkpt><trkpt lat="44.76562488375726" lon="8.974242686702972"><ele>627.4</ele><time>2026-03-29T09:32:35Z</time></trkpt><trkpt lat="44.76559330488925" lon="8.974361481279148"><ele>628.8</ele><time>2026-03-29T09:32:36Z</time></trkpt><trkpt lat="44.76558274139968" lon="8.974510860407973"><ele>630.1999999999999</ele><time>2026-03-29T09:32:37Z</time></trkpt><trkpt lat="44.76557399376231" lon="8.974629634297767"><ele>631.6</ele><time>2026-03-29T09:32:38Z</time></trkpt><trkpt lat="44.76558689984463" lon="8.974774839171136"><ele>633.0</ele><time>2026-03-29T09:32:39Z</time></trkpt><trkpt lat="44.76562352353475" lon="8.974901307705197"><ele>635.5</ele><time>2026-03-29T09:32:40Z</time></trkpt><trkpt lat="44.76568183455166" lon="8.975078254451985"><ele>638.0</ele><time>2026-03-29T09:32:41Z</time></trkpt><trkpt lat="44.76575094809428" lon="8.975247782430825"><ele>640.5</ele><time>2026-03-29T09:32:42Z</time></trkpt><trkpt lat="44.76582569897241" lon="8.975450444088315"><ele>643.0</ele><time>2026-03-29T09:32:43Z</time></trkpt><trkpt lat="44.765895144903986" lon="8.975655615811197"><ele>643.0</ele><time>2026-03-29T09:32:44Z</time></trkpt><trkpt lat="44.76595432672404" lon="8.975824475472296"><ele>643.0</ele><time>2026-03-29T09:32:45Z</time></trkpt><trkpt lat="44.76600059836101" lon="8.975966010059606"><ele>643.0</ele><time>2026-03-29T09:32:46Z</time></trkpt><trkpt lat="44.76604060151831" lon="8.976108003168497"><ele>643.0</ele><time>2026-03-29T09:32:47Z</time></trkpt><trkpt lat="44.766072576624445" lon="8.976251537894761"><ele>646.1666666666667</ele><time>2026-03-29T09:32:48Z</time></trkpt><trkpt lat="44.766110601284446" lon="8.97632742358485"><ele>649.3333333333334</ele><time>2026-03-29T09:32:49Z</time></trkpt><trkpt lat="44.76616490962285" lon="8.976427798076891"><ele>652.5</ele><time>2026-03-29T09:32:50Z</time></trkpt><trkpt lat="44.766227958784555" lon="8.976480622726928"><ele>655.6666666666666</ele><time>2026-03-29T09:32:51Z</time></trkpt><trkpt lat="44.76627140244755" lon="8.97655867602402"><ele>658.8333333333333</ele><time>2026-03-29T09:32:52Z</time></trkpt><trkpt lat="44.76632985467267" lon="8.976675944390616"><ele>662.0</ele><time>2026-03-29T09:32:53Z</time></trkpt><trkpt lat="44.76637796071404" lon="8.976815804732098"><ele>663.75</ele><time>2026-03-29T09:32:54Z</time></trkpt><trkpt lat="44.76645165562846" lon="8.976951853967282"><ele>665.5</ele><time>2026-03-29T09:32:55Z</time></trkpt><trkpt lat="44.766516271108564" lon="8.977088908554206"><ele>667.25</ele><time>2026-03-29T09:32:56Z</time></trkpt><trkpt lat="44.766579667847715" lon="8.97721972042329"><ele>669.0</ele><time>2026-03-29T09:32:57Z</time></trkpt><trkpt lat="44.76665022707443" lon="8.977376266270438"><ele>669.0</ele><time>2026-03-29T09:32:58Z</time></trkpt><trkpt lat="44.766711521895566" lon="8.977509092578977"><ele>669.0</ele><time>2026-03-29T09:32:59Z</time></trkpt><trkpt lat="44.766802261349625" lon="8.977676056408852"><ele>669.0</ele><time>2026-03-29T09:33:00Z</time></trkpt><trkpt lat="44.76688881353509" lon="8.97787241338976"><ele>669.0</ele><time>2026-03-29T09:33:01Z</time></trkpt><trkpt lat="44.76699985775973" lon="8.978077116609574"><ele>670.75</ele><time>2026-03-29T09:33:02Z</time></trkpt><trkpt lat="44.76709628307764" lon="8.978290341057027"><ele>672.5</ele><time>2026-03-29T09:33:03Z</time></trkpt><trkpt lat="44.76718776351455" lon="8.97847813683727"><ele>674.25</ele><time>2026-03-29T09:33:04Z</time></trkpt><trkpt lat="44.76726147584643" lon="8.978585581313103"><ele>676.0</ele><time>2026-03-29T09:33:05Z</time></trkpt><trkpt lat="44.76731550952464" lon="8.97870880461235"><ele>676.0</ele><time>2026-03-29T09:33:06Z</time></trkpt><trkpt lat="44.76740213035606" lon="8.97877507110792"><ele>676.0</ele><time>2026-03-29T09:33:08Z</time></trkpt><trkpt lat="44.767448028792224" lon="8.978706858989687"><ele>676.0</ele><time>2026-03-29T09:33:10Z</time></trkpt><trkpt lat="44.767432117382164" lon="8.978596236263646"><ele>676.0</ele><time>2026-03-29T09:33:12Z</time></trkpt><trkpt lat="44.76738407493458" lon="8.97844802748595"><ele>676.0</ele><time>2026-03-29T09:33:14Z</time></trkpt><trkpt lat="44.76734753216288" lon="8.97831953926711"><ele>679.8333333333334</ele><time>2026-03-29T09:33:15Z</time></trkpt><trkpt lat="44.767337151026325" lon="8.978183143035844"><ele>683.6666666666667</ele><time>2026-03-29T09:33:16Z</time></trkpt><trkpt lat="44.767353490464345" lon="8.978067571441938"><ele>687.5</ele><time>2026-03-29T09:33:17Z</time></trkpt><trkpt lat="44.76737845467697" lon="8.977981137197487"><ele>691.3333333333334</ele><time>2026-03-29T09:33:18Z</time></trkpt><trkpt lat="44.767426059027365" lon="8.977918595471179"><ele>695.1666666666666</ele><time>2026-03-29T09:33:19Z</time></trkpt><trkpt lat="44.76751851252646" lon="8.977855652190474"><ele>699.0</ele><time>2026-03-29T09:33:20Z</time></trkpt><trkpt lat="44.76763969919341" lon="8.97777715726747"><ele>695.2</ele><time>2026-03-29T09:33:21Z</time></trkpt><trkpt lat="44.76771364246932" lon="8.977702335462919"><ele>691.4000000000001</ele><time>2026-03-29T09:33:22Z</time></trkpt><trkpt lat="44.76777473030325" lon="8.977633282569458"><ele>687.6</ele><time>2026-03-29T09:33:23Z</time></trkpt><trkpt lat="44.767750111010166" lon="8.977498872432587"><ele>683.8</ele><time>2026-03-29T09:33:25Z</time></trkpt><trkpt lat="44.76780519450316" lon="8.977401076062433"><ele>680.0</ele><time>2026-03-29T09:33:30Z</time></trkpt><trkpt lat="44.767879775346984" lon="8.977299540631325"><ele>680.0</ele><time>2026-03-29T09:33:34Z</time></trkpt><trkpt lat="44.76796790554699" lon="8.977291332750204"><ele>680.0</ele><time>2026-03-29T09:33:36Z</time></trkpt><trkpt lat="44.76801058765361" lon="8.977205513079193"><ele>680.0</ele><time>2026-03-29T09:33:38Z</time></trkpt><trkpt lat="44.76807453681867" lon="8.9771497315559"><ele>680.0</ele><time>2026-03-29T09:33:41Z</time></trkpt><trkpt lat="44.76809329469302" lon="8.977060942247936"><ele>680.0</ele><time>2026-03-29T09:33:43Z</time></trkpt><trkpt lat="44.76814839722676" lon="8.97697547221694"><ele>680.0</ele><time>2026-03-29T09:33:46.001Z</time></trkpt><trkpt lat="44.76821849493297" lon="8.976951441846376"><ele>680.0</ele><time>2026-03-29T09:33:49.001Z</time></trkpt><trkpt lat="44.76827651271708" lon="8.97687497891644"><ele>680.0</ele><time>2026-03-29T09:33:51.001Z</time></trkpt><trkpt lat="44.7683372439662" lon="8.976828683812133"><ele>680.0</ele><time>2026-03-29T09:33:53.001Z</time></trkpt><trkpt lat="44.7684354811864" lon="8.976732810434148"><ele>680.0</ele><time>2026-03-29T09:33:55Z</time></trkpt><trkpt lat="44.76853684691455" lon="8.976637918567281"><ele>680.0</ele><time>2026-03-29T09:34:00Z</time></trkpt><trkpt lat="44.76860708880467" lon="8.976556803179392"><ele>674.0</ele><time>2026-03-29T09:34:02Z</time></trkpt><trkpt lat="44.76871295756403" lon="8.976509554794891"><ele>668.0</ele><time>2026-03-29T09:34:05Z</time></trkpt><trkpt lat="44.768808909090424" lon="8.976464006494535"><ele>662.0</ele><time>2026-03-29T09:34:07Z</time></trkpt><trkpt lat="44.76886872293761" lon="8.97638505001748"><ele>656.0</ele><time>2026-03-29T09:34:08Z</time></trkpt><trkpt lat="44.769662839941844" lon="8.975744525096665"><ele>653.25</ele><time>2026-03-29T09:34:09Z</time></trkpt><trkpt lat="44.76975860040132" lon="8.975564555095444"><ele>650.5</ele><time>2026-03-29T09:34:10Z</time></trkpt><trkpt lat="44.76978050232349" lon="8.975433891297921"><ele>647.75</ele><time>2026-03-29T09:34:11Z</time></trkpt><trkpt lat="44.769852662270324" lon="8.97531275176697"><ele>645.0</ele><time>2026-03-29T09:34:13Z</time></trkpt><trkpt lat="44.76996752238666" lon="8.975260276528108"><ele>645.0</ele><time>2026-03-29T09:34:15Z</time></trkpt><trkpt lat="44.770030245044076" lon="8.975203186889315"><ele>645.0</ele><time>2026-03-29T09:34:16Z</time></trkpt><trkpt lat="44.77013294899763" lon="8.975170976952894"><ele>645.0</ele><time>2026-03-29T09:34:17Z</time></trkpt><trkpt lat="44.7702017430135" lon="8.975093054723319"><ele>645.0</ele><time>2026-03-29T09:34:18Z</time></trkpt><trkpt lat="44.77026774286245" lon="8.975006050404035"><ele>645.0</ele><time>2026-03-29T09:34:19Z</time></trkpt><trkpt lat="44.77034168616783" lon="8.97496015585794"><ele>645.0</ele><time>2026-03-29T09:34:20Z</time></trkpt><trkpt lat="44.77041993598527" lon="8.974887272558512"><ele>643.2</ele><time>2026-03-29T09:34:21Z</time></trkpt><trkpt lat="44.770489452991065" lon="8.974812190724279"><ele>641.4</ele><time>2026-03-29T09:34:22Z</time></trkpt><trkpt lat="44.77051640190942" lon="8.97471904173557"><ele>639.6</ele><time>2026-03-29T09:34:23Z</time></trkpt><trkpt lat="44.77056019094903" lon="8.974537154028328"><ele>637.8</ele><time>2026-03-29T09:34:25Z</time></trkpt><trkpt lat="44.77061252993927" lon="8.974447461154558"><ele>636.0</ele><time>2026-03-29T09:34:27Z</time></trkpt><trkpt lat="44.77042620047102" lon="8.97465649125472"><ele>636.0</ele><time>2026-03-29T09:34:28Z</time></trkpt><trkpt lat="44.770456873871446" lon="8.974529045934672"><ele>636.0</ele><time>2026-03-29T09:34:29Z</time></trkpt><trkpt lat="44.7705353461032" lon="8.974376095202457"><ele>636.0</ele><time>2026-03-29T09:34:31Z</time></trkpt><trkpt lat="44.77060478588017" lon="8.974376283207876"><ele>636.0</ele><time>2026-03-29T09:34:49Z</time></trkpt><trkpt lat="44.770751542095034" lon="8.97439541176135"><ele>636.0</ele><time>2026-03-29T09:34:51Z</time></trkpt><trkpt lat="44.77083004928711" lon="8.97449452868396"><ele>636.0</ele><time>2026-03-29T09:34:53Z</time></trkpt><trkpt lat="44.770909097542216" lon="8.974556392840269"><ele>636.0</ele><time>2026-03-29T09:34:55Z</time></trkpt><trkpt lat="44.77093947518402" lon="8.974675137184919"><ele>636.0</ele><time>2026-03-29T09:34:56Z</time></trkpt><trkpt lat="44.77101514928901" lon="8.974824936456697"><ele>636.0</ele><time>2026-03-29T09:34:57Z</time></trkpt><trkpt lat="44.771114293487045" lon="8.974929929746603"><ele>636.0</ele><time>2026-03-29T09:34:58Z</time></trkpt><trkpt lat="44.771177015321335" lon="8.975038538285524"><ele>627.0</ele><time>2026-03-29T09:34:59Z</time></trkpt><trkpt lat="44.77123453946967" lon="8.975144121366855"><ele>618.0</ele><time>2026-03-29T09:35:00Z</time></trkpt><trkpt lat="44.77128291766493" lon="8.975264491871004"><ele>609.0</ele><time>2026-03-29T09:35:01Z</time></trkpt><trkpt lat="44.771339173888684" lon="8.97533139472087"><ele>600.0</ele><time>2026-03-29T09:35:02Z</time></trkpt><trkpt lat="44.77137664638369" lon="8.975403984404544"><ele>591.0</ele><time>2026-03-29T09:35:03Z</time></trkpt><trkpt lat="44.77143571924571" lon="8.975495208405516"><ele>582.0</ele><time>2026-03-29T09:35:04Z</time></trkpt><trkpt lat="44.771563514935366" lon="8.9754944912185"><ele>582.0</ele><time>2026-03-29T09:35:06Z</time></trkpt><trkpt lat="44.7715897306136" lon="8.975400446191204"><ele>582.0</ele><time>2026-03-29T09:35:07Z</time></trkpt><trkpt lat="44.771602955677885" lon="8.975305541326868"><ele>582.0</ele><time>2026-03-29T09:35:08Z</time></trkpt><trkpt lat="44.77188214148036" lon="8.97434497082851"><ele>578.1666666666666</ele><time>2026-03-29T09:35:16Z</time></trkpt><trkpt lat="44.771926099012255" lon="8.974255249825301"><ele>574.3333333333334</ele><time>2026-03-29T09:35:17Z</time></trkpt><trkpt lat="44.77192692905623" lon="8.97414047913307"><ele>570.5</ele><time>2026-03-29T09:35:18Z</time></trkpt><trkpt lat="44.77194300466403" lon="8.974022681873683"><ele>566.6666666666667</ele><time>2026-03-29T09:35:19Z</time></trkpt><trkpt lat="44.771960779726555" lon="8.973924874656877"><ele>562.8333333333334</ele><time>2026-03-29T09:35:20Z</time></trkpt><trkpt lat="44.772033288779674" lon="8.973913002563865"><ele>559.0</ele><time>2026-03-29T09:35:21Z</time></trkpt><trkpt lat="44.772044856207" lon="8.9741453005896"><ele>559.0</ele><time>2026-03-29T09:35:24Z</time></trkpt><trkpt lat="44.772070318017136" lon="8.974342578882922"><ele>559.0</ele><time>2026-03-29T09:35:25Z</time></trkpt><trkpt lat="44.772084532954196" lon="8.974534223958798"><ele>559.0</ele><time>2026-03-29T09:35:26Z</time></trkpt><trkpt lat="44.77214822100309" lon="8.974672693760072"><ele>559.0</ele><time>2026-03-29T09:35:27Z</time></trkpt><trkpt lat="44.772197738501816" lon="8.97478394353036"><ele>559.0</ele><time>2026-03-29T09:35:28Z</time></trkpt><trkpt lat="44.77227462852745" lon="8.974938160314274"><ele>559.0</ele><time>2026-03-29T09:35:29Z</time></trkpt><trkpt lat="44.77235427246818" lon="8.975135777942132"><ele>559.0</ele><time>2026-03-29T09:35:30Z</time></trkpt><trkpt lat="44.77239181096808" lon="8.975283652257842"><ele>559.0</ele><time>2026-03-29T09:35:31Z</time></trkpt><trkpt lat="44.772481325579015" lon="8.97539604871466"><ele>558.6666666666667</ele><time>2026-03-29T09:35:33Z</time></trkpt><trkpt lat="44.77257406140177" lon="8.97543409754247"><ele>558.3333333333334</ele><time>2026-03-29T09:35:34Z</time></trkpt><trkpt lat="44.77260697221825" lon="8.975525513499052"><ele>558.0</ele><time>2026-03-29T09:35:35Z</time></trkpt><trkpt lat="44.77270701695886" lon="8.97557354519923"><ele>557.6666666666666</ele><time>2026-03-29T09:35:36Z</time></trkpt><trkpt lat="44.77278785139934" lon="8.975625878696578"><ele>557.3333333333333</ele><time>2026-03-29T09:35:37Z</time></trkpt><trkpt lat="44.77285314921547" lon="8.975679443101917"><ele>557.0</ele><time>2026-03-29T09:35:38Z</time></trkpt><trkpt lat="44.77282667818846" lon="8.975807973964395"><ele>552.25</ele><time>2026-03-29T09:35:40.001Z</time></trkpt><trkpt lat="44.772704152162234" lon="8.975873231513605"><ele>547.5</ele><time>2026-03-29T09:35:42.001Z</time></trkpt><trkpt lat="44.77262527073568" lon="8.975937314888474"><ele>542.75</ele><time>2026-03-29T09:35:43.001Z</time></trkpt><trkpt lat="44.77253107483867" lon="8.976064576513648"><ele>538.0</ele><time>2026-03-29T09:35:44.001Z</time></trkpt><trkpt lat="44.77243796396805" lon="8.97620154912873"><ele>538.0</ele><time>2026-03-29T09:35:45.001Z</time></trkpt><trkpt lat="44.77232943700771" lon="8.976392041537451"><ele>538.0</ele><time>2026-03-29T09:35:46.001Z</time></trkpt><trkpt lat="44.77220137133323" lon="8.976551853710369"><ele>538.0</ele><time>2026-03-29T09:35:47.001Z</time></trkpt><trkpt lat="44.77207327789263" lon="8.976680523727563"><ele>535.6666666666667</ele><time>2026-03-29T09:35:48.001Z</time></trkpt><trkpt lat="44.7719320335424" lon="8.976755619798258"><ele>533.3333333333334</ele><time>2026-03-29T09:35:49.001Z</time></trkpt><trkpt lat="44.771759572377555" lon="8.976813900404276"><ele>531.0</ele><time>2026-03-29T09:35:50.001Z</time></trkpt><trkpt lat="44.77156519504654" lon="8.976837693442542"><ele>531.0</ele><time>2026-03-29T09:35:51.001Z</time></trkpt><trkpt lat="44.77137396822533" lon="8.976905937679403"><ele>531.0</ele><time>2026-03-29T09:35:52.001Z</time></trkpt><trkpt lat="44.77120150408503" lon="8.976968735436058"><ele>531.0</ele><time>2026-03-29T09:35:53.001Z</time></trkpt><trkpt lat="44.771042771481795" lon="8.977018658114877"><ele>531.3333333333334</ele><time>2026-03-29T09:35:54.001Z</time></trkpt><trkpt lat="44.770921820846915" lon="8.97715559780805"><ele>531.6666666666667</ele><time>2026-03-29T09:35:55.001Z</time></trkpt><trkpt lat="44.770773651125445" lon="8.977336799714571"><ele>532.0</ele><time>2026-03-29T09:35:56.001Z</time></trkpt><trkpt lat="44.770633066093325" lon="8.977566249596418"><ele>532.0</ele><time>2026-03-29T09:35:57.001Z</time></trkpt><trkpt lat="44.77047567558925" lon="8.977802047893109"><ele>532.0</ele><time>2026-03-29T09:35:58.001Z</time></trkpt><trkpt lat="44.77032095890038" lon="8.978052059234688"><ele>537.0</ele><time>2026-03-29T09:35:59.001Z</time></trkpt><trkpt lat="44.77019000630408" lon="8.978271696421725"><ele>542.0</ele><time>2026-03-29T09:36:00Z</time></trkpt><trkpt lat="44.77009108008492" lon="8.978461588083297"><ele>547.0</ele><time>2026-03-29T09:36:01Z</time></trkpt><trkpt lat="44.77002517586995" lon="8.97863660482772"><ele>547.0</ele><time>2026-03-29T09:36:02Z</time></trkpt><trkpt lat="44.77001160218608" lon="8.978848544731504"><ele>547.0</ele><time>2026-03-29T09:36:03Z</time></trkpt><trkpt lat="44.77001808842659" lon="8.979075223352677"><ele>547.0</ele><time>2026-03-29T09:36:04Z</time></trkpt><trkpt lat="44.769991985029584" lon="8.97932930205373"><ele>545.3333333333334</ele><time>2026-03-29T09:36:05Z</time></trkpt><trkpt lat="44.769942044421214" lon="8.979577712795386"><ele>543.6666666666666</ele><time>2026-03-29T09:36:06Z</time></trkpt><trkpt lat="44.76987294593734" lon="8.979868248476008"><ele>542.0</ele><time>2026-03-29T09:36:07Z</time></trkpt><trkpt lat="44.769779181480914" lon="8.980181234242227"><ele>540.6666666666666</ele><time>2026-03-29T09:36:08Z</time></trkpt><trkpt lat="44.76970395944013" lon="8.98046226020891"><ele>539.3333333333334</ele><time>2026-03-29T09:36:09Z</time></trkpt><trkpt lat="44.76967650988379" lon="8.980731661234087"><ele>538.0</ele><time>2026-03-29T09:36:10Z</time></trkpt><trkpt lat="44.76968922694258" lon="8.980971418810416"><ele>536.8</ele><time>2026-03-29T09:36:11Z</time></trkpt><trkpt lat="44.769674418240925" lon="8.981165643424028"><ele>535.5999999999999</ele><time>2026-03-29T09:36:12Z</time></trkpt><trkpt lat="44.76965769039828" lon="8.981323915163383"><ele>534.4000000000001</ele><time>2026-03-29T09:36:13Z</time></trkpt><trkpt lat="44.769621680982155" lon="8.981423455652235"><ele>533.2</ele><time>2026-03-29T09:36:14Z</time></trkpt><trkpt lat="44.76956733232128" lon="8.9814793226555"><ele>532.0</ele><time>2026-03-29T09:36:15Z</time></trkpt><trkpt lat="44.76944791173737" lon="8.981437451320152"><ele>536.75</ele><time>2026-03-29T09:36:16Z</time></trkpt><trkpt lat="44.7693299675459" lon="8.981447467629483"><ele>541.5</ele><time>2026-03-29T09:36:17Z</time></trkpt><trkpt lat="44.769180776319864" lon="8.981414664129078"><ele>546.25</ele><time>2026-03-29T09:36:18Z</time></trkpt><trkpt lat="44.7690227749429" lon="8.981405654463448"><ele>551.0</ele><time>2026-03-29T09:36:19Z</time></trkpt><trkpt lat="44.76889579116608" lon="8.9814560071146"><ele>551.0</ele><time>2026-03-29T09:36:20Z</time></trkpt><trkpt lat="44.768815954219775" lon="8.981568198203279"><ele>551.0</ele><time>2026-03-29T09:36:21Z</time></trkpt><trkpt lat="44.76874668622783" lon="8.981732358658125"><ele>551.0</ele><time>2026-03-29T09:36:22Z</time></trkpt><trkpt lat="44.768679830591694" lon="8.98191808973217"><ele>551.0</ele><time>2026-03-29T09:36:23Z</time></trkpt><trkpt lat="44.768581011391575" lon="8.982139341470868"><ele>552.75</ele><time>2026-03-29T09:36:24Z</time></trkpt><trkpt lat="44.7684779731017" lon="8.982306340911093"><ele>554.5</ele><time>2026-03-29T09:36:25Z</time></trkpt><trkpt lat="44.76836943211548" lon="8.982412895772015"><ele>556.25</ele><time>2026-03-29T09:36:26Z</time></trkpt><trkpt lat="44.76824206288966" lon="8.982458218674967"><ele>558.0</ele><time>2026-03-29T09:36:27Z</time></trkpt><trkpt lat="44.768108027288214" lon="8.982556265204646"><ele>550.3333333333334</ele><time>2026-03-29T09:36:28Z</time></trkpt><trkpt lat="44.767990514548345" lon="8.98270599373293"><ele>542.6666666666667</ele><time>2026-03-29T09:36:29Z</time></trkpt><trkpt lat="44.76784488126965" lon="8.98285543158143"><ele>535.0</ele><time>2026-03-29T09:36:30Z</time></trkpt><trkpt lat="44.76772416447195" lon="8.982943110526298"><ele>541.0</ele><time>2026-03-29T09:36:31Z</time></trkpt><trkpt lat="44.76759842881337" lon="8.982994969158417"><ele>547.0</ele><time>2026-03-29T09:36:32Z</time></trkpt><trkpt lat="44.76749114692521" lon="8.983043839005752"><ele>553.0</ele><time>2026-03-29T09:36:33Z</time></trkpt><trkpt lat="44.76740594283986" lon="8.983094873645314"><ele>559.0</ele><time>2026-03-29T09:36:34Z</time></trkpt><trkpt lat="44.76734466629504" lon="8.983172459704344"><ele>565.0</ele><time>2026-03-29T09:36:35Z</time></trkpt><trkpt lat="44.76727549076909" lon="8.983251377550356"><ele>565.0</ele><time>2026-03-29T09:36:36Z</time></trkpt><trkpt lat="44.76721866447541" lon="8.983336100675126"><ele>565.0</ele><time>2026-03-29T09:36:37Z</time></trkpt><trkpt lat="44.76708855313154" lon="8.983465761218413"><ele>565.0</ele><time>2026-03-29T09:36:39Z</time></trkpt><trkpt lat="44.76700665914396" lon="8.983532333466934"><ele>565.0</ele><time>2026-03-29T09:36:40Z</time></trkpt><trkpt lat="44.76692449428147" lon="8.983598087117075"><ele>565.0</ele><time>2026-03-29T09:36:41Z</time></trkpt><trkpt lat="44.766855554789785" lon="8.983642042751486"><ele>544.0</ele><time>2026-03-29T09:36:43Z</time></trkpt><trkpt lat="44.76697066607342" lon="8.984273792084338"><ele>544.0</ele><time>2026-03-29T09:36:45Z</time></trkpt><trkpt lat="44.767005804932154" lon="8.984358553983819"><ele>544.0</ele><time>2026-03-29T09:36:46Z</time></trkpt><trkpt lat="44.76703369557825" lon="8.984444753983091"><ele>544.0</ele><time>2026-03-29T09:36:47Z</time></trkpt><trkpt lat="44.76702965323482" lon="8.984540590940677"><ele>544.0</ele><time>2026-03-29T09:36:48Z</time></trkpt><trkpt lat="44.767020128855975" lon="8.984649982627431"><ele>544.0</ele><time>2026-03-29T09:36:49Z</time></trkpt><trkpt lat="44.76700795966621" lon="8.984854537143232"><ele>544.0</ele><time>2026-03-29T09:36:51Z</time></trkpt><trkpt lat="44.767015331026066" lon="8.984968980844357"><ele>540.8</ele><time>2026-03-29T09:36:52Z</time></trkpt><trkpt lat="44.76702276002163" lon="8.98507424546699"><ele>537.5999999999999</ele><time>2026-03-29T09:36:53Z</time></trkpt><trkpt lat="44.76693709278924" lon="8.985227358413123"><ele>534.4</ele><time>2026-03-29T09:36:55Z</time></trkpt><trkpt lat="44.76687396048367" lon="8.985282869564855"><ele>531.1999999999999</ele><time>2026-03-29T09:36:56Z</time></trkpt><trkpt lat="44.76681366943387" lon="8.985385174174976"><ele>528.0</ele><time>2026-03-29T09:36:57Z</time></trkpt><trkpt lat="44.76675494323787" lon="8.98547352628639"><ele>527.6666666666666</ele><time>2026-03-29T09:36:59Z</time></trkpt><trkpt lat="44.766714917714914" lon="8.985553043902266"><ele>527.3333333333334</ele><time>2026-03-29T09:37:01Z</time></trkpt><trkpt lat="44.76669272486903" lon="8.985647012168494"><ele>527.0</ele><time>2026-03-29T09:37:02Z</time></trkpt><trkpt lat="44.76668269526826" lon="8.98577283373042"><ele>526.6666666666667</ele><time>2026-03-29T09:37:03Z</time></trkpt><trkpt lat="44.766724530036754" lon="8.985852853614903"><ele>526.3333333333334</ele><time>2026-03-29T09:37:04Z</time></trkpt><trkpt lat="44.76685000509529" lon="8.985959581586433"><ele>526.0</ele><time>2026-03-29T09:37:06Z</time></trkpt><trkpt lat="44.766925005919404" lon="8.986035446510398"><ele>523.75</ele><time>2026-03-29T09:37:07Z</time></trkpt><trkpt lat="44.767005931771074" lon="8.986125230505275"><ele>521.5</ele><time>2026-03-29T09:37:08Z</time></trkpt><trkpt lat="44.767091473892926" lon="8.986226771488413"><ele>519.25</ele><time>2026-03-29T09:37:09Z</time></trkpt><trkpt lat="44.767184346475574" lon="8.986357806915938"><ele>517.0</ele><time>2026-03-29T09:37:10Z</time></trkpt><trkpt lat="44.767270502802184" lon="8.986508094070446"><ele>517.0</ele><time>2026-03-29T09:37:11Z</time></trkpt><trkpt lat="44.7673464509041" lon="8.986645511085554"><ele>517.0</ele><time>2026-03-29T09:37:12Z</time></trkpt><trkpt lat="44.76740115418724" lon="8.986797360391218"><ele>517.0</ele><time>2026-03-29T09:37:13Z</time></trkpt><trkpt lat="44.76744546715826" lon="8.98690596621394"><ele>517.0</ele><time>2026-03-29T09:37:14Z</time></trkpt><trkpt lat="44.76748393444867" lon="8.987020931327981"><ele>517.0</ele><time>2026-03-29T09:37:15Z</time></trkpt><trkpt lat="44.767495688991396" lon="8.987171372403951"><ele>516.0</ele><time>2026-03-29T09:37:16Z</time></trkpt><trkpt lat="44.76746103127571" lon="8.98735589075069"><ele>515.0</ele><time>2026-03-29T09:37:17Z</time></trkpt><trkpt lat="44.767437247964345" lon="8.987531006970425"><ele>514.0</ele><time>2026-03-29T09:37:18Z</time></trkpt><trkpt lat="44.76739976075209" lon="8.987703332195172"><ele>513.0</ele><time>2026-03-29T09:37:19Z</time></trkpt><trkpt lat="44.76738700253679" lon="8.987839002711672"><ele>510.59999999999997</ele><time>2026-03-29T09:37:20Z</time></trkpt><trkpt lat="44.767340139686" lon="8.987969617017706"><ele>508.19999999999993</ele><time>2026-03-29T09:37:21Z</time></trkpt><trkpt lat="44.76731881890252" lon="8.988084560352798"><ele>505.8</ele><time>2026-03-29T09:37:22Z</time></trkpt><trkpt lat="44.7673227116906" lon="8.988222373359744"><ele>503.4</ele><time>2026-03-29T09:37:23Z</time></trkpt><trkpt lat="44.767318495940124" lon="8.988374012440426"><ele>501.0</ele><time>2026-03-29T09:37:24Z</time></trkpt><trkpt lat="44.7672856532593" lon="8.988518363912815"><ele>500.0</ele><time>2026-03-29T09:37:25Z</time></trkpt><trkpt lat="44.76725874784181" lon="8.988652725445561"><ele>499.0</ele><time>2026-03-29T09:37:26Z</time></trkpt><trkpt lat="44.76721178003567" lon="8.98876058805428"><ele>498.0</ele><time>2026-03-29T09:37:27Z</time></trkpt><trkpt lat="44.76714697709835" lon="8.988808133165618"><ele>497.0</ele><time>2026-03-29T09:37:28Z</time></trkpt><trkpt lat="44.76706025587831" lon="8.988861906249607"><ele>496.0</ele><time>2026-03-29T09:37:30Z</time></trkpt><trkpt lat="44.76703975615681" lon="8.98897195119437"><ele>495.0</ele><time>2026-03-29T09:37:31Z</time></trkpt><trkpt lat="44.76703067062875" lon="8.989088900204885"><ele>494.4</ele><time>2026-03-29T09:37:32Z</time></trkpt><trkpt lat="44.76705656837185" lon="8.989193382772257"><ele>493.8</ele><time>2026-03-29T09:37:33Z</time></trkpt><trkpt lat="44.76712082365941" lon="8.989285838787975"><ele>493.20000000000005</ele><time>2026-03-29T09:37:34Z</time></trkpt><trkpt lat="44.76710006878209" lon="8.98939241075622"><ele>492.6</ele><time>2026-03-29T09:37:35Z</time></trkpt><trkpt lat="44.767043037519535" lon="8.989501247462846"><ele>492.0</ele><time>2026-03-29T09:37:36Z</time></trkpt><trkpt lat="44.76705368233695" lon="8.98966745033211"><ele>492.0</ele><time>2026-03-29T09:37:37Z</time></trkpt><trkpt lat="44.767101537800954" lon="8.9898457191002"><ele>492.0</ele><time>2026-03-29T09:37:38Z</time></trkpt><trkpt lat="44.76712486034052" lon="8.990031181584772"><ele>492.0</ele><time>2026-03-29T09:37:39.001Z</time></trkpt><trkpt lat="44.767093150624646" lon="8.990231432370678"><ele>492.0</ele><time>2026-03-29T09:37:40.001Z</time></trkpt><trkpt lat="44.767048582774656" lon="8.99046674336632"><ele>491.33333333333337</ele><time>2026-03-29T09:37:41.001Z</time></trkpt><trkpt lat="44.767020317548564" lon="8.990722767497214"><ele>490.6666666666667</ele><time>2026-03-29T09:37:42.001Z</time></trkpt><trkpt lat="44.7669720147452" lon="8.990930174207262"><ele>490.0</ele><time>2026-03-29T09:37:43.001Z</time></trkpt><trkpt lat="44.766902754060155" lon="8.991158828690489"><ele>497.0</ele><time>2026-03-29T09:37:44.001Z</time></trkpt><trkpt lat="44.766825965844944" lon="8.991405937293363"><ele>504.0</ele><time>2026-03-29T09:37:45.001Z</time></trkpt><trkpt lat="44.76672144429991" lon="8.991633537456403"><ele>511.0</ele><time>2026-03-29T09:37:46.001Z</time></trkpt><trkpt lat="44.766650169267564" lon="8.991824649327283"><ele>512.75</ele><time>2026-03-29T09:37:47.001Z</time></trkpt><trkpt lat="44.76662596204915" lon="8.992018563568614"><ele>514.5</ele><time>2026-03-29T09:37:48.001Z</time></trkpt><trkpt lat="44.76655222380301" lon="8.992167821713943"><ele>516.25</ele><time>2026-03-29T09:37:49.001Z</time></trkpt><trkpt lat="44.76646578960614" lon="8.992339485792973"><ele>518.0</ele><time>2026-03-29T09:37:50.001Z</time></trkpt><trkpt lat="44.76633571668502" lon="8.99250293065102"><ele>516.0</ele><time>2026-03-29T09:37:51.001Z</time></trkpt><trkpt lat="44.766207076199855" lon="8.992675515883258"><ele>514.0</ele><time>2026-03-29T09:37:52.001Z</time></trkpt><trkpt lat="44.76607245703921" lon="8.992754942233914"><ele>512.0</ele><time>2026-03-29T09:37:53.001Z</time></trkpt><trkpt lat="44.76599055505469" lon="8.9928387122833"><ele>510.0</ele><time>2026-03-29T09:37:54.001Z</time></trkpt><trkpt lat="44.765970079204905" lon="8.992965745423382"><ele>509.5</ele><time>2026-03-29T09:37:55.001Z</time></trkpt><trkpt lat="44.76593858415178" lon="8.99307354790187"><ele>509.0</ele><time>2026-03-29T09:37:56.001Z</time></trkpt><trkpt lat="44.76591470391674" lon="8.993199272275708"><ele>508.5</ele><time>2026-03-29T09:37:57.001Z</time></trkpt><trkpt lat="44.765904933657694" lon="8.993311666894385"><ele>508.0</ele><time>2026-03-29T09:37:58.001Z</time></trkpt><trkpt lat="44.76591407333061" lon="8.993428550530986"><ele>507.5</ele><time>2026-03-29T09:37:59.001Z</time></trkpt><trkpt lat="44.765932216427686" lon="8.993525817760291"><ele>507.0</ele><time>2026-03-29T09:38:00.001Z</time></trkpt><trkpt lat="44.76599868503334" lon="8.99362701455187"><ele>505.66666666666663</ele><time>2026-03-29T09:38:01.001Z</time></trkpt><trkpt lat="44.76606582667012" lon="8.993762301905837"><ele>504.3333333333333</ele><time>2026-03-29T09:38:02.001Z</time></trkpt><trkpt lat="44.76614802028156" lon="8.993948664529917"><ele>503.0</ele><time>2026-03-29T09:38:03.001Z</time></trkpt><trkpt lat="44.76626259335558" lon="8.994163773712419"><ele>502.0</ele><time>2026-03-29T09:38:04.001Z</time></trkpt><trkpt lat="44.76641871067513" lon="8.994355630234889"><ele>501.0</ele><time>2026-03-29T09:38:05.001Z</time></trkpt><trkpt lat="44.76651587803385" lon="8.994490768389396"><ele>500.0</ele><time>2026-03-29T09:38:06Z</time></trkpt><trkpt lat="44.766547231959116" lon="8.9945716681897"><ele>499.0</ele><time>2026-03-29T09:38:07Z</time></trkpt><trkpt lat="44.766569530913486" lon="8.994671153982019"><ele>499.0</ele><time>2026-03-29T09:38:09Z</time></trkpt><trkpt lat="44.766582411961664" lon="8.994780144460774"><ele>499.0</ele><time>2026-03-29T09:38:13Z</time></trkpt><trkpt lat="44.76665367711025" lon="8.994917842814324"><ele>499.0</ele><time>2026-03-29T09:38:17Z</time></trkpt><trkpt lat="44.76670639184011" lon="8.995123726621586"><ele>499.0</ele><time>2026-03-29T09:38:18Z</time></trkpt><trkpt lat="44.76675464732658" lon="8.995357560231964"><ele>499.75</ele><time>2026-03-29T09:38:19Z</time></trkpt><trkpt lat="44.76682739149687" lon="8.995549514421704"><ele>500.5</ele><time>2026-03-29T09:38:20Z</time></trkpt><trkpt lat="44.76686093133881" lon="8.995700091589956"><ele>501.25</ele><time>2026-03-29T09:38:21Z</time></trkpt><trkpt lat="44.76684029765407" lon="8.995821148204952"><ele>502.0</ele><time>2026-03-29T09:38:22Z</time></trkpt><trkpt lat="44.76676058061841" lon="8.995991254997794"><ele>502.0</ele><time>2026-03-29T09:38:23Z</time></trkpt><trkpt lat="44.766702002788975" lon="8.996214881031078"><ele>502.0</ele><time>2026-03-29T09:38:24Z</time></trkpt><trkpt lat="44.76664209423967" lon="8.996331261352617"><ele>502.0</ele><time>2026-03-29T09:38:25Z</time></trkpt><trkpt lat="44.76654694198165" lon="8.996456167760254"><ele>502.0</ele><time>2026-03-29T09:38:26Z</time></trkpt><trkpt lat="44.766391115946846" lon="8.99655563677293"><ele>504.0</ele><time>2026-03-29T09:38:27Z</time></trkpt><trkpt lat="44.76626050605714" lon="8.99670035792811"><ele>506.0</ele><time>2026-03-29T09:38:28Z</time></trkpt><trkpt lat="44.766089363035704" lon="8.996863826091259"><ele>508.0</ele><time>2026-03-29T09:38:29Z</time></trkpt><trkpt lat="44.76593014417076" lon="8.997010240791115"><ele>508.0</ele><time>2026-03-29T09:38:30Z</time></trkpt><trkpt lat="44.76579069852774" lon="8.997134569683846"><ele>508.0</ele><time>2026-03-29T09:38:31Z</time></trkpt><trkpt lat="44.76565745302867" lon="8.997197266987447"><ele>508.0</ele><time>2026-03-29T09:38:32Z</time></trkpt><trkpt lat="44.7655579269527" lon="8.997309156348711"><ele>508.0</ele><time>2026-03-29T09:38:33Z</time></trkpt><trkpt lat="44.765490697398725" lon="8.997407021949895"><ele>508.00000000000006</ele><time>2026-03-29T09:38:34Z</time></trkpt><trkpt lat="44.765433350805296" lon="8.997445549544237"><ele>508.0</ele><time>2026-03-29T09:38:35Z</time></trkpt><trkpt lat="44.765350406165055" lon="8.997481400871154"><ele>508.0</ele><time>2026-03-29T09:38:36Z</time></trkpt><trkpt lat="44.765289934051374" lon="8.997535079643916"><ele>508.0</ele><time>2026-03-29T09:38:37Z</time></trkpt><trkpt lat="44.76527756343343" lon="8.997628942228337"><ele>508.00000000000006</ele><time>2026-03-29T09:38:38Z</time></trkpt><trkpt lat="44.76523878870638" lon="8.997746206355785"><ele>508.0</ele><time>2026-03-29T09:38:39Z</time></trkpt><trkpt lat="44.76518209563563" lon="8.997856007708727"><ele>510.83333333333337</ele><time>2026-03-29T09:38:40Z</time></trkpt><trkpt lat="44.765107886907764" lon="8.99793912507663"><ele>513.6666666666667</ele><time>2026-03-29T09:38:41Z</time></trkpt><trkpt lat="44.76506418339203" lon="8.998032668519087"><ele>516.5</ele><time>2026-03-29T09:38:42Z</time></trkpt><trkpt lat="44.76503249912823" lon="8.998163478029605"><ele>519.3333333333334</ele><time>2026-03-29T09:38:43Z</time></trkpt><trkpt lat="44.76501104152581" lon="8.998264525853093"><ele>522.1666666666666</ele><time>2026-03-29T09:38:44Z</time></trkpt><trkpt lat="44.76496480746403" lon="8.998391562665132"><ele>525.0</ele><time>2026-03-29T09:38:45Z</time></trkpt><trkpt lat="44.76486373172832" lon="8.998478355888539"><ele>525.0</ele><time>2026-03-29T09:38:46Z</time></trkpt><trkpt lat="44.76474789236297" lon="8.998566817329056"><ele>525.0</ele><time>2026-03-29T09:38:47Z</time></trkpt><trkpt lat="44.764675507397854" lon="8.998661440871278"><ele>525.0</ele><time>2026-03-29T09:38:48Z</time></trkpt><trkpt lat="44.7646191179003" lon="8.998793364685024"><ele>525.0</ele><time>2026-03-29T09:38:49Z</time></trkpt><trkpt lat="44.76453002864349" lon="8.998951370370312"><ele>525.0</ele><time>2026-03-29T09:38:50Z</time></trkpt><trkpt lat="44.764458688883195" lon="8.999132881671834"><ele>525.0</ele><time>2026-03-29T09:38:51Z</time></trkpt><trkpt lat="44.764385445257375" lon="8.999339600296098"><ele>525.0</ele><time>2026-03-29T09:38:52Z</time></trkpt><trkpt lat="44.764342744262315" lon="8.999503990670355"><ele>525.0</ele><time>2026-03-29T09:38:53Z</time></trkpt><trkpt lat="44.76430656039656" lon="8.999596088198276"><ele>523.8</ele><time>2026-03-29T09:38:54Z</time></trkpt><trkpt lat="44.76432226810823" lon="8.999712886496523"><ele>522.6</ele><time>2026-03-29T09:38:56Z</time></trkpt><trkpt lat="44.76433750143752" lon="8.999820981993356"><ele>521.4</ele><time>2026-03-29T09:38:57Z</time></trkpt><trkpt lat="44.76432072661444" lon="9.000002631151503"><ele>520.2</ele><time>2026-03-29T09:38:58Z</time></trkpt><trkpt lat="44.764273801779346" lon="9.00010666793953"><ele>519.0</ele><time>2026-03-29T09:38:59Z</time></trkpt><trkpt lat="44.76421611319313" lon="9.000182295882645"><ele>519.0</ele><time>2026-03-29T09:39:00Z</time></trkpt><trkpt lat="44.76411216999431" lon="9.000233724834313"><ele>519.0</ele><time>2026-03-29T09:39:01Z</time></trkpt><trkpt lat="44.764003300987916" lon="9.000308953475454"><ele>519.0</ele><time>2026-03-29T09:39:02Z</time></trkpt><trkpt lat="44.76390694288698" lon="9.000444102550196"><ele>519.0</ele><time>2026-03-29T09:39:03Z</time></trkpt><trkpt lat="44.76374982046656" lon="9.000611129038761"><ele>519.0</ele><time>2026-03-29T09:39:04Z</time></trkpt><trkpt lat="44.76358542902473" lon="9.000770600219575"><ele>519.0</ele><time>2026-03-29T09:39:05Z</time></trkpt><trkpt lat="44.76347785694649" lon="9.000902896876903"><ele>519.0</ele><time>2026-03-29T09:39:06Z</time></trkpt><trkpt lat="44.763400995176134" lon="9.001049864723019"><ele>517.8</ele><time>2026-03-29T09:39:07Z</time></trkpt><trkpt lat="44.763355325699834" lon="9.00116598404264"><ele>516.5999999999999</ele><time>2026-03-29T09:39:08Z</time></trkpt><trkpt lat="44.763300504264855" lon="9.001281213025997"><ele>515.4</ele><time>2026-03-29T09:39:09Z</time></trkpt><trkpt lat="44.76323090681932" lon="9.001332042400342"><ele>514.1999999999999</ele><time>2026-03-29T09:39:10Z</time></trkpt><trkpt lat="44.76314465514113" lon="9.001405873658873"><ele>513.0</ele><time>2026-03-29T09:39:11Z</time></trkpt><trkpt lat="44.763079779098064" lon="9.001491376810783"><ele>513.0</ele><time>2026-03-29T09:39:12Z</time></trkpt><trkpt lat="44.76306378797456" lon="9.00163411295799"><ele>513.0</ele><time>2026-03-29T09:39:13Z</time></trkpt><trkpt lat="44.763037828961714" lon="9.00179088464934"><ele>513.0</ele><time>2026-03-29T09:39:14Z</time></trkpt><trkpt lat="44.76309098393917" lon="9.001927299752696"><ele>513.0</ele><time>2026-03-29T09:39:15Z</time></trkpt><trkpt lat="44.763081500845324" lon="9.00203948352554"><ele>513.0</ele><time>2026-03-29T09:39:16Z</time></trkpt><trkpt lat="44.763027593187644" lon="9.002232373324512"><ele>512.8333333333334</ele><time>2026-03-29T09:39:17Z</time></trkpt><trkpt lat="44.76295825801348" lon="9.002332440150388"><ele>512.6666666666666</ele><time>2026-03-29T09:39:18Z</time></trkpt><trkpt lat="44.762900285626" lon="9.002384817107794"><ele>512.5</ele><time>2026-03-29T09:39:19Z</time></trkpt><trkpt lat="44.762833056875095" lon="9.00242303565765"><ele>512.3333333333333</ele><time>2026-03-29T09:39:20Z</time></trkpt><trkpt lat="44.76276769628965" lon="9.002573273688988"><ele>512.1666666666666</ele><time>2026-03-29T09:39:22Z</time></trkpt><trkpt lat="44.76271274603159" lon="9.002617913439495"><ele>512.0</ele><time>2026-03-29T09:39:23Z</time></trkpt><trkpt lat="44.76265953109762" lon="9.002704892505717"><ele>511.6</ele><time>2026-03-29T09:39:24Z</time></trkpt><trkpt lat="44.7626063705484" lon="9.002864466908377"><ele>511.20000000000005</ele><time>2026-03-29T09:39:25Z</time></trkpt><trkpt lat="44.76258600717211" lon="9.002991022472099"><ele>510.8</ele><time>2026-03-29T09:39:26Z</time></trkpt><trkpt lat="44.762596418909325" lon="9.003121949941045"><ele>510.4</ele><time>2026-03-29T09:39:27Z</time></trkpt><trkpt lat="44.76261142450351" lon="9.003275545119962"><ele>510.0</ele><time>2026-03-29T09:39:28Z</time></trkpt><trkpt lat="44.76262117453594" lon="9.003422603620495"><ele>510.0</ele><time>2026-03-29T09:39:30Z</time></trkpt><trkpt lat="44.76261340504061" lon="9.003536195175425"><ele>510.0</ele><time>2026-03-29T09:39:31Z</time></trkpt><trkpt lat="44.76254936328211" lon="9.003623821530356"><ele>510.0</ele><time>2026-03-29T09:39:33Z</time></trkpt><trkpt lat="44.762488099276915" lon="9.003740272682744"><ele>510.0</ele><time>2026-03-29T09:39:35Z</time></trkpt><trkpt lat="44.76250325544979" lon="9.003862188249874"><ele>510.0</ele><time>2026-03-29T09:39:39Z</time></trkpt><trkpt lat="44.76242178752764" lon="9.003983583855298"><ele>510.0</ele><time>2026-03-29T09:39:42Z</time></trkpt><trkpt lat="44.76242878818081" lon="9.004093280322547"><ele>510.0</ele><time>2026-03-29T09:39:45Z</time></trkpt><trkpt lat="44.76243541647182" lon="9.004190947459207"><ele>510.0</ele><time>2026-03-29T09:39:47Z</time></trkpt><trkpt lat="44.76245133170189" lon="9.004310527969128"><ele>510.0</ele><time>2026-03-29T09:39:50Z</time></trkpt><trkpt lat="44.762419090892976" lon="9.0047834351259"><ele>505.33333333333337</ele><time>2026-03-29T09:39:53Z</time></trkpt><trkpt lat="44.76243831522439" lon="9.00487861842394"><ele>500.6666666666667</ele><time>2026-03-29T09:39:54Z</time></trkpt><trkpt lat="44.76242980562963" lon="9.00535193315928"><ele>496.0</ele><time>2026-03-29T09:39:55.001Z</time></trkpt><trkpt lat="44.76244618659741" lon="9.00550122723971"><ele>496.20000000000005</ele><time>2026-03-29T09:39:57.001Z</time></trkpt><trkpt lat="44.76246467815385" lon="9.005699828351544"><ele>496.40000000000003</ele><time>2026-03-29T09:39:59.001Z</time></trkpt><trkpt lat="44.76248301030735" lon="9.005837405630569"><ele>496.6</ele><time>2026-03-29T09:40:00.001Z</time></trkpt><trkpt lat="44.76248803649469" lon="9.005934980585375"><ele>496.8</ele><time>2026-03-29T09:40:01.001Z</time></trkpt><trkpt lat="44.76251517388227" lon="9.006099168876322"><ele>497.0</ele><time>2026-03-29T09:40:03.001Z</time></trkpt><trkpt lat="44.76254219769701" lon="9.006205026018323"><ele>497.0</ele><time>2026-03-29T09:40:04.001Z</time></trkpt><trkpt lat="44.76256922995054" lon="9.006285928929486"><ele>497.0</ele><time>2026-03-29T09:40:05.001Z</time></trkpt><trkpt lat="44.762513472320826" lon="9.006403516249508"><ele>497.0</ele><time>2026-03-29T09:40:06.001Z</time></trkpt><trkpt lat="44.76247939343275" lon="9.00660108069822"><ele>497.0</ele><time>2026-03-29T09:40:07.001Z</time></trkpt><trkpt lat="44.762459466059205" lon="9.00681678579113"><ele>496.75</ele><time>2026-03-29T09:40:08.001Z</time></trkpt><trkpt lat="44.76245940195202" lon="9.007018013468633"><ele>496.5</ele><time>2026-03-29T09:40:09.001Z</time></trkpt><trkpt lat="44.76249706059399" lon="9.007193915108587"><ele>496.25</ele><time>2026-03-29T09:40:10.001Z</time></trkpt><trkpt lat="44.76253447465775" lon="9.00740124697954"><ele>496.0</ele><time>2026-03-29T09:40:12Z</time></trkpt><trkpt lat="44.76256421147485" lon="9.007480219088082"><ele>495.25</ele><time>2026-03-29T09:40:13Z</time></trkpt><trkpt lat="44.762638383291" lon="9.00762128542548"><ele>494.5</ele><time>2026-03-29T09:40:14Z</time></trkpt><trkpt lat="44.76269248650715" lon="9.007752336380909"><ele>493.75</ele><time>2026-03-29T09:40:15Z</time></trkpt><trkpt lat="44.76278287041317" lon="9.007835841745436"><ele>493.0</ele><time>2026-03-29T09:40:16Z</time></trkpt><trkpt lat="44.762909334253436" lon="9.007903809311925"><ele>493.00000000000006</ele><time>2026-03-29T09:40:17Z</time></trkpt><trkpt lat="44.762979940240605" lon="9.007912467768715"><ele>493.0</ele><time>2026-03-29T09:40:18Z</time></trkpt><trkpt lat="44.76291130864532" lon="9.007933649130955"><ele>493.0</ele><time>2026-03-29T09:40:20Z</time></trkpt><trkpt lat="44.762835399217344" lon="9.007951896029232"><ele>493.0</ele><time>2026-03-29T09:40:21Z</time></trkpt><trkpt lat="44.76273501617515" lon="9.007940700852348"><ele>493.00000000000006</ele><time>2026-03-29T09:40:22Z</time></trkpt><trkpt lat="44.762633947043966" lon="9.007968925015433"><ele>493.0</ele><time>2026-03-29T09:40:23Z</time></trkpt><trkpt lat="44.76253375858382" lon="9.007984523430682"><ele>493.0</ele><time>2026-03-29T09:40:24Z</time></trkpt><trkpt lat="44.762412882733365" lon="9.007977959884833"><ele>492.99999999999994</ele><time>2026-03-29T09:40:25Z</time></trkpt><trkpt lat="44.7623124887977" lon="9.007895715653468"><ele>492.99999999999994</ele><time>2026-03-29T09:40:26Z</time></trkpt><trkpt lat="44.762256013773595" lon="9.007798747513155"><ele>493.0</ele><time>2026-03-29T09:40:27Z</time></trkpt><trkpt lat="44.76216546433218" lon="9.007809485145874"><ele>493.0</ele><time>2026-03-29T09:40:28Z</time></trkpt><trkpt lat="44.762070347992406" lon="9.007799400020295"><ele>493.00000000000006</ele><time>2026-03-29T09:40:29Z</time></trkpt><trkpt lat="44.761983586325876" lon="9.00772057209937"><ele>493.0</ele><time>2026-03-29T09:40:30Z</time></trkpt><trkpt lat="44.76191548431282" lon="9.007724788688561"><ele>493.0</ele><time>2026-03-29T09:40:31Z</time></trkpt><trkpt lat="44.761835795722696" lon="9.007720579078427"><ele>493.0</ele><time>2026-03-29T09:40:32Z</time></trkpt><trkpt lat="44.76173574538452" lon="9.007724823655403"><ele>493.00000000000006</ele><time>2026-03-29T09:40:33Z</time></trkpt><trkpt lat="44.761668868333196" lon="9.007742780869908"><ele>493.0</ele><time>2026-03-29T09:40:34Z</time></trkpt><trkpt lat="44.76160087309329" lon="9.007759384280664"><ele>490.59999999999997</ele><time>2026-03-29T09:40:35Z</time></trkpt><trkpt lat="44.76153605092061" lon="9.007783983597902"><ele>488.19999999999993</ele><time>2026-03-29T09:40:36Z</time></trkpt><trkpt lat="44.76142149677396" lon="9.00783184263328"><ele>485.8</ele><time>2026-03-29T09:40:38Z</time></trkpt><trkpt lat="44.76134078813525" lon="9.007861109668816"><ele>483.4</ele><time>2026-03-29T09:40:40Z</time></trkpt><trkpt lat="44.76122288325603" lon="9.007917885881012"><ele>481.0</ele><time>2026-03-29T09:40:42Z</time></trkpt><trkpt lat="44.76114189462984" lon="9.008004952650346"><ele>481.0</ele><time>2026-03-29T09:40:43Z</time></trkpt><trkpt lat="44.76108847519905" lon="9.008087730179163"><ele>481.0</ele><time>2026-03-29T09:40:44Z</time></trkpt><trkpt lat="44.76099902471079" lon="9.008201152812994"><ele>481.0</ele><time>2026-03-29T09:40:45Z</time></trkpt><trkpt lat="44.76091948360349" lon="9.008270493568157"><ele>481.0</ele><time>2026-03-29T09:40:46Z</time></trkpt><trkpt lat="44.76083549846021" lon="9.008310241926575"><ele>481.0</ele><time>2026-03-29T09:40:47Z</time></trkpt><trkpt lat="44.76075752219145" lon="9.00834606330121"><ele>477.83333333333337</ele><time>2026-03-29T09:40:48Z</time></trkpt><trkpt lat="44.76068944347459" lon="9.008372728265137"><ele>474.6666666666667</ele><time>2026-03-29T09:40:49Z</time></trkpt><trkpt lat="44.76068172334424" lon="9.008473161641426"><ele>471.5</ele><time>2026-03-29T09:40:50Z</time></trkpt><trkpt lat="44.76063682415108" lon="9.008622013709157"><ele>468.33333333333337</ele><time>2026-03-29T09:40:51Z</time></trkpt><trkpt lat="44.760616663677936" lon="9.008721833335635"><ele>465.1666666666667</ele><time>2026-03-29T09:40:52Z</time></trkpt><trkpt lat="44.760578393694416" lon="9.008831226643567"><ele>462.0</ele><time>2026-03-29T09:40:54Z</time></trkpt><trkpt lat="44.76051394506888" lon="9.008912558718995"><ele>462.0</ele><time>2026-03-29T09:40:56Z</time></trkpt><trkpt lat="44.76050654713247" lon="9.009012378515086"><ele>462.00000000000006</ele><time>2026-03-29T09:41:01Z</time></trkpt><trkpt lat="44.76042677299879" lon="9.009145516437696"><ele>462.00000000000006</ele><time>2026-03-29T09:41:04Z</time></trkpt><trkpt lat="44.76037234020004" lon="9.00919407605204"><ele>462.0</ele><time>2026-03-29T09:41:05Z</time></trkpt><trkpt lat="44.76024344380022" lon="9.009149653830814"><ele>462.0</ele><time>2026-03-29T09:41:07Z</time></trkpt><trkpt lat="44.76017249945208" lon="9.009096061293722"><ele>464.20000000000005</ele><time>2026-03-29T09:41:08Z</time></trkpt><trkpt lat="44.760101658639535" lon="9.009071613187821"><ele>466.40000000000003</ele><time>2026-03-29T09:41:09Z</time></trkpt><trkpt lat="44.760013569541805" lon="9.009007010560431"><ele>468.59999999999997</ele><time>2026-03-29T09:41:11Z</time></trkpt><trkpt lat="44.75992338615433" lon="9.008972910571702"><ele>470.79999999999995</ele><time>2026-03-29T09:41:13Z</time></trkpt><trkpt lat="44.759821158375935" lon="9.00891530839005"><ele>473.0</ele><time>2026-03-29T09:41:15Z</time></trkpt><trkpt lat="44.75973082643187" lon="9.008822248606622"><ele>473.0</ele><time>2026-03-29T09:41:17Z</time></trkpt><trkpt lat="44.759663217908596" lon="9.008783715928162"><ele>473.0</ele><time>2026-03-29T09:41:18Z</time></trkpt><trkpt lat="44.75958933037505" lon="9.008741971985987"><ele>473.0</ele><time>2026-03-29T09:41:19Z</time></trkpt><trkpt lat="44.75952455800489" lon="9.008670235560793"><ele>473.0</ele><time>2026-03-29T09:41:20Z</time></trkpt><trkpt lat="44.75946332575915" lon="9.008626103173293"><ele>473.0</ele><time>2026-03-29T09:41:21Z</time></trkpt><trkpt lat="44.75938341356508" lon="9.0086067270992"><ele>473.0</ele><time>2026-03-29T09:41:23Z</time></trkpt><trkpt lat="44.759380366049996" lon="9.008695634226816"><ele>473.0</ele><time>2026-03-29T09:41:26Z</time></trkpt><trkpt lat="44.75942964287206" lon="9.008837529090773"><ele>473.0</ele><time>2026-03-29T09:41:28Z</time></trkpt><trkpt lat="44.75943366770289" lon="9.008939187088648"><ele>472.99999999999994</ele><time>2026-03-29T09:41:33Z</time></trkpt><trkpt lat="44.75932067319204" lon="9.009025047479604"><ele>472.99999999999994</ele><time>2026-03-29T09:41:36Z</time></trkpt><trkpt lat="44.75923131357371" lon="9.009032328255763"><ele>473.0</ele><time>2026-03-29T09:41:38Z</time></trkpt><trkpt lat="44.75916930081104" lon="9.009138848616702"><ele>473.0</ele><time>2026-03-29T09:41:39Z</time></trkpt><trkpt lat="44.75913268307714" lon="9.009287725423306"><ele>480.0</ele><time>2026-03-29T09:41:40Z</time></trkpt><trkpt lat="44.759110222255146" lon="9.009452316595912"><ele>486.99999999999994</ele><time>2026-03-29T09:41:41Z</time></trkpt><trkpt lat="44.75907472996439" lon="9.009551138526016"><ele>493.99999999999994</ele><time>2026-03-29T09:41:42Z</time></trkpt><trkpt lat="44.7590039657028" lon="9.00967334953681"><ele>501.0</ele><time>2026-03-29T09:41:43Z</time></trkpt><trkpt lat="44.75893336828524" lon="9.009774326984813"><ele>508.0</ele><time>2026-03-29T09:41:44Z</time></trkpt><trkpt lat="44.75885174440916" lon="9.009860073127975"><ele>508.0</ele><time>2026-03-29T09:41:45Z</time></trkpt><trkpt lat="44.75873383279929" lon="9.00992555459895"><ele>507.99999999999994</ele><time>2026-03-29T09:41:46Z</time></trkpt><trkpt lat="44.758638703756965" lon="9.009914525149487"><ele>507.99999999999994</ele><time>2026-03-29T09:41:47Z</time></trkpt><trkpt lat="44.758571365240414" lon="9.009859089583397"><ele>508.0</ele><time>2026-03-29T09:41:48Z</time></trkpt><trkpt lat="44.75849555638724" lon="9.009806397547061"><ele>508.0</ele><time>2026-03-29T09:41:49Z</time></trkpt><trkpt lat="44.75841232007898" lon="9.009838031309707"><ele>512.0</ele><time>2026-03-29T09:41:50Z</time></trkpt><trkpt lat="44.75832612143452" lon="9.009875845324876"><ele>516.0</ele><time>2026-03-29T09:41:51Z</time></trkpt><trkpt lat="44.75826109081111" lon="9.009762329657875"><ele>520.0</ele><time>2026-03-29T09:41:53Z</time></trkpt><trkpt lat="44.75821816995872" lon="9.009653512704645"><ele>524.0</ele><time>2026-03-29T09:41:54Z</time></trkpt><trkpt lat="44.758163043904126" lon="9.009569650278845"><ele>528.0</ele><time>2026-03-29T09:41:55Z</time></trkpt><trkpt lat="44.758071931777046" lon="9.009636550000351"><ele>528.0</ele><time>2026-03-29T09:41:57Z</time></trkpt><trkpt lat="44.75805366878738" lon="9.009725713307752"><ele>528.0</ele><time>2026-03-29T09:41:58Z</time></trkpt><trkpt lat="44.758020894144614" lon="9.009838482615052"><ele>528.0</ele><time>2026-03-29T09:41:59Z</time></trkpt><trkpt lat="44.75795128459247" lon="9.009922535364204"><ele>528.0</ele><time>2026-03-29T09:42:00Z</time></trkpt><trkpt lat="44.757875818334384" lon="9.00998065478634"><ele>528.0</ele><time>2026-03-29T09:42:01Z</time></trkpt><trkpt lat="44.757804842200635" lon="9.010012552034304"><ele>528.0</ele><time>2026-03-29T09:42:02Z</time></trkpt><trkpt lat="44.75773782101195" lon="9.010030925507996"><ele>530.75</ele><time>2026-03-29T09:42:03Z</time></trkpt><trkpt lat="44.75765074891874" lon="9.010025188557831"><ele>533.5</ele><time>2026-03-29T09:42:04Z</time></trkpt><trkpt lat="44.75752940622738" lon="9.009956145804695"><ele>536.25</ele><time>2026-03-29T09:42:05Z</time></trkpt><trkpt lat="44.75740292142841" lon="9.009909270183732"><ele>539.0</ele><time>2026-03-29T09:42:06Z</time></trkpt><trkpt lat="44.757284354791786" lon="9.009889880697717"><ele>539.0</ele><time>2026-03-29T09:42:07Z</time></trkpt><trkpt lat="44.757169295208875" lon="9.009919447911933"><ele>539.0</ele><time>2026-03-29T09:42:08Z</time></trkpt><trkpt lat="44.75707052787554" lon="9.00998058177385"><ele>539.0</ele><time>2026-03-29T09:42:09Z</time></trkpt><trkpt lat="44.756992096825414" lon="9.010065189366264"><ele>539.0</ele><time>2026-03-29T09:42:10Z</time></trkpt><trkpt lat="44.75688823564583" lon="9.010180446104872"><ele>544.5</ele><time>2026-03-29T09:42:11.001Z</time></trkpt><trkpt lat="44.75680680428389" lon="9.010296076596363"><ele>550.0</ele><time>2026-03-29T09:42:12.001Z</time></trkpt><trkpt lat="44.75669775582723" lon="9.0104217475572"><ele>555.5</ele><time>2026-03-29T09:42:14.001Z</time></trkpt><trkpt lat="44.756600106459445" lon="9.010494876911398"><ele>561.0</ele><time>2026-03-29T09:42:15.001Z</time></trkpt><trkpt lat="44.756503367889536" lon="9.010498394510094"><ele>561.0</ele><time>2026-03-29T09:42:16.001Z</time></trkpt><trkpt lat="44.756389156371284" lon="9.010409787208369"><ele>561.0</ele><time>2026-03-29T09:42:17.001Z</time></trkpt><trkpt lat="44.756283161809854" lon="9.010313082830764"><ele>561.0</ele><time>2026-03-29T09:42:18Z</time></trkpt><trkpt lat="44.7561579757277" lon="9.010175415659832"><ele>561.0</ele><time>2026-03-29T09:42:19Z</time></trkpt><trkpt lat="44.756006957329355" lon="9.010049988814025"><ele>561.0</ele><time>2026-03-29T09:42:20Z</time></trkpt><trkpt lat="44.75584928733796" lon="9.00995336606974"><ele>561.0</ele><time>2026-03-29T09:42:21Z</time></trkpt><trkpt lat="44.75565658162593" lon="9.009902648340795"><ele>561.0</ele><time>2026-03-29T09:42:22Z</time></trkpt><trkpt lat="44.755459318440764" lon="9.009906326852898"><ele>561.0</ele><time>2026-03-29T09:42:23Z</time></trkpt><trkpt lat="44.75528122597008" lon="9.009888227055722"><ele>561.0</ele><time>2026-03-29T09:42:24Z</time></trkpt><trkpt lat="44.755142110759095" lon="9.009902264733814"><ele>561.0</ele><time>2026-03-29T09:42:25Z</time></trkpt><trkpt lat="44.75502692615757" lon="9.009891834808688"><ele>561.0</ele><time>2026-03-29T09:42:26Z</time></trkpt><trkpt lat="44.75489273498238" lon="9.009892017545669"><ele>563.8</ele><time>2026-03-29T09:42:27Z</time></trkpt><trkpt lat="44.75478562842703" lon="9.009844751263724"><ele>566.6</ele><time>2026-03-29T09:42:28Z</time></trkpt><trkpt lat="44.754722671857316" lon="9.009799909942915"><ele>569.4</ele><time>2026-03-29T09:42:29Z</time></trkpt><trkpt lat="44.75472972270171" lon="9.009925548442565"><ele>572.2</ele><time>2026-03-29T09:42:32Z</time></trkpt><trkpt lat="44.754823186781636" lon="9.010010741082588"><ele>575.0</ele><time>2026-03-29T09:42:35Z</time></trkpt><trkpt lat="44.754830425671585" lon="9.010116127089399"><ele>577.6666666666666</ele><time>2026-03-29T09:42:37Z</time></trkpt><trkpt lat="44.75489835075564" lon="9.010152949398824"><ele>580.3333333333333</ele><time>2026-03-29T09:42:39Z</time></trkpt><trkpt lat="44.75493322743804" lon="9.01023821991593"><ele>583.0</ele><time>2026-03-29T09:42:41Z</time></trkpt><trkpt lat="44.75500348790576" lon="9.010275826102086"><ele>585.6666666666666</ele><time>2026-03-29T09:42:43Z</time></trkpt><trkpt lat="44.75506301163097" lon="9.010385542468455"><ele>588.3333333333334</ele><time>2026-03-29T09:42:46Z</time></trkpt><trkpt lat="44.75511046112436" lon="9.010529871883909"><ele>591.0</ele><time>2026-03-29T09:42:49Z</time></trkpt><trkpt lat="44.7551667669822" lon="9.010641164277006"><ele>591.0</ele><time>2026-03-29T09:42:50Z</time></trkpt><trkpt lat="44.7551727268801" lon="9.010758169310876"><ele>591.0</ele><time>2026-03-29T09:42:51Z</time></trkpt><trkpt lat="44.75521554849472" lon="9.010941879692078"><ele>591.0</ele><time>2026-03-29T09:42:53Z</time></trkpt><trkpt lat="44.755256894714904" lon="9.011048300339473"><ele>591.0</ele><time>2026-03-29T09:42:54Z</time></trkpt><trkpt lat="44.75528680023566" lon="9.011138999754332"><ele>591.0</ele><time>2026-03-29T09:42:55Z</time></trkpt><trkpt lat="44.755269824043296" lon="9.011267177467175"><ele>592.2</ele><time>2026-03-29T09:42:56Z</time></trkpt><trkpt lat="44.75525620044208" lon="9.011433596632482"><ele>593.4000000000001</ele><time>2026-03-29T09:42:57Z</time></trkpt><trkpt lat="44.7552325433793" lon="9.011528124493823"><ele>594.6</ele><time>2026-03-29T09:42:58Z</time></trkpt><trkpt lat="44.755202528667" lon="9.011383785567965"><ele>595.8000000000001</ele><time>2026-03-29T09:43:05Z</time></trkpt><trkpt lat="44.75523922006669" lon="9.011505134282816"><ele>597.0</ele><time>2026-03-29T09:43:06Z</time></trkpt><trkpt lat="44.754669690019455" lon="9.01102441206328"><ele>600.25</ele><time>2026-03-29T09:43:08Z</time></trkpt><trkpt lat="44.7545459367048" lon="9.010967087042243"><ele>603.5</ele><time>2026-03-29T09:43:09Z</time></trkpt><trkpt lat="44.754399110619225" lon="9.011013820059032"><ele>606.75</ele><time>2026-03-29T09:43:10Z</time></trkpt><trkpt lat="44.75427690689257" lon="9.01095202284037"><ele>610.0</ele><time>2026-03-29T09:43:12Z</time></trkpt><trkpt lat="44.75419469863334" lon="9.010916432879208"><ele>610.0</ele><time>2026-03-29T09:43:13Z</time></trkpt><trkpt lat="44.75408593802553" lon="9.010847533665114"><ele>610.0</ele><time>2026-03-29T09:43:14Z</time></trkpt><trkpt lat="44.75398013680624" lon="9.01078261769899"><ele>610.0</ele><time>2026-03-29T09:43:15Z</time></trkpt><trkpt lat="44.7539115668364" lon="9.01069091144379"><ele>610.0</ele><time>2026-03-29T09:43:16Z</time></trkpt><trkpt lat="44.753832994582666" lon="9.01063025970685"><ele>610.0</ele><time>2026-03-29T09:43:17Z</time></trkpt><trkpt lat="44.753779075179935" lon="9.010523413578383"><ele>610.0</ele><time>2026-03-29T09:43:19Z</time></trkpt><trkpt lat="44.753725062090304" lon="9.01039979216602"><ele>610.0</ele><time>2026-03-29T09:43:20Z</time></trkpt><trkpt lat="44.753685183865265" lon="9.01028946104418"><ele>610.0</ele><time>2026-03-29T09:43:21Z</time></trkpt><trkpt lat="44.75361405890364" lon="9.010133477371754"><ele>610.0</ele><time>2026-03-29T09:43:22Z</time></trkpt><trkpt lat="44.753546103418586" lon="9.010064687132115"><ele>610.0</ele><time>2026-03-29T09:43:23Z</time></trkpt><trkpt lat="44.75350488078392" lon="9.00996188120909"><ele>610.0</ele><time>2026-03-29T09:43:24Z</time></trkpt><trkpt lat="44.75345819844558" lon="9.009836775297197"><ele>610.0</ele><time>2026-03-29T09:43:25Z</time></trkpt><trkpt lat="44.75339896117786" lon="9.00972677106548"><ele>610.0</ele><time>2026-03-29T09:43:26Z</time></trkpt><trkpt lat="44.753326697907305" lon="9.009641055008728"><ele>610.0</ele><time>2026-03-29T09:43:27Z</time></trkpt><trkpt lat="44.75323616738235" lon="9.009542712859247"><ele>610.0</ele><time>2026-03-29T09:43:28Z</time></trkpt><trkpt lat="44.753165041153636" lon="9.009490198832747"><ele>610.0</ele><time>2026-03-29T09:43:29Z</time></trkpt><trkpt lat="44.75309414678702" lon="9.009407468721847"><ele>610.0</ele><time>2026-03-29T09:43:30Z</time></trkpt><trkpt lat="44.753050664421266" lon="9.009299873787445"><ele>610.0</ele><time>2026-03-29T09:43:31Z</time></trkpt><trkpt lat="44.75296393595571" lon="9.00916549442434"><ele>610.0</ele><time>2026-03-29T09:43:33Z</time></trkpt><trkpt lat="44.75286701257928" lon="9.009156333163336"><ele>610.0</ele><time>2026-03-29T09:43:34Z</time></trkpt><trkpt lat="44.75275763916899" lon="9.009173613188382"><ele>608.0</ele><time>2026-03-29T09:43:35Z</time></trkpt><trkpt lat="44.75264068962399" lon="9.009148176064983"><ele>606.0</ele><time>2026-03-29T09:43:36Z</time></trkpt><trkpt lat="44.75255973645021" lon="9.009100633202566"><ele>604.0</ele><time>2026-03-29T09:43:37Z</time></trkpt><trkpt lat="44.752489893944926" lon="9.009041338565707"><ele>602.0</ele><time>2026-03-29T09:43:38Z</time></trkpt><trkpt lat="44.752358118317886" lon="9.008938979427716"><ele>600.0</ele><time>2026-03-29T09:43:40Z</time></trkpt><trkpt lat="44.75230101907541" lon="9.008850485580199"><ele>600.0</ele><time>2026-03-29T09:43:41Z</time></trkpt><trkpt lat="44.7522559819011" lon="9.008745164910323"><ele>600.0</ele><time>2026-03-29T09:43:42Z</time></trkpt><trkpt lat="44.75220377270232" lon="9.008647963864062"><ele>600.0</ele><time>2026-03-29T09:43:43Z</time></trkpt><trkpt lat="44.752134798321926" lon="9.008577080423203"><ele>600.0</ele><time>2026-03-29T09:43:44Z</time></trkpt><trkpt lat="44.752056973420146" lon="9.008452164125526"><ele>600.0</ele><time>2026-03-29T09:43:45Z</time></trkpt><trkpt lat="44.751984913741914" lon="9.008314668910975"><ele>598.2</ele><time>2026-03-29T09:43:46Z</time></trkpt><trkpt lat="44.75190940243067" lon="9.008223178673523"><ele>596.4</ele><time>2026-03-29T09:43:47Z</time></trkpt><trkpt lat="44.751782276430134" lon="9.008171968154862"><ele>594.6</ele><time>2026-03-29T09:43:49Z</time></trkpt><trkpt lat="44.751716684407576" lon="9.008188324654792"><ele>592.8</ele><time>2026-03-29T09:43:50Z</time></trkpt><trkpt lat="44.75167283786892" lon="9.00833348791154"><ele>591.0</ele><time>2026-03-29T09:43:52Z</time></trkpt><trkpt lat="44.75164895184564" lon="9.008416333066"><ele>595.8</ele><time>2026-03-29T09:43:53Z</time></trkpt><trkpt lat="44.75160587784144" lon="9.008524988460236"><ele>600.6</ele><time>2026-03-29T09:43:54Z</time></trkpt><trkpt lat="44.75155741327058" lon="9.008633332219429"><ele>605.4</ele><time>2026-03-29T09:43:55Z</time></trkpt><trkpt lat="44.75145879667765" lon="9.008531748649009"><ele>610.2</ele><time>2026-03-29T09:43:59Z</time></trkpt><trkpt lat="44.75142828875611" lon="9.008435452102553"><ele>615.0</ele><time>2026-03-29T09:44:00Z</time></trkpt><trkpt lat="44.75136352505906" lon="9.008379668384231"><ele>615.0</ele><time>2026-03-29T09:44:01Z</time></trkpt><trkpt lat="44.751278799338536" lon="9.008345092858018"><ele>615.0</ele><time>2026-03-29T09:44:02Z</time></trkpt><trkpt lat="44.75118850793077" lon="9.008292435789352"><ele>615.0</ele><time>2026-03-29T09:44:03Z</time></trkpt><trkpt lat="44.75111099825279" lon="9.00826898379011"><ele>615.0</ele><time>2026-03-29T09:44:04Z</time></trkpt><trkpt lat="44.75102937679461" lon="9.008264507460465"><ele>615.0</ele><time>2026-03-29T09:44:05Z</time></trkpt><trkpt lat="44.75094557792103" lon="9.008291763419834"><ele>615.0</ele><time>2026-03-29T09:44:06Z</time></trkpt><trkpt lat="44.750842134646994" lon="9.008324606466028"><ele>614.2</ele><time>2026-03-29T09:44:07.001Z</time></trkpt><trkpt lat="44.75075862170601" lon="9.008341325538463"><ele>613.4</ele><time>2026-03-29T09:44:08.001Z</time></trkpt><trkpt lat="44.7506377513114" lon="9.008372377605337"><ele>612.6</ele><time>2026-03-29T09:44:09.001Z</time></trkpt><trkpt lat="44.75052700555578" lon="9.008371677740332"><ele>611.8</ele><time>2026-03-29T09:44:10.001Z</time></trkpt><trkpt lat="44.750404522402604" lon="9.008317021985944"><ele>611.0</ele><time>2026-03-29T09:44:12.001Z</time></trkpt><trkpt lat="44.75026735306569" lon="9.008306500460568"><ele>613.6</ele><time>2026-03-29T09:44:13.001Z</time></trkpt><trkpt lat="44.75015657467942" lon="9.008251139416613"><ele>616.2</ele><time>2026-03-29T09:44:14.001Z</time></trkpt><trkpt lat="44.75007186521529" lon="9.008196395912806"><ele>618.8</ele><time>2026-03-29T09:44:15.001Z</time></trkpt><trkpt lat="44.75001085475356" lon="9.00815735021032"><ele>621.4</ele><time>2026-03-29T09:44:16.001Z</time></trkpt><trkpt lat="44.7499694546972" lon="9.008081037114481"><ele>624.0</ele><time>2026-03-29T09:44:17.001Z</time></trkpt><trkpt lat="44.749870420003134" lon="9.008016552418757"><ele>624.0</ele><time>2026-03-29T09:44:19.001Z</time></trkpt><trkpt lat="44.749800493545706" lon="9.007984923212437"><ele>624.0</ele><time>2026-03-29T09:44:20.001Z</time></trkpt><trkpt lat="44.74969025104823" lon="9.008000335251394"><ele>624.0</ele><time>2026-03-29T09:44:22.001Z</time></trkpt><trkpt lat="44.74961858627002" lon="9.008012280480417"><ele>624.0</ele><time>2026-03-29T09:44:23.001Z</time></trkpt><trkpt lat="44.74955199558801" lon="9.008036406575142"><ele>624.0</ele><time>2026-03-29T09:44:24Z</time></trkpt><trkpt lat="44.7494862220574" lon="9.008087067579629"><ele>624.0</ele><time>2026-03-29T09:44:25Z</time></trkpt><trkpt lat="44.749367987218086" lon="9.008153926444889"><ele>627.0</ele><time>2026-03-29T09:44:27Z</time></trkpt><trkpt lat="44.7492777651434" lon="9.008244177544046"><ele>630.0</ele><time>2026-03-29T09:44:29Z</time></trkpt><trkpt lat="44.74923223893523" lon="9.008333222231634"><ele>633.0</ele><time>2026-03-29T09:44:31Z</time></trkpt><trkpt lat="44.74913512343611" lon="9.008314828734735"><ele>636.0</ele><time>2026-03-29T09:44:38Z</time></trkpt><trkpt lat="44.74903635013043" lon="9.008349241184373"><ele>639.0</ele><time>2026-03-29T09:44:40Z</time></trkpt><trkpt lat="44.7489723808208" lon="9.008377280097822"><ele>642.8</ele><time>2026-03-29T09:44:41Z</time></trkpt><trkpt lat="44.74888523214772" lon="9.008499508096968"><ele>646.5999999999999</ele><time>2026-03-29T09:44:43Z</time></trkpt><trkpt lat="44.74885368557645" lon="9.008576483930534"><ele>650.4</ele><time>2026-03-29T09:44:44Z</time></trkpt><trkpt lat="44.74881257936634" lon="9.00872565517182"><ele>654.1999999999999</ele><time>2026-03-29T09:44:46Z</time></trkpt><trkpt lat="44.7488390579519" lon="9.008851614832418"><ele>658.0</ele><time>2026-03-29T09:44:47Z</time></trkpt><trkpt lat="44.74886178859384" lon="9.008995624966204"><ele>658.0</ele><time>2026-03-29T09:44:48Z</time></trkpt><trkpt lat="44.74889663585389" lon="9.009122146937147"><ele>658.0</ele><time>2026-03-29T09:44:49Z</time></trkpt><trkpt lat="44.748936526743584" lon="9.009205429181971"><ele>658.0</ele><time>2026-03-29T09:44:50Z</time></trkpt><trkpt lat="44.748982344175566" lon="9.009270470809522"><ele>658.0</ele><time>2026-03-29T09:44:51Z</time></trkpt><trkpt lat="44.74900299652358" lon="9.009381578784373"><ele>658.0</ele><time>2026-03-29T09:44:53Z</time></trkpt><trkpt lat="44.74896528074706" lon="9.009458567122392"><ele>658.0</ele><time>2026-03-29T09:44:54Z</time></trkpt><trkpt lat="44.748927785805584" lon="9.00954401573678"><ele>660.3333333333334</ele><time>2026-03-29T09:44:55Z</time></trkpt><trkpt lat="44.748898420867285" lon="9.009691031348714"><ele>662.6666666666667</ele><time>2026-03-29T09:44:57Z</time></trkpt><trkpt lat="44.748888162822254" lon="9.009819783157003"><ele>665.0</ele><time>2026-03-29T09:44:59Z</time></trkpt><trkpt lat="44.748816009799505" lon="9.00987995639115"><ele>667.3333333333334</ele><time>2026-03-29T09:45:00Z</time></trkpt><trkpt lat="44.748772454173334" lon="9.009949259779576"><ele>669.6666666666666</ele><time>2026-03-29T09:45:01Z</time></trkpt><trkpt lat="44.74875591606002" lon="9.010065924466439"><ele>672.0</ele><time>2026-03-29T09:45:02Z</time></trkpt><trkpt lat="44.748706540279585" lon="9.010173870707527"><ele>675.4000000000001</ele><time>2026-03-29T09:45:03Z</time></trkpt><trkpt lat="44.7487284636844" lon="9.010335500039155"><ele>678.8000000000001</ele><time>2026-03-29T09:45:05Z</time></trkpt><trkpt lat="44.74877783219385" lon="9.01044169101346"><ele>682.2</ele><time>2026-03-29T09:45:06Z</time></trkpt><trkpt lat="44.74878987110755" lon="9.010548655685659"><ele>685.6</ele><time>2026-03-29T09:45:07Z</time></trkpt><trkpt lat="44.74876488197487" lon="9.010652072608817"><ele>689.0</ele><time>2026-03-29T09:45:08Z</time></trkpt><trkpt lat="44.748715070005765" lon="9.010768939525828"><ele>687.5</ele><time>2026-03-29T09:45:09Z</time></trkpt><trkpt lat="44.74865457484585" lon="9.01095172616795"><ele>686.0</ele><time>2026-03-29T09:45:10Z</time></trkpt><trkpt lat="44.7486057718779" lon="9.011125411526605"><ele>684.5</ele><time>2026-03-29T09:45:11Z</time></trkpt><trkpt lat="44.74851904338267" lon="9.011289895920886"><ele>683.0</ele><time>2026-03-29T09:45:13Z</time></trkpt><trkpt lat="44.7484208229194" lon="9.011308200256993"><ele>683.0</ele><time>2026-03-29T09:45:15Z</time></trkpt><trkpt lat="44.74832583780722" lon="9.011374500472739"><ele>683.0</ele><time>2026-03-29T09:45:16Z</time></trkpt><trkpt lat="44.748220292032926" lon="9.011467854294045"><ele>683.0</ele><time>2026-03-29T09:45:17Z</time></trkpt><trkpt lat="44.748111071138894" lon="9.01158060160341"><ele>683.0</ele><time>2026-03-29T09:45:18Z</time></trkpt><trkpt lat="44.748000463152174" lon="9.011664457259963"><ele>686.1666666666666</ele><time>2026-03-29T09:45:19Z</time></trkpt><trkpt lat="44.747922499666295" lon="9.011736745052817"><ele>689.3333333333333</ele><time>2026-03-29T09:45:20Z</time></trkpt><trkpt lat="44.74785368936228" lon="9.01183095441503"><ele>692.5</ele><time>2026-03-29T09:45:21Z</time></trkpt><trkpt lat="44.74786556103097" lon="9.011921646700511"><ele>695.6666666666666</ele><time>2026-03-29T09:45:22Z</time></trkpt><trkpt lat="44.74789025268991" lon="9.01201068753174"><ele>698.8333333333334</ele><time>2026-03-29T09:45:23Z</time></trkpt><trkpt lat="44.74792651687395" lon="9.012123476529114"><ele>702.0</ele><time>2026-03-29T09:45:24Z</time></trkpt><trkpt lat="44.74798116867599" lon="9.012280309285984"><ele>702.0</ele><time>2026-03-29T09:45:25Z</time></trkpt><trkpt lat="44.74803085077267" lon="9.012407729353773"><ele>702.0</ele><time>2026-03-29T09:45:26Z</time></trkpt><trkpt lat="44.74805730958237" lon="9.012513557311427"><ele>702.0</ele><time>2026-03-29T09:45:27Z</time></trkpt><trkpt lat="44.748099524152956" lon="9.012598313477074"><ele>702.0</ele><time>2026-03-29T09:45:28Z</time></trkpt><trkpt lat="44.74818920154442" lon="9.012728756099257"><ele>702.0</ele><time>2026-03-29T09:45:30Z</time></trkpt><trkpt lat="44.74818169203921" lon="9.012906301830185"><ele>702.6</ele><time>2026-03-29T09:45:33Z</time></trkpt><trkpt lat="44.748190280687155" lon="9.013041504732989"><ele>703.2</ele><time>2026-03-29T09:45:35Z</time></trkpt><trkpt lat="44.748170379934564" lon="9.013155366141115"><ele>703.8</ele><time>2026-03-29T09:45:37Z</time></trkpt><trkpt lat="44.748054655666365" lon="9.013244914486638"><ele>704.4</ele><time>2026-03-29T09:45:39Z</time></trkpt><trkpt lat="44.74792704317392" lon="9.013268639776243"><ele>705.0</ele><time>2026-03-29T09:45:40Z</time></trkpt><trkpt lat="44.74779470978036" lon="9.013307488460294"><ele>699.5</ele><time>2026-03-29T09:45:41Z</time></trkpt><trkpt lat="44.74763047822805" lon="9.0133596288915"><ele>694.0</ele><time>2026-03-29T09:45:42Z</time></trkpt><trkpt lat="44.74750654047215" lon="9.013419738096694"><ele>688.5</ele><time>2026-03-29T09:45:43Z</time></trkpt><trkpt lat="44.74740723071926" lon="9.013451139199127"><ele>683.0</ele><time>2026-03-29T09:45:44Z</time></trkpt><trkpt lat="44.74729946712649" lon="9.013561650643242"><ele>683.0</ele><time>2026-03-29T09:45:46Z</time></trkpt><trkpt lat="44.74722077341263" lon="9.013680222732424"><ele>683.0</ele><time>2026-03-29T09:45:47Z</time></trkpt><trkpt lat="44.74713104482849" lon="9.013768736880651"><ele>683.0</ele><time>2026-03-29T09:45:48Z</time></trkpt><trkpt lat="44.74706236428981" lon="9.013861506474251"><ele>683.0</ele><time>2026-03-29T09:45:49Z</time></trkpt><trkpt lat="44.74703374765193" lon="9.013957241260028"><ele>683.0</ele><time>2026-03-29T09:45:50Z</time></trkpt><trkpt lat="44.74702363982925" lon="9.014071767906755"><ele>688.0</ele><time>2026-03-29T09:45:51Z</time></trkpt><trkpt lat="44.747050488566195" lon="9.014275435566764"><ele>693.0</ele><time>2026-03-29T09:45:52Z</time></trkpt><trkpt lat="44.7470392613776" lon="9.01438600770281"><ele>698.0</ele><time>2026-03-29T09:45:53Z</time></trkpt><trkpt lat="44.746972881134745" lon="9.014526409007487"><ele>703.0</ele><time>2026-03-29T09:45:54Z</time></trkpt><trkpt lat="44.74696023243927" lon="9.014641115142867"><ele>708.0</ele><time>2026-03-29T09:45:55Z</time></trkpt><trkpt lat="44.746959475824376" lon="9.014778859450656"><ele>708.0</ele><time>2026-03-29T09:45:56Z</time></trkpt><trkpt lat="44.74697561014343" lon="9.014979254943562"><ele>708.0</ele><time>2026-03-29T09:45:57Z</time></trkpt><trkpt lat="44.74699987460334" lon="9.015164839244198"><ele>708.0</ele><time>2026-03-29T09:45:58Z</time></trkpt><trkpt lat="44.747012828375965" lon="9.015337422103638"><ele>708.0</ele><time>2026-03-29T09:45:59Z</time></trkpt><trkpt lat="44.747050901568414" lon="9.015477181220605"><ele>708.0</ele><time>2026-03-29T09:46:00Z</time></trkpt><trkpt lat="44.7471218707654" lon="9.015583355874845"><ele>708.0</ele><time>2026-03-29T09:46:01Z</time></trkpt><trkpt lat="44.747202213021865" lon="9.015687542326312"><ele>708.0</ele><time>2026-03-29T09:46:03Z</time></trkpt><trkpt lat="44.74705250925359" lon="9.015774588410236"><ele>708.0</ele><time>2026-03-29T09:46:06Z</time></trkpt><trkpt lat="44.74698449564816" lon="9.015886375177155"><ele>707.6666666666666</ele><time>2026-03-29T09:46:07Z</time></trkpt><trkpt lat="44.74693142437878" lon="9.016014237380382"><ele>707.3333333333334</ele><time>2026-03-29T09:46:08Z</time></trkpt><trkpt lat="44.74690196408805" lon="9.016099135028194"><ele>707.0</ele><time>2026-03-29T09:46:09.001Z</time></trkpt><trkpt lat="44.74689560078836" lon="9.016189556361377"><ele>706.6666666666667</ele><time>2026-03-29T09:46:10.001Z</time></trkpt><trkpt lat="44.74688519885662" lon="9.016343348708961"><ele>706.3333333333334</ele><time>2026-03-29T09:46:11.001Z</time></trkpt><trkpt lat="44.74688927829517" lon="9.016486329492402"><ele>706.0</ele><time>2026-03-29T09:46:12.001Z</time></trkpt><trkpt lat="44.746885621500326" lon="9.016579472501084"><ele>705.0</ele><time>2026-03-29T09:46:13.001Z</time></trkpt><trkpt lat="44.74686752137044" lon="9.016735969666739"><ele>704.0</ele><time>2026-03-29T09:46:14.001Z</time></trkpt><trkpt lat="44.74683796944371" lon="9.01683185407819"><ele>703.0</ele><time>2026-03-29T09:46:15.001Z</time></trkpt><trkpt lat="44.74682036512252" lon="9.01693917545117"><ele>702.0</ele><time>2026-03-29T09:46:16.001Z</time></trkpt><trkpt lat="44.746790725276284" lon="9.017019162687737"><ele>701.0</ele><time>2026-03-29T09:46:17.001Z</time></trkpt><trkpt lat="44.74674238065531" lon="9.01711840661783"><ele>700.0</ele><time>2026-03-29T09:46:18.001Z</time></trkpt><trkpt lat="44.74669092847012" lon="9.017193860899363"><ele>700.0</ele><time>2026-03-29T09:46:19.001Z</time></trkpt><trkpt lat="44.74672503409233" lon="9.017274145416051"><ele>700.0</ele><time>2026-03-29T09:46:20.001Z</time></trkpt><trkpt lat="44.746791682324265" lon="9.017300016074797"><ele>700.0</ele><time>2026-03-29T09:46:21.001Z</time></trkpt><trkpt lat="44.74687052097361" lon="9.01735514717329"><ele>700.0</ele><time>2026-03-29T09:46:23.001Z</time></trkpt><trkpt lat="44.746842713797115" lon="9.017473444034778"><ele>700.0</ele><time>2026-03-29T09:46:25.001Z</time></trkpt><trkpt lat="44.74677621503646" lon="9.017568814292721"><ele>700.0</ele><time>2026-03-29T09:46:26.001Z</time></trkpt><trkpt lat="44.746671421322155" lon="9.017646713426167"><ele>705.5</ele><time>2026-03-29T09:46:27.001Z</time></trkpt><trkpt lat="44.7465773550502" lon="9.01770246509511"><ele>711.0</ele><time>2026-03-29T09:46:28.001Z</time></trkpt><trkpt lat="44.74646133415114" lon="9.017724025916145"><ele>716.5</ele><time>2026-03-29T09:46:29.001Z</time></trkpt><trkpt lat="44.74634194737544" lon="9.017716108809548"><ele>722.0</ele><time>2026-03-29T09:46:30Z</time></trkpt><trkpt lat="44.74623222270771" lon="9.017739397365762"><ele>722.0</ele><time>2026-03-29T09:46:31Z</time></trkpt><trkpt lat="44.74611710390662" lon="9.0177489378008"><ele>722.0</ele><time>2026-03-29T09:46:32Z</time></trkpt><trkpt lat="44.74604898390141" lon="9.01773759322164"><ele>722.0</ele><time>2026-03-29T09:46:33Z</time></trkpt><trkpt lat="44.74597882694719" lon="9.01759901824828"><ele>722.0</ele><time>2026-03-29T09:46:34Z</time></trkpt><trkpt lat="44.74592904389312" lon="9.01746709028518"><ele>722.0</ele><time>2026-03-29T09:46:35Z</time></trkpt><trkpt lat="44.745859604648935" lon="9.017384886890582"><ele>724.75</ele><time>2026-03-29T09:46:36Z</time></trkpt><trkpt lat="44.745719442109504" lon="9.017372080871812"><ele>727.5</ele><time>2026-03-29T09:46:38Z</time></trkpt><trkpt lat="44.74562449701437" lon="9.017445005626227"><ele>730.25</ele><time>2026-03-29T09:46:39Z</time></trkpt><trkpt lat="44.74553331478179" lon="9.017624928889177"><ele>733.0</ele><time>2026-03-29T09:46:40Z</time></trkpt><trkpt lat="44.74542504447763" lon="9.017743867860188"><ele>733.0</ele><time>2026-03-29T09:46:41Z</time></trkpt><trkpt lat="44.74533055385962" lon="9.0178378617189"><ele>733.0</ele><time>2026-03-29T09:46:42Z</time></trkpt><trkpt lat="44.74524234125638" lon="9.01789050271942"><ele>733.0</ele><time>2026-03-29T09:46:43Z</time></trkpt><trkpt lat="44.74512309513521" lon="9.017896014739938"><ele>733.0</ele><time>2026-03-29T09:46:44Z</time></trkpt><trkpt lat="44.74500547377256" lon="9.017911888765086"><ele>733.0</ele><time>2026-03-29T09:46:45Z</time></trkpt><trkpt lat="44.744906294768185" lon="9.01792442710079"><ele>733.4</ele><time>2026-03-29T09:46:46Z</time></trkpt><trkpt lat="44.74481201726539" lon="9.01788571035079"><ele>733.8</ele><time>2026-03-29T09:46:47Z</time></trkpt><trkpt lat="44.74472973694308" lon="9.017862566294411"><ele>734.2</ele><time>2026-03-29T09:46:48Z</time></trkpt><trkpt lat="44.74464863784432" lon="9.018050987932783"><ele>734.6</ele><time>2026-03-29T09:46:50Z</time></trkpt><trkpt lat="44.7445937246503" lon="9.018171113068897"><ele>735.0</ele><time>2026-03-29T09:46:51Z</time></trkpt><trkpt lat="44.74453053626083" lon="9.018274852282465"><ele>737.4</ele><time>2026-03-29T09:46:52Z</time></trkpt><trkpt lat="44.74446477957822" lon="9.018328446851543"><ele>739.8</ele><time>2026-03-29T09:46:53Z</time></trkpt><trkpt lat="44.74437981675347" lon="9.018404503460587"><ele>742.2</ele><time>2026-03-29T09:46:54Z</time></trkpt><trkpt lat="44.74431045651679" lon="9.018529592783533"><ele>744.6</ele><time>2026-03-29T09:46:55Z</time></trkpt><trkpt lat="44.74424088082386" lon="9.018677998715317"><ele>747.0</ele><time>2026-03-29T09:46:56Z</time></trkpt><trkpt lat="44.74418376145998" lon="9.0188399362196"><ele>747.0</ele><time>2026-03-29T09:46:57Z</time></trkpt><trkpt lat="44.74412608866868" lon="9.018986905424558"><ele>747.0</ele><time>2026-03-29T09:46:58Z</time></trkpt><trkpt lat="44.74408953867561" lon="9.019145288217354"><ele>747.0</ele><time>2026-03-29T09:46:59Z</time></trkpt><trkpt lat="44.74408642075098" lon="9.019322310637103"><ele>747.0</ele><time>2026-03-29T09:47:00Z</time></trkpt><trkpt lat="44.7440628491675" lon="9.019457278128037"><ele>750.6</ele><time>2026-03-29T09:47:01Z</time></trkpt><trkpt lat="44.74397180155295" lon="9.019560669090389"><ele>754.2</ele><time>2026-03-29T09:47:03Z</time></trkpt><trkpt lat="44.74390324267829" lon="9.019641215260355"><ele>757.8</ele><time>2026-03-29T09:47:05Z</time></trkpt><trkpt lat="44.74376822412569" lon="9.019640708106108"><ele>761.4</ele><time>2026-03-29T09:47:07Z</time></trkpt><trkpt lat="44.74366281404157" lon="9.019636177223587"><ele>765.0</ele><time>2026-03-29T09:47:08Z</time></trkpt><trkpt lat="44.743541603119965" lon="9.01966805298387"><ele>765.0</ele><time>2026-03-29T09:47:09Z</time></trkpt><trkpt lat="44.74334559389321" lon="9.019688147911449"><ele>765.0</ele><time>2026-03-29T09:47:10Z</time></trkpt><trkpt lat="44.74317143873169" lon="9.019727965464744"><ele>765.0</ele><time>2026-03-29T09:47:11Z</time></trkpt><trkpt lat="44.74306371467574" lon="9.01970647966745"><ele>765.0</ele><time>2026-03-29T09:47:12Z</time></trkpt><trkpt lat="44.7429745279944" lon="9.019668638002333"><ele>765.0</ele><time>2026-03-29T09:47:13Z</time></trkpt><trkpt lat="44.74292067314982" lon="9.019574279134206"><ele>765.0</ele><time>2026-03-29T09:47:14Z</time></trkpt><trkpt lat="44.74285955656306" lon="9.019410821136233"><ele>765.0</ele><time>2026-03-29T09:47:15Z</time></trkpt><trkpt lat="44.742845522464606" lon="9.019297151510923"><ele>765.0</ele><time>2026-03-29T09:47:17Z</time></trkpt><trkpt lat="44.74290637962931" lon="9.019218397692221"><ele>763.75</ele><time>2026-03-29T09:47:18Z</time></trkpt><trkpt lat="44.74298277130623" lon="9.01911168719213"><ele>762.5</ele><time>2026-03-29T09:47:19Z</time></trkpt><trkpt lat="44.7430331569683" lon="9.01895107824417"><ele>761.25</ele><time>2026-03-29T09:47:20Z</time></trkpt><trkpt lat="44.743048709648846" lon="9.018773003280817"><ele>760.0</ele><time>2026-03-29T09:47:21Z</time></trkpt><trkpt lat="44.74305773674057" lon="9.018562446553531"><ele>757.6666666666667</ele><time>2026-03-29T09:47:22Z</time></trkpt><trkpt lat="44.74304389126068" lon="9.018277023305428"><ele>755.3333333333334</ele><time>2026-03-29T09:47:23Z</time></trkpt><trkpt lat="44.74299639832913" lon="9.018032225580637"><ele>753.0</ele><time>2026-03-29T09:47:24Z</time></trkpt><trkpt lat="44.74295032782911" lon="9.017810501924895"><ele>753.0</ele><time>2026-03-29T09:47:25Z</time></trkpt><trkpt lat="44.74287988764458" lon="9.017573705517336"><ele>753.0</ele><time>2026-03-29T09:47:26Z</time></trkpt><trkpt lat="44.7427866307858" lon="9.017328218115383"><ele>753.0</ele><time>2026-03-29T09:47:27Z</time></trkpt><trkpt lat="44.7427268357944" lon="9.017092937377237"><ele>760.75</ele><time>2026-03-29T09:47:28Z</time></trkpt><trkpt lat="44.74269417627518" lon="9.016932775689854"><ele>768.5</ele><time>2026-03-29T09:47:29Z</time></trkpt><trkpt lat="44.74270424729297" lon="9.016826734029145"><ele>776.25</ele><time>2026-03-29T09:47:30Z</time></trkpt><trkpt lat="44.74262480755375" lon="9.016637142188683"><ele>784.0</ele><time>2026-03-29T09:47:32Z</time></trkpt><trkpt lat="44.742533127811775" lon="9.016521614296995"><ele>784.0</ele><time>2026-03-29T09:47:33Z</time></trkpt><trkpt lat="44.74242357597798" lon="9.016399860994266"><ele>784.0</ele><time>2026-03-29T09:47:34Z</time></trkpt><trkpt lat="44.74227205338601" lon="9.016275353375407"><ele>784.0</ele><time>2026-03-29T09:47:35Z</time></trkpt><trkpt lat="44.742123489674015" lon="9.016145404938232"><ele>784.0</ele><time>2026-03-29T09:47:36Z</time></trkpt><trkpt lat="44.74196629463919" lon="9.016050054147762"><ele>784.0</ele><time>2026-03-29T09:47:37Z</time></trkpt><trkpt lat="44.74190027339834" lon="9.016021677535402"><ele>784.0</ele><time>2026-03-29T09:47:38Z</time></trkpt><trkpt lat="44.74186067080722" lon="9.015935038765319"><ele>784.0</ele><time>2026-03-29T09:47:39Z</time></trkpt><trkpt lat="44.74188214723335" lon="9.015759485854844"><ele>784.0</ele><time>2026-03-29T09:47:40Z</time></trkpt><trkpt lat="44.74183986392919" lon="9.01553372613424"><ele>783.8000000000001</ele><time>2026-03-29T09:47:41Z</time></trkpt><trkpt lat="44.741812535542394" lon="9.015354708933506"><ele>783.6</ele><time>2026-03-29T09:47:42Z</time></trkpt><trkpt lat="44.74181411255076" lon="9.015205359032715"><ele>783.4</ele><time>2026-03-29T09:47:43Z</time></trkpt><trkpt lat="44.74184714418516" lon="9.015080693402467"><ele>783.2</ele><time>2026-03-29T09:47:44Z</time></trkpt><trkpt lat="44.74189423474596" lon="9.014940128542172"><ele>783.0</ele><time>2026-03-29T09:47:45Z</time></trkpt><trkpt lat="44.741983903873894" lon="9.01480162711332"><ele>783.0</ele><time>2026-03-29T09:47:46Z</time></trkpt><trkpt lat="44.74201240219167" lon="9.014672705946417"><ele>783.0</ele><time>2026-03-29T09:47:47Z</time></trkpt><trkpt lat="44.74193463159288" lon="9.014513842013892"><ele>783.0</ele><time>2026-03-29T09:47:49Z</time></trkpt><trkpt lat="44.74186221608858" lon="9.014456762634316"><ele>783.0</ele><time>2026-03-29T09:47:50Z</time></trkpt><trkpt lat="44.74175038321608" lon="9.014404894363876"><ele>783.0</ele><time>2026-03-29T09:47:51Z</time></trkpt><trkpt lat="44.74158262889437" lon="9.01435314436414"><ele>788.3333333333333</ele><time>2026-03-29T09:47:52Z</time></trkpt><trkpt lat="44.74140675030675" lon="9.014288917743214"><ele>793.6666666666666</ele><time>2026-03-29T09:47:53Z</time></trkpt><trkpt lat="44.74124139812801" lon="9.01422173151998"><ele>799.0</ele><time>2026-03-29T09:47:54Z</time></trkpt><trkpt lat="44.74109673894548" lon="9.01414745689662"><ele>802.0</ele><time>2026-03-29T09:47:55Z</time></trkpt><trkpt lat="44.74098878535255" lon="9.014078943065954"><ele>805.0</ele><time>2026-03-29T09:47:56Z</time></trkpt><trkpt lat="44.74090160579895" lon="9.014019200572822"><ele>808.0</ele><time>2026-03-29T09:47:57Z</time></trkpt><trkpt lat="44.74078017856609" lon="9.013899362722565"><ele>811.0</ele><time>2026-03-29T09:47:58Z</time></trkpt><trkpt lat="44.74067156757512" lon="9.01379378591158"><ele>811.0</ele><time>2026-03-29T09:47:59Z</time></trkpt><trkpt lat="44.74055622809355" lon="9.013734561023455"><ele>811.0</ele><time>2026-03-29T09:48:00Z</time></trkpt><trkpt lat="44.740462888594195" lon="9.013660530707497"><ele>811.0</ele><time>2026-03-29T09:48:01Z</time></trkpt><trkpt lat="44.74035752099838" lon="9.013601201244683"><ele>811.0</ele><time>2026-03-29T09:48:02Z</time></trkpt><trkpt lat="44.74024771660838" lon="9.013520580963183"><ele>811.25</ele><time>2026-03-29T09:48:03Z</time></trkpt><trkpt lat="44.7401198215628" lon="9.013444700347211"><ele>811.5</ele><time>2026-03-29T09:48:04Z</time></trkpt><trkpt lat="44.73999795164635" lon="9.013330487683122"><ele>811.75</ele><time>2026-03-29T09:48:05Z</time></trkpt><trkpt lat="44.739925639864204" lon="9.013239796941393"><ele>812.0</ele><time>2026-03-29T09:48:06Z</time></trkpt><trkpt lat="44.73985979489344" lon="9.013149554742915"><ele>812.0000000000001</ele><time>2026-03-29T09:48:07Z</time></trkpt><trkpt lat="44.73980276932069" lon="9.013093765991433"><ele>812.0</ele><time>2026-03-29T09:48:08Z</time></trkpt><trkpt lat="44.73976558810604" lon="9.012942467147267"><ele>812.0</ele><time>2026-03-29T09:48:09Z</time></trkpt><trkpt lat="44.7397525557114" lon="9.012845947896075"><ele>812.0</ele><time>2026-03-29T09:48:10Z</time></trkpt><trkpt lat="44.73969565812858" lon="9.012767269994399"><ele>812.0000000000001</ele><time>2026-03-29T09:48:11Z</time></trkpt><trkpt lat="44.739615223607025" lon="9.012701229157623"><ele>812.0</ele><time>2026-03-29T09:48:12Z</time></trkpt><trkpt lat="44.73953657120265" lon="9.012671774469029"><ele>812.0</ele><time>2026-03-29T09:48:13Z</time></trkpt><trkpt lat="44.73942568811376" lon="9.01261981403387"><ele>812.0</ele><time>2026-03-29T09:48:14Z</time></trkpt><trkpt lat="44.739301292832536" lon="9.01255988995148"><ele>812.0</ele><time>2026-03-29T09:48:15Z</time></trkpt><trkpt lat="44.739153382477895" lon="9.01249037353933"><ele>812.0</ele><time>2026-03-29T09:48:16Z</time></trkpt><trkpt lat="44.73904703345674" lon="9.0124083573164"><ele>813.2</ele><time>2026-03-29T09:48:17Z</time></trkpt><trkpt lat="44.73896492186086" lon="9.012320670843927"><ele>814.4000000000001</ele><time>2026-03-29T09:48:19Z</time></trkpt><trkpt lat="44.73897806446715" lon="9.01219561844679"><ele>815.5999999999999</ele><time>2026-03-29T09:48:20Z</time></trkpt><trkpt lat="44.73897948016934" lon="9.012088320260432"><ele>816.8</ele><time>2026-03-29T09:48:21.001Z</time></trkpt><trkpt lat="44.73896509245806" lon="9.011933446397673"><ele>818.0</ele><time>2026-03-29T09:48:22.001Z</time></trkpt><trkpt lat="44.738967530113925" lon="9.011776363671316"><ele>818.0</ele><time>2026-03-29T09:48:24.001Z</time></trkpt><trkpt lat="44.73896441789028" lon="9.011682023805488"><ele>818.0</ele><time>2026-03-29T09:48:25.001Z</time></trkpt><trkpt lat="44.738959167223996" lon="9.011552541921594"><ele>818.0</ele><time>2026-03-29T09:48:26.001Z</time></trkpt><trkpt lat="44.738977602315266" lon="9.011438329966703"><ele>818.0</ele><time>2026-03-29T09:48:27.001Z</time></trkpt><trkpt lat="44.73898889005081" lon="9.01130822944965"><ele>818.0</ele><time>2026-03-29T09:48:28.001Z</time></trkpt><trkpt lat="44.73904255674" lon="9.011148491947774"><ele>816.2857142857142</ele><time>2026-03-29T09:48:29.001Z</time></trkpt><trkpt lat="44.739075196133484" lon="9.011069716793365"><ele>814.5714285714287</ele><time>2026-03-29T09:48:30.001Z</time></trkpt><trkpt lat="44.73908861832591" lon="9.010963355331151"><ele>812.8571428571429</ele><time>2026-03-29T09:48:31.001Z</time></trkpt><trkpt lat="44.73913005089796" lon="9.010862270263782"><ele>811.1428571428571</ele><time>2026-03-29T09:48:32.001Z</time></trkpt><trkpt lat="44.739171993330295" lon="9.01076307279355"><ele>809.4285714285713</ele><time>2026-03-29T09:48:33.001Z</time></trkpt><trkpt lat="44.739194378727895" lon="9.010665816820422"><ele>807.7142857142858</ele><time>2026-03-29T09:48:34.001Z</time></trkpt><trkpt lat="44.73920677967333" lon="9.010568286366695"><ele>806.0</ele><time>2026-03-29T09:48:35.001Z</time></trkpt><trkpt lat="44.7391653036983" lon="9.010440713072827"><ele>803.0</ele><time>2026-03-29T09:48:36Z</time></trkpt><trkpt lat="44.73912381755357" lon="9.010328554491862"><ele>800.0</ele><time>2026-03-29T09:48:37Z</time></trkpt><trkpt lat="44.739109242151436" lon="9.010236602902124"><ele>797.0</ele><time>2026-03-29T09:48:38Z</time></trkpt><trkpt lat="44.73907882007105" lon="9.010072438574017"><ele>794.0</ele><time>2026-03-29T09:48:40Z</time></trkpt><trkpt lat="44.73905562730894" lon="9.009929283240592"><ele>791.0</ele><time>2026-03-29T09:48:42Z</time></trkpt><trkpt lat="44.739144000822385" lon="9.009810212180213"><ele>787.4</ele><time>2026-03-29T09:48:44Z</time></trkpt><trkpt lat="44.739218406485875" lon="9.009656059661728"><ele>783.8</ele><time>2026-03-29T09:48:46Z</time></trkpt><trkpt lat="44.73928037165044" lon="9.009512314383736"><ele>780.1999999999999</ele><time>2026-03-29T09:48:48Z</time></trkpt><trkpt lat="44.739310028707955" lon="9.00940436589304"><ele>776.5999999999999</ele><time>2026-03-29T09:48:50Z</time></trkpt><trkpt lat="44.739241176513936" lon="9.009297235538874"><ele>773.0</ele><time>2026-03-29T09:48:53Z</time></trkpt><trkpt lat="44.73915520355756" lon="9.00916026021376"><ele>768.8</ele><time>2026-03-29T09:48:55Z</time></trkpt><trkpt lat="44.739052786529925" lon="9.009081127333621"><ele>764.5999999999999</ele><time>2026-03-29T09:48:56Z</time></trkpt><trkpt lat="44.73898848091265" lon="9.009006618351103"><ele>760.4000000000001</ele><time>2026-03-29T09:48:57Z</time></trkpt><trkpt lat="44.738893009245764" lon="9.00892384171989"><ele>756.2</ele><time>2026-03-29T09:48:59Z</time></trkpt><trkpt lat="44.738807531631856" lon="9.008811272631846"><ele>752.0</ele><time>2026-03-29T09:49:01Z</time></trkpt><trkpt lat="44.73882881378786" lon="9.008647974130907"><ele>752.0</ele><time>2026-03-29T09:49:03Z</time></trkpt><trkpt lat="44.73883525510798" lon="9.00854954080951"><ele>752.0</ele><time>2026-03-29T09:49:07Z</time></trkpt><trkpt lat="44.73875303787644" lon="9.008428562316599"><ele>752.0</ele><time>2026-03-29T09:49:09Z</time></trkpt><trkpt lat="44.738706708431536" lon="9.008286731772971"><ele>752.0</ele><time>2026-03-29T09:49:11Z</time></trkpt><trkpt lat="44.738632334480954" lon="9.00811176747124"><ele>752.0</ele><time>2026-03-29T09:49:12Z</time></trkpt><trkpt lat="44.738582243139255" lon="9.007970494472447"><ele>747.25</ele><time>2026-03-29T09:49:13Z</time></trkpt><trkpt lat="44.738589679916096" lon="9.007810659579944"><ele>742.5</ele><time>2026-03-29T09:49:14Z</time></trkpt><trkpt lat="44.73862187587285" lon="9.007707745339255"><ele>737.75</ele><time>2026-03-29T09:49:15Z</time></trkpt><trkpt lat="44.73868278301522" lon="9.007540936352765"><ele>733.0</ele><time>2026-03-29T09:49:16Z</time></trkpt><trkpt lat="44.73875665521832" lon="9.007337004055644"><ele>731.8</ele><time>2026-03-29T09:49:17Z</time></trkpt><trkpt lat="44.73882309587041" lon="9.007166708310427"><ele>730.5999999999999</ele><time>2026-03-29T09:49:18Z</time></trkpt><trkpt lat="44.738857578554416" lon="9.00702797996939"><ele>729.4000000000001</ele><time>2026-03-29T09:49:19Z</time></trkpt><trkpt lat="44.73888412859556" lon="9.006923030022104"><ele>728.2</ele><time>2026-03-29T09:49:20Z</time></trkpt><trkpt lat="44.7388597106522" lon="9.006794836096104"><ele>727.0</ele><time>2026-03-29T09:49:22Z</time></trkpt><trkpt lat="44.738736888963615" lon="9.006732436207253"><ele>709.0</ele><time>2026-03-29T09:49:24Z</time></trkpt><trkpt lat="44.738221512957026" lon="9.006352201368209"><ele>709.0</ele><time>2026-03-29T09:49:31Z</time></trkpt><trkpt lat="44.73814732864445" lon="9.00638032138694"><ele>709.0</ele><time>2026-03-29T09:49:33Z</time></trkpt><trkpt lat="44.73805783740516" lon="9.006364718612218"><ele>709.0</ele><time>2026-03-29T09:49:36Z</time></trkpt><trkpt lat="44.73812388129907" lon="9.006244836934192"><ele>709.0</ele><time>2026-03-29T09:49:38Z</time></trkpt><trkpt lat="44.738241140772764" lon="9.006143363890057"><ele>709.0</ele><time>2026-03-29T09:49:40Z</time></trkpt><trkpt lat="44.738296782639566" lon="9.006200479351921"><ele>709.0</ele><time>2026-03-29T09:49:41Z</time></trkpt><trkpt lat="44.738360485623254" lon="9.006217688149029"><ele>709.0</ele><time>2026-03-29T09:49:42Z</time></trkpt><trkpt lat="44.738495182287636" lon="9.006152870141907"><ele>709.0</ele><time>2026-03-29T09:49:44Z</time></trkpt><trkpt lat="44.73858120066972" lon="9.006111351165718"><ele>709.0</ele><time>2026-03-29T09:49:45Z</time></trkpt><trkpt lat="44.73859218177948" lon="9.00597075517632"><ele>709.0</ele><time>2026-03-29T09:49:46Z</time></trkpt><trkpt lat="44.73856566789566" lon="9.005875599057187"><ele>705.8000000000001</ele><time>2026-03-29T09:49:47Z</time></trkpt><trkpt lat="44.7384901726085" lon="9.005769741519526"><ele>702.6</ele><time>2026-03-29T09:49:48Z</time></trkpt><trkpt lat="44.73857551037459" lon="9.005682307856741"><ele>699.4</ele><time>2026-03-29T09:49:49Z</time></trkpt><trkpt lat="44.73860122244532" lon="9.005582243554791"><ele>696.2</ele><time>2026-03-29T09:49:50Z</time></trkpt><trkpt lat="44.738659372072924" lon="9.005497947595359"><ele>693.0</ele><time>2026-03-29T09:49:51Z</time></trkpt><trkpt lat="44.738751565150096" lon="9.00544390209905"><ele>693.0</ele><time>2026-03-29T09:49:52Z</time></trkpt><trkpt lat="44.7388619551174" lon="9.005394772159695"><ele>693.0</ele><time>2026-03-29T09:49:53Z</time></trkpt><trkpt lat="44.73891091943813" lon="9.005223284556005"><ele>693.0</ele><time>2026-03-29T09:49:54Z</time></trkpt><trkpt lat="44.73897698931276" lon="9.005092464743425"><ele>693.0</ele><time>2026-03-29T09:49:55Z</time></trkpt><trkpt lat="44.73905784170281" lon="9.005054278430864"><ele>693.0</ele><time>2026-03-29T09:49:56Z</time></trkpt><trkpt lat="44.73913991677743" lon="9.005037355176109"><ele>693.0</ele><time>2026-03-29T09:49:57Z</time></trkpt><trkpt lat="44.739283719837616" lon="9.005015950895869"><ele>693.0</ele><time>2026-03-29T09:49:59Z</time></trkpt><trkpt lat="44.73936192814841" lon="9.00498745326013"><ele>693.0</ele><time>2026-03-29T09:50:00Z</time></trkpt><trkpt lat="44.739444599652444" lon="9.004959640879083"><ele>693.0</ele><time>2026-03-29T09:50:01Z</time></trkpt><trkpt lat="44.7395263022702" lon="9.004975415379121"><ele>693.0</ele><time>2026-03-29T09:50:02Z</time></trkpt><trkpt lat="44.739629332468795" lon="9.004999438440993"><ele>690.8</ele><time>2026-03-29T09:50:03Z</time></trkpt><trkpt lat="44.739702109806444" lon="9.00501391863018"><ele>688.5999999999999</ele><time>2026-03-29T09:50:04Z</time></trkpt><trkpt lat="44.7397948966601" lon="9.00508656446683"><ele>686.4000000000001</ele><time>2026-03-29T09:50:05Z</time></trkpt><trkpt lat="44.7398519636746" lon="9.005149862748585"><ele>684.2</ele><time>2026-03-29T09:50:06Z</time></trkpt><trkpt lat="44.73991077633338" lon="9.005182406830594"><ele>682.0</ele><time>2026-03-29T09:50:07Z</time></trkpt><trkpt lat="44.7400640531529" lon="9.005194787552776"><ele>682.0</ele><time>2026-03-29T09:50:09Z</time></trkpt><trkpt lat="44.74013352266856" lon="9.005247651258845"><ele>682.0</ele><time>2026-03-29T09:50:10Z</time></trkpt><trkpt lat="44.74020070702577" lon="9.005328324736912"><ele>682.0</ele><time>2026-03-29T09:50:11Z</time></trkpt><trkpt lat="44.7402751193175" lon="9.005370631199739"><ele>682.0</ele><time>2026-03-29T09:50:12Z</time></trkpt><trkpt lat="44.74034707307887" lon="9.005394516919745"><ele>682.0</ele><time>2026-03-29T09:50:13Z</time></trkpt><trkpt lat="44.74040936174019" lon="9.005437744911172"><ele>682.0</ele><time>2026-03-29T09:50:14Z</time></trkpt><trkpt lat="44.740425335822344" lon="9.005524824352047"><ele>678.3333333333334</ele><time>2026-03-29T09:50:15Z</time></trkpt><trkpt lat="44.74050936950614" lon="9.005448959572135"><ele>674.6666666666667</ele><time>2026-03-29T09:50:18Z</time></trkpt><trkpt lat="44.740577117488385" lon="9.005397717939088"><ele>671.0</ele><time>2026-03-29T09:50:20.001Z</time></trkpt><trkpt lat="44.74060330263055" lon="9.005313649350029"><ele>667.3333333333334</ele><time>2026-03-29T09:50:22.001Z</time></trkpt><trkpt lat="44.740666265310686" lon="9.005235893718364"><ele>663.6666666666666</ele><time>2026-03-29T09:50:24.001Z</time></trkpt><trkpt lat="44.74071596439763" lon="9.005131514118167"><ele>660.0</ele><time>2026-03-29T09:50:26.001Z</time></trkpt><trkpt lat="44.74078298715054" lon="9.005077659451016"><ele>658.5</ele><time>2026-03-29T09:50:28.001Z</time></trkpt><trkpt lat="44.740826817578636" lon="9.004979417978973"><ele>657.0</ele><time>2026-03-29T09:50:31.001Z</time></trkpt><trkpt lat="44.740890583974334" lon="9.004905924978786"><ele>655.5</ele><time>2026-03-29T09:50:33.001Z</time></trkpt><trkpt lat="44.74085521189916" lon="9.00477468739672"><ele>654.0</ele><time>2026-03-29T09:50:36.001Z</time></trkpt><trkpt lat="44.74089913979042" lon="9.004685521979791"><ele>652.5</ele><time>2026-03-29T09:50:38.001Z</time></trkpt><trkpt lat="44.740946168871005" lon="9.004563535870322"><ele>651.0</ele><time>2026-03-29T09:50:39.001Z</time></trkpt><trkpt lat="44.740948081842944" lon="9.00445200703062"><ele>651.0</ele><time>2026-03-29T09:50:40.001Z</time></trkpt><trkpt lat="44.740954778718944" lon="9.004307445284937"><ele>651.0</ele><time>2026-03-29T09:50:41.001Z</time></trkpt><trkpt lat="44.7409256920653" lon="9.004088286411001"><ele>651.0</ele><time>2026-03-29T09:50:42Z</time></trkpt><trkpt lat="44.74092964842409" lon="9.00391088279482"><ele>651.0</ele><time>2026-03-29T09:50:43Z</time></trkpt><trkpt lat="44.740894405040635" lon="9.003755109961098"><ele>646.8</ele><time>2026-03-29T09:50:44Z</time></trkpt><trkpt lat="44.74089147303472" lon="9.003600089760742"><ele>642.5999999999999</ele><time>2026-03-29T09:50:45Z</time></trkpt><trkpt lat="44.740881893068234" lon="9.003462068366524"><ele>638.4</ele><time>2026-03-29T09:50:46Z</time></trkpt><trkpt lat="44.74086074785827" lon="9.003325924820853"><ele>634.2</ele><time>2026-03-29T09:50:47Z</time></trkpt><trkpt lat="44.7408570562415" lon="9.003166053966579"><ele>630.0</ele><time>2026-03-29T09:50:48Z</time></trkpt><trkpt lat="44.740931407172475" lon="9.002890996909011"><ele>626.2</ele><time>2026-03-29T09:50:50Z</time></trkpt><trkpt lat="44.74098979650826" lon="9.002756861060348"><ele>622.4</ele><time>2026-03-29T09:50:51Z</time></trkpt><trkpt lat="44.741055504322276" lon="9.002649551150652"><ele>618.6</ele><time>2026-03-29T09:50:52Z</time></trkpt><trkpt lat="44.74111165011172" lon="9.002545541615135"><ele>614.8</ele><time>2026-03-29T09:50:53Z</time></trkpt><trkpt lat="44.74115379104205" lon="9.002431228972654"><ele>611.0</ele><time>2026-03-29T09:50:54Z</time></trkpt><trkpt lat="44.74116325854905" lon="9.00225838306682"><ele>608.6666666666666</ele><time>2026-03-29T09:50:55Z</time></trkpt><trkpt lat="44.741116045742814" lon="9.002014295094279"><ele>606.3333333333334</ele><time>2026-03-29T09:50:56Z</time></trkpt><trkpt lat="44.74109795451058" lon="9.001769443125921"><ele>604.0</ele><time>2026-03-29T09:50:57Z</time></trkpt><trkpt lat="44.74110108295895" lon="9.001549198578367"><ele>602.25</ele><time>2026-03-29T09:50:58Z</time></trkpt><trkpt lat="44.74111430093225" lon="9.001353513759243"><ele>600.5</ele><time>2026-03-29T09:50:59Z</time></trkpt><trkpt lat="44.741114342111" lon="9.001209569321013"><ele>598.75</ele><time>2026-03-29T09:51:00Z</time></trkpt><trkpt lat="44.74109357842517" lon="9.00107631872978"><ele>597.0</ele><time>2026-03-29T09:51:01Z</time></trkpt><trkpt lat="44.74104762607258" lon="9.000893591254686"><ele>593.0</ele><time>2026-03-29T09:51:02Z</time></trkpt><trkpt lat="44.74099840167829" lon="9.000719599634227"><ele>589.0</ele><time>2026-03-29T09:51:03Z</time></trkpt><trkpt lat="44.74095033988494" lon="9.000567570080023"><ele>585.0</ele><time>2026-03-29T09:51:04Z</time></trkpt><trkpt lat="44.74089193544079" lon="9.000432120037999"><ele>581.0</ele><time>2026-03-29T09:51:05Z</time></trkpt><trkpt lat="44.740833846648655" lon="9.000335016119346"><ele>581.0</ele><time>2026-03-29T09:51:06Z</time></trkpt><trkpt lat="44.740772818552315" lon="9.00025169464576"><ele>581.0</ele><time>2026-03-29T09:51:07Z</time></trkpt><trkpt lat="44.74071408313142" lon="9.000150563819027"><ele>581.0</ele><time>2026-03-29T09:51:08Z</time></trkpt><trkpt lat="44.74063923244168" lon="9.000088866028708"><ele>581.0</ele><time>2026-03-29T09:51:09Z</time></trkpt><trkpt lat="44.74058094232064" lon="9.00000782344997"><ele>581.0</ele><time>2026-03-29T09:51:10Z</time></trkpt><trkpt lat="44.74057142967427" lon="8.999910950998075"><ele>581.0</ele><time>2026-03-29T09:51:11Z</time></trkpt><trkpt lat="44.74060381235708" lon="8.999792760394584"><ele>581.0</ele><time>2026-03-29T09:51:12Z</time></trkpt><trkpt lat="44.740658415068" lon="8.999701025516153"><ele>581.0</ele><time>2026-03-29T09:51:13Z</time></trkpt><trkpt lat="44.74072960037975" lon="8.999622078545144"><ele>581.0</ele><time>2026-03-29T09:51:14Z</time></trkpt><trkpt lat="44.74081805335839" lon="8.999534210644859"><ele>581.0</ele><time>2026-03-29T09:51:15Z</time></trkpt><trkpt lat="44.74087968817838" lon="8.999498132642092"><ele>581.0</ele><time>2026-03-29T09:51:16Z</time></trkpt><trkpt lat="44.74095567753819" lon="8.99945081942821"><ele>581.0</ele><time>2026-03-29T09:51:17Z</time></trkpt><trkpt lat="44.74102161512942" lon="8.999407600847801"><ele>579.75</ele><time>2026-03-29T09:51:18Z</time></trkpt><trkpt lat="44.74111196762105" lon="8.999422520340987"><ele>578.5</ele><time>2026-03-29T09:51:19Z</time></trkpt><trkpt lat="44.741222392920655" lon="8.99947167742669"><ele>577.25</ele><time>2026-03-29T09:51:20Z</time></trkpt><trkpt lat="44.74133360789158" lon="8.999492964845647"><ele>576.0</ele><time>2026-03-29T09:51:21Z</time></trkpt><trkpt lat="44.741466785276494" lon="8.999515637898007"><ele>576.0</ele><time>2026-03-29T09:51:22Z</time></trkpt><trkpt lat="44.74155539067469" lon="8.999558926792291"><ele>576.0</ele><time>2026-03-29T09:51:23Z</time></trkpt><trkpt lat="44.74154450595511" lon="8.999468667768038"><ele>576.0</ele><time>2026-03-29T09:51:27Z</time></trkpt><trkpt lat="44.74144270508277" lon="8.999398801649795"><ele>576.0</ele><time>2026-03-29T09:51:28Z</time></trkpt><trkpt lat="44.74133602227005" lon="8.999314264315858"><ele>576.0</ele><time>2026-03-29T09:51:29Z</time></trkpt><trkpt lat="44.74122446076919" lon="8.999243327569385"><ele>576.0</ele><time>2026-03-29T09:51:30Z</time></trkpt><trkpt lat="44.74113445883275" lon="8.999182344612121"><ele>576.0</ele><time>2026-03-29T09:51:31Z</time></trkpt><trkpt lat="44.74102271584886" lon="8.999168337137267"><ele>576.0</ele><time>2026-03-29T09:51:32Z</time></trkpt><trkpt lat="44.74092937135989" lon="8.999114578478025"><ele>576.0</ele><time>2026-03-29T09:51:33Z</time></trkpt><trkpt lat="44.74083874863055" lon="8.999098205397434"><ele>576.0</ele><time>2026-03-29T09:51:34Z</time></trkpt><trkpt lat="44.7407533081861" lon="8.999103126260401"><ele>577.0</ele><time>2026-03-29T09:51:35Z</time></trkpt><trkpt lat="44.740678219633274" lon="8.999148705237245"><ele>578.0</ele><time>2026-03-29T09:51:36Z</time></trkpt><trkpt lat="44.74059030018927" lon="8.999196572466438"><ele>579.0</ele><time>2026-03-29T09:51:37Z</time></trkpt><trkpt lat="44.74053048989399" lon="8.999253221639924"><ele>580.0</ele><time>2026-03-29T09:51:38Z</time></trkpt><trkpt lat="44.740490024487876" lon="8.999362419206717"><ele>581.0</ele><time>2026-03-29T09:51:39Z</time></trkpt><trkpt lat="44.74046220881693" lon="8.999522504000836"><ele>581.0</ele><time>2026-03-29T09:51:41Z</time></trkpt><trkpt lat="44.740399153355945" lon="8.999583021907569"><ele>581.0</ele><time>2026-03-29T09:51:43Z</time></trkpt><trkpt lat="44.74036345273373" lon="8.999448846256577"><ele>581.0</ele><time>2026-03-29T09:51:46Z</time></trkpt><trkpt lat="44.74035220703652" lon="8.999330151279"><ele>581.0</ele><time>2026-03-29T09:51:50Z</time></trkpt><trkpt lat="44.74032403161346" lon="8.999236414153586"><ele>581.0</ele><time>2026-03-29T09:51:51Z</time></trkpt><trkpt lat="44.74036345921963" lon="8.999145558457643"><ele>581.0</ele><time>2026-03-29T09:51:53Z</time></trkpt><trkpt lat="44.74026289760793" lon="8.999021284666457"><ele>580.5</ele><time>2026-03-29T09:51:55Z</time></trkpt><trkpt lat="44.740185759064936" lon="8.998934651157436"><ele>580.0</ele><time>2026-03-29T09:51:57Z</time></trkpt><trkpt lat="44.74011185882501" lon="8.998903308187616"><ele>579.5</ele><time>2026-03-29T09:51:58Z</time></trkpt><trkpt lat="44.74000164513802" lon="8.998832035467455"><ele>579.0</ele><time>2026-03-29T09:51:59Z</time></trkpt><trkpt lat="44.739672100574275" lon="8.998681408305286"><ele>579.0</ele><time>2026-03-29T09:52:01Z</time></trkpt><trkpt lat="44.73948499701869" lon="8.998645684932999"><ele>579.0</ele><time>2026-03-29T09:52:02Z</time></trkpt><trkpt lat="44.739379941167506" lon="8.998613111987156"><ele>579.0</ele><time>2026-03-29T09:52:03Z</time></trkpt><trkpt lat="44.73931421496071" lon="8.99869329787001"><ele>579.0</ele><time>2026-03-29T09:52:04Z</time></trkpt><trkpt lat="44.7392180411467" lon="8.99874655476869"><ele>580.0</ele><time>2026-03-29T09:52:06Z</time></trkpt><trkpt lat="44.739137791278324" lon="8.998765828412173"><ele>581.0</ele><time>2026-03-29T09:52:07Z</time></trkpt><trkpt lat="44.73909216752888" lon="8.99882963900122"><ele>582.0</ele><time>2026-03-29T09:52:08Z</time></trkpt><trkpt lat="44.73904058796548" lon="8.998971366522165"><ele>583.0</ele><time>2026-03-29T09:52:09Z</time></trkpt><trkpt lat="44.73898369649685" lon="8.999100875119813"><ele>584.0</ele><time>2026-03-29T09:52:10Z</time></trkpt><trkpt lat="44.738959069002064" lon="8.999203936805241"><ele>585.0</ele><time>2026-03-29T09:52:11Z</time></trkpt><trkpt lat="44.73889876030056" lon="8.999260875573171"><ele>585.0</ele><time>2026-03-29T09:52:13Z</time></trkpt><trkpt lat="44.738789433178106" lon="8.999253465081544"><ele>585.0</ele><time>2026-03-29T09:52:15Z</time></trkpt><trkpt lat="44.73871190912108" lon="8.999249118966649"><ele>585.0</ele><time>2026-03-29T09:52:16Z</time></trkpt><trkpt lat="44.73857595328277" lon="8.999095266826213"><ele>585.0</ele><time>2026-03-29T09:52:17Z</time></trkpt><trkpt lat="44.73844641458295" lon="8.998989504558102"><ele>584.2</ele><time>2026-03-29T09:52:18Z</time></trkpt><trkpt lat="44.73835505510955" lon="8.998979185679849"><ele>583.4</ele><time>2026-03-29T09:52:19Z</time></trkpt><trkpt lat="44.73827338649525" lon="8.99897806968071"><ele>582.6</ele><time>2026-03-29T09:52:20Z</time></trkpt><trkpt lat="44.73818931869801" lon="8.99900085805312"><ele>581.8</ele><time>2026-03-29T09:52:21Z</time></trkpt><trkpt lat="44.73812286268385" lon="8.999064363546765"><ele>581.0</ele><time>2026-03-29T09:52:22Z</time></trkpt><trkpt lat="44.73801570692328" lon="8.99899752332744"><ele>581.0</ele><time>2026-03-29T09:52:24Z</time></trkpt><trkpt lat="44.73799134957374" lon="8.99888717656375"><ele>581.0</ele><time>2026-03-29T09:52:25Z</time></trkpt><trkpt lat="44.73790867072532" lon="8.998804604028328"><ele>581.0</ele><time>2026-03-29T09:52:26Z</time></trkpt><trkpt lat="44.73780808300285" lon="8.998740266174835"><ele>581.0</ele><time>2026-03-29T09:52:28Z</time></trkpt><trkpt lat="44.73770012218052" lon="8.998745554754707"><ele>581.0</ele><time>2026-03-29T09:52:30Z</time></trkpt><trkpt lat="44.73762035947843" lon="8.998736461076957"><ele>581.4</ele><time>2026-03-29T09:52:31Z</time></trkpt><trkpt lat="44.73751510113816" lon="8.998768449513022"><ele>581.8</ele><time>2026-03-29T09:52:32Z</time></trkpt><trkpt lat="44.73741933694378" lon="8.998772871136973"><ele>582.1999999999999</ele><time>2026-03-29T09:52:33Z</time></trkpt><trkpt lat="44.7373113196719" lon="8.998773943380126"><ele>582.6</ele><time>2026-03-29T09:52:34Z</time></trkpt><trkpt lat="44.737197394861134" lon="8.998840797138254"><ele>583.0</ele><time>2026-03-29T09:52:35Z</time></trkpt><trkpt lat="44.73712872733411" lon="8.998843865483618"><ele>583.0</ele><time>2026-03-29T09:52:36.001Z</time></trkpt><trkpt lat="44.737028009851244" lon="8.998866676837379"><ele>583.0</ele><time>2026-03-29T09:52:38.001Z</time></trkpt><trkpt lat="44.736937220064156" lon="8.99888363219612"><ele>583.0</ele><time>2026-03-29T09:52:40.001Z</time></trkpt><trkpt lat="44.73685838362564" lon="8.998869523997927"><ele>583.0</ele><time>2026-03-29T09:52:41.001Z</time></trkpt><trkpt lat="44.736791778744454" lon="8.998866604955712"><ele>583.0</ele><time>2026-03-29T09:52:42.001Z</time></trkpt><trkpt lat="44.73672085342305" lon="8.99884489450303"><ele>583.0</ele><time>2026-03-29T09:52:43.001Z</time></trkpt><trkpt lat="44.73662974151232" lon="8.998809287940778"><ele>582.25</ele><time>2026-03-29T09:52:44.001Z</time></trkpt><trkpt lat="44.73651737168222" lon="8.998755518308807"><ele>581.5</ele><time>2026-03-29T09:52:45.001Z</time></trkpt><trkpt lat="44.73638723638936" lon="8.998666943516886"><ele>580.75</ele><time>2026-03-29T09:52:46.001Z</time></trkpt><trkpt lat="44.73624320702577" lon="8.998606040629259"><ele>580.0</ele><time>2026-03-29T09:52:47.001Z</time></trkpt><trkpt lat="44.73615215302536" lon="8.998530306090236"><ele>580.0</ele><time>2026-03-29T09:52:48Z</time></trkpt><trkpt lat="44.73607301997302" lon="8.998492604255272"><ele>580.0</ele><time>2026-03-29T09:52:49Z</time></trkpt><trkpt lat="44.73592542556307" lon="8.998539199993614"><ele>580.0</ele><time>2026-03-29T09:52:51Z</time></trkpt><trkpt lat="44.73582055118131" lon="8.998539521552134"><ele>580.0</ele><time>2026-03-29T09:52:52Z</time></trkpt><trkpt lat="44.73570329828754" lon="8.998479247489584"><ele>581.4</ele><time>2026-03-29T09:52:53Z</time></trkpt><trkpt lat="44.735637881584175" lon="8.998395426192994"><ele>582.8</ele><time>2026-03-29T09:52:54Z</time></trkpt><trkpt lat="44.73559317372937" lon="8.998285765906266"><ele>584.2</ele><time>2026-03-29T09:52:55Z</time></trkpt><trkpt lat="44.73556607241462" lon="8.998191905288946"><ele>585.6</ele><time>2026-03-29T09:52:56Z</time></trkpt><trkpt lat="44.7355146696803" lon="8.99802655822323"><ele>587.0</ele><time>2026-03-29T09:52:57Z</time></trkpt><trkpt lat="44.73547057012826" lon="8.997904903890682"><ele>587.0</ele><time>2026-03-29T09:52:58Z</time></trkpt><trkpt lat="44.735421491390575" lon="8.99783717277548"><ele>587.0</ele><time>2026-03-29T09:52:59Z</time></trkpt><trkpt lat="44.735347684797276" lon="8.997836455015753"><ele>587.0</ele><time>2026-03-29T09:53:00Z</time></trkpt><trkpt lat="44.73524070251217" lon="8.99787257982528"><ele>587.0</ele><time>2026-03-29T09:53:01Z</time></trkpt><trkpt lat="44.73511727679621" lon="8.99788207656155"><ele>587.0</ele><time>2026-03-29T09:53:02Z</time></trkpt><trkpt lat="44.73502697815261" lon="8.997858228776026"><ele>586.6</ele><time>2026-03-29T09:53:03Z</time></trkpt><trkpt lat="44.734952578963814" lon="8.997848354854224"><ele>586.2</ele><time>2026-03-29T09:53:04Z</time></trkpt><trkpt lat="44.73485782392443" lon="8.997798450867442"><ele>585.8</ele><time>2026-03-29T09:53:05Z</time></trkpt><trkpt lat="44.73475391383357" lon="8.997782619044518"><ele>585.4</ele><time>2026-03-29T09:53:06Z</time></trkpt><trkpt lat="44.73463709940633" lon="8.997784622529162"><ele>585.0</ele><time>2026-03-29T09:53:07Z</time></trkpt><trkpt lat="44.73457233805549" lon="8.997732744501612"><ele>585.0</ele><time>2026-03-29T09:53:08Z</time></trkpt><trkpt lat="44.734504615725335" lon="8.997643239536165"><ele>585.0</ele><time>2026-03-29T09:53:09Z</time></trkpt><trkpt lat="44.73443239235078" lon="8.997576275954959"><ele>585.0</ele><time>2026-03-29T09:53:10Z</time></trkpt><trkpt lat="44.73432104137494" lon="8.9975819495627"><ele>585.0</ele><time>2026-03-29T09:53:12Z</time></trkpt><trkpt lat="44.734230210232155" lon="8.997496256508457"><ele>585.0</ele><time>2026-03-29T09:53:16Z</time></trkpt><trkpt lat="44.734141053417346" lon="8.99743808979745"><ele>582.5</ele><time>2026-03-29T09:53:21Z</time></trkpt><trkpt lat="44.73407676928314" lon="8.99737108182764"><ele>580.0</ele><time>2026-03-29T09:53:22Z</time></trkpt><trkpt lat="44.73352149813384" lon="8.996778529575664"><ele>580.0</ele><time>2026-03-29T09:53:24Z</time></trkpt><trkpt lat="44.733409706653916" lon="8.996700016417474"><ele>580.0</ele><time>2026-03-29T09:53:25Z</time></trkpt><trkpt lat="44.733265474843705" lon="8.996671422758885"><ele>580.0</ele><time>2026-03-29T09:53:26Z</time></trkpt><trkpt lat="44.7331548088883" lon="8.996604693497792"><ele>580.0</ele><time>2026-03-29T09:53:27Z</time></trkpt><trkpt lat="44.73305472251902" lon="8.996536577220697"><ele>581.8</ele><time>2026-03-29T09:53:28Z</time></trkpt><trkpt lat="44.73295764839061" lon="8.996495350866454"><ele>583.6</ele><time>2026-03-29T09:53:29Z</time></trkpt><trkpt lat="44.73284886993695" lon="8.996446505796575"><ele>585.4</ele><time>2026-03-29T09:53:30Z</time></trkpt><trkpt lat="44.732706728317716" lon="8.99637969497601"><ele>587.2</ele><time>2026-03-29T09:53:32Z</time></trkpt><trkpt lat="44.73262769831229" lon="8.996357203228682"><ele>589.0</ele><time>2026-03-29T09:53:33Z</time></trkpt><trkpt lat="44.73256466704201" lon="8.996324883740323"><ele>589.0</ele><time>2026-03-29T09:53:34Z</time></trkpt><trkpt lat="44.73250369541633" lon="8.996211761239406"><ele>589.0</ele><time>2026-03-29T09:53:36Z</time></trkpt><trkpt lat="44.73261057105905" lon="8.996187145084246"><ele>589.0</ele><time>2026-03-29T09:53:37Z</time></trkpt><trkpt lat="44.73262102258724" lon="8.99608007554085"><ele>589.0</ele><time>2026-03-29T09:53:39Z</time></trkpt><trkpt lat="44.732703201662034" lon="8.995988376432528"><ele>589.0</ele><time>2026-03-29T09:53:41Z</time></trkpt><trkpt lat="44.732853427508104" lon="8.996012457225769"><ele>589.0</ele><time>2026-03-29T09:53:42Z</time></trkpt><trkpt lat="44.732916203222274" lon="8.995990569358602"><ele>589.0</ele><time>2026-03-29T09:53:43Z</time></trkpt><trkpt lat="44.73298863636259" lon="8.995952979821965"><ele>589.0</ele><time>2026-03-29T09:53:44Z</time></trkpt><trkpt lat="44.73305699036805" lon="8.995963513780257"><ele>589.0</ele><time>2026-03-29T09:53:45Z</time></trkpt><trkpt lat="44.7332052470378" lon="8.995942180571216"><ele>589.0</ele><time>2026-03-29T09:53:47Z</time></trkpt><trkpt lat="44.73327801048811" lon="8.995918689920694"><ele>589.0</ele><time>2026-03-29T09:53:48Z</time></trkpt><trkpt lat="44.73334975737435" lon="8.99587070447297"><ele>586.0</ele><time>2026-03-29T09:53:49Z</time></trkpt><trkpt lat="44.73347077992982" lon="8.995806417379887"><ele>583.0</ele><time>2026-03-29T09:53:51Z</time></trkpt><trkpt lat="44.733534450074025" lon="8.995740910605956"><ele>580.0</ele><time>2026-03-29T09:53:52Z</time></trkpt><trkpt lat="44.73361162552483" lon="8.99564651496774"><ele>577.0</ele><time>2026-03-29T09:53:53Z</time></trkpt><trkpt lat="44.73366829306921" lon="8.99553515279154"><ele>574.0</ele><time>2026-03-29T09:53:54Z</time></trkpt><trkpt lat="44.73373215206732" lon="8.995447754198114"><ele>574.0</ele><time>2026-03-29T09:53:55Z</time></trkpt><trkpt lat="44.73377714132197" lon="8.995375938999976"><ele>574.0</ele><time>2026-03-29T09:53:56Z</time></trkpt><trkpt lat="44.73382043161908" lon="8.995292517769927"><ele>574.0</ele><time>2026-03-29T09:53:57Z</time></trkpt><trkpt lat="44.73374082267755" lon="8.99524222220653"><ele>574.0</ele><time>2026-03-29T09:54:02Z</time></trkpt><trkpt lat="44.733664322346534" lon="8.99521274178191"><ele>574.0</ele><time>2026-03-29T09:54:03Z</time></trkpt><trkpt lat="44.73353878109837" lon="8.995131473646937"><ele>574.0</ele><time>2026-03-29T09:54:04Z</time></trkpt><trkpt lat="44.733444853965466" lon="8.995118511790164"><ele>574.0</ele><time>2026-03-29T09:54:05Z</time></trkpt><trkpt lat="44.73336544217346" lon="8.995114080892575"><ele>574.0</ele><time>2026-03-29T09:54:06Z</time></trkpt><trkpt lat="44.73328825047009" lon="8.99514770928058"><ele>574.0</ele><time>2026-03-29T09:54:07Z</time></trkpt><trkpt lat="44.733182786661985" lon="8.995154153253598"><ele>574.0</ele><time>2026-03-29T09:54:08Z</time></trkpt><trkpt lat="44.7331089928172" lon="8.995101132748989"><ele>574.0</ele><time>2026-03-29T09:54:09Z</time></trkpt><trkpt lat="44.7330006235031" lon="8.995018452606635"><ele>572.0</ele><time>2026-03-29T09:54:10Z</time></trkpt><trkpt lat="44.73289306476652" lon="8.994963463486409"><ele>570.0</ele><time>2026-03-29T09:54:11Z</time></trkpt><trkpt lat="44.7327791981113" lon="8.994904295448267"><ele>568.0</ele><time>2026-03-29T09:54:12Z</time></trkpt><trkpt lat="44.73264849372794" lon="8.994854413126554"><ele>566.0</ele><time>2026-03-29T09:54:13Z</time></trkpt><trkpt lat="44.73252738746403" lon="8.994810438007727"><ele>566.0</ele><time>2026-03-29T09:54:14Z</time></trkpt><trkpt lat="44.73241741004499" lon="8.994773963417364"><ele>566.0</ele><time>2026-03-29T09:54:15Z</time></trkpt><trkpt lat="44.73233398759204" lon="8.994745145896113"><ele>566.0</ele><time>2026-03-29T09:54:16Z</time></trkpt><trkpt lat="44.732232849463806" lon="8.994756129321456"><ele>566.0</ele><time>2026-03-29T09:54:17Z</time></trkpt><trkpt lat="44.73212341211509" lon="8.994748543288008"><ele>566.0</ele><time>2026-03-29T09:54:18Z</time></trkpt><trkpt lat="44.732015128424734" lon="8.99474006991674"><ele>566.0</ele><time>2026-03-29T09:54:19Z</time></trkpt><trkpt lat="44.73190790690071" lon="8.994681543773893"><ele>566.0</ele><time>2026-03-29T09:54:20Z</time></trkpt><trkpt lat="44.731800090093515" lon="8.994640496693762"><ele>566.0</ele><time>2026-03-29T09:54:21Z</time></trkpt><trkpt lat="44.73169950171631" lon="8.99458914049434"><ele>566.0</ele><time>2026-03-29T09:54:22Z</time></trkpt><trkpt lat="44.73163928433781" lon="8.994537322850583"><ele>566.0</ele><time>2026-03-29T09:54:23Z</time></trkpt><trkpt lat="44.73155915612998" lon="8.994558760218911"><ele>566.25</ele><time>2026-03-29T09:54:24Z</time></trkpt><trkpt lat="44.73143930116886" lon="8.99459833132479"><ele>566.5</ele><time>2026-03-29T09:54:25Z</time></trkpt><trkpt lat="44.73133362094457" lon="8.994657768332104"><ele>566.75</ele><time>2026-03-29T09:54:26Z</time></trkpt><trkpt lat="44.73121797959614" lon="8.994729857461538"><ele>567.0</ele><time>2026-03-29T09:54:27Z</time></trkpt><trkpt lat="44.7311171779283" lon="8.99477048986273"><ele>567.6</ele><time>2026-03-29T09:54:28.001Z</time></trkpt><trkpt lat="44.73104234815672" lon="8.99476819260676"><ele>568.2</ele><time>2026-03-29T09:54:29Z</time></trkpt><trkpt lat="44.73099027590297" lon="8.99469252613627"><ele>568.8</ele><time>2026-03-29T09:54:31.001Z</time></trkpt><trkpt lat="44.730899848101885" lon="8.99451065175857"><ele>569.4</ele><time>2026-03-29T09:54:33.001Z</time></trkpt><trkpt lat="44.73081931596031" lon="8.994418834266833"><ele>570.0</ele><time>2026-03-29T09:54:34.001Z</time></trkpt><trkpt lat="44.730786548253676" lon="8.994333667702506"><ele>570.0</ele><time>2026-03-29T09:54:35.001Z</time></trkpt><trkpt lat="44.73075577125463" lon="8.99422076680925"><ele>570.0</ele><time>2026-03-29T09:54:36.001Z</time></trkpt><trkpt lat="44.73071845962201" lon="8.994113183772207"><ele>570.0</ele><time>2026-03-29T09:54:37.001Z</time></trkpt><trkpt lat="44.730727808885966" lon="8.993988176590065"><ele>570.0</ele><time>2026-03-29T09:54:39.001Z</time></trkpt><trkpt lat="44.73070758454273" lon="8.99387803350148"><ele>570.0</ele><time>2026-03-29T09:54:51.001Z</time></trkpt><trkpt lat="44.730658673537214" lon="8.993816026490888"><ele>570.0</ele><time>2026-03-29T09:54:52.001Z</time></trkpt><trkpt lat="44.73053637085634" lon="8.993669251091493"><ele>569.0</ele><time>2026-03-29T09:54:53.001Z</time></trkpt><trkpt lat="44.7304862794012" lon="8.993564855962664"><ele>568.0</ele><time>2026-03-29T09:54:54Z</time></trkpt><trkpt lat="44.73038029918459" lon="8.993532588785127"><ele>567.0</ele><time>2026-03-29T09:54:56Z</time></trkpt><trkpt lat="44.73029714594291" lon="8.993489340763643"><ele>566.0</ele><time>2026-03-29T09:54:57Z</time></trkpt><trkpt lat="44.73017247494484" lon="8.993435537716636"><ele>565.0</ele><time>2026-03-29T09:54:58Z</time></trkpt><trkpt lat="44.73007821838657" lon="8.993378182030416"><ele>563.4</ele><time>2026-03-29T09:54:59Z</time></trkpt><trkpt lat="44.72999506574813" lon="8.99330294289886"><ele>561.8</ele><time>2026-03-29T09:55:00Z</time></trkpt><trkpt lat="44.729992431070976" lon="8.993165553759335"><ele>560.2</ele><time>2026-03-29T09:55:02Z</time></trkpt><trkpt lat="44.730012070377015" lon="8.993035483451646"><ele>558.6</ele><time>2026-03-29T09:55:03Z</time></trkpt><trkpt lat="44.730063633908955" lon="8.992906852190227"><ele>557.0</ele><time>2026-03-29T09:55:04Z</time></trkpt><trkpt lat="44.73011693037326" lon="8.992797931334302"><ele>557.0</ele><time>2026-03-29T09:55:05Z</time></trkpt><trkpt lat="44.730179180839414" lon="8.992722372244431"><ele>557.0</ele><time>2026-03-29T09:55:06Z</time></trkpt><trkpt lat="44.73021675608345" lon="8.992639936444142"><ele>557.0</ele><time>2026-03-29T09:55:07Z</time></trkpt><trkpt lat="44.7302662605233" lon="8.992550851438814"><ele>557.0</ele><time>2026-03-29T09:55:08Z</time></trkpt><trkpt lat="44.73034423310112" lon="8.992390618699492"><ele>557.0</ele><time>2026-03-29T09:55:10Z</time></trkpt><trkpt lat="44.73033802641251" lon="8.992231014750882"><ele>555.1666666666666</ele><time>2026-03-29T09:55:12Z</time></trkpt><trkpt lat="44.73027713718747" lon="8.9921416062812"><ele>553.3333333333333</ele><time>2026-03-29T09:55:13Z</time></trkpt><trkpt lat="44.73024085309294" lon="8.99205940881418"><ele>551.5</ele><time>2026-03-29T09:55:14Z</time></trkpt><trkpt lat="44.7302408256413" lon="8.991898374233397"><ele>549.6666666666666</ele><time>2026-03-29T09:55:16Z</time></trkpt><trkpt lat="44.73020765152676" lon="8.991800194609427"><ele>547.8333333333334</ele><time>2026-03-29T09:55:20Z</time></trkpt><trkpt lat="44.730158023555866" lon="8.9917402254562"><ele>546.0</ele><time>2026-03-29T09:55:22Z</time></trkpt><trkpt lat="44.72980766364289" lon="8.99144734560888"><ele>541.75</ele><time>2026-03-29T09:55:24Z</time></trkpt><trkpt lat="44.72962485623526" lon="8.991392647925624"><ele>537.5</ele><time>2026-03-29T09:55:25Z</time></trkpt><trkpt lat="44.72953733451516" lon="8.991396017305098"><ele>533.25</ele><time>2026-03-29T09:55:26Z</time></trkpt><trkpt lat="44.72943960368081" lon="8.991432487973004"><ele>529.0</ele><time>2026-03-29T09:55:27Z</time></trkpt><trkpt lat="44.72935154968386" lon="8.991400673528657"><ele>529.0</ele><time>2026-03-29T09:55:28Z</time></trkpt><trkpt lat="44.72927920014217" lon="8.991347222116282"><ele>529.0</ele><time>2026-03-29T09:55:29Z</time></trkpt><trkpt lat="44.72920370972124" lon="8.991315161874725"><ele>529.0</ele><time>2026-03-29T09:55:30Z</time></trkpt><trkpt lat="44.72908310939177" lon="8.991234021420729"><ele>529.0</ele><time>2026-03-29T09:55:32Z</time></trkpt><trkpt lat="44.7289520005255" lon="8.991164952490166"><ele>529.0</ele><time>2026-03-29T09:55:33Z</time></trkpt><trkpt lat="44.72889379617579" lon="8.991069121278837"><ele>529.0</ele><time>2026-03-29T09:55:34Z</time></trkpt><trkpt lat="44.72879862367283" lon="8.990932902808828"><ele>529.0</ele><time>2026-03-29T09:55:36Z</time></trkpt><trkpt lat="44.72874272687769" lon="8.990808797324622"><ele>529.0</ele><time>2026-03-29T09:55:37Z</time></trkpt><trkpt lat="44.72872699662872" lon="8.990665727821977"><ele>529.0</ele><time>2026-03-29T09:55:38Z</time></trkpt><trkpt lat="44.72860911878752" lon="8.990685509475874"><ele>525.8</ele><time>2026-03-29T09:55:39Z</time></trkpt><trkpt lat="44.728534809613684" lon="8.99058574144256"><ele>522.5999999999999</ele><time>2026-03-29T09:55:41Z</time></trkpt><trkpt lat="44.72863086330103" lon="8.99041622748216"><ele>519.4</ele><time>2026-03-29T09:55:42Z</time></trkpt><trkpt lat="44.7287017982276" lon="8.99042062729377"><ele>516.1999999999999</ele><time>2026-03-29T09:55:43Z</time></trkpt><trkpt lat="44.72874893291233" lon="8.990349452436494"><ele>513.0</ele><time>2026-03-29T09:55:44Z</time></trkpt><trkpt lat="44.72880069971661" lon="8.990291238458072"><ele>513.0</ele><time>2026-03-29T09:55:45Z</time></trkpt><trkpt lat="44.728915486143" lon="8.990256445003498"><ele>513.0</ele><time>2026-03-29T09:55:47Z</time></trkpt><trkpt lat="44.729059867181185" lon="8.990158844871354"><ele>513.0</ele><time>2026-03-29T09:55:49Z</time></trkpt><trkpt lat="44.729114265141504" lon="8.990064625988182"><ele>513.0</ele><time>2026-03-29T09:55:50Z</time></trkpt><trkpt lat="44.72918094371654" lon="8.989983740036786"><ele>513.0</ele><time>2026-03-29T09:55:51Z</time></trkpt><trkpt lat="44.72924005650538" lon="8.989906833328458"><ele>513.0</ele><time>2026-03-29T09:55:52Z</time></trkpt><trkpt lat="44.72931767868665" lon="8.989944529301447"><ele>513.0</ele><time>2026-03-29T09:55:54Z</time></trkpt><trkpt lat="44.729349600393334" lon="8.990041490415454"><ele>513.0</ele><time>2026-03-29T09:55:55Z</time></trkpt><trkpt lat="44.729433599154255" lon="8.990100511263272"><ele>513.0</ele><time>2026-03-29T09:55:56Z</time></trkpt><trkpt lat="44.72951270051727" lon="8.990141991572331"><ele>513.0</ele><time>2026-03-29T09:55:57Z</time></trkpt><trkpt lat="44.729591249025226" lon="8.99009607348621"><ele>512.5</ele><time>2026-03-29T09:55:58Z</time></trkpt><trkpt lat="44.729662252206346" lon="8.990026337674529"><ele>512.0</ele><time>2026-03-29T09:55:59Z</time></trkpt><trkpt lat="44.729651353438065" lon="8.989932637995514"><ele>511.5</ele><time>2026-03-29T09:56:00Z</time></trkpt><trkpt lat="44.7295901800503" lon="8.989885452184025"><ele>511.0</ele><time>2026-03-29T09:56:02Z</time></trkpt><trkpt lat="44.72953854757636" lon="8.989788004289508"><ele>510.5</ele><time>2026-03-29T09:56:05Z</time></trkpt><trkpt lat="44.72951727360747" lon="8.989666648946832"><ele>510.0</ele><time>2026-03-29T09:56:07Z</time></trkpt><trkpt lat="44.729515239725174" lon="8.989564162002862"><ele>505.25</ele><time>2026-03-29T09:56:09Z</time></trkpt><trkpt lat="44.729584060281084" lon="8.989471007207513"><ele>500.5</ele><time>2026-03-29T09:56:12Z</time></trkpt><trkpt lat="44.72959766598562" lon="8.989363014823118"><ele>495.75</ele><time>2026-03-29T09:56:14Z</time></trkpt><trkpt lat="44.72964341239624" lon="8.989271907486241"><ele>491.0</ele><time>2026-03-29T09:56:17Z</time></trkpt><trkpt lat="44.7296497875837" lon="8.988463372440105"><ele>487.66666666666663</ele><time>2026-03-29T09:56:18Z</time></trkpt><trkpt lat="44.72967826625781" lon="8.988360483321964"><ele>484.3333333333333</ele><time>2026-03-29T09:56:19Z</time></trkpt><trkpt lat="44.729762066520266" lon="8.988367895866862"><ele>481.0</ele><time>2026-03-29T09:56:20Z</time></trkpt><trkpt lat="44.7298082203987" lon="8.98830129406538"><ele>477.66666666666663</ele><time>2026-03-29T09:56:21Z</time></trkpt><trkpt lat="44.729882069816895" lon="8.988337105630313"><ele>474.3333333333333</ele><time>2026-03-29T09:56:22Z</time></trkpt><trkpt lat="44.72996443374404" lon="8.98836410590563"><ele>471.0</ele><time>2026-03-29T09:56:23Z</time></trkpt><trkpt lat="44.730039145556695" lon="8.988361412366626"><ele>471.0</ele><time>2026-03-29T09:56:24Z</time></trkpt><trkpt lat="44.73010749438481" lon="8.988508385606393"><ele>471.0</ele><time>2026-03-29T09:56:26Z</time></trkpt><trkpt lat="44.7301753995814" lon="8.98855817108514"><ele>471.0</ele><time>2026-03-29T09:56:27Z</time></trkpt><trkpt lat="44.73033145080303" lon="8.988502337185428"><ele>471.0</ele><time>2026-03-29T09:56:30.001Z</time></trkpt><trkpt lat="44.73039625138456" lon="8.988491912616457"><ele>471.0</ele><time>2026-03-29T09:56:31.001Z</time></trkpt><trkpt lat="44.730465414787965" lon="8.98846168838971"><ele>469.8</ele><time>2026-03-29T09:56:32.001Z</time></trkpt><trkpt lat="44.730532601004555" lon="8.988402880941447"><ele>468.6</ele><time>2026-03-29T09:56:33.001Z</time></trkpt><trkpt lat="44.730578674132886" lon="8.988322781205595"><ele>467.4</ele><time>2026-03-29T09:56:34.001Z</time></trkpt><trkpt lat="44.730522255979636" lon="8.988129256067587"><ele>466.2</ele><time>2026-03-29T09:56:35.001Z</time></trkpt><trkpt lat="44.730624164891395" lon="8.988046137509"><ele>465.0</ele><time>2026-03-29T09:56:37.001Z</time></trkpt><trkpt lat="44.73065871400859" lon="8.987962893359924"><ele>461.0</ele><time>2026-03-29T09:56:38.001Z</time></trkpt><trkpt lat="44.73064699260858" lon="8.987812304339315"><ele>457.0</ele><time>2026-03-29T09:56:40.001Z</time></trkpt><trkpt lat="44.73063029078055" lon="8.98761567601462"><ele>453.0</ele><time>2026-03-29T09:56:42.001Z</time></trkpt><trkpt lat="44.730612307531125" lon="8.987449932823104"><ele>449.0</ele><time>2026-03-29T09:56:43.001Z</time></trkpt><trkpt lat="44.73059830302582" lon="8.987298433467382"><ele>446.0</ele><time>2026-03-29T09:56:44.001Z</time></trkpt><trkpt lat="44.730593241501936" lon="8.987126720296152"><ele>443.0</ele><time>2026-03-29T09:56:45.001Z</time></trkpt><trkpt lat="44.730597303549025" lon="8.987018800747315"><ele>440.0</ele><time>2026-03-29T09:56:46.001Z</time></trkpt><trkpt lat="44.730633890399446" lon="8.986863605761458"><ele>437.0</ele><time>2026-03-29T09:56:48.001Z</time></trkpt><trkpt lat="44.73073602760757" lon="8.986752314939896"><ele>434.0</ele><time>2026-03-29T09:56:50.001Z</time></trkpt><trkpt lat="44.73081501728283" lon="8.986732960195345"><ele>432.16666666666663</ele><time>2026-03-29T09:56:51.001Z</time></trkpt><trkpt lat="44.73084953726237" lon="8.986656397782383"><ele>430.3333333333333</ele><time>2026-03-29T09:56:52.001Z</time></trkpt><trkpt lat="44.73092527091944" lon="8.986596836792726"><ele>428.5</ele><time>2026-03-29T09:56:54.001Z</time></trkpt><trkpt lat="44.73101336604731" lon="8.986658209171846"><ele>426.66666666666663</ele><time>2026-03-29T09:56:55.001Z</time></trkpt><trkpt lat="44.731074910822414" lon="8.986728321490233"><ele>424.8333333333333</ele><time>2026-03-29T09:56:56.001Z</time></trkpt><trkpt lat="44.73114201098381" lon="8.986750688899258"><ele>423.0</ele><time>2026-03-29T09:56:59.001Z</time></trkpt><trkpt lat="44.73121001513962" lon="8.98670484472904"><ele>420.0</ele><time>2026-03-29T09:57:00Z</time></trkpt><trkpt lat="44.731206303343214" lon="8.986564404403094"><ele>417.0</ele><time>2026-03-29T09:57:03Z</time></trkpt><trkpt lat="44.7311839459064" lon="8.986437123543592"><ele>414.0</ele><time>2026-03-29T09:57:06Z</time></trkpt><trkpt lat="44.73128073576924" lon="8.986269521214014"><ele>411.0</ele><time>2026-03-29T09:57:09Z</time></trkpt><trkpt lat="44.73128897078082" lon="8.986126168004974"><ele>408.0</ele><time>2026-03-29T09:57:13Z</time></trkpt><trkpt lat="44.73141749103899" lon="8.985819180724988"><ele>405.4</ele><time>2026-03-29T09:57:16Z</time></trkpt><trkpt lat="44.731532159350785" lon="8.985680971007879"><ele>402.79999999999995</ele><time>2026-03-29T09:57:17Z</time></trkpt><trkpt lat="44.731617157315064" lon="8.98563047718432"><ele>400.2</ele><time>2026-03-29T09:57:18Z</time></trkpt><trkpt lat="44.731688180708375" lon="8.98558784945091"><ele>397.6</ele><time>2026-03-29T09:57:19Z</time></trkpt><trkpt lat="44.7317458858524" lon="8.985454334747134"><ele>395.0</ele><time>2026-03-29T09:57:20Z</time></trkpt><trkpt lat="44.73176369154599" lon="8.985320006710095"><ele>395.0</ele><time>2026-03-29T09:57:21Z</time></trkpt><trkpt lat="44.7317678787786" lon="8.98517314178282"><ele>395.0</ele><time>2026-03-29T09:57:22Z</time></trkpt><trkpt lat="44.73170975771606" lon="8.98503945146745"><ele>395.0</ele><time>2026-03-29T09:57:24Z</time></trkpt><trkpt lat="44.73163392244796" lon="8.984987654788648"><ele>395.0</ele><time>2026-03-29T09:57:25Z</time></trkpt><trkpt lat="44.731521859684385" lon="8.984901716351121"><ele>395.0</ele><time>2026-03-29T09:57:26Z</time></trkpt><trkpt lat="44.73139458363118" lon="8.984774177905148"><ele>391.0</ele><time>2026-03-29T09:57:27Z</time></trkpt><trkpt lat="44.73127423393261" lon="8.984606392678506"><ele>387.0</ele><time>2026-03-29T09:57:28Z</time></trkpt><trkpt lat="44.73119833553919" lon="8.984435558611867"><ele>383.0</ele><time>2026-03-29T09:57:29Z</time></trkpt><trkpt lat="44.73116377640875" lon="8.984283466436255"><ele>379.0</ele><time>2026-03-29T09:57:30Z</time></trkpt><trkpt lat="44.73111966445083" lon="8.984140934524122"><ele>376.66666666666663</ele><time>2026-03-29T09:57:31Z</time></trkpt><trkpt lat="44.731007369624315" lon="8.984025989082804"><ele>374.3333333333333</ele><time>2026-03-29T09:57:32Z</time></trkpt><trkpt lat="44.73085069630358" lon="8.983926842423664"><ele>372.0</ele><time>2026-03-29T09:57:33Z</time></trkpt><trkpt lat="44.730659269880185" lon="8.983859283355978"><ele>372.0</ele><time>2026-03-29T09:57:34Z</time></trkpt><trkpt lat="44.7305085608931" lon="8.983718320727347"><ele>372.0</ele><time>2026-03-29T09:57:35Z</time></trkpt><trkpt lat="44.73038013428704" lon="8.98351191199864"><ele>372.0</ele><time>2026-03-29T09:57:36Z</time></trkpt><trkpt lat="44.73022426886887" lon="8.98325223009853"><ele>369.6666666666667</ele><time>2026-03-29T09:57:37Z</time></trkpt><trkpt lat="44.73008930906418" lon="8.983030304407883"><ele>367.33333333333337</ele><time>2026-03-29T09:57:38Z</time></trkpt><trkpt lat="44.72996208385452" lon="8.982860275599739"><ele>365.0</ele><time>2026-03-29T09:57:39Z</time></trkpt><trkpt lat="44.72983856039273" lon="8.982712903500405"><ele>365.0</ele><time>2026-03-29T09:57:40Z</time></trkpt><trkpt lat="44.72971438009443" lon="8.982586893627614"><ele>365.0</ele><time>2026-03-29T09:57:41Z</time></trkpt><trkpt lat="44.729594644400294" lon="8.98245069461106"><ele>365.0</ele><time>2026-03-29T09:57:42Z</time></trkpt><trkpt lat="44.72951688985553" lon="8.982301434336271"><ele>365.0</ele><time>2026-03-29T09:57:43Z</time></trkpt><trkpt lat="44.72947302929624" lon="8.982128071138513"><ele>364.6666666666667</ele><time>2026-03-29T09:57:44Z</time></trkpt><trkpt lat="44.729435778800195" lon="8.981922175009124"><ele>364.3333333333333</ele><time>2026-03-29T09:57:45Z</time></trkpt><trkpt lat="44.7293520790404" lon="8.98171151992778"><ele>364.0</ele><time>2026-03-29T09:57:46Z</time></trkpt><trkpt lat="44.72922560991811" lon="8.98148090628122"><ele>359.3333333333333</ele><time>2026-03-29T09:57:47Z</time></trkpt><trkpt lat="44.72911857233702" lon="8.981244450302338"><ele>354.6666666666667</ele><time>2026-03-29T09:57:48Z</time></trkpt><trkpt lat="44.7290406844527" lon="8.981055754786297"><ele>350.0</ele><time>2026-03-29T09:57:49Z</time></trkpt><trkpt lat="44.72895770582787" lon="8.980895286923149"><ele>344.0</ele><time>2026-03-29T09:57:50Z</time></trkpt><trkpt lat="44.728898926979966" lon="8.980709032606153"><ele>338.0</ele><time>2026-03-29T09:57:51Z</time></trkpt><trkpt lat="44.728859307928424" lon="8.980466958433617"><ele>332.0</ele><time>2026-03-29T09:57:52Z</time></trkpt><trkpt lat="44.72885667848806" lon="8.98021940276797"><ele>328.33333333333337</ele><time>2026-03-29T09:57:53Z</time></trkpt><trkpt lat="44.72885228168936" lon="8.979997731466481"><ele>324.6666666666667</ele><time>2026-03-29T09:57:54Z</time></trkpt><trkpt lat="44.72879425279817" lon="8.979748114815665"><ele>321.0</ele><time>2026-03-29T09:57:55Z</time></trkpt><trkpt lat="44.728740220619194" lon="8.97951024617987"><ele>321.0</ele><time>2026-03-29T09:57:56Z</time></trkpt><trkpt lat="44.72871141337347" lon="8.979262437453682"><ele>321.0</ele><time>2026-03-29T09:57:57Z</time></trkpt><trkpt lat="44.72870852060066" lon="8.979066925572546"><ele>321.0</ele><time>2026-03-29T09:57:58Z</time></trkpt><trkpt lat="44.728716168477455" lon="8.978934955250288"><ele>321.0</ele><time>2026-03-29T09:57:59Z</time></trkpt><trkpt lat="44.728686922526805" lon="8.978820137713914"><ele>320.6</ele><time>2026-03-29T09:58:00Z</time></trkpt><trkpt lat="44.7286352086001" lon="8.978709921587905"><ele>320.20000000000005</ele><time>2026-03-29T09:58:01Z</time></trkpt><trkpt lat="44.728547732333034" lon="8.978627769108595"><ele>319.79999999999995</ele><time>2026-03-29T09:58:02Z</time></trkpt><trkpt lat="44.72845685790824" lon="8.978560201168213"><ele>319.4</ele><time>2026-03-29T09:58:03Z</time></trkpt><trkpt lat="44.72838935412121" lon="8.978467060435054"><ele>319.0</ele><time>2026-03-29T09:58:05Z</time></trkpt><trkpt lat="44.72839514178452" lon="8.978331590903336"><ele>319.0</ele><time>2026-03-29T09:58:06Z</time></trkpt><trkpt lat="44.72837524582473" lon="8.978168925361064"><ele>319.0</ele><time>2026-03-29T09:58:07Z</time></trkpt><trkpt lat="44.72836467623953" lon="8.977976176424391"><ele>319.0</ele><time>2026-03-29T09:58:08Z</time></trkpt><trkpt lat="44.72838214977845" lon="8.977789255962154"><ele>319.0</ele><time>2026-03-29T09:58:09Z</time></trkpt><trkpt lat="44.72839847079282" lon="8.977615473523828"><ele>318.4</ele><time>2026-03-29T09:58:10Z</time></trkpt><trkpt lat="44.72841167577994" lon="8.977497235097319"><ele>317.79999999999995</ele><time>2026-03-29T09:58:11Z</time></trkpt><trkpt lat="44.72842709619896" lon="8.977399834759272"><ele>317.20000000000005</ele><time>2026-03-29T09:58:12Z</time></trkpt><trkpt lat="44.72842301333111" lon="8.977262711034758"><ele>316.6</ele><time>2026-03-29T09:58:13Z</time></trkpt><trkpt lat="44.728392706140376" lon="8.977143969727818"><ele>316.0</ele><time>2026-03-29T09:58:14Z</time></trkpt><trkpt lat="44.7283354969385" lon="8.976967218739864"><ele>316.0</ele><time>2026-03-29T09:58:15Z</time></trkpt><trkpt lat="44.72827293366685" lon="8.97684311948344"><ele>316.0</ele><time>2026-03-29T09:58:16Z</time></trkpt><trkpt lat="44.72825151193914" lon="8.976709243367113"><ele>316.0</ele><time>2026-03-29T09:58:17Z</time></trkpt><trkpt lat="44.728259802685834" lon="8.976590955897482"><ele>316.0</ele><time>2026-03-29T09:58:18Z</time></trkpt><trkpt lat="44.728279663062594" lon="8.976436261078273"><ele>316.0</ele><time>2026-03-29T09:58:19Z</time></trkpt><trkpt lat="44.72829209942872" lon="8.976274215391252"><ele>316.40000000000003</ele><time>2026-03-29T09:58:20Z</time></trkpt><trkpt lat="44.72830089446554" lon="8.976077825704534"><ele>316.8</ele><time>2026-03-29T09:58:21Z</time></trkpt><trkpt lat="44.72832830014202" lon="8.975959732135108"><ele>317.20000000000005</ele><time>2026-03-29T09:58:22Z</time></trkpt><trkpt lat="44.72835312190536" lon="8.975835528306474"><ele>317.6</ele><time>2026-03-29T09:58:23Z</time></trkpt><trkpt lat="44.7283492473281" lon="8.975729619981461"><ele>318.0</ele><time>2026-03-29T09:58:24Z</time></trkpt><trkpt lat="44.728271986307085" lon="8.975660470085137"><ele>317.0</ele><time>2026-03-29T09:58:27Z</time></trkpt><trkpt lat="44.728207983480296" lon="8.97567284347376"><ele>316.0</ele><time>2026-03-29T09:58:28Z</time></trkpt><trkpt lat="44.72812342981257" lon="8.97568642822188"><ele>315.0</ele><time>2026-03-29T09:58:29Z</time></trkpt><trkpt lat="44.728027966207236" lon="8.975666645498897"><ele>314.0</ele><time>2026-03-29T09:58:30Z</time></trkpt><trkpt lat="44.727948307207036" lon="8.975603129680046"><ele>313.0</ele><time>2026-03-29T09:58:31Z</time></trkpt><trkpt lat="44.727858900598385" lon="8.975526791223093"><ele>312.0</ele><time>2026-03-29T09:58:32Z</time></trkpt><trkpt lat="44.72777290155064" lon="8.975445532250827"><ele>311.4</ele><time>2026-03-29T09:58:33Z</time></trkpt><trkpt lat="44.727683437033185" lon="8.97535061913267"><ele>310.79999999999995</ele><time>2026-03-29T09:58:34Z</time></trkpt><trkpt lat="44.72764307692126" lon="8.975256305413035"><ele>310.2</ele><time>2026-03-29T09:58:35Z</time></trkpt><trkpt lat="44.72763371924168" lon="8.97506318597644"><ele>309.59999999999997</ele><time>2026-03-29T09:58:36Z</time></trkpt><trkpt lat="44.72760254040027" lon="8.974959471878934"><ele>309.0</ele><time>2026-03-29T09:58:37Z</time></trkpt><trkpt lat="44.727595008121284" lon="8.974843236787887"><ele>307.0</ele><time>2026-03-29T09:58:38Z</time></trkpt><trkpt lat="44.72759839626047" lon="8.974695218818631"><ele>305.0</ele><time>2026-03-29T09:58:39Z</time></trkpt><trkpt lat="44.72765641031427" lon="8.974492767675592"><ele>303.0</ele><time>2026-03-29T09:58:40Z</time></trkpt><trkpt lat="44.727637372163755" lon="8.974263170835663"><ele>301.0</ele><time>2026-03-29T09:58:41Z</time></trkpt><trkpt lat="44.72765245191492" lon="8.974118415733825"><ele>300.5</ele><time>2026-03-29T09:58:42Z</time></trkpt><trkpt lat="44.72768781958517" lon="8.973984285885162"><ele>300.0</ele><time>2026-03-29T09:58:43Z</time></trkpt><trkpt lat="44.72773026964861" lon="8.973884686034712"><ele>299.5</ele><time>2026-03-29T09:58:45Z</time></trkpt><trkpt lat="44.727659796139555" lon="8.97392777836296"><ele>299.0</ele><time>2026-03-29T09:58:47.001Z</time></trkpt><trkpt lat="44.727592513978784" lon="8.973921591702142"><ele>298.5</ele><time>2026-03-29T09:58:48.001Z</time></trkpt><trkpt lat="44.72751806065156" lon="8.97391007345191"><ele>298.0</ele><time>2026-03-29T09:58:52.001Z</time></trkpt><trkpt lat="44.72713101879423" lon="8.973757549215291"><ele>297.75</ele><time>2026-03-29T09:58:54.001Z</time></trkpt><trkpt lat="44.72700774161752" lon="8.973731601899429"><ele>297.5</ele><time>2026-03-29T09:58:55.001Z</time></trkpt><trkpt lat="44.72688714159508" lon="8.973707448627287"><ele>297.25</ele><time>2026-03-29T09:58:56.001Z</time></trkpt><trkpt lat="44.72677767398458" lon="8.97368552483492"><ele>297.0</ele><time>2026-03-29T09:58:57.001Z</time></trkpt><trkpt lat="44.726683344888066" lon="8.973666632918022"><ele>296.4</ele><time>2026-03-29T09:58:58.001Z</time></trkpt><trkpt lat="44.72658197225859" lon="8.973646330340946"><ele>295.79999999999995</ele><time>2026-03-29T09:58:59.001Z</time></trkpt><trkpt lat="44.72647995371348" lon="8.97362589839274"><ele>295.2</ele><time>2026-03-29T09:59:00.001Z</time></trkpt><trkpt lat="44.726358425717216" lon="8.973604159682544"><ele>294.59999999999997</ele><time>2026-03-29T09:59:01.001Z</time></trkpt><trkpt lat="44.72624047974948" lon="8.973581982856656"><ele>294.0</ele><time>2026-03-29T09:59:02.001Z</time></trkpt><trkpt lat="44.72611891323415" lon="8.973560947846112"><ele>294.0</ele><time>2026-03-29T09:59:03.001Z</time></trkpt><trkpt lat="44.72599697477003" lon="8.973536074329111"><ele>294.0</ele><time>2026-03-29T09:59:04.001Z</time></trkpt><trkpt lat="44.725899270844415" lon="8.973515504826796"><ele>294.0</ele><time>2026-03-29T09:59:05.001Z</time></trkpt><trkpt lat="44.72581548819041" lon="8.97350318557416"><ele>294.0</ele><time>2026-03-29T09:59:06Z</time></trkpt><trkpt lat="44.72574331756084" lon="8.973488523003027"><ele>294.0</ele><time>2026-03-29T09:59:07Z</time></trkpt><trkpt lat="44.72565825195421" lon="8.973468192854387"><ele>294.0</ele><time>2026-03-29T09:59:09Z</time></trkpt><trkpt lat="44.72557174006045" lon="8.973446692217696"><ele>294.0</ele><time>2026-03-29T09:59:11Z</time></trkpt><trkpt lat="44.72550154990922" lon="8.973432844335582"><ele>294.0</ele><time>2026-03-29T09:59:15Z</time></trkpt><trkpt lat="44.725434029339446" lon="8.973425022201472"><ele>294.0</ele><time>2026-03-29T09:59:30Z</time></trkpt><trkpt lat="44.725344132499394" lon="8.973395318573218"><ele>294.0</ele><time>2026-03-29T09:59:32Z</time></trkpt><trkpt lat="44.72525491419071" lon="8.97338690959988"><ele>294.0</ele><time>2026-03-29T09:59:34Z</time></trkpt><trkpt lat="44.72518236185411" lon="8.97338967229859"><ele>294.75</ele><time>2026-03-29T09:59:36Z</time></trkpt><trkpt lat="44.72512036042541" lon="8.973560879181482"><ele>295.5</ele><time>2026-03-29T09:59:38Z</time></trkpt><trkpt lat="44.725055426626206" lon="8.973668439223745"><ele>296.25</ele><time>2026-03-29T09:59:39Z</time></trkpt><trkpt lat="44.72496257507558" lon="8.97375607054369"><ele>297.0</ele><time>2026-03-29T09:59:40Z</time></trkpt><trkpt lat="44.72485251105976" lon="8.973821279078612"><ele>297.0</ele><time>2026-03-29T09:59:41Z</time></trkpt><trkpt lat="44.72471307033894" lon="8.973824977415605"><ele>297.0</ele><time>2026-03-29T09:59:42Z</time></trkpt><trkpt lat="44.72456776413353" lon="8.973856231620086"><ele>297.0</ele><time>2026-03-29T09:59:43Z</time></trkpt><trkpt lat="44.72444741286852" lon="8.973937388240143"><ele>297.0</ele><time>2026-03-29T09:59:44Z</time></trkpt><trkpt lat="44.72433615111123" lon="8.974028414841184"><ele>298.3333333333333</ele><time>2026-03-29T09:59:45Z</time></trkpt><trkpt lat="44.72423890316213" lon="8.974156094106812"><ele>299.66666666666663</ele><time>2026-03-29T09:59:46Z</time></trkpt><trkpt lat="44.72414332906384" lon="8.974343158908123"><ele>301.0</ele><time>2026-03-29T09:59:47Z</time></trkpt><trkpt lat="44.724031454301986" lon="8.974574282374576"><ele>301.0</ele><time>2026-03-29T09:59:48Z</time></trkpt><trkpt lat="44.72396218784171" lon="8.974777326157124"><ele>301.0</ele><time>2026-03-29T09:59:49Z</time></trkpt><trkpt lat="44.7239169795167" lon="8.974945897441444"><ele>301.0</ele><time>2026-03-29T09:59:50Z</time></trkpt><trkpt lat="44.72390364512563" lon="8.975082372642136"><ele>301.0</ele><time>2026-03-29T09:59:51Z</time></trkpt><trkpt lat="44.72386828327587" lon="8.975198334768551"><ele>301.25</ele><time>2026-03-29T09:59:53Z</time></trkpt><trkpt lat="44.72379396297043" lon="8.975233132480286"><ele>301.5</ele><time>2026-03-29T09:59:54Z</time></trkpt><trkpt lat="44.723673651006855" lon="8.97523545407226"><ele>301.75</ele><time>2026-03-29T09:59:55Z</time></trkpt><trkpt lat="44.723526442818574" lon="8.975321558308625"><ele>302.0</ele><time>2026-03-29T09:59:56Z</time></trkpt><trkpt lat="44.7234084794869" lon="8.97537451650124"><ele>304.75</ele><time>2026-03-29T09:59:57Z</time></trkpt><trkpt lat="44.72332627517493" lon="8.975440161403258"><ele>307.5</ele><time>2026-03-29T09:59:58Z</time></trkpt><trkpt lat="44.72327785588319" lon="8.975550182428991"><ele>310.25</ele><time>2026-03-29T09:59:59Z</time></trkpt><trkpt lat="44.723279027946845" lon="8.975730477252183"><ele>313.0</ele><time>2026-03-29T10:00:00Z</time></trkpt><trkpt lat="44.723242938821535" lon="8.975919746483042"><ele>313.0</ele><time>2026-03-29T10:00:01Z</time></trkpt><trkpt lat="44.72321147768865" lon="8.976067346589991"><ele>313.0</ele><time>2026-03-29T10:00:02Z</time></trkpt><trkpt lat="44.72316998676281" lon="8.9761405496577"><ele>313.0</ele><time>2026-03-29T10:00:03Z</time></trkpt><trkpt lat="44.723089772129974" lon="8.976199269580276"><ele>313.0</ele><time>2026-03-29T10:00:04Z</time></trkpt><trkpt lat="44.72299352458814" lon="8.976311486233792"><ele>313.0</ele><time>2026-03-29T10:00:05Z</time></trkpt><trkpt lat="44.7229049951853" lon="8.976416415363524"><ele>313.0</ele><time>2026-03-29T10:00:06Z</time></trkpt><trkpt lat="44.722762355101274" lon="8.976408326858284"><ele>313.0</ele><time>2026-03-29T10:00:07Z</time></trkpt><trkpt lat="44.72264058685885" lon="8.976433472977911"><ele>313.0</ele><time>2026-03-29T10:00:08Z</time></trkpt><trkpt lat="44.72249987276752" lon="8.976429638180386"><ele>313.0</ele><time>2026-03-29T10:00:09Z</time></trkpt><trkpt lat="44.722329613035456" lon="8.97635545440515"><ele>315.0</ele><time>2026-03-29T10:00:10Z</time></trkpt><trkpt lat="44.72216062235354" lon="8.976415427450027"><ele>317.0</ele><time>2026-03-29T10:00:11Z</time></trkpt><trkpt lat="44.72202571882815" lon="8.976442131959008"><ele>319.0</ele><time>2026-03-29T10:00:12Z</time></trkpt><trkpt lat="44.721900836052455" lon="8.976447104879417"><ele>321.0</ele><time>2026-03-29T10:00:13Z</time></trkpt><trkpt lat="44.72179148471059" lon="8.97642867269742"><ele>321.4</ele><time>2026-03-29T10:00:14Z</time></trkpt><trkpt lat="44.72168403747488" lon="8.976397641725104"><ele>321.8</ele><time>2026-03-29T10:00:15Z</time></trkpt><trkpt lat="44.721574026969186" lon="8.976356772184124"><ele>322.2</ele><time>2026-03-29T10:00:16Z</time></trkpt><trkpt lat="44.72148129026918" lon="8.976322559218021"><ele>322.59999999999997</ele><time>2026-03-29T10:00:17Z</time></trkpt><trkpt lat="44.72142864990597" lon="8.976257828752162"><ele>323.0</ele><time>2026-03-29T10:00:18Z</time></trkpt><trkpt lat="44.7213338775258" lon="8.976157637091111"><ele>323.0</ele><time>2026-03-29T10:00:20Z</time></trkpt><trkpt lat="44.721257619650565" lon="8.976084582490195"><ele>323.0</ele><time>2026-03-29T10:00:21Z</time></trkpt><trkpt lat="44.72128804101404" lon="8.975987992703969"><ele>323.0</ele><time>2026-03-29T10:00:22Z</time></trkpt><trkpt lat="44.72123206042082" lon="8.975900308713154"><ele>323.0</ele><time>2026-03-29T10:00:23Z</time></trkpt><trkpt lat="44.72116834908451" lon="8.97580527822953"><ele>323.0</ele><time>2026-03-29T10:00:24Z</time></trkpt><trkpt lat="44.7211075621953" lon="8.97571531720712"><ele>323.0</ele><time>2026-03-29T10:00:25Z</time></trkpt><trkpt lat="44.721070724766946" lon="8.975555007590302"><ele>324.0</ele><time>2026-03-29T10:00:27Z</time></trkpt><trkpt lat="44.72061892435284" lon="8.975910283085055"><ele>324.0</ele><time>2026-03-29T10:00:29Z</time></trkpt><trkpt lat="44.720570902681814" lon="8.97597601592248"><ele>324.0</ele><time>2026-03-29T10:00:30Z</time></trkpt><trkpt lat="44.72055158776969" lon="8.976121104614972"><ele>324.0</ele><time>2026-03-29T10:00:31Z</time></trkpt><trkpt lat="44.72055051009921" lon="8.976241585477686"><ele>324.0</ele><time>2026-03-29T10:00:32Z</time></trkpt><trkpt lat="44.720543042193555" lon="8.976397051145714"><ele>324.0</ele><time>2026-03-29T10:00:33Z</time></trkpt><trkpt lat="44.720472652926084" lon="8.976555252536667"><ele>324.0</ele><time>2026-03-29T10:00:34Z</time></trkpt><trkpt lat="44.72041905581579" lon="8.976662736468121"><ele>324.0</ele><time>2026-03-29T10:00:35Z</time></trkpt><trkpt lat="44.720303156084206" lon="8.976684150516252"><ele>324.0</ele><time>2026-03-29T10:00:37Z</time></trkpt><trkpt lat="44.72018328250999" lon="8.976609157633465"><ele>324.0</ele><time>2026-03-29T10:00:38Z</time></trkpt><trkpt lat="44.720110907992954" lon="8.976649126676989"><ele>324.0</ele><time>2026-03-29T10:00:39Z</time></trkpt><trkpt lat="44.72004599687978" lon="8.976688470287893"><ele>327.79999999999995</ele><time>2026-03-29T10:00:40Z</time></trkpt><trkpt lat="44.72003003929536" lon="8.976810405963997"><ele>331.59999999999997</ele><time>2026-03-29T10:00:42Z</time></trkpt><trkpt lat="44.72008426639888" lon="8.97699234243668"><ele>335.4</ele><time>2026-03-29T10:00:44Z</time></trkpt><trkpt lat="44.72011357652084" lon="8.977169329139095"><ele>339.2</ele><time>2026-03-29T10:00:46Z</time></trkpt><trkpt lat="44.72012591660997" lon="8.977278388895451"><ele>343.0</ele><time>2026-03-29T10:00:47Z</time></trkpt><trkpt lat="44.72013555488106" lon="8.977406547911267"><ele>342.0</ele><time>2026-03-29T10:00:48.001Z</time></trkpt><trkpt lat="44.72013791337289" lon="8.977550234443873"><ele>341.0</ele><time>2026-03-29T10:00:49.001Z</time></trkpt><trkpt lat="44.72013392603942" lon="8.977683726717245"><ele>340.0</ele><time>2026-03-29T10:00:50.001Z</time></trkpt><trkpt lat="44.72010795262605" lon="8.977828855023375"><ele>339.0</ele><time>2026-03-29T10:00:51.001Z</time></trkpt><trkpt lat="44.72006306421328" lon="8.977932976752243"><ele>338.0</ele><time>2026-03-29T10:00:52.001Z</time></trkpt><trkpt lat="44.72001965361279" lon="8.978006210266186"><ele>338.0</ele><time>2026-03-29T10:00:53.001Z</time></trkpt><trkpt lat="44.71991668805649" lon="8.977954462248634"><ele>338.0</ele><time>2026-03-29T10:00:55.001Z</time></trkpt><trkpt lat="44.719939033721445" lon="8.977794242337751"><ele>338.0</ele><time>2026-03-29T10:00:57.001Z</time></trkpt><trkpt lat="44.71993327707556" lon="8.97763704199539"><ele>338.0</ele><time>2026-03-29T10:00:59.001Z</time></trkpt><trkpt lat="44.71985462436056" lon="8.977447665229397"><ele>338.0</ele><time>2026-03-29T10:01:02.001Z</time></trkpt><trkpt lat="44.719760693688144" lon="8.977380517147967"><ele>338.0</ele><time>2026-03-29T10:01:03.001Z</time></trkpt><trkpt lat="44.719693582587425" lon="8.977388447266819"><ele>338.0</ele><time>2026-03-29T10:01:04.001Z</time></trkpt><trkpt lat="44.71958664619188" lon="8.977455413358891"><ele>338.0</ele><time>2026-03-29T10:01:06.001Z</time></trkpt><trkpt lat="44.71949587633466" lon="8.97751184949675"><ele>338.0</ele><time>2026-03-29T10:01:07.001Z</time></trkpt><trkpt lat="44.71940468916762" lon="8.977540548325937"><ele>340.4</ele><time>2026-03-29T10:01:08.001Z</time></trkpt><trkpt lat="44.71929161863768" lon="8.977537607354373"><ele>342.79999999999995</ele><time>2026-03-29T10:01:09.001Z</time></trkpt><trkpt lat="44.719192465407275" lon="8.977532775529296"><ele>345.2</ele><time>2026-03-29T10:01:10.001Z</time></trkpt><trkpt lat="44.71912169456415" lon="8.977528649151084"><ele>347.6</ele><time>2026-03-29T10:01:11.001Z</time></trkpt><trkpt lat="44.7190523111711" lon="8.97755795928929"><ele>350.0</ele><time>2026-03-29T10:01:12Z</time></trkpt><trkpt lat="44.71896066542101" lon="8.9776304952415"><ele>350.0</ele><time>2026-03-29T10:01:14Z</time></trkpt><trkpt lat="44.71885129598755" lon="8.977701592702806"><ele>350.0</ele><time>2026-03-29T10:01:16Z</time></trkpt><trkpt lat="44.71878407745151" lon="8.977710063734056"><ele>350.0</ele><time>2026-03-29T10:01:17Z</time></trkpt><trkpt lat="44.71868501819413" lon="8.977619318547497"><ele>350.0</ele><time>2026-03-29T10:01:19Z</time></trkpt><trkpt lat="44.71857791619348" lon="8.977605349095116"><ele>350.0</ele><time>2026-03-29T10:01:21Z</time></trkpt><trkpt lat="44.71850295009657" lon="8.977620116801425"><ele>354.0</ele><time>2026-03-29T10:01:22Z</time></trkpt><trkpt lat="44.71840990543337" lon="8.977637197807818"><ele>358.0</ele><time>2026-03-29T10:01:23Z</time></trkpt><trkpt lat="44.71833216079262" lon="8.977663584108425"><ele>362.0</ele><time>2026-03-29T10:01:24Z</time></trkpt><trkpt lat="44.71826565533217" lon="8.97769394696599"><ele>366.0</ele><time>2026-03-29T10:01:25Z</time></trkpt><trkpt lat="44.718202891604335" lon="8.977722972002816"><ele>370.0</ele><time>2026-03-29T10:01:26Z</time></trkpt><trkpt lat="44.71812813638844" lon="8.977832441598567"><ele>374.0</ele><time>2026-03-29T10:01:28Z</time></trkpt><trkpt lat="44.71800942923207" lon="8.977926472413703"><ele>374.0</ele><time>2026-03-29T10:01:30Z</time></trkpt><trkpt lat="44.71793377262544" lon="8.977972430102074"><ele>374.0</ele><time>2026-03-29T10:01:31Z</time></trkpt><trkpt lat="44.717912938876815" lon="8.978068339378396"><ele>374.0</ele><time>2026-03-29T10:01:32Z</time></trkpt><trkpt lat="44.71785520111708" lon="8.978153792832753"><ele>374.0</ele><time>2026-03-29T10:01:34Z</time></trkpt><trkpt lat="44.7177840761863" lon="8.978132888708735"><ele>374.0</ele><time>2026-03-29T10:01:35Z</time></trkpt><trkpt lat="44.71771134492144" lon="8.978094793771492"><ele>374.0</ele><time>2026-03-29T10:01:36Z</time></trkpt><trkpt lat="44.717605626084065" lon="8.978205234642077"><ele>378.2</ele><time>2026-03-29T10:01:38Z</time></trkpt><trkpt lat="44.71753223620062" lon="8.9783242066359"><ele>382.4</ele><time>2026-03-29T10:01:39Z</time></trkpt><trkpt lat="44.71746901482274" lon="8.978412548021137"><ele>386.6</ele><time>2026-03-29T10:01:40Z</time></trkpt><trkpt lat="44.71738592179331" lon="8.978270879065814"><ele>390.8</ele><time>2026-03-29T10:01:42Z</time></trkpt><trkpt lat="44.717342432088955" lon="8.978204473654287"><ele>395.0</ele><time>2026-03-29T10:01:43Z</time></trkpt><trkpt lat="44.71722807305765" lon="8.978245590509914"><ele>397.16666666666663</ele><time>2026-03-29T10:01:45Z</time></trkpt><trkpt lat="44.71714220159848" lon="8.978275822152376"><ele>399.3333333333333</ele><time>2026-03-29T10:01:46Z</time></trkpt><trkpt lat="44.71701524777506" lon="8.978265917262116"><ele>401.5</ele><time>2026-03-29T10:01:47Z</time></trkpt><trkpt lat="44.71693810768088" lon="8.978264507303347"><ele>403.66666666666663</ele><time>2026-03-29T10:01:48Z</time></trkpt><trkpt lat="44.716872954558944" lon="8.978304162232172"><ele>405.8333333333333</ele><time>2026-03-29T10:01:49Z</time></trkpt><trkpt lat="44.71681648783512" lon="8.978393248474049"><ele>408.0</ele><time>2026-03-29T10:01:50Z</time></trkpt><trkpt lat="44.716808979738694" lon="8.978497427827957"><ele>410.6666666666667</ele><time>2026-03-29T10:01:51Z</time></trkpt><trkpt lat="44.71679125024483" lon="8.978611356158178"><ele>413.33333333333337</ele><time>2026-03-29T10:01:52Z</time></trkpt><trkpt lat="44.71673001333015" lon="8.978700810341039"><ele>416.0</ele><time>2026-03-29T10:01:53Z</time></trkpt><trkpt lat="44.716654475487445" lon="8.978727800267174"><ele>418.6666666666667</ele><time>2026-03-29T10:01:54Z</time></trkpt><trkpt lat="44.71657356768497" lon="8.978789916464672"><ele>421.33333333333337</ele><time>2026-03-29T10:01:55Z</time></trkpt><trkpt lat="44.716498322454925" lon="8.97883292212268"><ele>424.0</ele><time>2026-03-29T10:01:56Z</time></trkpt><trkpt lat="44.716453443341344" lon="8.97875869348698"><ele>424.00000000000006</ele><time>2026-03-29T10:01:58Z</time></trkpt><trkpt lat="44.71643645239659" lon="8.978628036651108"><ele>424.0</ele><time>2026-03-29T10:02:00Z</time></trkpt><trkpt lat="44.71642482059553" lon="8.978509067738397"><ele>424.0</ele><time>2026-03-29T10:02:03Z</time></trkpt><trkpt lat="44.71642462815736" lon="8.978379725750974"><ele>424.0</ele><time>2026-03-29T10:02:06Z</time></trkpt><trkpt lat="44.71638452515289" lon="8.978275432779125"><ele>424.00000000000006</ele><time>2026-03-29T10:02:07Z</time></trkpt><trkpt lat="44.71640156506029" lon="8.978147803518794"><ele>424.0</ele><time>2026-03-29T10:02:09Z</time></trkpt><trkpt lat="44.71639829507152" lon="8.978058532623391"><ele>428.0</ele><time>2026-03-29T10:02:11Z</time></trkpt><trkpt lat="44.716457700907455" lon="8.977688085780986"><ele>432.0</ele><time>2026-03-29T10:02:12Z</time></trkpt><trkpt lat="44.716407811106016" lon="8.977588265665036"><ele>436.0</ele><time>2026-03-29T10:02:14Z</time></trkpt><trkpt lat="44.71633710938947" lon="8.977590653825056"><ele>440.0</ele><time>2026-03-29T10:02:15Z</time></trkpt><trkpt lat="44.71621409820743" lon="8.977627402855038"><ele>445.75</ele><time>2026-03-29T10:02:16Z</time></trkpt><trkpt lat="44.71604643544089" lon="8.977784790742115"><ele>451.5</ele><time>2026-03-29T10:02:17Z</time></trkpt><trkpt lat="44.71593374283494" lon="8.977818821840481"><ele>457.25</ele><time>2026-03-29T10:02:18Z</time></trkpt><trkpt lat="44.715832962767585" lon="8.97785036809382"><ele>463.0</ele><time>2026-03-29T10:02:19Z</time></trkpt><trkpt lat="44.71572492986839" lon="8.97786920912983"><ele>463.0</ele><time>2026-03-29T10:02:20Z</time></trkpt><trkpt lat="44.71561283091036" lon="8.977865041941339"><ele>462.99999999999994</ele><time>2026-03-29T10:02:21Z</time></trkpt><trkpt lat="44.71551339690361" lon="8.977901860830789"><ele>462.99999999999994</ele><time>2026-03-29T10:02:23Z</time></trkpt><trkpt lat="44.71541562658281" lon="8.978030808995422"><ele>463.0</ele><time>2026-03-29T10:02:24Z</time></trkpt><trkpt lat="44.715335435651056" lon="8.978068423530432"><ele>463.0</ele><time>2026-03-29T10:02:25Z</time></trkpt><trkpt lat="44.71527143997074" lon="8.978065647431709"><ele>471.0</ele><time>2026-03-29T10:02:26Z</time></trkpt><trkpt lat="44.71515982616882" lon="8.978010168427373"><ele>478.99999999999994</ele><time>2026-03-29T10:02:27Z</time></trkpt><trkpt lat="44.71507313557335" lon="8.978024253837496"><ele>486.99999999999994</ele><time>2026-03-29T10:02:28Z</time></trkpt><trkpt lat="44.715006774308556" lon="8.978014725640723"><ele>495.0</ele><time>2026-03-29T10:02:29Z</time></trkpt><trkpt lat="44.715029956130756" lon="8.97818738957988"><ele>503.0</ele><time>2026-03-29T10:02:31Z</time></trkpt><trkpt lat="44.71500616068391" lon="8.978275659620433"><ele>502.99999999999994</ele><time>2026-03-29T10:02:32Z</time></trkpt><trkpt lat="44.71494820538254" lon="8.978347555797185"><ele>503.0</ele><time>2026-03-29T10:02:34Z</time></trkpt><trkpt lat="44.71489666130539" lon="8.978403125545277"><ele>503.0</ele><time>2026-03-29T10:02:35Z</time></trkpt><trkpt lat="44.714914821455835" lon="8.978301436922141"><ele>503.0</ele><time>2026-03-29T10:02:38Z</time></trkpt><trkpt lat="44.71489900377327" lon="8.978185648849536"><ele>502.99999999999994</ele><time>2026-03-29T10:02:41Z</time></trkpt><trkpt lat="44.71487885264185" lon="8.978081356123049"><ele>503.0</ele><time>2026-03-29T10:02:44Z</time></trkpt><trkpt lat="44.71478247128753" lon="8.977301414055793"><ele>503.2</ele><time>2026-03-29T10:02:45Z</time></trkpt><trkpt lat="44.71473194738622" lon="8.97712395921508"><ele>503.4</ele><time>2026-03-29T10:02:46Z</time></trkpt><trkpt lat="44.714693267715546" lon="8.976957212332213"><ele>503.59999999999997</ele><time>2026-03-29T10:02:47Z</time></trkpt><trkpt lat="44.71470380972036" lon="8.976815944813675"><ele>503.79999999999995</ele><time>2026-03-29T10:02:48Z</time></trkpt><trkpt lat="44.7147289931255" lon="8.976734262930524"><ele>504.0</ele><time>2026-03-29T10:02:49Z</time></trkpt><trkpt lat="44.714796245162056" lon="8.976719311594392"><ele>502.0</ele><time>2026-03-29T10:02:51Z</time></trkpt><trkpt lat="44.714824439527" lon="8.976639943174588"><ele>500.0</ele><time>2026-03-29T10:02:52Z</time></trkpt><trkpt lat="44.71483355811902" lon="8.976512580161401"><ele>498.0</ele><time>2026-03-29T10:02:53Z</time></trkpt><trkpt lat="44.71488873200659" lon="8.976451146521708"><ele>496.0</ele><time>2026-03-29T10:02:54Z</time></trkpt><trkpt lat="44.71492929988634" lon="8.976338193826482"><ele>494.0</ele><time>2026-03-29T10:02:55Z</time></trkpt><trkpt lat="44.71493125714809" lon="8.976166255405431"><ele>492.0</ele><time>2026-03-29T10:02:57.001Z</time></trkpt><trkpt lat="44.714989546614156" lon="8.976077138436503"><ele>492.0</ele><time>2026-03-29T10:02:58.001Z</time></trkpt><trkpt lat="44.71500116369142" lon="8.975956948609376"><ele>492.0</ele><time>2026-03-29T10:02:59.001Z</time></trkpt><trkpt lat="44.71495577561311" lon="8.975864993331491"><ele>492.0</ele><time>2026-03-29T10:03:00.001Z</time></trkpt><trkpt lat="44.71496654984344" lon="8.975773306054371"><ele>492.0</ele><time>2026-03-29T10:03:01.001Z</time></trkpt><trkpt lat="44.71499120935403" lon="8.975665154705112"><ele>492.0</ele><time>2026-03-29T10:03:02.001Z</time></trkpt><trkpt lat="44.71504952481481" lon="8.975599121164041"><ele>492.0</ele><time>2026-03-29T10:03:03.001Z</time></trkpt><trkpt lat="44.715145492502124" lon="8.975585532094986"><ele>490.1666666666667</ele><time>2026-03-29T10:03:04.001Z</time></trkpt><trkpt lat="44.71512145347561" lon="8.975481441858197"><ele>488.33333333333337</ele><time>2026-03-29T10:03:05.001Z</time></trkpt><trkpt lat="44.715174185635824" lon="8.975369104458393"><ele>486.5</ele><time>2026-03-29T10:03:07.001Z</time></trkpt><trkpt lat="44.7151349504195" lon="8.975235957790655"><ele>484.6666666666667</ele><time>2026-03-29T10:03:10.001Z</time></trkpt><trkpt lat="44.715163969660544" lon="8.975148700294286"><ele>482.83333333333337</ele><time>2026-03-29T10:03:13.001Z</time></trkpt><trkpt lat="44.71518264486214" lon="8.975056943568138"><ele>481.0</ele><time>2026-03-29T10:03:15.001Z</time></trkpt><trkpt lat="44.7152448413647" lon="8.974940927875432"><ele>472.25</ele><time>2026-03-29T10:03:17.001Z</time></trkpt><trkpt lat="44.71524823118562" lon="8.974663481540476"><ele>463.5</ele><time>2026-03-29T10:03:19Z</time></trkpt><trkpt lat="44.715316764616915" lon="8.974594044938206"><ele>454.75</ele><time>2026-03-29T10:03:20Z</time></trkpt><trkpt lat="44.71533232385245" lon="8.974426630458959"><ele>446.0</ele><time>2026-03-29T10:03:21Z</time></trkpt><trkpt lat="44.71532470399427" lon="8.97431941899148"><ele>445.99999999999994</ele><time>2026-03-29T10:03:22Z</time></trkpt><trkpt lat="44.71533995445621" lon="8.974230227391322"><ele>446.0</ele><time>2026-03-29T10:03:23Z</time></trkpt><trkpt lat="44.71532620017397" lon="8.974053560944965"><ele>446.0</ele><time>2026-03-29T10:03:25Z</time></trkpt><trkpt lat="44.715334942071784" lon="8.973934160069579"><ele>446.0</ele><time>2026-03-29T10:03:26Z</time></trkpt><trkpt lat="44.71535259033816" lon="8.973827648815796"><ele>445.99999999999994</ele><time>2026-03-29T10:03:27Z</time></trkpt><trkpt lat="44.71539420949469" lon="8.973708359370875"><ele>446.0</ele><time>2026-03-29T10:03:29Z</time></trkpt><trkpt lat="44.71540309581798" lon="8.973586633838382"><ele>446.8333333333333</ele><time>2026-03-29T10:03:30Z</time></trkpt><trkpt lat="44.71542762886763" lon="8.973479352469742"><ele>447.66666666666663</ele><time>2026-03-29T10:03:31Z</time></trkpt><trkpt lat="44.71543654038245" lon="8.973387779265297"><ele>448.5</ele><time>2026-03-29T10:03:32Z</time></trkpt><trkpt lat="44.71543268065308" lon="8.973253708418156"><ele>449.33333333333337</ele><time>2026-03-29T10:03:34Z</time></trkpt><trkpt lat="44.71545005474449" lon="8.97315484066443"><ele>450.1666666666667</ele><time>2026-03-29T10:03:36Z</time></trkpt><trkpt lat="44.71550188496018" lon="8.973012309821492"><ele>451.0</ele><time>2026-03-29T10:03:38Z</time></trkpt><trkpt lat="44.715475087049306" lon="8.972901105051173"><ele>451.0</ele><time>2026-03-29T10:03:39Z</time></trkpt><trkpt lat="44.7154551901185" lon="8.972804486062879"><ele>451.0</ele><time>2026-03-29T10:03:40Z</time></trkpt><trkpt lat="44.71546130703912" lon="8.972652233773319"><ele>451.0</ele><time>2026-03-29T10:03:42Z</time></trkpt><trkpt lat="44.71547235509028" lon="8.972529381200435"><ele>451.0</ele><time>2026-03-29T10:03:43Z</time></trkpt><trkpt lat="44.71552636425166" lon="8.972416026468212"><ele>451.0</ele><time>2026-03-29T10:03:44Z</time></trkpt><trkpt lat="44.715584503489964" lon="8.972257816777189"><ele>450.4</ele><time>2026-03-29T10:03:45Z</time></trkpt><trkpt lat="44.71562672971328" lon="8.97210346744624"><ele>449.8</ele><time>2026-03-29T10:03:46Z</time></trkpt><trkpt lat="44.71562585676945" lon="8.971989722183313"><ele>449.19999999999993</ele><time>2026-03-29T10:03:47Z</time></trkpt><trkpt lat="44.715609111913366" lon="8.971886859339856"><ele>448.59999999999997</ele><time>2026-03-29T10:03:48Z</time></trkpt><trkpt lat="44.71556843335994" lon="8.971762778354446"><ele>448.0</ele><time>2026-03-29T10:03:49Z</time></trkpt><trkpt lat="44.715495423472134" lon="8.971594320688176"><ele>447.59999999999997</ele><time>2026-03-29T10:03:50Z</time></trkpt><trkpt lat="44.715431126972035" lon="8.971443494310913"><ele>447.19999999999993</ele><time>2026-03-29T10:03:51Z</time></trkpt><trkpt lat="44.71535940232563" lon="8.97133089238501"><ele>446.8</ele><time>2026-03-29T10:03:52Z</time></trkpt><trkpt lat="44.71530458811129" lon="8.971231427480145"><ele>446.4</ele><time>2026-03-29T10:03:53Z</time></trkpt><trkpt lat="44.71526056499798" lon="8.971134238779168"><ele>446.0</ele><time>2026-03-29T10:03:54Z</time></trkpt><trkpt lat="44.715235309182646" lon="8.97099358377524"><ele>443.25</ele><time>2026-03-29T10:03:55Z</time></trkpt><trkpt lat="44.71521601593589" lon="8.970848712761637"><ele>440.5</ele><time>2026-03-29T10:03:56Z</time></trkpt><trkpt lat="44.71522701995816" lon="8.970675403074695"><ele>437.75</ele><time>2026-03-29T10:03:57Z</time></trkpt><trkpt lat="44.715246293431456" lon="8.970497864515574"><ele>435.0</ele><time>2026-03-29T10:03:58Z</time></trkpt><trkpt lat="44.71524501102365" lon="8.970332703833046"><ele>435.0</ele><time>2026-03-29T10:03:59Z</time></trkpt><trkpt lat="44.715270047217935" lon="8.970203167719303"><ele>435.0</ele><time>2026-03-29T10:04:00Z</time></trkpt><trkpt lat="44.715307708212556" lon="8.970056446264602"><ele>435.0</ele><time>2026-03-29T10:04:01Z</time></trkpt><trkpt lat="44.71532952337789" lon="8.969915746246143"><ele>435.0</ele><time>2026-03-29T10:04:02Z</time></trkpt><trkpt lat="44.71529606806662" lon="8.969784859729323"><ele>435.0</ele><time>2026-03-29T10:04:03Z</time></trkpt><trkpt lat="44.715250863293576" lon="8.969587552928084"><ele>435.0</ele><time>2026-03-29T10:04:04Z</time></trkpt><trkpt lat="44.71524245485058" lon="8.969448098300017"><ele>435.0</ele><time>2026-03-29T10:04:05Z</time></trkpt><trkpt lat="44.71524636946354" lon="8.96931583862318"><ele>435.0</ele><time>2026-03-29T10:04:06Z</time></trkpt><trkpt lat="44.71523574681437" lon="8.969131163650518"><ele>435.0</ele><time>2026-03-29T10:04:07Z</time></trkpt><trkpt lat="44.715171494942574" lon="8.968924306983025"><ele>435.66666666666663</ele><time>2026-03-29T10:04:08Z</time></trkpt><trkpt lat="44.71510530375658" lon="8.968695944667505"><ele>436.3333333333333</ele><time>2026-03-29T10:04:09Z</time></trkpt><trkpt lat="44.715058037460004" lon="8.968497741576718"><ele>437.0</ele><time>2026-03-29T10:04:10Z</time></trkpt><trkpt lat="44.71502571562486" lon="8.968317325031187"><ele>437.75</ele><time>2026-03-29T10:04:11Z</time></trkpt><trkpt lat="44.71499861724012" lon="8.968131375662233"><ele>438.5</ele><time>2026-03-29T10:04:12Z</time></trkpt><trkpt lat="44.71499524549939" lon="8.967927698547427"><ele>439.25</ele><time>2026-03-29T10:04:13Z</time></trkpt><trkpt lat="44.714971164275916" lon="8.967801272937736"><ele>440.0</ele><time>2026-03-29T10:04:14Z</time></trkpt><trkpt lat="44.71489972448721" lon="8.96770528343611"><ele>439.99999999999994</ele><time>2026-03-29T10:04:16Z</time></trkpt><trkpt lat="44.71485304112033" lon="8.967630934266356"><ele>440.0</ele><time>2026-03-29T10:04:17Z</time></trkpt><trkpt lat="44.71481903296598" lon="8.967554526550535"><ele>440.0</ele><time>2026-03-29T10:04:18Z</time></trkpt><trkpt lat="44.714824042866404" lon="8.967401663562343"><ele>440.0</ele><time>2026-03-29T10:04:20Z</time></trkpt><trkpt lat="44.71485620402872" lon="8.967318477663374"><ele>439.99999999999994</ele><time>2026-03-29T10:04:21Z</time></trkpt><trkpt lat="44.714853787178896" lon="8.967194691138532"><ele>440.0</ele><time>2026-03-29T10:04:22Z</time></trkpt><trkpt lat="44.71483123734915" lon="8.967096192665075"><ele>440.0</ele><time>2026-03-29T10:04:23Z</time></trkpt><trkpt lat="44.71481358470544" lon="8.966974654195697"><ele>440.0</ele><time>2026-03-29T10:04:24Z</time></trkpt><trkpt lat="44.71482272872184" lon="8.966824581172698"><ele>440.0</ele><time>2026-03-29T10:04:25Z</time></trkpt><trkpt lat="44.71479172619262" lon="8.966686476372791"><ele>440.0</ele><time>2026-03-29T10:04:26Z</time></trkpt><trkpt lat="44.71477916743072" lon="8.966546437099415"><ele>440.0</ele><time>2026-03-29T10:04:27Z</time></trkpt><trkpt lat="44.71480595730152" lon="8.966411903154283"><ele>437.8</ele><time>2026-03-29T10:04:28Z</time></trkpt><trkpt lat="44.71479810770205" lon="8.966291195041423"><ele>435.6</ele><time>2026-03-29T10:04:29Z</time></trkpt><trkpt lat="44.71474804924213" lon="8.966217931145922"><ele>433.4</ele><time>2026-03-29T10:04:30Z</time></trkpt><trkpt lat="44.71467313968507" lon="8.966147977692199"><ele>431.2</ele><time>2026-03-29T10:04:31Z</time></trkpt><trkpt lat="44.714638556940315" lon="8.965911426317104"><ele>429.0</ele><time>2026-03-29T10:04:33Z</time></trkpt><trkpt lat="44.71463008014722" lon="8.965716258805458"><ele>425.75</ele><time>2026-03-29T10:04:34Z</time></trkpt><trkpt lat="44.71462167263908" lon="8.965489461754233"><ele>422.5</ele><time>2026-03-29T10:04:35Z</time></trkpt><trkpt lat="44.71463425921126" lon="8.965273057674695"><ele>419.25</ele><time>2026-03-29T10:04:36Z</time></trkpt><trkpt lat="44.71465081031578" lon="8.965120345423268"><ele>416.0</ele><time>2026-03-29T10:04:37Z</time></trkpt><trkpt lat="44.71471412187903" lon="8.964943066093154"><ele>415.25</ele><time>2026-03-29T10:04:38Z</time></trkpt><trkpt lat="44.71478958889285" lon="8.964790447277188"><ele>414.5</ele><time>2026-03-29T10:04:39Z</time></trkpt><trkpt lat="44.71485958912041" lon="8.964727506913114"><ele>413.75</ele><time>2026-03-29T10:04:40Z</time></trkpt><trkpt lat="44.71496126300691" lon="8.964666713212557"><ele>413.0</ele><time>2026-03-29T10:04:41Z</time></trkpt><trkpt lat="44.71507057814728" lon="8.964552124667469"><ele>412.99999999999994</ele><time>2026-03-29T10:04:42Z</time></trkpt><trkpt lat="44.71513955521095" lon="8.964444482403126"><ele>413.0</ele><time>2026-03-29T10:04:43Z</time></trkpt><trkpt lat="44.71516275090065" lon="8.964347429514094"><ele>413.0</ele><time>2026-03-29T10:04:44Z</time></trkpt><trkpt lat="44.715195450413994" lon="8.964249603065907"><ele>413.0</ele><time>2026-03-29T10:04:45Z</time></trkpt><trkpt lat="44.71525512575198" lon="8.964151936370536"><ele>412.99999999999994</ele><time>2026-03-29T10:04:46Z</time></trkpt><trkpt lat="44.71531419346629" lon="8.964046873753013"><ele>413.0</ele><time>2026-03-29T10:04:47Z</time></trkpt><trkpt lat="44.71537003725002" lon="8.963884208184744"><ele>412.0</ele><time>2026-03-29T10:04:48Z</time></trkpt><trkpt lat="44.71543607546198" lon="8.96370926590257"><ele>411.0</ele><time>2026-03-29T10:04:49Z</time></trkpt><trkpt lat="44.715479560562635" lon="8.963545423768911"><ele>410.0</ele><time>2026-03-29T10:04:50Z</time></trkpt><trkpt lat="44.71550592292583" lon="8.96339325243363"><ele>409.0</ele><time>2026-03-29T10:04:51Z</time></trkpt><trkpt lat="44.715520738158794" lon="8.963279913176073"><ele>411.1666666666667</ele><time>2026-03-29T10:04:52Z</time></trkpt><trkpt lat="44.71550907717302" lon="8.963183284270565"><ele>413.33333333333337</ele><time>2026-03-29T10:04:53Z</time></trkpt><trkpt lat="44.715452227706635" lon="8.963060069172684"><ele>415.5</ele><time>2026-03-29T10:04:54Z</time></trkpt><trkpt lat="44.71539031263123" lon="8.962910782734685"><ele>417.66666666666663</ele><time>2026-03-29T10:04:55Z</time></trkpt><trkpt lat="44.715369147811934" lon="8.962802873569576"><ele>419.8333333333333</ele><time>2026-03-29T10:04:56Z</time></trkpt><trkpt lat="44.71533036971693" lon="8.962726277134744"><ele>422.0</ele><time>2026-03-29T10:04:57Z</time></trkpt><trkpt lat="44.715257836536836" lon="8.962651463405317"><ele>421.0</ele><time>2026-03-29T10:04:58Z</time></trkpt><trkpt lat="44.71519400441761" lon="8.962544588646676"><ele>420.0</ele><time>2026-03-29T10:04:59Z</time></trkpt><trkpt lat="44.71513858058186" lon="8.96248106752929"><ele>419.0</ele><time>2026-03-29T10:05:00Z</time></trkpt><trkpt lat="44.7152107562191" lon="8.962281394797978"><ele>418.0</ele><time>2026-03-29T10:05:02.001Z</time></trkpt><trkpt lat="44.71521095336802" lon="8.962155411884765"><ele>417.0</ele><time>2026-03-29T10:05:03.001Z</time></trkpt><trkpt lat="44.71523039268967" lon="8.96200117541764"><ele>417.8</ele><time>2026-03-29T10:05:04.001Z</time></trkpt><trkpt lat="44.71522789590392" lon="8.961828824836227"><ele>418.6</ele><time>2026-03-29T10:05:05.001Z</time></trkpt><trkpt lat="44.715239028874045" lon="8.961676576285331"><ele>419.40000000000003</ele><time>2026-03-29T10:05:06.001Z</time></trkpt><trkpt lat="44.7152473769213" lon="8.96153091690321"><ele>420.20000000000005</ele><time>2026-03-29T10:05:07.001Z</time></trkpt><trkpt lat="44.715221509493446" lon="8.961424384995498"><ele>421.0</ele><time>2026-03-29T10:05:08.001Z</time></trkpt><trkpt lat="44.71523036043178" lon="8.961313901997375"><ele>421.0</ele><time>2026-03-29T10:05:09.001Z</time></trkpt><trkpt lat="44.715264467698155" lon="8.96122234577621"><ele>421.0</ele><time>2026-03-29T10:05:10.001Z</time></trkpt><trkpt lat="44.715262341611904" lon="8.961098343300893"><ele>421.0</ele><time>2026-03-29T10:05:11.001Z</time></trkpt><trkpt lat="44.71521385297002" lon="8.960973531668738"><ele>421.0</ele><time>2026-03-29T10:05:12.001Z</time></trkpt><trkpt lat="44.715097952527024" lon="8.960833636536018"><ele>421.0</ele><time>2026-03-29T10:05:13.001Z</time></trkpt><trkpt lat="44.71495195132549" lon="8.960669956255833"><ele>420.25</ele><time>2026-03-29T10:05:14.001Z</time></trkpt><trkpt lat="44.71482684241326" lon="8.960516939720987"><ele>419.5</ele><time>2026-03-29T10:05:15.001Z</time></trkpt><trkpt lat="44.714745757889006" lon="8.960427864052319"><ele>418.75</ele><time>2026-03-29T10:05:16.001Z</time></trkpt><trkpt lat="44.714679150407555" lon="8.96027378423537"><ele>418.0</ele><time>2026-03-29T10:05:17.001Z</time></trkpt><trkpt lat="44.71460806714674" lon="8.960136777328744"><ele>416.5</ele><time>2026-03-29T10:05:18.001Z</time></trkpt><trkpt lat="44.714566849022944" lon="8.960029915055708"><ele>415.0</ele><time>2026-03-29T10:05:19.001Z</time></trkpt><trkpt lat="44.71443272488714" lon="8.959866467910581"><ele>413.5</ele><time>2026-03-29T10:05:21.001Z</time></trkpt><trkpt lat="44.71432300619651" lon="8.959741400293685"><ele>412.0</ele><time>2026-03-29T10:05:22.001Z</time></trkpt><trkpt lat="44.71424887142999" lon="8.95964159975361"><ele>412.0</ele><time>2026-03-29T10:05:23.001Z</time></trkpt><trkpt lat="44.7142068513795" lon="8.959541460900178"><ele>412.0</ele><time>2026-03-29T10:05:24Z</time></trkpt><trkpt lat="44.71417358910584" lon="8.959399040676365"><ele>412.0</ele><time>2026-03-29T10:05:25Z</time></trkpt><trkpt lat="44.71417271727191" lon="8.959243490475306"><ele>412.0</ele><time>2026-03-29T10:05:26Z</time></trkpt><trkpt lat="44.714221611125694" lon="8.959086751961797"><ele>412.0</ele><time>2026-03-29T10:05:27Z</time></trkpt><trkpt lat="44.71429593363018" lon="8.958946087540037"><ele>411.6</ele><time>2026-03-29T10:05:28Z</time></trkpt><trkpt lat="44.71432776612702" lon="8.958824179838746"><ele>411.20000000000005</ele><time>2026-03-29T10:05:29Z</time></trkpt><trkpt lat="44.714323082969656" lon="8.958718103445777"><ele>410.8</ele><time>2026-03-29T10:05:30Z</time></trkpt><trkpt lat="44.71431148461488" lon="8.958597944279699"><ele>410.4</ele><time>2026-03-29T10:05:31Z</time></trkpt><trkpt lat="44.714295872801195" lon="8.958446464691571"><ele>410.0</ele><time>2026-03-29T10:05:32Z</time></trkpt><trkpt lat="44.714353508601356" lon="8.958304663947425"><ele>410.0</ele><time>2026-03-29T10:05:33Z</time></trkpt><trkpt lat="44.714391431322554" lon="8.958162838112907"><ele>410.0</ele><time>2026-03-29T10:05:34Z</time></trkpt><trkpt lat="44.71442124773405" lon="8.957981836683917"><ele>410.0</ele><time>2026-03-29T10:05:35Z</time></trkpt><trkpt lat="44.71443879435544" lon="8.957749159353392"><ele>410.0</ele><time>2026-03-29T10:05:36Z</time></trkpt><trkpt lat="44.7144608722038" lon="8.957522050217252"><ele>407.5</ele><time>2026-03-29T10:05:37Z</time></trkpt><trkpt lat="44.71445074180959" lon="8.95732610954311"><ele>405.0</ele><time>2026-03-29T10:05:38Z</time></trkpt><trkpt lat="44.714440160392705" lon="8.957176205625533"><ele>402.5</ele><time>2026-03-29T10:05:39Z</time></trkpt><trkpt lat="44.714389111752205" lon="8.95706870149553"><ele>400.0</ele><time>2026-03-29T10:05:40Z</time></trkpt><trkpt lat="44.714307962300516" lon="8.956949938607114"><ele>400.0</ele><time>2026-03-29T10:05:41Z</time></trkpt><trkpt lat="44.71424642371057" lon="8.95680835120844"><ele>400.0</ele><time>2026-03-29T10:05:42Z</time></trkpt><trkpt lat="44.71415401941077" lon="8.956730390592721"><ele>400.0</ele><time>2026-03-29T10:05:43Z</time></trkpt><trkpt lat="44.714123997331086" lon="8.956618423929521"><ele>400.0</ele><time>2026-03-29T10:05:44Z</time></trkpt><trkpt lat="44.714083730712176" lon="8.956546466149254"><ele>400.0</ele><time>2026-03-29T10:05:45Z</time></trkpt><trkpt lat="44.71398760489144" lon="8.956464662064425"><ele>401.2</ele><time>2026-03-29T10:05:46Z</time></trkpt><trkpt lat="44.71389647143845" lon="8.956389359019498"><ele>402.4</ele><time>2026-03-29T10:05:47Z</time></trkpt><trkpt lat="44.71380049453552" lon="8.956263001384906"><ele>403.6</ele><time>2026-03-29T10:05:48Z</time></trkpt><trkpt lat="44.71373449562794" lon="8.95614052369821"><ele>404.8</ele><time>2026-03-29T10:05:49Z</time></trkpt><trkpt lat="44.71371706597609" lon="8.956044413380216"><ele>406.0</ele><time>2026-03-29T10:05:50Z</time></trkpt><trkpt lat="44.71367718725217" lon="8.95591533975885"><ele>405.6666666666667</ele><time>2026-03-29T10:05:52Z</time></trkpt><trkpt lat="44.71363004391372" lon="8.95582732026368"><ele>405.33333333333337</ele><time>2026-03-29T10:05:53Z</time></trkpt><trkpt lat="44.713591122991474" lon="8.955714383066097"><ele>405.0</ele><time>2026-03-29T10:05:54Z</time></trkpt><trkpt lat="44.71356745227968" lon="8.955607904024275"><ele>404.66666666666663</ele><time>2026-03-29T10:05:55Z</time></trkpt><trkpt lat="44.71356830158718" lon="8.955488750151888"><ele>404.3333333333333</ele><time>2026-03-29T10:05:56Z</time></trkpt><trkpt lat="44.713537860879946" lon="8.955376220168251"><ele>404.0</ele><time>2026-03-29T10:05:57Z</time></trkpt><trkpt lat="44.71346747272937" lon="8.955277578878304"><ele>402.75</ele><time>2026-03-29T10:05:58Z</time></trkpt><trkpt lat="44.71339608843989" lon="8.955151975342305"><ele>401.5</ele><time>2026-03-29T10:05:59Z</time></trkpt><trkpt lat="44.71335118184852" lon="8.955019846725316"><ele>400.25</ele><time>2026-03-29T10:06:00Z</time></trkpt><trkpt lat="44.71329898735348" lon="8.954842482922444"><ele>399.0</ele><time>2026-03-29T10:06:01Z</time></trkpt><trkpt lat="44.71322225238992" lon="8.954653225679865"><ele>396.66666666666663</ele><time>2026-03-29T10:06:02Z</time></trkpt><trkpt lat="44.71315693548476" lon="8.954451664890223"><ele>394.3333333333333</ele><time>2026-03-29T10:06:03Z</time></trkpt><trkpt lat="44.71308492317658" lon="8.954221879069332"><ele>392.0</ele><time>2026-03-29T10:06:04Z</time></trkpt><trkpt lat="44.71302279119264" lon="8.954011971590083"><ele>393.0</ele><time>2026-03-29T10:06:05Z</time></trkpt><trkpt lat="44.71300121024453" lon="8.953827738532699"><ele>394.0</ele><time>2026-03-29T10:06:06Z</time></trkpt><trkpt lat="44.71298471260766" lon="8.953656891958907"><ele>395.0</ele><time>2026-03-29T10:06:07Z</time></trkpt><trkpt lat="44.71295065067947" lon="8.953495612163227"><ele>396.0</ele><time>2026-03-29T10:06:08Z</time></trkpt><trkpt lat="44.71291556047221" lon="8.953416670310375"><ele>397.0</ele><time>2026-03-29T10:06:09Z</time></trkpt><trkpt lat="44.7128979466642" lon="8.95330295170819"><ele>397.00000000000006</ele><time>2026-03-29T10:06:10Z</time></trkpt><trkpt lat="44.71291332542424" lon="8.953168090024691"><ele>397.0</ele><time>2026-03-29T10:06:11Z</time></trkpt><trkpt lat="44.712977749179565" lon="8.953082363129967"><ele>397.0</ele><time>2026-03-29T10:06:12Z</time></trkpt><trkpt lat="44.713044369562965" lon="8.953037711339118"><ele>397.0</ele><time>2026-03-29T10:06:13Z</time></trkpt><trkpt lat="44.71315264676376" lon="8.952976412540687"><ele>397.00000000000006</ele><time>2026-03-29T10:06:14Z</time></trkpt><trkpt lat="44.71321022393178" lon="8.952931168354159"><ele>397.0</ele><time>2026-03-29T10:06:15Z</time></trkpt><trkpt lat="44.71325314970041" lon="8.952837091857628"><ele>397.0</ele><time>2026-03-29T10:06:16Z</time></trkpt><trkpt lat="44.71331648201582" lon="8.952746803994414"><ele>397.0</ele><time>2026-03-29T10:06:17Z</time></trkpt><trkpt lat="44.71338284457265" lon="8.95262255975373"><ele>397.0</ele><time>2026-03-29T10:06:18Z</time></trkpt><trkpt lat="44.71345319011492" lon="8.952501081614821"><ele>397.0</ele><time>2026-03-29T10:06:19Z</time></trkpt><trkpt lat="44.71352998132576" lon="8.952376542317408"><ele>397.0</ele><time>2026-03-29T10:06:20Z</time></trkpt><trkpt lat="44.713606919193296" lon="8.952289990793064"><ele>394.50000000000006</ele><time>2026-03-29T10:06:21Z</time></trkpt><trkpt lat="44.713650143172785" lon="8.952206846196304"><ele>392.0</ele><time>2026-03-29T10:06:22Z</time></trkpt><trkpt lat="44.71369839813657" lon="8.952114357710355"><ele>389.5</ele><time>2026-03-29T10:06:23Z</time></trkpt><trkpt lat="44.71370098207072" lon="8.952013529885978"><ele>387.0</ele><time>2026-03-29T10:06:24Z</time></trkpt><trkpt lat="44.71373499683838" lon="8.951935443102737"><ele>384.5</ele><time>2026-03-29T10:06:25Z</time></trkpt><trkpt lat="44.71378640819917" lon="8.95184432008113"><ele>382.0</ele><time>2026-03-29T10:06:26Z</time></trkpt><trkpt lat="44.71386651299442" lon="8.951707772850357"><ele>384.0</ele><time>2026-03-29T10:06:27Z</time></trkpt><trkpt lat="44.71399413307953" lon="8.951589269408384"><ele>386.0</ele><time>2026-03-29T10:06:28Z</time></trkpt><trkpt lat="44.71414612007944" lon="8.951484051650977"><ele>388.0</ele><time>2026-03-29T10:06:29Z</time></trkpt><trkpt lat="44.71430266955248" lon="8.95133587424962"><ele>384.0</ele><time>2026-03-29T10:06:30Z</time></trkpt><trkpt lat="44.714447828522516" lon="8.951222122721836"><ele>380.0</ele><time>2026-03-29T10:06:31Z</time></trkpt><trkpt lat="44.714548364280674" lon="8.95115339089453"><ele>376.0</ele><time>2026-03-29T10:06:32Z</time></trkpt><trkpt lat="44.71462168372694" lon="8.951133136439063"><ele>372.0</ele><time>2026-03-29T10:06:33Z</time></trkpt><trkpt lat="44.71470594015047" lon="8.951063301455896"><ele>372.0</ele><time>2026-03-29T10:06:34Z</time></trkpt><trkpt lat="44.71480283695794" lon="8.951009830589511"><ele>372.0</ele><time>2026-03-29T10:06:35Z</time></trkpt><trkpt lat="44.71491502576319" lon="8.950927981457735"><ele>372.0</ele><time>2026-03-29T10:06:36Z</time></trkpt><trkpt lat="44.71498323752602" lon="8.950873842269466"><ele>372.0</ele><time>2026-03-29T10:06:37Z</time></trkpt><trkpt lat="44.71501129965919" lon="8.950792791598944"><ele>372.0</ele><time>2026-03-29T10:06:38Z</time></trkpt><trkpt lat="44.715061993873704" lon="8.950714820591715"><ele>372.0</ele><time>2026-03-29T10:06:39Z</time></trkpt><trkpt lat="44.7151336194981" lon="8.950560332870772"><ele>371.5</ele><time>2026-03-29T10:06:41Z</time></trkpt><trkpt lat="44.71519116812611" lon="8.950447505704782"><ele>371.0</ele><time>2026-03-29T10:06:42Z</time></trkpt><trkpt lat="44.71527395553894" lon="8.950345614625876"><ele>370.5</ele><time>2026-03-29T10:06:43Z</time></trkpt><trkpt lat="44.71537231116538" lon="8.950224303444072"><ele>370.0</ele><time>2026-03-29T10:06:44Z</time></trkpt><trkpt lat="44.71546664705941" lon="8.95012626103706"><ele>370.0</ele><time>2026-03-29T10:06:45Z</time></trkpt><trkpt lat="44.715544481667145" lon="8.950046292105123"><ele>370.0</ele><time>2026-03-29T10:06:46Z</time></trkpt><trkpt lat="44.715629039166004" lon="8.950012773763444"><ele>370.0</ele><time>2026-03-29T10:06:47Z</time></trkpt><trkpt lat="44.71569958118266" lon="8.949972400528319"><ele>370.0</ele><time>2026-03-29T10:06:48Z</time></trkpt><trkpt lat="44.715781100254425" lon="8.949947782707767"><ele>370.0</ele><time>2026-03-29T10:06:49Z</time></trkpt><trkpt lat="44.7158785683163" lon="8.949937948463786"><ele>370.0</ele><time>2026-03-29T10:06:50Z</time></trkpt><trkpt lat="44.716004343036126" lon="8.949942742995386"><ele>368.0</ele><time>2026-03-29T10:06:51Z</time></trkpt><trkpt lat="44.716096381743746" lon="8.949921526617123"><ele>366.0</ele><time>2026-03-29T10:06:52Z</time></trkpt><trkpt lat="44.71618140087506" lon="8.949869839710535"><ele>364.0</ele><time>2026-03-29T10:06:53Z</time></trkpt><trkpt lat="44.716298992740576" lon="8.949773890412724"><ele>362.0</ele><time>2026-03-29T10:06:54Z</time></trkpt><trkpt lat="44.7164544872458" lon="8.949696705289922"><ele>362.0</ele><time>2026-03-29T10:06:55Z</time></trkpt><trkpt lat="44.71662802964167" lon="8.949644288698881"><ele>362.0</ele><time>2026-03-29T10:06:56Z</time></trkpt><trkpt lat="44.71675478895701" lon="8.949545644734718"><ele>362.0</ele><time>2026-03-29T10:06:57Z</time></trkpt><trkpt lat="44.71687085919456" lon="8.949438579354608"><ele>362.0</ele><time>2026-03-29T10:06:58Z</time></trkpt><trkpt lat="44.717000559720404" lon="8.949319336131078"><ele>362.0</ele><time>2026-03-29T10:06:59Z</time></trkpt><trkpt lat="44.71710027582404" lon="8.94921368846558"><ele>362.0</ele><time>2026-03-29T10:07:00Z</time></trkpt><trkpt lat="44.717187997939035" lon="8.949063345466666"><ele>362.0</ele><time>2026-03-29T10:07:01Z</time></trkpt><trkpt lat="44.717215080177795" lon="8.94890040522945"><ele>362.0</ele><time>2026-03-29T10:07:02Z</time></trkpt><trkpt lat="44.7172735610202" lon="8.948746618335045"><ele>362.0</ele><time>2026-03-29T10:07:03.001Z</time></trkpt><trkpt lat="44.71721410385338" lon="8.94847857865301"><ele>362.0</ele><time>2026-03-29T10:07:04.001Z</time></trkpt><trkpt lat="44.71723254970657" lon="8.948291507440215"><ele>362.33333333333337</ele><time>2026-03-29T10:07:05.001Z</time></trkpt><trkpt lat="44.717238804215405" lon="8.948070392080346"><ele>362.6666666666667</ele><time>2026-03-29T10:07:06.001Z</time></trkpt><trkpt lat="44.71724257104733" lon="8.9478137472342"><ele>363.0</ele><time>2026-03-29T10:07:07.001Z</time></trkpt><trkpt lat="44.7172585051668" lon="8.947541319281061"><ele>363.0</ele><time>2026-03-29T10:07:08.001Z</time></trkpt><trkpt lat="44.7172978376496" lon="8.94727717000081"><ele>363.0</ele><time>2026-03-29T10:07:09.001Z</time></trkpt><trkpt lat="44.71734780731163" lon="8.947039085029846"><ele>363.0</ele><time>2026-03-29T10:07:10.001Z</time></trkpt><trkpt lat="44.71737973738626" lon="8.946787235584422"><ele>363.0</ele><time>2026-03-29T10:07:11.001Z</time></trkpt><trkpt lat="44.717400880684224" lon="8.946532183751673"><ele>363.0</ele><time>2026-03-29T10:07:12.001Z</time></trkpt><trkpt lat="44.71741421276393" lon="8.94631554226395"><ele>363.0</ele><time>2026-03-29T10:07:13.001Z</time></trkpt><trkpt lat="44.71742044693176" lon="8.946162280106517"><ele>363.0</ele><time>2026-03-29T10:07:14.001Z</time></trkpt><trkpt lat="44.71742836722514" lon="8.946025160080673"><ele>363.5</ele><time>2026-03-29T10:07:15.001Z</time></trkpt><trkpt lat="44.71742692986678" lon="8.945804281255862"><ele>364.0</ele><time>2026-03-29T10:07:17.001Z</time></trkpt><trkpt lat="44.71743125901359" lon="8.94560690230451"><ele>364.5</ele><time>2026-03-29T10:07:18.001Z</time></trkpt><trkpt lat="44.71743647644111" lon="8.94547018788478"><ele>365.0</ele><time>2026-03-29T10:07:19.001Z</time></trkpt><trkpt lat="44.71743435221018" lon="8.945333075241267"><ele>365.0</ele><time>2026-03-29T10:07:20.001Z</time></trkpt><trkpt lat="44.71742592786599" lon="8.94516544859203"><ele>365.0</ele><time>2026-03-29T10:07:21.001Z</time></trkpt><trkpt lat="44.71740723404292" lon="8.94494291281163"><ele>365.0</ele><time>2026-03-29T10:07:22.001Z</time></trkpt><trkpt lat="44.71740608605512" lon="8.944729133610108"><ele>365.0</ele><time>2026-03-29T10:07:23.001Z</time></trkpt><trkpt lat="44.717416540193454" lon="8.94457702678526"><ele>365.5</ele><time>2026-03-29T10:07:24.001Z</time></trkpt><trkpt lat="44.717385375225696" lon="8.94442455683483"><ele>366.0</ele><time>2026-03-29T10:07:25.001Z</time></trkpt><trkpt lat="44.717360643201054" lon="8.94423395239577"><ele>366.5</ele><time>2026-03-29T10:07:26.001Z</time></trkpt><trkpt lat="44.7173365986617" lon="8.943975342028965"><ele>367.0</ele><time>2026-03-29T10:07:27.001Z</time></trkpt><trkpt lat="44.71734862488107" lon="8.943744299238347"><ele>366.0</ele><time>2026-03-29T10:07:28.001Z</time></trkpt><trkpt lat="44.71733196306303" lon="8.943547097666585"><ele>365.0</ele><time>2026-03-29T10:07:29.001Z</time></trkpt><trkpt lat="44.717324718719006" lon="8.94333984513104"><ele>364.0</ele><time>2026-03-29T10:07:30Z</time></trkpt><trkpt lat="44.71733352140222" lon="8.943150614240851"><ele>363.0</ele><time>2026-03-29T10:07:31Z</time></trkpt><trkpt lat="44.71733790503702" lon="8.942978630690844"><ele>361.75</ele><time>2026-03-29T10:07:32Z</time></trkpt><trkpt lat="44.71735391804579" lon="8.942827625860728"><ele>360.5</ele><time>2026-03-29T10:07:33Z</time></trkpt><trkpt lat="44.7173822041465" lon="8.942638207463792"><ele>359.25</ele><time>2026-03-29T10:07:34Z</time></trkpt><trkpt lat="44.717419244289104" lon="8.942453699600842"><ele>358.0</ele><time>2026-03-29T10:07:35Z</time></trkpt><trkpt lat="44.71744761407067" lon="8.94229603148544"><ele>356.5</ele><time>2026-03-29T10:07:36Z</time></trkpt><trkpt lat="44.71746828158611" lon="8.942092923128998"><ele>355.0</ele><time>2026-03-29T10:07:37Z</time></trkpt><trkpt lat="44.71746838053637" lon="8.94189095216694"><ele>353.5</ele><time>2026-03-29T10:07:38Z</time></trkpt><trkpt lat="44.717510498619724" lon="8.941766335109245"><ele>352.0</ele><time>2026-03-29T10:07:39Z</time></trkpt><trkpt lat="44.71751236697247" lon="8.941622457538674"><ele>351.20000000000005</ele><time>2026-03-29T10:07:40Z</time></trkpt><trkpt lat="44.717566961606195" lon="8.941538331526447"><ele>350.4</ele><time>2026-03-29T10:07:41Z</time></trkpt><trkpt lat="44.71770819117394" lon="8.941534287141298"><ele>349.6</ele><time>2026-03-29T10:07:43Z</time></trkpt><trkpt lat="44.717760284416286" lon="8.941449875874566"><ele>348.79999999999995</ele><time>2026-03-29T10:07:44Z</time></trkpt><trkpt lat="44.717756721474146" lon="8.941310214230368"><ele>348.0</ele><time>2026-03-29T10:07:45Z</time></trkpt><trkpt lat="44.71777366616357" lon="8.941128101392302"><ele>348.0</ele><time>2026-03-29T10:07:46Z</time></trkpt><trkpt lat="44.717787122660354" lon="8.940905353059618"><ele>348.0</ele><time>2026-03-29T10:07:47Z</time></trkpt><trkpt lat="44.71780840917164" lon="8.9406797666188"><ele>348.0</ele><time>2026-03-29T10:07:48Z</time></trkpt><trkpt lat="44.717834878011196" lon="8.940458463264058"><ele>348.0</ele><time>2026-03-29T10:07:49Z</time></trkpt><trkpt lat="44.71785000116251" lon="8.940267787483117"><ele>348.0</ele><time>2026-03-29T10:07:50Z</time></trkpt><trkpt lat="44.71785245199492" lon="8.940132157424516"><ele>348.0</ele><time>2026-03-29T10:07:51Z</time></trkpt><trkpt lat="44.71788134118753" lon="8.93996403333911"><ele>348.0</ele><time>2026-03-29T10:07:52Z</time></trkpt><trkpt lat="44.71788375782823" lon="8.939765663306915"><ele>347.5</ele><time>2026-03-29T10:07:53Z</time></trkpt><trkpt lat="44.717863474023964" lon="8.939552080872646"><ele>347.0</ele><time>2026-03-29T10:07:54Z</time></trkpt><trkpt lat="44.717854282858525" lon="8.939389764969041"><ele>346.5</ele><time>2026-03-29T10:07:55Z</time></trkpt><trkpt lat="44.71780654303947" lon="8.939251203404963"><ele>346.0</ele><time>2026-03-29T10:07:56Z</time></trkpt><trkpt lat="44.717758347534485" lon="8.939108977994113"><ele>346.0</ele><time>2026-03-29T10:07:57Z</time></trkpt><trkpt lat="44.71774289189273" lon="8.938943971265136"><ele>346.0</ele><time>2026-03-29T10:07:58Z</time></trkpt><trkpt lat="44.7177449130184" lon="8.938779177322346"><ele>346.0</ele><time>2026-03-29T10:07:59Z</time></trkpt><trkpt lat="44.71774835592702" lon="8.938653340900272"><ele>346.0</ele><time>2026-03-29T10:08:00Z</time></trkpt><trkpt lat="44.717740437659955" lon="8.938545296206417"><ele>346.0</ele><time>2026-03-29T10:08:01Z</time></trkpt><trkpt lat="44.71766003857242" lon="8.938459608175858"><ele>343.3333333333333</ele><time>2026-03-29T10:08:04Z</time></trkpt><trkpt lat="44.717622705317126" lon="8.938376731193383"><ele>340.66666666666663</ele><time>2026-03-29T10:08:05Z</time></trkpt><trkpt lat="44.717576703852444" lon="8.938295126287219"><ele>338.0</ele><time>2026-03-29T10:08:06Z</time></trkpt><trkpt lat="44.71756062072898" lon="8.938175390200698"><ele>335.3333333333333</ele><time>2026-03-29T10:08:08Z</time></trkpt><trkpt lat="44.71750814973735" lon="8.938074823013551"><ele>332.6666666666667</ele><time>2026-03-29T10:08:11Z</time></trkpt><trkpt lat="44.71747780985695" lon="8.937974769758439"><ele>330.0</ele><time>2026-03-29T10:08:13Z</time></trkpt><trkpt lat="44.71750842378545" lon="8.937877267880888"><ele>330.0</ele><time>2026-03-29T10:08:16Z</time></trkpt><trkpt lat="44.71754281752761" lon="8.937759850412329"><ele>330.0</ele><time>2026-03-29T10:08:19Z</time></trkpt><trkpt lat="44.71759038667443" lon="8.93768645420494"><ele>330.0</ele><time>2026-03-29T10:08:21Z</time></trkpt><trkpt lat="44.71754702131808" lon="8.937616867687769"><ele>330.0</ele><time>2026-03-29T10:08:23Z</time></trkpt><trkpt lat="44.71753590826074" lon="8.937482384793496"><ele>330.0</ele><time>2026-03-29T10:08:26Z</time></trkpt><trkpt lat="44.7175078877496" lon="8.9372967931016"><ele>328.2</ele><time>2026-03-29T10:08:27Z</time></trkpt><trkpt lat="44.717570882785246" lon="8.93721896609171"><ele>326.4</ele><time>2026-03-29T10:08:30Z</time></trkpt><trkpt lat="44.717598756452325" lon="8.937096644660219"><ele>324.6</ele><time>2026-03-29T10:08:32Z</time></trkpt><trkpt lat="44.717608764944885" lon="8.936908147593448"><ele>322.8</ele><time>2026-03-29T10:08:34Z</time></trkpt><trkpt lat="44.71763954342853" lon="8.93679339041269"><ele>321.0</ele><time>2026-03-29T10:08:37Z</time></trkpt><trkpt lat="44.71759029825859" lon="8.936688036213893"><ele>319.3333333333333</ele><time>2026-03-29T10:08:39Z</time></trkpt><trkpt lat="44.717629598540874" lon="8.936616087811299"><ele>317.6666666666667</ele><time>2026-03-29T10:08:40Z</time></trkpt><trkpt lat="44.71766438590475" lon="8.936493928898328"><ele>316.0</ele><time>2026-03-29T10:08:43Z</time></trkpt><trkpt lat="44.717599827264216" lon="8.936429201535221"><ele>314.33333333333337</ele><time>2026-03-29T10:08:45Z</time></trkpt><trkpt lat="44.717491207095655" lon="8.936463442098239"><ele>312.6666666666667</ele><time>2026-03-29T10:08:49Z</time></trkpt><trkpt lat="44.71741555317561" lon="8.936444088126619"><ele>311.0</ele><time>2026-03-29T10:08:52Z</time></trkpt><trkpt lat="44.71731804092845" lon="8.936448431929767"><ele>311.0</ele><time>2026-03-29T10:08:55Z</time></trkpt><trkpt lat="44.71723695720461" lon="8.936425204322939"><ele>311.0</ele><time>2026-03-29T10:08:57Z</time></trkpt><trkpt lat="44.717168732051995" lon="8.93640439545779"><ele>311.0</ele><time>2026-03-29T10:08:58Z</time></trkpt><trkpt lat="44.71710597995181" lon="8.93639309242757"><ele>311.0</ele><time>2026-03-29T10:09:00Z</time></trkpt><trkpt lat="44.717042693489624" lon="8.936404623964238"><ele>311.0</ele><time>2026-03-29T10:09:02Z</time></trkpt><trkpt lat="44.71696490464834" lon="8.936390344005561"><ele>311.0</ele><time>2026-03-29T10:09:04Z</time></trkpt><trkpt lat="44.71690566505831" lon="8.936295827682587"><ele>311.0</ele><time>2026-03-29T10:09:06Z</time></trkpt><trkpt lat="44.7170146784303" lon="8.936216647010967"><ele>311.0</ele><time>2026-03-29T10:09:11Z</time></trkpt><trkpt lat="44.7170210129681" lon="8.93612778991323"><ele>311.0</ele><time>2026-03-29T10:09:13Z</time></trkpt><trkpt lat="44.71709495689541" lon="8.935936594237804"><ele>311.0</ele><time>2026-03-29T10:09:16Z</time></trkpt><trkpt lat="44.71705405918048" lon="8.93584327033183"><ele>311.0</ele><time>2026-03-29T10:09:19Z</time></trkpt><trkpt lat="44.7170825534201" lon="8.935759702200174"><ele>311.0</ele><time>2026-03-29T10:09:21Z</time></trkpt><trkpt lat="44.71715296055588" lon="8.935766920078239"><ele>311.0</ele><time>2026-03-29T10:09:23Z</time></trkpt><trkpt lat="44.71723994287625" lon="8.935716048063147"><ele>307.0</ele><time>2026-03-29T10:09:26Z</time></trkpt><trkpt lat="44.71724667242552" lon="8.935574778420788"><ele>303.0</ele><time>2026-03-29T10:09:29.001Z</time></trkpt><trkpt lat="44.71730761990526" lon="8.935418103968617"><ele>299.0</ele><time>2026-03-29T10:09:30.001Z</time></trkpt><trkpt lat="44.71736439712046" lon="8.935213329966178"><ele>295.0</ele><time>2026-03-29T10:09:31.001Z</time></trkpt><trkpt lat="44.71739606298038" lon="8.935052781071558"><ele>295.0</ele><time>2026-03-29T10:09:32.001Z</time></trkpt><trkpt lat="44.717420794924635" lon="8.93488359343082"><ele>295.0</ele><time>2026-03-29T10:09:33.001Z</time></trkpt><trkpt lat="44.71747333752123" lon="8.934727550643535"><ele>295.0</ele><time>2026-03-29T10:09:34.001Z</time></trkpt><trkpt lat="44.71758844565499" lon="8.934545878317303"><ele>295.0</ele><time>2026-03-29T10:09:35.001Z</time></trkpt><trkpt lat="44.717767036596726" lon="8.934471504837344"><ele>293.5</ele><time>2026-03-29T10:09:36Z</time></trkpt><trkpt lat="44.71788412260429" lon="8.934380839040461"><ele>292.0</ele><time>2026-03-29T10:09:37Z</time></trkpt><trkpt lat="44.71798080718609" lon="8.934373644067069"><ele>290.5</ele><time>2026-03-29T10:09:38Z</time></trkpt><trkpt lat="44.71805600380318" lon="8.934221804545492"><ele>289.0</ele><time>2026-03-29T10:09:39Z</time></trkpt><trkpt lat="44.71812559789405" lon="8.934071640464465"><ele>288.75</ele><time>2026-03-29T10:09:40Z</time></trkpt><trkpt lat="44.71817149066852" lon="8.933856374999671"><ele>288.5</ele><time>2026-03-29T10:09:41Z</time></trkpt><trkpt lat="44.71827316714799" lon="8.933714395714448"><ele>288.25</ele><time>2026-03-29T10:09:42Z</time></trkpt><trkpt lat="44.718291338908095" lon="8.933553051927298"><ele>288.0</ele><time>2026-03-29T10:09:43Z</time></trkpt><trkpt lat="44.718280802458295" lon="8.933435022577768"><ele>290.0</ele><time>2026-03-29T10:09:44Z</time></trkpt><trkpt lat="44.718262976488234" lon="8.933348298440281"><ele>292.0</ele><time>2026-03-29T10:09:45Z</time></trkpt><trkpt lat="44.71835862913725" lon="8.93323590513496"><ele>294.0</ele><time>2026-03-29T10:09:46Z</time></trkpt><trkpt lat="44.71850762924799" lon="8.933106147973724"><ele>296.0</ele><time>2026-03-29T10:09:47Z</time></trkpt><trkpt lat="44.71860024960411" lon="8.932982378371431"><ele>292.40000000000003</ele><time>2026-03-29T10:09:48Z</time></trkpt><trkpt lat="44.71866259134057" lon="8.932912218768555"><ele>288.8</ele><time>2026-03-29T10:09:49Z</time></trkpt><trkpt lat="44.718722250593245" lon="8.932815328377211"><ele>285.20000000000005</ele><time>2026-03-29T10:09:50Z</time></trkpt><trkpt lat="44.718789632049706" lon="8.932711115351328"><ele>281.6</ele><time>2026-03-29T10:09:51Z</time></trkpt><trkpt lat="44.71885807637678" lon="8.93270734917889"><ele>278.0</ele><time>2026-03-29T10:09:52Z</time></trkpt><trkpt lat="44.718981130020495" lon="8.932752772573624"><ele>278.0</ele><time>2026-03-29T10:09:53Z</time></trkpt><trkpt lat="44.719127678193296" lon="8.93279725323026"><ele>278.0</ele><time>2026-03-29T10:09:54Z</time></trkpt><trkpt lat="44.71929898627218" lon="8.932862468110933"><ele>278.0</ele><time>2026-03-29T10:09:55Z</time></trkpt><trkpt lat="44.7194856373126" lon="8.932926791556774"><ele>282.5</ele><time>2026-03-29T10:09:56Z</time></trkpt><trkpt lat="44.7197012551266" lon="8.933067143908607"><ele>287.0</ele><time>2026-03-29T10:09:57Z</time></trkpt><trkpt lat="44.71988156913289" lon="8.93322436818859"><ele>288.6666666666667</ele><time>2026-03-29T10:09:58Z</time></trkpt><trkpt lat="44.72008469597922" lon="8.933391765788258"><ele>290.3333333333333</ele><time>2026-03-29T10:09:59Z</time></trkpt><trkpt lat="44.72028677774351" lon="8.9334753218409"><ele>292.0</ele><time>2026-03-29T10:10:00Z</time></trkpt><trkpt lat="44.72041692198749" lon="8.93353138327674"><ele>292.0</ele><time>2026-03-29T10:10:01Z</time></trkpt><trkpt lat="44.72056568176348" lon="8.933610753869461"><ele>292.0</ele><time>2026-03-29T10:10:02Z</time></trkpt><trkpt lat="44.72073423848851" lon="8.933742650321786"><ele>292.0</ele><time>2026-03-29T10:10:03Z</time></trkpt><trkpt lat="44.72090191462983" lon="8.933897964712902"><ele>288.3333333333333</ele><time>2026-03-29T10:10:04Z</time></trkpt><trkpt lat="44.72109149935047" lon="8.934049009939416"><ele>284.6666666666667</ele><time>2026-03-29T10:10:05Z</time></trkpt><trkpt lat="44.721263009377715" lon="8.934228896666067"><ele>281.0</ele><time>2026-03-29T10:10:06Z</time></trkpt><trkpt lat="44.72141448721403" lon="8.934369743732258"><ele>281.0</ele><time>2026-03-29T10:10:07Z</time></trkpt><trkpt lat="44.72153944206279" lon="8.934487955044231"><ele>281.0</ele><time>2026-03-29T10:10:08Z</time></trkpt><trkpt lat="44.721655911519186" lon="8.934577794301495"><ele>281.0</ele><time>2026-03-29T10:10:09Z</time></trkpt><trkpt lat="44.72175286168943" lon="8.934691206467683"><ele>281.0</ele><time>2026-03-29T10:10:10Z</time></trkpt><trkpt lat="44.72181467509532" lon="8.934764169462136"><ele>281.0</ele><time>2026-03-29T10:10:11Z</time></trkpt><trkpt lat="44.72188895871307" lon="8.934889215017252"><ele>281.0</ele><time>2026-03-29T10:10:14Z</time></trkpt><trkpt lat="44.72196549556808" lon="8.934961527170543"><ele>281.0</ele><time>2026-03-29T10:10:15Z</time></trkpt><trkpt lat="44.72204119002351" lon="8.935056349627457"><ele>281.0</ele><time>2026-03-29T10:10:16Z</time></trkpt><trkpt lat="44.722126343160106" lon="8.935127601277054"><ele>281.0</ele><time>2026-03-29T10:10:18Z</time></trkpt><trkpt lat="44.72221056998249" lon="8.93522077595651"><ele>279.6666666666667</ele><time>2026-03-29T10:10:20Z</time></trkpt><trkpt lat="44.722268772866286" lon="8.93530521571623"><ele>278.33333333333337</ele><time>2026-03-29T10:10:22Z</time></trkpt><trkpt lat="44.72231812419627" lon="8.935379752659841"><ele>277.0</ele><time>2026-03-29T10:10:23Z</time></trkpt><trkpt lat="44.722360186260204" lon="8.935447536915973"><ele>275.6666666666667</ele><time>2026-03-29T10:10:24Z</time></trkpt><trkpt lat="44.72241448999682" lon="8.935506936569935"><ele>274.3333333333333</ele><time>2026-03-29T10:10:25Z</time></trkpt><trkpt lat="44.722497067354226" lon="8.935625765911055"><ele>273.0</ele><time>2026-03-29T10:10:26Z</time></trkpt><trkpt lat="44.722583335607034" lon="8.935749485305475"><ele>273.0</ele><time>2026-03-29T10:10:27Z</time></trkpt><trkpt lat="44.72263993521489" lon="8.935831547340886"><ele>273.0</ele><time>2026-03-29T10:10:28Z</time></trkpt><trkpt lat="44.722711010880914" lon="8.935852086078043"><ele>273.0</ele><time>2026-03-29T10:10:33Z</time></trkpt><trkpt lat="44.72278676202111" lon="8.935815113009005"><ele>273.0</ele><time>2026-03-29T10:10:35Z</time></trkpt><trkpt lat="44.722847879850626" lon="8.935753686080444"><ele>273.0</ele><time>2026-03-29T10:10:36Z</time></trkpt><trkpt lat="44.72299463880861" lon="8.935650894175236"><ele>272.0</ele><time>2026-03-29T10:10:37Z</time></trkpt><trkpt lat="44.723083417081746" lon="8.93557562047715"><ele>271.0</ele><time>2026-03-29T10:10:39Z</time></trkpt><trkpt lat="44.72314653636486" lon="8.935640578252004"><ele>270.0</ele><time>2026-03-29T10:10:42Z</time></trkpt><trkpt lat="44.72322281250921" lon="8.935674693099854"><ele>269.0</ele><time>2026-03-29T10:10:45Z</time></trkpt><trkpt lat="44.72324985707749" lon="8.935839641469432"><ele>268.0</ele><time>2026-03-29T10:10:47Z</time></trkpt><trkpt lat="44.723281226761806" lon="8.935942861609108"><ele>268.0</ele><time>2026-03-29T10:10:51Z</time></trkpt><trkpt lat="44.72331637639263" lon="8.936026724692983"><ele>268.0</ele><time>2026-03-29T10:10:53Z</time></trkpt><trkpt lat="44.72335915536752" lon="8.93609447717871"><ele>268.0</ele><time>2026-03-29T10:10:54Z</time></trkpt><trkpt lat="44.723407980619015" lon="8.936159243869243"><ele>268.0</ele><time>2026-03-29T10:10:55Z</time></trkpt><trkpt lat="44.72347073743744" lon="8.936208001752485"><ele>268.0</ele><time>2026-03-29T10:10:56Z</time></trkpt><trkpt lat="44.72354710942265" lon="8.936226126376287"><ele>268.0</ele><time>2026-03-29T10:10:58Z</time></trkpt><trkpt lat="44.723602341560714" lon="8.936275205717985"><ele>268.0</ele><time>2026-03-29T10:11:00Z</time></trkpt><trkpt lat="44.72366780672017" lon="8.936356597724673"><ele>267.16666666666663</ele><time>2026-03-29T10:11:01Z</time></trkpt><trkpt lat="44.72373375633033" lon="8.936413119068941"><ele>266.3333333333333</ele><time>2026-03-29T10:11:02Z</time></trkpt><trkpt lat="44.723825184449055" lon="8.93639465678777"><ele>265.5</ele><time>2026-03-29T10:11:04Z</time></trkpt><trkpt lat="44.723898843058265" lon="8.936442106489979"><ele>264.6666666666667</ele><time>2026-03-29T10:11:06Z</time></trkpt><trkpt lat="44.72395897450873" lon="8.936487361256342"><ele>263.83333333333337</ele><time>2026-03-29T10:11:07Z</time></trkpt><trkpt lat="44.72402551674268" lon="8.93656727954921"><ele>263.0</ele><time>2026-03-29T10:11:08Z</time></trkpt><trkpt lat="44.724107472007304" lon="8.936665061232317"><ele>263.0</ele><time>2026-03-29T10:11:10Z</time></trkpt><trkpt lat="44.7241494861229" lon="8.936736461803722"><ele>263.0</ele><time>2026-03-29T10:11:12.001Z</time></trkpt><trkpt lat="44.72419450199636" lon="8.936881352614527"><ele>263.0</ele><time>2026-03-29T10:11:14.001Z</time></trkpt><trkpt lat="44.72426966433922" lon="8.936989495151124"><ele>263.0</ele><time>2026-03-29T10:11:16.001Z</time></trkpt><trkpt lat="44.724305232715494" lon="8.937084139254887"><ele>263.0</ele><time>2026-03-29T10:11:18.001Z</time></trkpt><trkpt lat="44.72433866372495" lon="8.937232395516217"><ele>263.0</ele><time>2026-03-29T10:11:20.001Z</time></trkpt><trkpt lat="44.72437100444258" lon="8.937336035586274"><ele>263.0</ele><time>2026-03-29T10:11:21.001Z</time></trkpt><trkpt lat="44.724396068911574" lon="8.937427190471814"><ele>263.0</ele><time>2026-03-29T10:11:22.001Z</time></trkpt><trkpt lat="44.72442158139627" lon="8.937511067890258"><ele>263.0</ele><time>2026-03-29T10:11:23.001Z</time></trkpt><trkpt lat="44.72445788767578" lon="8.9375887240857"><ele>263.0</ele><time>2026-03-29T10:11:24.001Z</time></trkpt><trkpt lat="44.72446911008321" lon="8.937680431318109"><ele>263.0</ele><time>2026-03-29T10:11:25.001Z</time></trkpt><trkpt lat="44.72448623900478" lon="8.93782304769664"><ele>263.33333333333337</ele><time>2026-03-29T10:11:27.001Z</time></trkpt><trkpt lat="44.72452750120187" lon="8.937916127964877"><ele>263.6666666666667</ele><time>2026-03-29T10:11:29.001Z</time></trkpt><trkpt lat="44.72458112777303" lon="8.938069192710374"><ele>264.0</ele><time>2026-03-29T10:11:31.001Z</time></trkpt><trkpt lat="44.72458879586237" lon="8.938159609037905"><ele>264.3333333333333</ele><time>2026-03-29T10:11:32.001Z</time></trkpt><trkpt lat="44.72460123066995" lon="8.93830076341135"><ele>264.66666666666663</ele><time>2026-03-29T10:11:34.001Z</time></trkpt><trkpt lat="44.72460698952672" lon="8.93840620180934"><ele>265.0</ele><time>2026-03-29T10:11:36.001Z</time></trkpt><trkpt lat="44.724609871488646" lon="8.938505590918956"><ele>265.16666666666663</ele><time>2026-03-29T10:11:38.001Z</time></trkpt><trkpt lat="44.724656708800026" lon="8.938601440811306"><ele>265.3333333333333</ele><time>2026-03-29T10:11:40.001Z</time></trkpt><trkpt lat="44.724680987044295" lon="8.938690809522987"><ele>265.5</ele><time>2026-03-29T10:11:41.001Z</time></trkpt><trkpt lat="44.724708905174154" lon="8.938783341989936"><ele>265.6666666666667</ele><time>2026-03-29T10:11:42Z</time></trkpt><trkpt lat="44.724730838368046" lon="8.938868824618329"><ele>265.83333333333337</ele><time>2026-03-29T10:11:43Z</time></trkpt><trkpt lat="44.72475804385783" lon="8.938987118895541"><ele>266.0</ele><time>2026-03-29T10:11:44Z</time></trkpt><trkpt lat="44.72473916227764" lon="8.939096578745188"><ele>266.0</ele><time>2026-03-29T10:11:45Z</time></trkpt><trkpt lat="44.72471211041988" lon="8.939198700053833"><ele>266.0</ele><time>2026-03-29T10:11:46Z</time></trkpt><trkpt lat="44.724741763995716" lon="8.939369211508698"><ele>266.0</ele><time>2026-03-29T10:11:48Z</time></trkpt><trkpt lat="44.72475919181811" lon="8.939499923208247"><ele>266.0</ele><time>2026-03-29T10:11:49Z</time></trkpt><trkpt lat="44.72478166854163" lon="8.939619986320187"><ele>266.0</ele><time>2026-03-29T10:11:50Z</time></trkpt><trkpt lat="44.72478143512262" lon="8.939735422576701"><ele>266.0</ele><time>2026-03-29T10:11:51Z</time></trkpt><trkpt lat="44.7247788782672" lon="8.93983668694762"><ele>266.0</ele><time>2026-03-29T10:11:52Z</time></trkpt><trkpt lat="44.724843074748954" lon="8.939955331792568"><ele>266.0</ele><time>2026-03-29T10:11:53Z</time></trkpt><trkpt lat="44.724869731765445" lon="8.94008580890893"><ele>266.0</ele><time>2026-03-29T10:11:54Z</time></trkpt><trkpt lat="44.72487718807364" lon="8.940198799657177"><ele>266.0</ele><time>2026-03-29T10:11:55Z</time></trkpt><trkpt lat="44.72488925432886" lon="8.94034173868308"><ele>266.0</ele><time>2026-03-29T10:11:56Z</time></trkpt><trkpt lat="44.72488186513026" lon="8.940571419899857"><ele>266.0</ele><time>2026-03-29T10:11:58Z</time></trkpt><trkpt lat="44.72490848774069" lon="8.94069826312161"><ele>266.0</ele><time>2026-03-29T10:12:00Z</time></trkpt><trkpt lat="44.724934303167245" lon="8.940807588656421"><ele>266.0</ele><time>2026-03-29T10:12:01Z</time></trkpt><trkpt lat="44.72496144795518" lon="8.940928231584405"><ele>266.0</ele><time>2026-03-29T10:12:02Z</time></trkpt><trkpt lat="44.72500989785783" lon="8.941026149511176"><ele>266.0</ele><time>2026-03-29T10:12:03Z</time></trkpt><trkpt lat="44.725072899424475" lon="8.941142284302478"><ele>266.0</ele><time>2026-03-29T10:12:04Z</time></trkpt><trkpt lat="44.725122911966466" lon="8.941314054501467"><ele>266.0</ele><time>2026-03-29T10:12:05Z</time></trkpt><trkpt lat="44.725181419783034" lon="8.94149886909915"><ele>266.0</ele><time>2026-03-29T10:12:06Z</time></trkpt><trkpt lat="44.725228041459154" lon="8.941656497956876"><ele>266.25</ele><time>2026-03-29T10:12:07Z</time></trkpt><trkpt lat="44.72529520877325" lon="8.941829788570029"><ele>266.5</ele><time>2026-03-29T10:12:08Z</time></trkpt><trkpt lat="44.72538409497392" lon="8.941994958164386"><ele>266.75</ele><time>2026-03-29T10:12:09Z</time></trkpt><trkpt lat="44.72544685178147" lon="8.942142397997157"><ele>267.0</ele><time>2026-03-29T10:12:10Z</time></trkpt><trkpt lat="44.72550258261062" lon="8.942346252603578"><ele>267.25</ele><time>2026-03-29T10:12:11Z</time></trkpt><trkpt lat="44.72553695379721" lon="8.942577926751868"><ele>267.5</ele><time>2026-03-29T10:12:12Z</time></trkpt><trkpt lat="44.725536070472934" lon="8.942728016910666"><ele>267.75</ele><time>2026-03-29T10:12:13Z</time></trkpt><trkpt lat="44.72551316581612" lon="8.942850220618157"><ele>268.0</ele><time>2026-03-29T10:12:15Z</time></trkpt><trkpt lat="44.72549496140053" lon="8.94298560528265"><ele>268.0</ele><time>2026-03-29T10:12:17Z</time></trkpt><trkpt lat="44.72549549748436" lon="8.943076211940669"><ele>268.0</ele><time>2026-03-29T10:12:18Z</time></trkpt><trkpt lat="44.72548532904744" lon="8.943191273522304"><ele>268.0</ele><time>2026-03-29T10:12:19Z</time></trkpt><trkpt lat="44.72547805871928" lon="8.943300689154665"><ele>268.0</ele><time>2026-03-29T10:12:20Z</time></trkpt><trkpt lat="44.72546626596496" lon="8.94342898287651"><ele>268.0</ele><time>2026-03-29T10:12:21Z</time></trkpt><trkpt lat="44.72545262208319" lon="8.94358805746389"><ele>268.0</ele><time>2026-03-29T10:12:22Z</time></trkpt><trkpt lat="44.72543325959268" lon="8.943727759994552"><ele>268.0</ele><time>2026-03-29T10:12:23Z</time></trkpt><trkpt lat="44.72540913466339" lon="8.94386144289003"><ele>268.0</ele><time>2026-03-29T10:12:24Z</time></trkpt><trkpt lat="44.7253814814682" lon="8.94400364561389"><ele>268.0</ele><time>2026-03-29T10:12:25Z</time></trkpt><trkpt lat="44.725382864480935" lon="8.944158874887332"><ele>268.0</ele><time>2026-03-29T10:12:26Z</time></trkpt><trkpt lat="44.725396290539166" lon="8.944295919800245"><ele>268.0</ele><time>2026-03-29T10:12:27Z</time></trkpt><trkpt lat="44.72541548260917" lon="8.944440051967128"><ele>268.0</ele><time>2026-03-29T10:12:28Z</time></trkpt><trkpt lat="44.725440253762926" lon="8.944586995258767"><ele>268.0</ele><time>2026-03-29T10:12:29Z</time></trkpt><trkpt lat="44.725471283172645" lon="8.944697960164799"><ele>268.0</ele><time>2026-03-29T10:12:30Z</time></trkpt><trkpt lat="44.72550442568977" lon="8.944834108341261"><ele>268.0</ele><time>2026-03-29T10:12:31Z</time></trkpt><trkpt lat="44.72554487909252" lon="8.944996855660621"><ele>268.0</ele><time>2026-03-29T10:12:32Z</time></trkpt><trkpt lat="44.725543441696836" lon="8.94513477748375"><ele>268.0</ele><time>2026-03-29T10:12:33Z</time></trkpt><trkpt lat="44.725508865549045" lon="8.945297033845108"><ele>268.0</ele><time>2026-03-29T10:12:34Z</time></trkpt><trkpt lat="44.72547230552107" lon="8.945461404779868"><ele>268.0</ele><time>2026-03-29T10:12:35Z</time></trkpt><trkpt lat="44.72544154586146" lon="8.945662376805704"><ele>268.0</ele><time>2026-03-29T10:12:36Z</time></trkpt><trkpt lat="44.7254259479968" lon="8.945866014300934"><ele>268.0</ele><time>2026-03-29T10:12:37Z</time></trkpt><trkpt lat="44.72539468250802" lon="8.946073901926978"><ele>268.0</ele><time>2026-03-29T10:12:38Z</time></trkpt><trkpt lat="44.72535204370662" lon="8.94627493608537"><ele>268.0</ele><time>2026-03-29T10:12:39Z</time></trkpt><trkpt lat="44.72528344554911" lon="8.946442154201845"><ele>268.0</ele><time>2026-03-29T10:12:40Z</time></trkpt><trkpt lat="44.72522468709981" lon="8.946614637965563"><ele>268.8</ele><time>2026-03-29T10:12:41Z</time></trkpt><trkpt lat="44.725191763384615" lon="8.94678017592429"><ele>269.6</ele><time>2026-03-29T10:12:42Z</time></trkpt><trkpt lat="44.72516182305452" lon="8.946926739326432"><ele>270.4</ele><time>2026-03-29T10:12:43Z</time></trkpt><trkpt lat="44.72511383525829" lon="8.947071923878786"><ele>271.2</ele><time>2026-03-29T10:12:44Z</time></trkpt><trkpt lat="44.72504258612925" lon="8.947175047437014"><ele>272.0</ele><time>2026-03-29T10:12:45Z</time></trkpt><trkpt lat="44.724950857307974" lon="8.947281139978664"><ele>272.0</ele><time>2026-03-29T10:12:46Z</time></trkpt><trkpt lat="44.72485688120014" lon="8.947370157863967"><ele>272.0</ele><time>2026-03-29T10:12:47Z</time></trkpt><trkpt lat="44.724785855860866" lon="8.947422558470826"><ele>272.0</ele><time>2026-03-29T10:12:48Z</time></trkpt><trkpt lat="44.72474502269512" lon="8.94749167047557"><ele>272.0</ele><time>2026-03-29T10:12:49Z</time></trkpt><trkpt lat="44.724762589046826" lon="8.94766045085733"><ele>272.0</ele><time>2026-03-29T10:12:51Z</time></trkpt><trkpt lat="44.72480002460885" lon="8.947774167017764"><ele>272.75</ele><time>2026-03-29T10:12:52Z</time></trkpt><trkpt lat="44.7248282197483" lon="8.947941290906828"><ele>273.5</ele><time>2026-03-29T10:12:53Z</time></trkpt><trkpt lat="44.72485840841908" lon="8.948124393107662"><ele>274.25</ele><time>2026-03-29T10:12:54Z</time></trkpt><trkpt lat="44.7248635603214" lon="8.948324251205065"><ele>275.0</ele><time>2026-03-29T10:12:55Z</time></trkpt><trkpt lat="44.724871014857165" lon="8.948517339693067"><ele>275.0</ele><time>2026-03-29T10:12:56Z</time></trkpt><trkpt lat="44.724868364604106" lon="8.94872989084272"><ele>275.0</ele><time>2026-03-29T10:12:57Z</time></trkpt><trkpt lat="44.72486149483121" lon="8.94893697117126"><ele>275.0</ele><time>2026-03-29T10:12:58Z</time></trkpt><trkpt lat="44.7248605661325" lon="8.949132071617546"><ele>275.0</ele><time>2026-03-29T10:12:59Z</time></trkpt><trkpt lat="44.724851452446714" lon="8.949344368081505"><ele>275.0</ele><time>2026-03-29T10:13:00Z</time></trkpt><trkpt lat="44.72483810867125" lon="8.949515115345967"><ele>275.0</ele><time>2026-03-29T10:13:01Z</time></trkpt><trkpt lat="44.72485162173128" lon="8.949711074528414"><ele>275.0</ele><time>2026-03-29T10:13:02Z</time></trkpt><trkpt lat="44.72487121189033" lon="8.949905884600774"><ele>275.0</ele><time>2026-03-29T10:13:03Z</time></trkpt><trkpt lat="44.7248822972433" lon="8.950095607453605"><ele>275.33333333333337</ele><time>2026-03-29T10:13:04Z</time></trkpt><trkpt lat="44.72487870524357" lon="8.95030155708469"><ele>275.6666666666667</ele><time>2026-03-29T10:13:05Z</time></trkpt><trkpt lat="44.72487330146214" lon="8.950536027289612"><ele>276.0</ele><time>2026-03-29T10:13:06Z</time></trkpt><trkpt lat="44.724863824174946" lon="8.950796664923107"><ele>276.6666666666667</ele><time>2026-03-29T10:13:07Z</time></trkpt><trkpt lat="44.724853755908654" lon="8.95107955950087"><ele>277.33333333333337</ele><time>2026-03-29T10:13:08Z</time></trkpt><trkpt lat="44.72484462294596" lon="8.951346335963496"><ele>278.0</ele><time>2026-03-29T10:13:09Z</time></trkpt><trkpt lat="44.72483518922876" lon="8.95158095874886"><ele>278.75</ele><time>2026-03-29T10:13:10Z</time></trkpt><trkpt lat="44.724830218792555" lon="8.951804552215023"><ele>279.5</ele><time>2026-03-29T10:13:11Z</time></trkpt><trkpt lat="44.72482787103023" lon="8.951995013248242"><ele>280.25</ele><time>2026-03-29T10:13:12Z</time></trkpt><trkpt lat="44.72484200835947" lon="8.952142704468596"><ele>281.0</ele><time>2026-03-29T10:13:13Z</time></trkpt><trkpt lat="44.72484068893253" lon="8.952301605855974"><ele>281.0</ele><time>2026-03-29T10:13:14Z</time></trkpt><trkpt lat="44.72484514220687" lon="8.952437886555344"><ele>281.0</ele><time>2026-03-29T10:13:15Z</time></trkpt><trkpt lat="44.724842825792436" lon="8.95255772404166"><ele>281.0</ele><time>2026-03-29T10:13:16Z</time></trkpt><trkpt lat="44.72483850131694" lon="8.95270375481893"><ele>281.0</ele><time>2026-03-29T10:13:18Z</time></trkpt><trkpt lat="44.724945452340265" lon="8.952799818551405"><ele>281.0</ele><time>2026-03-29T10:13:20Z</time></trkpt><trkpt lat="44.725038484445676" lon="8.952826290801113"><ele>281.25</ele><time>2026-03-29T10:13:21Z</time></trkpt><trkpt lat="44.725141698268914" lon="8.952890342716783"><ele>281.5</ele><time>2026-03-29T10:13:22Z</time></trkpt><trkpt lat="44.72528304023779" lon="8.95295559298934"><ele>281.75</ele><time>2026-03-29T10:13:23Z</time></trkpt><trkpt lat="44.72542732506815" lon="8.953036077335952"><ele>282.0</ele><time>2026-03-29T10:13:24Z</time></trkpt><trkpt lat="44.72557967291866" lon="8.953112154700426"><ele>280.3333333333333</ele><time>2026-03-29T10:13:25Z</time></trkpt><trkpt lat="44.725752507146254" lon="8.953199842725658"><ele>278.66666666666663</ele><time>2026-03-29T10:13:26Z</time></trkpt><trkpt lat="44.72595555498172" lon="8.953313365408983"><ele>277.0</ele><time>2026-03-29T10:13:27Z</time></trkpt><trkpt lat="44.72617730901248" lon="8.953423360768944"><ele>277.0</ele><time>2026-03-29T10:13:28Z</time></trkpt><trkpt lat="44.726405678325754" lon="8.953540793695668"><ele>277.0</ele><time>2026-03-29T10:13:29Z</time></trkpt><trkpt lat="44.72665550248823" lon="8.953659536745896"><ele>277.0</ele><time>2026-03-29T10:13:30.001Z</time></trkpt><trkpt lat="44.72684568549529" lon="8.95376372726087"><ele>277.0</ele><time>2026-03-29T10:13:31.001Z</time></trkpt><trkpt lat="44.72703217185725" lon="8.953861517566013"><ele>277.0</ele><time>2026-03-29T10:13:32.001Z</time></trkpt><trkpt lat="44.72721739315015" lon="8.95398851045649"><ele>278.0</ele><time>2026-03-29T10:13:33.001Z</time></trkpt><trkpt lat="44.72743340952304" lon="8.954115268586298"><ele>279.0</ele><time>2026-03-29T10:13:34.001Z</time></trkpt><trkpt lat="44.72764581885747" lon="8.954237954457671"><ele>282.0</ele><time>2026-03-29T10:13:35.001Z</time></trkpt><trkpt lat="44.72784142479597" lon="8.954341151742437"><ele>285.0</ele><time>2026-03-29T10:13:36.001Z</time></trkpt><trkpt lat="44.72801158993366" lon="8.954415669372176"><ele>288.0</ele><time>2026-03-29T10:13:37.001Z</time></trkpt><trkpt lat="44.72817590694194" lon="8.954443652916186"><ele>288.0</ele><time>2026-03-29T10:13:38.001Z</time></trkpt><trkpt lat="44.728323223952934" lon="8.954484876928536"><ele>288.0</ele><time>2026-03-29T10:13:39.001Z</time></trkpt><trkpt lat="44.72845319530637" lon="8.954418502496035"><ele>288.0</ele><time>2026-03-29T10:13:40.001Z</time></trkpt><trkpt lat="44.72861184329075" lon="8.954358778277408"><ele>289.4</ele><time>2026-03-29T10:13:41.001Z</time></trkpt><trkpt lat="44.728732993417616" lon="8.954265945696868"><ele>290.8</ele><time>2026-03-29T10:13:42.001Z</time></trkpt><trkpt lat="44.72884003534271" lon="8.954211591663865"><ele>292.2</ele><time>2026-03-29T10:13:43.001Z</time></trkpt><trkpt lat="44.72891663406621" lon="8.954213107574443"><ele>293.6</ele><time>2026-03-29T10:13:44.001Z</time></trkpt><trkpt lat="44.72898749190377" lon="8.954228086819139"><ele>295.0</ele><time>2026-03-29T10:13:45.001Z</time></trkpt><trkpt lat="44.72905372948335" lon="8.954243597965805"><ele>295.0</ele><time>2026-03-29T10:13:46.001Z</time></trkpt><trkpt lat="44.729119970076525" lon="8.954233754538203"><ele>295.0</ele><time>2026-03-29T10:13:48Z</time></trkpt><trkpt lat="44.729130220237295" lon="8.954002491958814"><ele>295.0</ele><time>2026-03-29T10:14:01Z</time></trkpt><trkpt lat="44.7291801189834" lon="8.953900976152992"><ele>295.0</ele><time>2026-03-29T10:15:47.001Z</time></trkpt><trkpt lat="44.72921441322634" lon="8.953682497360017"><ele>294.75</ele><time>2026-03-29T10:15:49.001Z</time></trkpt><trkpt lat="44.72923186449167" lon="8.953530818776667"><ele>294.5</ele><time>2026-03-29T10:15:50.001Z</time></trkpt><trkpt lat="44.72926327488726" lon="8.953384261992202"><ele>294.25</ele><time>2026-03-29T10:15:51.001Z</time></trkpt><trkpt lat="44.72929384143676" lon="8.953198480350022"><ele>294.0</ele><time>2026-03-29T10:15:52.001Z</time></trkpt><trkpt lat="44.729327153371074" lon="8.953012432753834"><ele>293.0</ele><time>2026-03-29T10:15:53.001Z</time></trkpt><trkpt lat="44.72936179335366" lon="8.952860180623532"><ele>292.0</ele><time>2026-03-29T10:15:54Z</time></trkpt><trkpt lat="44.729405728626105" lon="8.952735543541506"><ele>291.0</ele><time>2026-03-29T10:15:55Z</time></trkpt><trkpt lat="44.7295728113963" lon="8.952692629931041"><ele>290.0</ele><time>2026-03-29T10:15:56Z</time></trkpt><trkpt lat="44.72958899429256" lon="8.952589511168817"><ele>291.2</ele><time>2026-03-29T10:15:57Z</time></trkpt><trkpt lat="44.72960295110191" lon="8.952491682586452"><ele>292.4</ele><time>2026-03-29T10:15:59Z</time></trkpt><trkpt lat="44.72963576450132" lon="8.952343274340747"><ele>293.6</ele><time>2026-03-29T10:16:02Z</time></trkpt><trkpt lat="44.729659201358345" lon="8.95224820188866"><ele>294.8</ele><time>2026-03-29T10:16:03Z</time></trkpt><trkpt lat="44.72962408467101" lon="8.952074352702269"><ele>296.0</ele><time>2026-03-29T10:16:04Z</time></trkpt><trkpt lat="44.72962100487426" lon="8.95189097176603"><ele>295.33333333333337</ele><time>2026-03-29T10:16:05Z</time></trkpt><trkpt lat="44.72962242491583" lon="8.951671349747066"><ele>294.6666666666667</ele><time>2026-03-29T10:16:06Z</time></trkpt><trkpt lat="44.729630944848964" lon="8.951447876228235"><ele>294.0</ele><time>2026-03-29T10:16:07Z</time></trkpt><trkpt lat="44.729657658300106" lon="8.951221760185732"><ele>294.0</ele><time>2026-03-29T10:16:08Z</time></trkpt><trkpt lat="44.729688602980886" lon="8.950989160141873"><ele>294.0</ele><time>2026-03-29T10:16:09Z</time></trkpt><trkpt lat="44.72969142680361" lon="8.950770634351978"><ele>294.0</ele><time>2026-03-29T10:16:10Z</time></trkpt><trkpt lat="44.72967822302306" lon="8.950589166733263"><ele>294.2</ele><time>2026-03-29T10:16:11Z</time></trkpt><trkpt lat="44.72964925298794" lon="8.950410818930429"><ele>294.4</ele><time>2026-03-29T10:16:12Z</time></trkpt><trkpt lat="44.72965630735073" lon="8.95026759545573"><ele>294.6</ele><time>2026-03-29T10:16:13Z</time></trkpt><trkpt lat="44.72965817735174" lon="8.950142334093245"><ele>294.8</ele><time>2026-03-29T10:16:14Z</time></trkpt><trkpt lat="44.72967294552798" lon="8.950054011078798"><ele>295.0</ele><time>2026-03-29T10:16:15Z</time></trkpt><trkpt lat="44.72974247563115" lon="8.949912103143918"><ele>295.0</ele><time>2026-03-29T10:16:17Z</time></trkpt><trkpt lat="44.7297889497894" lon="8.949818101580231"><ele>295.0</ele><time>2026-03-29T10:16:18Z</time></trkpt><trkpt lat="44.729857652914674" lon="8.949729531846703"><ele>295.0</ele><time>2026-03-29T10:16:19Z</time></trkpt><trkpt lat="44.7299170160876" lon="8.949622010433975"><ele>295.0</ele><time>2026-03-29T10:16:20Z</time></trkpt><trkpt lat="44.72998804269782" lon="8.949484995626818"><ele>295.0</ele><time>2026-03-29T10:16:21Z</time></trkpt><trkpt lat="44.73004769512601" lon="8.949327767690276"><ele>295.75</ele><time>2026-03-29T10:16:22Z</time></trkpt><trkpt lat="44.73011995041612" lon="8.949199984212974"><ele>296.5</ele><time>2026-03-29T10:16:23Z</time></trkpt><trkpt lat="44.73018002429257" lon="8.949029011560901"><ele>297.25</ele><time>2026-03-29T10:16:24Z</time></trkpt><trkpt lat="44.73026046606562" lon="8.948915871278947"><ele>298.0</ele><time>2026-03-29T10:16:25Z</time></trkpt><trkpt lat="44.7303364267819" lon="8.948798949898807"><ele>298.0</ele><time>2026-03-29T10:16:26Z</time></trkpt><trkpt lat="44.73039556658873" lon="8.948675554319522"><ele>298.0</ele><time>2026-03-29T10:16:27Z</time></trkpt><trkpt lat="44.73042985897401" lon="8.948552261940247"><ele>298.0</ele><time>2026-03-29T10:16:28Z</time></trkpt><trkpt lat="44.73040640495078" lon="8.94839750601709"><ele>298.0</ele><time>2026-03-29T10:16:29Z</time></trkpt><trkpt lat="44.73038374852065" lon="8.94824290628117"><ele>298.0</ele><time>2026-03-29T10:16:30Z</time></trkpt><trkpt lat="44.73032954324123" lon="8.948026475362969"><ele>297.66666666666663</ele><time>2026-03-29T10:16:31Z</time></trkpt><trkpt lat="44.73030170170416" lon="8.947782759045593"><ele>297.3333333333333</ele><time>2026-03-29T10:16:32Z</time></trkpt><trkpt lat="44.73027235746745" lon="8.947525770838453"><ele>297.0</ele><time>2026-03-29T10:16:33Z</time></trkpt><trkpt lat="44.73025198784108" lon="8.947269919826313"><ele>297.0</ele><time>2026-03-29T10:16:34Z</time></trkpt><trkpt lat="44.73023677550727" lon="8.94703789744185"><ele>297.0</ele><time>2026-03-29T10:16:35Z</time></trkpt><trkpt lat="44.730228830861506" lon="8.946841242039312"><ele>297.0</ele><time>2026-03-29T10:16:36Z</time></trkpt><trkpt lat="44.73022424910948" lon="8.946647713304175"><ele>297.0</ele><time>2026-03-29T10:16:37Z</time></trkpt><trkpt lat="44.73021156227339" lon="8.946449364118681"><ele>296.75</ele><time>2026-03-29T10:16:38Z</time></trkpt><trkpt lat="44.73017522430949" lon="8.946252919171906"><ele>296.5</ele><time>2026-03-29T10:16:39Z</time></trkpt><trkpt lat="44.73015658207539" lon="8.946084866460147"><ele>296.25</ele><time>2026-03-29T10:16:40Z</time></trkpt><trkpt lat="44.730145483250695" lon="8.945886345397682"><ele>296.0</ele><time>2026-03-29T10:16:41Z</time></trkpt><trkpt lat="44.73011789676453" lon="8.945760370132916"><ele>296.0</ele><time>2026-03-29T10:16:42Z</time></trkpt><trkpt lat="44.72999647226199" lon="8.945642812377148"><ele>296.0</ele><time>2026-03-29T10:16:44Z</time></trkpt><trkpt lat="44.72996709633283" lon="8.94552840893339"><ele>296.0</ele><time>2026-03-29T10:16:46Z</time></trkpt><trkpt lat="44.72995029443481" lon="8.945397486659978"><ele>296.0</ele><time>2026-03-29T10:16:47Z</time></trkpt><trkpt lat="44.72997756930189" lon="8.94529033397651"><ele>296.0</ele><time>2026-03-29T10:16:48Z</time></trkpt><trkpt lat="44.72997233118858" lon="8.945176879218158"><ele>296.0</ele><time>2026-03-29T10:16:49Z</time></trkpt><trkpt lat="44.72995633537128" lon="8.945034546407754"><ele>296.0</ele><time>2026-03-29T10:16:50Z</time></trkpt><trkpt lat="44.72995230703081" lon="8.944916295854728"><ele>296.0</ele><time>2026-03-29T10:16:51Z</time></trkpt><trkpt lat="44.72994776792201" lon="8.94478346266012"><ele>296.0</ele><time>2026-03-29T10:16:52Z</time></trkpt><trkpt lat="44.729899791227254" lon="8.944624808239077"><ele>296.0</ele><time>2026-03-29T10:16:53Z</time></trkpt><trkpt lat="44.72986815242157" lon="8.944477444742372"><ele>296.0</ele><time>2026-03-29T10:16:54Z</time></trkpt><trkpt lat="44.729848747866974" lon="8.944361531252731"><ele>296.0</ele><time>2026-03-29T10:16:55Z</time></trkpt><trkpt lat="44.729829206647864" lon="8.9442509354843"><ele>296.0</ele><time>2026-03-29T10:16:57Z</time></trkpt><trkpt lat="44.72998999616837" lon="8.944259699890125"><ele>296.0</ele><time>2026-03-29T10:16:59Z</time></trkpt><trkpt lat="44.730120895765104" lon="8.944192565806404"><ele>296.0</ele><time>2026-03-29T10:17:01Z</time></trkpt><trkpt lat="44.73020620463185" lon="8.944163282712566"><ele>296.0</ele><time>2026-03-29T10:17:02Z</time></trkpt><trkpt lat="44.73033981876956" lon="8.944128015068276"><ele>296.0</ele><time>2026-03-29T10:17:03Z</time></trkpt><trkpt lat="44.73043021978168" lon="8.944115309825953"><ele>296.0</ele><time>2026-03-29T10:17:04Z</time></trkpt><trkpt lat="44.73050417614091" lon="8.944097809014915"><ele>296.0</ele><time>2026-03-29T10:17:05Z</time></trkpt><trkpt lat="44.73061867677829" lon="8.944081791715652"><ele>296.0</ele><time>2026-03-29T10:17:06Z</time></trkpt><trkpt lat="44.730682841822855" lon="8.944067646132812"><ele>296.0</ele><time>2026-03-29T10:17:07Z</time></trkpt><trkpt lat="44.730675796198796" lon="8.943907994397037"><ele>296.0</ele><time>2026-03-29T10:17:13Z</time></trkpt><trkpt lat="44.73068716567158" lon="8.943771521211207"><ele>296.0</ele><time>2026-03-29T10:17:14Z</time></trkpt><trkpt lat="44.73067646113395" lon="8.943611420350436"><ele>296.0</ele><time>2026-03-29T10:17:15Z</time></trkpt><trkpt lat="44.73068153568442" lon="8.94345938929411"><ele>295.75</ele><time>2026-03-29T10:17:16Z</time></trkpt><trkpt lat="44.73065784873029" lon="8.943271407405998"><ele>295.5</ele><time>2026-03-29T10:17:17Z</time></trkpt><trkpt lat="44.73064595263047" lon="8.943072343874858"><ele>295.25</ele><time>2026-03-29T10:17:18Z</time></trkpt><trkpt lat="44.73063424428248" lon="8.942897847261568"><ele>295.0</ele><time>2026-03-29T10:17:19Z</time></trkpt><trkpt lat="44.730621756645604" lon="8.94275770783564"><ele>295.0</ele><time>2026-03-29T10:17:20Z</time></trkpt><trkpt lat="44.730601821887795" lon="8.942630214972512"><ele>295.0</ele><time>2026-03-29T10:17:21Z</time></trkpt><trkpt lat="44.73054903282096" lon="8.942519239601122"><ele>295.0</ele><time>2026-03-29T10:17:22Z</time></trkpt><trkpt lat="44.73051078929051" lon="8.942405969005149"><ele>295.0</ele><time>2026-03-29T10:17:23Z</time></trkpt><trkpt lat="44.73046159663131" lon="8.942307356293984"><ele>295.0</ele><time>2026-03-29T10:17:24Z</time></trkpt><trkpt lat="44.73040134321925" lon="8.942221977783728"><ele>295.0</ele><time>2026-03-29T10:17:25Z</time></trkpt><trkpt lat="44.73035074500949" lon="8.942117936221443"><ele>295.0</ele><time>2026-03-29T10:17:26Z</time></trkpt><trkpt lat="44.73029520141233" lon="8.941990403217348"><ele>295.0</ele><time>2026-03-29T10:17:27Z</time></trkpt><trkpt lat="44.73024566256451" lon="8.9418538634132"><ele>295.0</ele><time>2026-03-29T10:17:28Z</time></trkpt><trkpt lat="44.73019728640999" lon="8.941732738045895"><ele>295.0</ele><time>2026-03-29T10:17:29Z</time></trkpt><trkpt lat="44.730169967656906" lon="8.941619476772978"><ele>295.0</ele><time>2026-03-29T10:17:30Z</time></trkpt><trkpt lat="44.73013552111735" lon="8.941518400874578"><ele>294.6</ele><time>2026-03-29T10:17:31Z</time></trkpt><trkpt lat="44.73011424805103" lon="8.941423974771489"><ele>294.2</ele><time>2026-03-29T10:17:32Z</time></trkpt><trkpt lat="44.730092451964666" lon="8.941335431495096"><ele>293.8</ele><time>2026-03-29T10:17:33Z</time></trkpt><trkpt lat="44.72992691473633" lon="8.941335105825694"><ele>293.4</ele><time>2026-03-29T10:17:36.001Z</time></trkpt><trkpt lat="44.729833588048464" lon="8.941358010474458"><ele>293.0</ele><time>2026-03-29T10:17:37.001Z</time></trkpt><trkpt lat="44.72970809932632" lon="8.941379842322691"><ele>293.0</ele><time>2026-03-29T10:17:38.001Z</time></trkpt><trkpt lat="44.72952880083106" lon="8.941431258603094"><ele>293.0</ele><time>2026-03-29T10:17:39.001Z</time></trkpt><trkpt lat="44.729366210164514" lon="8.941477883690311"><ele>293.0</ele><time>2026-03-29T10:17:40.001Z</time></trkpt><trkpt lat="44.729214767005445" lon="8.941521312094139"><ele>292.5</ele><time>2026-03-29T10:17:41.001Z</time></trkpt><trkpt lat="44.72908570560789" lon="8.941558322190051"><ele>292.0</ele><time>2026-03-29T10:17:42.001Z</time></trkpt><trkpt lat="44.72896375242365" lon="8.941593293924877"><ele>291.5</ele><time>2026-03-29T10:17:43.001Z</time></trkpt><trkpt lat="44.72884568728438" lon="8.941627150712009"><ele>291.0</ele><time>2026-03-29T10:17:44.001Z</time></trkpt><trkpt lat="44.72874472632967" lon="8.941656102607686"><ele>291.0</ele><time>2026-03-29T10:17:45.001Z</time></trkpt><trkpt lat="44.728658909368825" lon="8.941681598700312"><ele>291.0</ele><time>2026-03-29T10:17:46.001Z</time></trkpt><trkpt lat="44.72858586149784" lon="8.941704708498348"><ele>291.0</ele><time>2026-03-29T10:17:47.001Z</time></trkpt></trkseg></trk></gpx>